GFSGL_prec_precacc12_015.txt.gz
Total_Precipitation_Accumulation
0.00 0.00 0.00 0.00 0.00 0.00 0.00 0.00 0.00 0.00 0.01 0.05 0.09 0.08 0.03 0.00 0.00 0.00 0.00 0.00 0.00 0.00 0.00 0.00 0.00 0.00 0.00 0.00 0.00 0.00 0.00 0.00 0.01 0.00 0.00 0.00 0.00 0.01 0.01 0.01 0.00 0.01 0.02
0.00 0.00 0.00 0.00 0.00 0.00 0.00 0.00 0.00 0.00 0.00 0.00 0.00 0.00 0.00 0.00 0.00 0.00 0.00 0.00 0.00 0.00 0.00 0.00 0.00 0.00 0.00 0.00 0.00 0.00 0.00 0.00 0.01 0.00 0.00 0.00 0.00 0.00 0.00 0.00 0.00 0.00 0.00
0.00 0.00 0.00 0.00 0.00 0.00 0.00 0.00 0.00 0.00 0.00 0.00 0.00 0.00 0.00 0.00 0.00 0.00 0.00 0.00 0.00 0.00 0.00 0.00 0.00 0.00 0.00 0.00 0.00 0.00 0.00 0.00 0.01 0.01 0.00 0.00 0.00 0.00 0.00 0.00 0.01 0.01 0.00
0.00 0.00 0.00 0.00 0.00 0.00 0.00 0.00 0.00 0.00 0.00 0.00 0.00 0.00 0.00 0.00 0.00 0.00 0.00 0.00 0.00 0.00 0.00 0.00 0.00 0.00 0.00 0.00 0.00 0.00 0.00 0.01 0.01 0.01 0.00 0.00 0.00 0.00 0.00 0.01 0.01 0.00 0.00
0.00 0.00 0.00 0.00 0.00 0.00 0.00 0.00 0.00 0.00 0.00 0.00 0.00 0.00 0.00 0.00 0.00 0.00 0.00 0.00 0.00 0.00 0.00 0.00 0.00 0.00 0.00 0.00 0.00 0.00 0.00 0.00 0.00 0.01 0.01 0.01 0.01 0.01 0.01 0.01 0.02 0.01 0.00
0.00 0.00 0.02 0.05 0.10 0.13 0.11 0.06 0.01 0.00 0.00 0.00 0.00 0.00 0.00 0.00 0.00 0.00 0.00 0.00 0.00 0.00 0.00 0.00 0.00 0.00 0.00 0.00 0.00 0.00 0.00 0.00 0.00 0.01 0.01 0.02 0.01 0.01 0.02 0.02 0.04 0.03 0.01
0.01 0.03 0.06 0.10 0.12 0.06 0.01 0.00 0.00 0.00 0.00 0.00 0.00 0.00 0.00 0.00 0.00 0.00 0.00 0.00 0.00 0.00 0.00 0.00 0.00 0.00 0.00 0.00 0.00 0.00 0.00 0.00 0.00 0.00 0.02 0.01 0.01 0.01 0.02 0.04 0.05 0.05 0.03
0.01 0.02 0.01 0.00 0.00 0.00 0.00 0.00 0.00 0.00 0.00 0.00 0.00 0.00 0.00 0.00 0.00 0.00 0.00 0.00 0.00 0.00 0.00 0.00 0.00 0.00 0.00 0.00 0.01 0.03 0.02 0.00 0.00 0.00 0.00 0.00 0.00 0.00 0.00 0.01 0.02 0.06 0.03
0.01 0.00 0.00 0.00 0.00 0.00 0.00 0.00 0.00 0.00 0.00 0.00 0.00 0.00 0.00 0.00 0.00 0.00 0.00 0.01 0.03 0.01 0.00 0.01 0.01 0.02 0.01 0.01 0.06 0.16 0.07 0.02 0.01 0.01 0.01 0.00 0.00 0.00 0.00 0.03 0.06 0.11 0.09
0.00 0.00 0.00 0.00 0.00 0.00 0.00 0.00 0.00 0.00 0.00 0.00 0.00 0.00 0.00 0.00 0.00 0.00 0.01 0.07 0.11 0.05 0.03 0.02 0.01 0.01 0.01 0.02 0.12 0.17 0.16 0.03 0.00 0.00 0.01 0.01 0.01 0.01 0.02 0.07 0.09 0.11 0.11
0.00 0.00 0.00 0.00 0.00 0.00 0.00 0.00 0.00 0.00 0.00 0.00 0.00 0.00 0.00 0.00 0.00 0.01 0.02 0.07 0.10 0.10 0.03 0.01 0.01 0.02 0.05 0.08 0.10 0.18 0.12 0.02 0.02 0.02 0.02 0.02 0.01 0.00 0.00 0.01 0.03 0.11 0.14
0.00 0.00 0.00 0.00 0.00 0.00 0.00 0.00 0.00 0.00 0.00 0.00 0.00 0.00 0.00 0.00 0.00 0.01 0.02 0.03 0.05 0.21 0.11 0.04 0.03 0.05 0.07 0.07 0.07 0.07 0.05 0.09 0.15 0.13 0.10 0.05 0.06 0.02 0.00 0.00 0.00 0.01 0.04
0.00 0.00 0.00 0.00 0.00 0.00 0.00 0.00 0.00 0.00 0.00 0.00 0.01 0.00 0.00 0.00 0.00 0.00 0.00 0.01 0.05 0.13 0.09 0.07 0.05 0.04 0.04 0.03 0.02 0.03 0.05 0.13 0.14 0.13 0.09 0.04 0.02 0.03 0.02 0.04 0.06 0.04 0.04
0.00 0.00 0.00 0.00 0.00 0.00 0.00 0.00 0.00 0.00 0.00 0.01 0.00 0.01 0.01 0.00 0.00 0.01 0.05 0.04 0.06 0.05 0.03 0.02 0.02 0.03 0.04 0.06 0.09 0.08 0.14 0.21 0.19 0.14 0.07 0.04 0.07 0.10 0.09 0.07 0.11 0.13 0.15
0.00 0.00 0.00 0.00 0.00 0.00 0.00 0.00 0.00 0.00 0.00 0.01 0.02 0.07 0.08 0.06 0.03 0.13 0.14 0.18 0.15 0.07 0.04 0.03 0.02 0.01 0.01 0.02 0.05 0.03 0.02 0.05 0.09 0.08 0.07 0.07 0.13 0.10 0.10 0.15 0.17 0.14 0.21
0.00 0.00 0.00 0.00 0.00 0.00 0.00 0.00 0.00 0.00 0.00 0.01 0.03 0.08 0.04 0.06 0.11 0.10 0.10 0.14 0.07 0.03 0.03 0.02 0.02 0.02 0.04 0.05 0.07 0.08 0.03 0.03 0.02 0.01 0.03 0.06 0.11 0.17 0.09 0.07 0.10 0.17 0.13
0.00 0.00 0.00 0.00 0.00 0.00 0.00 0.00 0.00 0.00 0.00 0.00 0.02 0.02 0.04 0.09 0.12 0.09 0.09 0.08 0.06 0.03 0.02 0.03 0.02 0.04 0.04 0.05 0.07 0.10 0.11 0.12 0.06 0.06 0.08 0.13 0.08 0.11 0.19 0.11 0.11 0.18 0.18
0.00 0.00 0.00 0.00 0.00 0.00 0.00 0.00 0.00 0.01 0.01 0.00 0.01 0.01 0.02 0.08 0.11 0.08 0.07 0.04 0.03 0.03 0.03 0.04 0.04 0.04 0.05 0.04 0.04 0.06 0.07 0.09 0.08 0.09 0.15 0.09 0.06 0.02 0.06 0.09 0.09 0.08 0.10
0.00 0.00 0.00 0.00 0.00 0.00 0.00 0.00 0.00 0.00 0.00 0.01 0.01 0.00 0.01 0.06 0.08 0.06 0.05 0.06 0.07 0.06 0.05 0.04 0.06 0.05 0.03 0.04 0.03 0.03 0.05 0.06 0.07 0.10 0.13 0.10 0.04 0.02 0.02 0.02 0.03 0.03 0.04
0.00 0.00 0.00 0.00 0.00 0.00 0.00 0.00 0.00 0.00 0.01 0.02 0.03 0.03 0.03 0.03 0.04 0.06 0.08 0.08 0.07 0.07 0.06 0.06 0.05 0.05 0.05 0.04 0.03 0.02 0.02 0.03 0.03 0.04 0.06 0.06 0.05 0.05 0.04 0.04 0.04 0.04 0.04
0.00 0.00 0.00 0.00 0.00 0.00 0.00 0.00 0.00 0.00 0.01 0.03 0.05 0.06 0.06 0.07 0.09 0.09 0.10 0.09 0.09 0.08 0.06 0.07 0.06 0.04 0.04 0.04 0.04 0.03 0.02 0.03 0.03 0.03 0.03 0.06 0.07 0.08 0.07 0.04 0.04 0.03 0.03
0.00 0.00 0.00 0.00 0.00 0.00 0.00 0.00 0.01 0.01 0.01 0.02 0.04 0.04 0.05 0.06 0.08 0.08 0.09 0.10 0.09 0.09 0.07 0.06 0.05 0.05 0.06 0.06 0.06 0.04 0.04 0.04 0.03 0.03 0.04 0.06 0.07 0.08 0.07 0.05 0.04 0.04 0.05
0.01 0.01 0.01 0.00 0.00 0.00 0.00 0.00 0.01 0.01 0.00 0.02 0.03 0.04 0.04 0.06 0.07 0.08 0.08 0.09 0.06 0.04 0.04 0.03 0.03 0.03 0.04 0.04 0.05 0.06 0.08 0.09 0.09 0.04 0.03 0.02 0.03 0.04 0.04 0.05 0.06 0.04 0.04
0.01 0.01 0.01 0.01 0.00 0.01 0.00 0.00 0.00 0.01 0.01 0.01 0.02 0.04 0.04 0.06 0.06 0.07 0.08 0.07 0.04 0.03 0.01 0.01 0.01 0.01 0.01 0.02 0.02 0.03 0.05 0.06 0.05 0.05 0.04 0.04 0.04 0.05 0.06 0.06 0.07 0.07 0.08
0.02 0.02 0.01 0.01 0.01 0.01 0.00 0.00 0.00 0.00 0.01 0.01 0.01 0.03 0.04 0.05 0.05 0.06 0.06 0.05 0.02 0.01 0.00 0.00 0.00 0.00 0.00 0.00 0.00 0.00 0.01 0.01 0.01 0.01 0.01 0.01 0.02 0.02 0.03 0.04 0.05 0.06 0.07
0.01 0.02 0.01 0.01 0.01 0.01 0.00 0.00 0.00 0.00 0.01 0.01 0.01 0.01 0.03 0.04 0.05 0.04 0.03 0.01 0.00 0.00 0.00 0.00 0.00 0.00 0.00 0.00 0.00 0.00 0.00 0.00 0.00 0.00 0.00 0.00 0.00 0.00 0.00 0.00 0.01 0.01 0.01

GFSGL_prec_precacc12_018.txt.gz
Total_Precipitation_Accumulation
0.00 0.00 0.00 0.00 0.00 0.00 0.00 0.00 0.00 0.00 0.01 0.05 0.09 0.08 0.03 0.01 0.00 0.00 0.00 0.00 0.00 0.00 0.00 0.00 0.00 0.00 0.00 0.00 0.00 0.00 0.00 0.00 0.00 0.00 0.00 0.00 0.00 0.00 0.00 0.00 0.00 0.00 0.00
0.00 0.00 0.00 0.00 0.00 0.00 0.00 0.00 0.00 0.00 0.00 0.00 0.00 0.00 0.00 0.00 0.00 0.00 0.00 0.00 0.00 0.00 0.00 0.00 0.00 0.00 0.00 0.00 0.00 0.00 0.00 0.00 0.00 0.00 0.00 0.00 0.00 0.00 0.00 0.00 0.00 0.00 0.00
0.00 0.00 0.00 0.00 0.00 0.00 0.00 0.00 0.00 0.00 0.00 0.00 0.00 0.00 0.00 0.00 0.00 0.00 0.00 0.00 0.00 0.00 0.00 0.00 0.00 0.00 0.00 0.00 0.00 0.00 0.00 0.00 0.00 0.00 0.00 0.00 0.00 0.00 0.00 0.00 0.00 0.00 0.00
0.00 0.00 0.00 0.00 0.00 0.00 0.00 0.00 0.00 0.00 0.01 0.01 0.00 0.00 0.00 0.00 0.00 0.00 0.00 0.00 0.00 0.00 0.00 0.00 0.00 0.00 0.00 0.00 0.00 0.00 0.00 0.00 0.00 0.00 0.00 0.00 0.00 0.00 0.00 0.00 0.00 0.00 0.00
0.00 0.00 0.00 0.00 0.00 0.01 0.01 0.02 0.03 0.02 0.01 0.00 0.00 0.00 0.00 0.00 0.00 0.00 0.00 0.00 0.00 0.00 0.00 0.00 0.00 0.00 0.00 0.00 0.00 0.00 0.00 0.00 0.00 0.01 0.01 0.00 0.00 0.01 0.01 0.01 0.00 0.00 0.00
0.00 0.00 0.01 0.06 0.12 0.16 0.14 0.09 0.03 0.01 0.01 0.00 0.00 0.00 0.00 0.00 0.00 0.00 0.00 0.00 0.00 0.00 0.00 0.00 0.00 0.00 0.00 0.00 0.00 0.00 0.00 0.00 0.01 0.02 0.01 0.01 0.01 0.01 0.01 0.02 0.02 0.02 0.01
0.01 0.02 0.06 0.10 0.12 0.06 0.01 0.00 0.00 0.00 0.00 0.00 0.00 0.00 0.00 0.00 0.00 0.00 0.00 0.00 0.00 0.00 0.00 0.00 0.00 0.00 0.00 0.00 0.00 0.00 0.00 0.00 0.01 0.02 0.04 0.02 0.01 0.00 0.00 0.01 0.01 0.02 0.02
0.01 0.02 0.02 0.00 0.00 0.00 0.00 0.00 0.00 0.00 0.00 0.00 0.00 0.00 0.00 0.00 0.00 0.00 0.00 0.00 0.00 0.00 0.00 0.00 0.00 0.00 0.00 0.00 0.01 0.02 0.01 0.00 0.00 0.00 0.01 0.01 0.00 0.00 0.00 0.00 0.01 0.02 0.01
0.01 0.00 0.00 0.00 0.00 0.00 0.00 0.00 0.00 0.00 0.00 0.00 0.00 0.00 0.00 0.00 0.00 0.00 0.00 0.00 0.01 0.00 0.00 0.00 0.01 0.02 0.01 0.01 0.04 0.13 0.06 0.01 0.00 0.00 0.01 0.01 0.00 0.01 0.01 0.04 0.08 0.09 0.06
0.00 0.00 0.00 0.00 0.00 0.00 0.00 0.00 0.00 0.00 0.00 0.00 0.00 0.00 0.00 0.00 0.00 0.00 0.00 0.03 0.06 0.02 0.01 0.01 0.01 0.01 0.01 0.02 0.12 0.17 0.16 0.03 0.00 0.01 0.01 0.01 0.01 0.01 0.02 0.10 0.12 0.09 0.06
0.00 0.00 0.00 0.00 0.00 0.00 0.00 0.00 0.00 0.00 0.00 0.00 0.00 0.00 0.00 0.00 0.00 0.00 0.01 0.04 0.07 0.07 0.02 0.01 0.00 0.01 0.03 0.05 0.09 0.16 0.10 0.02 0.03 0.05 0.03 0.02 0.01 0.00 0.00 0.01 0.05 0.12 0.11
0.00 0.00 0.00 0.00 0.00 0.00 0.00 0.00 0.00 0.00 0.00 0.00 0.00 0.00 0.00 0.00 0.00 0.00 0.01 0.01 0.03 0.17 0.09 0.05 0.04 0.04 0.05 0.04 0.04 0.04 0.03 0.07 0.11 0.10 0.08 0.05 0.04 0.02 0.00 0.00 0.00 0.02 0.02
0.00 0.00 0.00 0.00 0.00 0.00 0.00 0.00 0.00 0.00 0.00 0.00 0.00 0.00 0.00 0.00 0.00 0.00 0.00 0.00 0.02 0.11 0.09 0.07 0.05 0.03 0.02 0.02 0.02 0.04 0.05 0.10 0.09 0.09 0.07 0.04 0.02 0.01 0.04 0.06 0.05 0.05 0.05
0.00 0.00 0.00 0.00 0.00 0.00 0.00 0.00 0.00 0.00 0.00 0.00 0.00 0.01 0.01 0.00 0.00 0.01 0.03 0.03 0.06 0.06 0.03 0.02 0.01 0.01 0.01 0.03 0.06 0.07 0.11 0.16 0.17 0.12 0.07 0.04 0.06 0.09 0.10 0.08 0.13 0.14 0.20
0.00 0.00 0.00 0.00 0.00 0.00 0.00 0.00 0.00 0.00 0.00 0.00 0.01 0.06 0.07 0.04 0.03 0.11 0.12 0.17 0.15 0.07 0.03 0.01 0.00 0.00 0.00 0.01 0.02 0.02 0.01 0.02 0.05 0.06 0.06 0.05 0.05 0.06 0.08 0.14 0.20 0.17 0.24
0.00 0.00 0.00 0.00 0.00 0.00 0.00 0.00 0.00 0.00 0.00 0.00 0.02 0.06 0.03 0.05 0.09 0.07 0.09 0.12 0.09 0.04 0.02 0.02 0.01 0.01 0.03 0.04 0.03 0.03 0.02 0.02 0.02 0.02 0.02 0.02 0.05 0.09 0.06 0.05 0.09 0.17 0.13
0.00 0.00 0.00 0.00 0.00 0.00 0.00 0.00 0.00 0.00 0.00 0.00 0.02 0.01 0.02 0.07 0.08 0.07 0.09 0.08 0.08 0.04 0.03 0.04 0.03 0.03 0.03 0.03 0.04 0.05 0.07 0.09 0.06 0.03 0.03 0.07 0.07 0.11 0.18 0.11 0.10 0.17 0.17
0.00 0.00 0.00 0.00 0.00 0.00 0.00 0.00 0.00 0.00 0.00 0.00 0.01 0.01 0.02 0.06 0.08 0.08 0.06 0.05 0.05 0.04 0.05 0.05 0.05 0.04 0.04 0.03 0.03 0.04 0.04 0.05 0.05 0.06 0.08 0.07 0.06 0.03 0.05 0.09 0.09 0.08 0.09
0.00 0.00 0.00 0.00 0.00 0.00 0.00 0.00 0.00 0.00 0.00 0.00 0.00 0.00 0.01 0.04 0.06 0.06 0.05 0.07 0.08 0.07 0.06 0.05 0.05 0.05 0.04 0.03 0.03 0.03 0.03 0.03 0.04 0.07 0.10 0.08 0.03 0.01 0.01 0.01 0.02 0.01 0.03
0.00 0.00 0.00 0.00 0.00 0.00 0.00 0.00 0.00 0.00 0.00 0.01 0.02 0.02 0.02 0.02 0.03 0.05 0.06 0.08 0.08 0.08 0.07 0.06 0.05 0.04 0.04 0.03 0.03 0.02 0.01 0.01 0.01 0.01 0.03 0.04 0.04 0.03 0.02 0.02 0.02 0.02 0.03
0.00 0.00 0.00 0.00 0.00 0.00 0.00 0.00 0.00 0.00 0.00 0.01 0.03 0.04 0.04 0.04 0.07 0.07 0.07 0.07 0.08 0.08 0.07 0.06 0.05 0.03 0.03 0.02 0.02 0.02 0.01 0.01 0.01 0.02 0.02 0.04 0.05 0.04 0.04 0.02 0.02 0.02 0.03
0.00 0.00 0.01 0.00 0.00 0.00 0.00 0.00 0.00 0.01 0.00 0.01 0.03 0.02 0.03 0.03 0.05 0.06 0.07 0.07 0.08 0.06 0.05 0.04 0.03 0.03 0.03 0.03 0.03 0.02 0.02 0.02 0.02 0.02 0.02 0.02 0.02 0.03 0.03 0.02 0.02 0.02 0.03
0.01 0.01 0.01 0.00 0.00 0.00 0.00 0.00 0.00 0.00 0.00 0.01 0.02 0.02 0.02 0.03 0.05 0.06 0.06 0.06 0.04 0.02 0.02 0.01 0.01 0.01 0.02 0.02 0.02 0.03 0.04 0.05 0.06 0.02 0.01 0.01 0.01 0.02 0.02 0.02 0.03 0.02 0.02
0.01 0.02 0.01 0.01 0.00 0.00 0.00 0.00 0.00 0.00 0.01 0.00 0.01 0.02 0.02 0.03 0.04 0.05 0.06 0.04 0.02 0.01 0.00 0.00 0.00 0.00 0.00 0.01 0.01 0.01 0.02 0.03 0.02 0.02 0.01 0.01 0.01 0.01 0.01 0.02 0.03 0.03 0.04
0.02 0.02 0.01 0.01 0.00 0.00 0.00 0.00 0.00 0.00 0.00 0.00 0.00 0.01 0.02 0.03 0.03 0.04 0.04 0.02 0.01 0.00 0.00 0.00 0.00 0.00 0.00 0.00 0.00 0.00 0.00 0.00 0.00 0.00 0.00 0.00 0.01 0.01 0.02 0.02 0.03 0.03 0.04
0.01 0.02 0.01 0.01 0.01 0.01 0.00 0.00 0.00 0.00 0.00 0.00 0.00 0.00 0.01 0.02 0.03 0.02 0.01 0.00 0.00 0.00 0.00 0.00 0.00 0.00 0.00 0.00 0.00 0.00 0.00 0.00 0.00 0.00 0.00 0.00 0.00 0.00 0.00 0.00 0.00 0.01 0.01

GFSGL_prec_precacc12_021.txt.gz
Total_Precipitation_Accumulation
0.00 0.00 0.00 0.00 0.00 0.00 0.00 0.00 0.00 0.00 0.00 0.04 0.08 0.07 0.03 0.02 0.01 0.00 0.00 0.00 0.00 0.00 0.00 0.00 0.00 0.00 0.00 0.00 0.00 0.00 0.00 0.00 0.00 0.00 0.00 0.00 0.00 0.00 0.00 0.00 0.00 0.00 0.00
0.00 0.00 0.00 0.00 0.00 0.00 0.00 0.00 0.00 0.00 0.00 0.00 0.00 0.03 0.05 0.03 0.00 0.00 0.00 0.00 0.00 0.00 0.00 0.00 0.00 0.00 0.00 0.00 0.00 0.00 0.00 0.00 0.00 0.00 0.00 0.00 0.00 0.00 0.00 0.00 0.00 0.00 0.00
0.00 0.00 0.00 0.00 0.00 0.00 0.00 0.00 0.00 0.00 0.00 0.02 0.05 0.03 0.01 0.00 0.00 0.00 0.00 0.00 0.00 0.00 0.00 0.00 0.00 0.00 0.00 0.00 0.00 0.00 0.00 0.00 0.00 0.00 0.00 0.00 0.00 0.00 0.00 0.00 0.00 0.00 0.00
0.00 0.00 0.00 0.00 0.00 0.00 0.00 0.00 0.00 0.00 0.02 0.02 0.01 0.00 0.00 0.00 0.00 0.00 0.00 0.00 0.00 0.00 0.00 0.00 0.00 0.00 0.00 0.00 0.00 0.00 0.00 0.00 0.00 0.00 0.00 0.00 0.00 0.00 0.00 0.00 0.00 0.00 0.00
0.00 0.00 0.00 0.00 0.00 0.01 0.01 0.02 0.03 0.03 0.01 0.01 0.00 0.00 0.00 0.00 0.00 0.00 0.00 0.00 0.00 0.00 0.00 0.00 0.00 0.00 0.00 0.00 0.00 0.00 0.00 0.00 0.01 0.01 0.01 0.00 0.00 0.01 0.01 0.00 0.00 0.00 0.00
0.00 0.00 0.01 0.06 0.14 0.17 0.15 0.09 0.03 0.01 0.01 0.00 0.00 0.00 0.00 0.00 0.00 0.00 0.00 0.00 0.00 0.00 0.00 0.00 0.00 0.00 0.00 0.00 0.00 0.00 0.00 0.01 0.02 0.03 0.02 0.01 0.01 0.00 0.01 0.02 0.01 0.02 0.01
0.01 0.02 0.05 0.09 0.12 0.07 0.01 0.00 0.00 0.00 0.00 0.00 0.00 0.00 0.00 0.00 0.00 0.00 0.00 0.00 0.00 0.00 0.00 0.00 0.00 0.00 0.00 0.00 0.00 0.00 0.00 0.01 0.01 0.03 0.05 0.03 0.01 0.00 0.00 0.02 0.01 0.02 0.02
0.00 0.01 0.01 0.00 0.00 0.00 0.00 0.00 0.00 0.00 0.00 0.00 0.00 0.00 0.00 0.00 0.00 0.00 0.00 0.00 0.00 0.00 0.00 0.00 0.00 0.00 0.00 0.00 0.01 0.03 0.01 0.01 0.00 0.00 0.01 0.01 0.00 0.00 0.01 0.01 0.01 0.02 0.01
0.01 0.00 0.00 0.00 0.00 0.00 0.00 0.00 0.00 0.00 0.00 0.00 0.00 0.00 0.00 0.00 0.00 0.00 0.00 0.00 0.00 0.00 0.00 0.00 0.00 0.01 0.00 0.01 0.05 0.10 0.05 0.01 0.00 0.00 0.01 0.01 0.01 0.01 0.01 0.08 0.13 0.11 0.06
0.00 0.00 0.00 0.00 0.00 0.00 0.00 0.00 0.00 0.00 0.00 0.00 0.00 0.00 0.00 0.00 0.00 0.00 0.00 0.01 0.02 0.01 0.00 0.00 0.00 0.00 0.01 0.02 0.10 0.14 0.14 0.02 0.01 0.01 0.01 0.01 0.01 0.02 0.03 0.15 0.16 0.12 0.06
0.00 0.00 0.00 0.00 0.00 0.00 0.00 0.00 0.00 0.00 0.00 0.00 0.00 0.00 0.00 0.00 0.00 0.00 0.00 0.02 0.04 0.06 0.01 0.00 0.01 0.01 0.04 0.05 0.06 0.10 0.07 0.03 0.04 0.05 0.04 0.03 0.02 0.01 0.00 0.01 0.06 0.14 0.13
0.00 0.00 0.00 0.00 0.00 0.00 0.00 0.00 0.00 0.00 0.00 0.00 0.00 0.00 0.00 0.00 0.00 0.00 0.00 0.01 0.02 0.14 0.08 0.05 0.05 0.04 0.04 0.02 0.02 0.03 0.04 0.06 0.08 0.07 0.07 0.05 0.05 0.02 0.00 0.00 0.01 0.03 0.04
0.00 0.00 0.00 0.00 0.00 0.00 0.00 0.00 0.00 0.00 0.00 0.00 0.00 0.00 0.00 0.00 0.00 0.00 0.00 0.01 0.01 0.09 0.10 0.07 0.04 0.01 0.00 0.00 0.01 0.04 0.05 0.06 0.07 0.08 0.05 0.03 0.03 0.02 0.04 0.05 0.04 0.06 0.08
0.00 0.00 0.00 0.00 0.00 0.00 0.00 0.00 0.00 0.00 0.00 0.00 0.00 0.01 0.01 0.00 0.00 0.02 0.03 0.02 0.05 0.07 0.04 0.04 0.01 0.00 0.00 0.02 0.05 0.06 0.09 0.12 0.14 0.11 0.06 0.04 0.06 0.08 0.09 0.05 0.09 0.08 0.17
0.00 0.00 0.00 0.00 0.00 0.00 0.00 0.00 0.00 0.00 0.00 0.00 0.01 0.05 0.05 0.03 0.03 0.11 0.09 0.13 0.16 0.08 0.06 0.03 0.01 0.00 0.00 0.01 0.02 0.02 0.01 0.01 0.02 0.04 0.05 0.04 0.04 0.04 0.03 0.05 0.12 0.13 0.17
0.00 0.00 0.00 0.00 0.00 0.00 0.00 0.00 0.00 0.00 0.00 0.00 0.01 0.03 0.01 0.03 0.08 0.06 0.08 0.12 0.09 0.06 0.05 0.03 0.02 0.02 0.02 0.02 0.02 0.01 0.00 0.02 0.03 0.03 0.02 0.02 0.02 0.02 0.02 0.02 0.05 0.13 0.10
0.00 0.00 0.00 0.00 0.00 0.00 0.00 0.00 0.00 0.00 0.00 0.00 0.01 0.00 0.01 0.04 0.06 0.07 0.08 0.10 0.09 0.05 0.05 0.05 0.05 0.04 0.03 0.03 0.03 0.03 0.05 0.06 0.06 0.04 0.04 0.04 0.04 0.07 0.11 0.08 0.06 0.15 0.16
0.00 0.00 0.00 0.00 0.00 0.00 0.00 0.00 0.00 0.00 0.00 0.00 0.00 0.00 0.01 0.04 0.06 0.06 0.06 0.05 0.06 0.06 0.06 0.06 0.06 0.06 0.04 0.03 0.03 0.02 0.02 0.02 0.02 0.04 0.05 0.05 0.04 0.02 0.03 0.04 0.07 0.08 0.08
0.00 0.00 0.00 0.00 0.00 0.00 0.00 0.00 0.00 0.00 0.00 0.00 0.00 0.00 0.00 0.02 0.04 0.05 0.05 0.06 0.09 0.08 0.07 0.06 0.06 0.05 0.05 0.04 0.03 0.03 0.03 0.03 0.03 0.04 0.05 0.05 0.03 0.01 0.01 0.01 0.02 0.01 0.02
0.00 0.00 0.00 0.00 0.00 0.00 0.00 0.00 0.00 0.00 0.00 0.00 0.01 0.01 0.01 0.01 0.02 0.03 0.05 0.06 0.08 0.09 0.08 0.07 0.07 0.06 0.04 0.03 0.03 0.02 0.01 0.01 0.01 0.01 0.02 0.03 0.03 0.02 0.01 0.01 0.01 0.01 0.01
0.00 0.00 0.00 0.00 0.01 0.00 0.00 0.00 0.00 0.00 0.00 0.00 0.01 0.01 0.02 0.03 0.04 0.05 0.06 0.06 0.07 0.08 0.07 0.06 0.04 0.03 0.02 0.01 0.01 0.01 0.01 0.01 0.01 0.02 0.01 0.02 0.02 0.02 0.02 0.01 0.01 0.01 0.02
0.01 0.01 0.01 0.01 0.00 0.00 0.00 0.00 0.00 0.01 0.00 0.00 0.01 0.00 0.01 0.02 0.04 0.04 0.05 0.05 0.05 0.04 0.03 0.03 0.02 0.02 0.02 0.02 0.02 0.01 0.01 0.01 0.02 0.01 0.01 0.01 0.01 0.01 0.01 0.01 0.00 0.00 0.01
0.01 0.02 0.02 0.00 0.00 0.00 0.00 0.00 0.00 0.00 0.00 0.00 0.00 0.00 0.01 0.02 0.03 0.04 0.04 0.04 0.02 0.01 0.00 0.00 0.00 0.00 0.01 0.01 0.01 0.02 0.02 0.02 0.03 0.02 0.01 0.00 0.00 0.00 0.00 0.00 0.01 0.01 0.00
0.02 0.02 0.01 0.01 0.00 0.00 0.00 0.00 0.00 0.00 0.00 0.00 0.00 0.00 0.01 0.02 0.02 0.03 0.04 0.02 0.00 0.00 0.00 0.00 0.00 0.00 0.00 0.00 0.00 0.00 0.01 0.01 0.00 0.00 0.00 0.00 0.00 0.00 0.00 0.01 0.01 0.01 0.01
0.02 0.02 0.02 0.01 0.01 0.01 0.01 0.00 0.00 0.00 0.00 0.00 0.00 0.00 0.01 0.01 0.02 0.02 0.02 0.01 0.00 0.00 0.00 0.00 0.00 0.00 0.00 0.00 0.00 0.00 0.00 0.00 0.00 0.00 0.00 0.00 0.00 0.00 0.00 0.00 0.00 0.01 0.01
0.01 0.02 0.02 0.02 0.02 0.01 0.01 0.00 0.00 0.00 0.00 0.00 0.00 0.00 0.00 0.01 0.01 0.01 0.00 0.00 0.00 0.00 0.00 0.00 0.00 0.00 0.00 0.00 0.00 0.00 0.00 0.00 0.00 0.00 0.00 0.00 0.00 0.00 0.00 0.00 0.00 0.00 0.00

GFSGL_prec_precacc12_024.txt.gz
Total_Precipitation_Accumulation
0.00 0.00 0.00 0.00 0.00 0.00 0.00 0.00 0.00 0.00 0.00 0.00 0.02 0.06 0.05 0.06 0.05 0.04 0.02 0.01 0.01 0.00 0.00 0.00 0.00 0.00 0.00 0.00 0.00 0.00 0.00 0.00 0.00 0.00 0.00 0.00 0.00 0.00 0.00 0.00 0.00 0.00 0.00
0.00 0.00 0.00 0.00 0.00 0.00 0.00 0.00 0.00 0.00 0.00 0.00 0.02 0.06 0.08 0.04 0.02 0.01 0.00 0.00 0.00 0.00 0.00 0.00 0.00 0.00 0.00 0.00 0.00 0.00 0.00 0.00 0.00 0.00 0.00 0.00 0.00 0.00 0.00 0.00 0.00 0.00 0.00
0.00 0.00 0.00 0.00 0.00 0.00 0.00 0.00 0.00 0.00 0.01 0.03 0.07 0.04 0.01 0.00 0.00 0.00 0.00 0.00 0.00 0.00 0.00 0.00 0.00 0.00 0.00 0.00 0.00 0.00 0.00 0.00 0.00 0.00 0.00 0.00 0.00 0.00 0.00 0.00 0.00 0.00 0.00
0.00 0.00 0.00 0.00 0.00 0.00 0.00 0.00 0.01 0.01 0.03 0.03 0.02 0.00 0.00 0.00 0.00 0.00 0.00 0.00 0.00 0.00 0.00 0.00 0.00 0.00 0.00 0.00 0.00 0.00 0.00 0.00 0.00 0.00 0.00 0.00 0.00 0.00 0.00 0.00 0.00 0.00 0.00
0.00 0.00 0.00 0.00 0.01 0.02 0.04 0.03 0.05 0.04 0.03 0.02 0.01 0.00 0.00 0.00 0.00 0.00 0.00 0.00 0.00 0.00 0.00 0.00 0.00 0.00 0.00 0.00 0.00 0.00 0.00 0.00 0.01 0.01 0.01 0.00 0.00 0.00 0.00 0.00 0.00 0.00 0.00
0.00 0.00 0.01 0.04 0.13 0.18 0.15 0.09 0.03 0.02 0.01 0.00 0.00 0.00 0.00 0.00 0.00 0.00 0.00 0.00 0.00 0.00 0.00 0.00 0.00 0.00 0.00 0.00 0.00 0.00 0.00 0.01 0.03 0.04 0.03 0.01 0.01 0.00 0.00 0.01 0.01 0.01 0.01
0.00 0.00 0.02 0.05 0.06 0.03 0.01 0.00 0.00 0.00 0.00 0.00 0.00 0.00 0.00 0.00 0.00 0.00 0.00 0.00 0.00 0.00 0.00 0.00 0.00 0.00 0.00 0.00 0.00 0.00 0.00 0.01 0.02 0.03 0.05 0.03 0.01 0.00 0.01 0.02 0.02 0.02 0.01
0.00 0.00 0.01 0.00 0.00 0.00 0.00 0.00 0.00 0.00 0.00 0.00 0.00 0.00 0.00 0.00 0.00 0.00 0.00 0.00 0.00 0.00 0.00 0.00 0.00 0.00 0.00 0.00 0.01 0.03 0.02 0.01 0.01 0.01 0.02 0.01 0.01 0.00 0.01 0.02 0.02 0.03 0.03
0.01 0.00 0.00 0.00 0.00 0.00 0.00 0.00 0.00 0.00 0.00 0.00 0.00 0.00 0.00 0.00 0.00 0.00 0.00 0.00 0.00 0.00 0.00 0.00 0.00 0.01 0.00 0.01 0.06 0.09 0.05 0.02 0.00 0.00 0.01 0.01 0.01 0.01 0.01 0.09 0.15 0.13 0.09
0.00 0.00 0.00 0.00 0.00 0.00 0.00 0.00 0.00 0.00 0.00 0.00 0.00 0.00 0.00 0.00 0.00 0.00 0.00 0.01 0.02 0.01 0.00 0.00 0.00 0.00 0.01 0.03 0.13 0.14 0.11 0.02 0.01 0.02 0.01 0.01 0.02 0.02 0.02 0.15 0.17 0.15 0.08
0.00 0.00 0.00 0.00 0.00 0.00 0.00 0.00 0.00 0.00 0.00 0.00 0.00 0.00 0.00 0.00 0.00 0.00 0.00 0.01 0.04 0.05 0.02 0.01 0.02 0.04 0.04 0.05 0.05 0.07 0.06 0.03 0.03 0.05 0.05 0.04 0.03 0.02 0.01 0.02 0.07 0.15 0.13
0.00 0.00 0.00 0.00 0.00 0.00 0.00 0.00 0.00 0.00 0.00 0.00 0.00 0.00 0.00 0.00 0.00 0.00 0.00 0.01 0.02 0.11 0.07 0.07 0.07 0.04 0.02 0.00 0.00 0.02 0.04 0.05 0.07 0.07 0.07 0.06 0.06 0.03 0.01 0.02 0.03 0.05 0.05
0.00 0.00 0.00 0.00 0.00 0.00 0.00 0.00 0.00 0.00 0.00 0.00 0.00 0.00 0.00 0.00 0.00 0.00 0.01 0.02 0.02 0.08 0.11 0.08 0.04 0.00 0.00 0.00 0.01 0.04 0.05 0.05 0.05 0.06 0.05 0.03 0.04 0.03 0.05 0.07 0.06 0.07 0.10
0.00 0.00 0.00 0.00 0.00 0.00 0.00 0.00 0.00 0.00 0.00 0.00 0.00 0.01 0.01 0.00 0.00 0.02 0.04 0.02 0.04 0.08 0.06 0.06 0.02 0.01 0.01 0.02 0.04 0.05 0.07 0.08 0.09 0.08 0.06 0.04 0.05 0.07 0.08 0.06 0.10 0.09 0.16
0.00 0.00 0.00 0.00 0.00 0.00 0.00 0.00 0.00 0.00 0.00 0.00 0.01 0.03 0.04 0.03 0.03 0.09 0.08 0.11 0.14 0.10 0.08 0.05 0.03 0.02 0.01 0.01 0.01 0.01 0.01 0.01 0.02 0.03 0.03 0.03 0.03 0.03 0.03 0.04 0.07 0.08 0.11
0.00 0.00 0.00 0.00 0.00 0.00 0.00 0.00 0.00 0.00 0.00 0.00 0.00 0.01 0.01 0.02 0.05 0.06 0.07 0.11 0.11 0.08 0.07 0.06 0.05 0.04 0.03 0.02 0.01 0.01 0.01 0.01 0.02 0.03 0.03 0.03 0.03 0.03 0.02 0.02 0.02 0.04 0.04
0.00 0.00 0.00 0.00 0.00 0.00 0.00 0.00 0.00 0.00 0.00 0.00 0.00 0.00 0.00 0.03 0.05 0.06 0.07 0.10 0.10 0.07 0.08 0.07 0.07 0.06 0.04 0.02 0.02 0.02 0.03 0.04 0.05 0.04 0.04 0.04 0.04 0.05 0.06 0.06 0.05 0.10 0.10
0.00 0.00 0.00 0.00 0.00 0.00 0.00 0.00 0.00 0.00 0.01 0.00 0.00 0.00 0.00 0.02 0.04 0.05 0.05 0.05 0.07 0.07 0.08 0.08 0.07 0.07 0.05 0.03 0.03 0.02 0.02 0.02 0.02 0.03 0.05 0.04 0.02 0.02 0.02 0.03 0.05 0.07 0.07
0.00 0.00 0.00 0.00 0.00 0.00 0.00 0.00 0.00 0.00 0.00 0.00 0.00 0.00 0.00 0.01 0.03 0.04 0.04 0.06 0.08 0.08 0.08 0.08 0.08 0.07 0.05 0.04 0.03 0.03 0.03 0.03 0.02 0.02 0.02 0.03 0.02 0.02 0.01 0.01 0.02 0.01 0.02
0.00 0.00 0.00 0.00 0.00 0.00 0.00 0.00 0.00 0.00 0.00 0.00 0.00 0.01 0.01 0.01 0.01 0.02 0.04 0.06 0.07 0.08 0.08 0.08 0.07 0.06 0.04 0.03 0.02 0.02 0.01 0.01 0.01 0.02 0.02 0.02 0.02 0.02 0.02 0.01 0.01 0.01 0.01
0.00 0.00 0.00 0.01 0.01 0.00 0.00 0.00 0.00 0.01 0.01 0.00 0.00 0.01 0.01 0.02 0.03 0.03 0.04 0.05 0.06 0.06 0.06 0.05 0.04 0.03 0.02 0.01 0.01 0.01 0.01 0.01 0.02 0.02 0.02 0.02 0.02 0.02 0.02 0.01 0.01 0.01 0.01
0.01 0.01 0.01 0.01 0.01 0.00 0.00 0.00 0.00 0.01 0.01 0.01 0.00 0.00 0.00 0.01 0.02 0.03 0.04 0.03 0.04 0.03 0.02 0.01 0.01 0.01 0.01 0.02 0.02 0.01 0.01 0.01 0.01 0.02 0.02 0.01 0.01 0.01 0.01 0.01 0.01 0.01 0.01
0.01 0.02 0.02 0.01 0.01 0.01 0.00 0.00 0.01 0.01 0.01 0.01 0.01 0.00 0.01 0.01 0.02 0.03 0.03 0.02 0.01 0.00 0.00 0.00 0.00 0.00 0.00 0.00 0.01 0.01 0.01 0.01 0.02 0.01 0.01 0.00 0.00 0.01 0.01 0.01 0.01 0.01 0.00
0.02 0.02 0.02 0.01 0.01 0.01 0.01 0.01 0.00 0.01 0.01 0.00 0.01 0.01 0.01 0.01 0.02 0.02 0.02 0.01 0.00 0.00 0.00 0.00 0.00 0.00 0.00 0.00 0.00 0.00 0.00 0.00 0.00 0.00 0.00 0.00 0.00 0.00 0.00 0.00 0.00 0.00 0.00
0.02 0.02 0.02 0.02 0.02 0.02 0.01 0.01 0.01 0.01 0.01 0.01 0.00 0.01 0.01 0.01 0.01 0.01 0.01 0.01 0.00 0.00 0.00 0.00 0.00 0.00 0.00 0.00 0.00 0.00 0.00 0.00 0.00 0.00 0.00 0.00 0.00 0.00 0.00 0.00 0.00 0.00 0.00
0.01 0.02 0.02 0.02 0.02 0.02 0.02 0.01 0.01 0.01 0.00 0.00 0.00 0.00 0.00 0.00 0.00 0.00 0.00 0.00 0.00 0.00 0.00 0.00 0.00 0.00 0.00 0.00 0.00 0.00 0.00 0.00 0.00 0.00 0.00 0.00 0.00 0.00 0.00 0.00 0.00 0.00 0.00

GFSGL_prec_precacc12_027.txt.gz
Total_Precipitation_Accumulation
0.00 0.00 0.00 0.00 0.00 0.00 0.00 0.00 0.00 0.00 0.00 0.00 0.00 0.00 0.03 0.06 0.06 0.04 0.03 0.02 0.01 0.01 0.01 0.01 0.00 0.00 0.00 0.00 0.00 0.00 0.00 0.00 0.00 0.00 0.00 0.00 0.00 0.00 0.00 0.00 0.00 0.00 0.00
0.00 0.00 0.00 0.00 0.00 0.00 0.00 0.00 0.00 0.00 0.00 0.01 0.02 0.07 0.09 0.05 0.02 0.02 0.02 0.00 0.00 0.00 0.00 0.00 0.00 0.00 0.00 0.00 0.00 0.00 0.00 0.00 0.00 0.00 0.00 0.00 0.00 0.00 0.00 0.00 0.00 0.00 0.00
0.00 0.00 0.00 0.00 0.00 0.00 0.00 0.00 0.00 0.01 0.03 0.06 0.10 0.06 0.02 0.00 0.00 0.00 0.00 0.00 0.00 0.00 0.00 0.00 0.00 0.00 0.00 0.00 0.00 0.00 0.00 0.00 0.00 0.00 0.00 0.00 0.00 0.00 0.00 0.00 0.00 0.00 0.00
0.00 0.00 0.00 0.00 0.00 0.01 0.01 0.01 0.03 0.04 0.05 0.06 0.04 0.01 0.00 0.00 0.00 0.00 0.00 0.00 0.00 0.00 0.00 0.00 0.00 0.00 0.00 0.00 0.00 0.00 0.00 0.00 0.00 0.00 0.00 0.00 0.00 0.00 0.00 0.00 0.00 0.00 0.00
0.00 0.00 0.00 0.01 0.01 0.03 0.04 0.04 0.06 0.05 0.04 0.02 0.01 0.00 0.00 0.00 0.00 0.00 0.00 0.00 0.00 0.00 0.00 0.00 0.00 0.00 0.00 0.00 0.00 0.00 0.00 0.00 0.01 0.01 0.01 0.00 0.00 0.00 0.00 0.00 0.00 0.00 0.00
0.00 0.00 0.01 0.01 0.04 0.08 0.07 0.04 0.02 0.02 0.01 0.00 0.00 0.00 0.00 0.00 0.00 0.00 0.00 0.00 0.00 0.00 0.00 0.00 0.00 0.00 0.00 0.00 0.00 0.00 0.00 0.01 0.03 0.04 0.03 0.01 0.01 0.00 0.01 0.01 0.01 0.02 0.02
0.00 0.00 0.01 0.02 0.02 0.01 0.00 0.00 0.00 0.00 0.00 0.00 0.00 0.00 0.00 0.00 0.00 0.00 0.00 0.00 0.00 0.00 0.00 0.00 0.00 0.00 0.00 0.00 0.00 0.00 0.00 0.01 0.02 0.03 0.05 0.02 0.01 0.01 0.01 0.02 0.03 0.03 0.02
0.00 0.00 0.01 0.00 0.00 0.00 0.00 0.00 0.00 0.00 0.00 0.00 0.00 0.00 0.00 0.00 0.00 0.00 0.00 0.00 0.00 0.00 0.00 0.00 0.00 0.00 0.00 0.01 0.02 0.03 0.02 0.02 0.01 0.01 0.03 0.03 0.02 0.02 0.03 0.03 0.03 0.04 0.04
0.00 0.00 0.00 0.00 0.00 0.00 0.00 0.00 0.00 0.00 0.00 0.00 0.00 0.00 0.00 0.00 0.00 0.00 0.00 0.00 0.00 0.00 0.00 0.00 0.01 0.01 0.01 0.02 0.07 0.09 0.05 0.02 0.01 0.00 0.01 0.01 0.01 0.01 0.02 0.09 0.15 0.15 0.10
0.00 0.00 0.00 0.00 0.00 0.00 0.00 0.00 0.00 0.00 0.00 0.00 0.00 0.00 0.00 0.00 0.00 0.00 0.00 0.01 0.02 0.02 0.01 0.01 0.01 0.01 0.02 0.04 0.12 0.12 0.10 0.03 0.01 0.02 0.01 0.01 0.02 0.03 0.02 0.12 0.15 0.15 0.09
0.00 0.00 0.00 0.00 0.00 0.00 0.00 0.00 0.00 0.00 0.00 0.00 0.00 0.00 0.01 0.01 0.01 0.00 0.00 0.01 0.05 0.06 0.02 0.02 0.03 0.11 0.08 0.04 0.03 0.03 0.04 0.03 0.03 0.04 0.04 0.03 0.03 0.03 0.02 0.03 0.07 0.13 0.13
0.00 0.00 0.00 0.00 0.00 0.00 0.00 0.00 0.00 0.00 0.00 0.01 0.01 0.01 0.01 0.01 0.01 0.00 0.00 0.02 0.03 0.09 0.06 0.08 0.10 0.04 0.01 0.00 0.00 0.02 0.04 0.04 0.06 0.07 0.07 0.06 0.07 0.06 0.04 0.04 0.06 0.07 0.08
0.00 0.00 0.00 0.00 0.00 0.00 0.00 0.00 0.00 0.00 0.00 0.00 0.01 0.01 0.01 0.01 0.00 0.00 0.01 0.02 0.02 0.06 0.11 0.10 0.06 0.02 0.01 0.01 0.02 0.03 0.04 0.06 0.06 0.06 0.05 0.04 0.05 0.04 0.06 0.08 0.07 0.09 0.10
0.00 0.00 0.00 0.00 0.00 0.00 0.00 0.00 0.00 0.00 0.00 0.00 0.01 0.01 0.01 0.01 0.01 0.02 0.03 0.02 0.03 0.08 0.07 0.07 0.05 0.03 0.02 0.03 0.04 0.04 0.06 0.08 0.07 0.07 0.05 0.04 0.05 0.05 0.07 0.06 0.10 0.10 0.16
0.00 0.00 0.00 0.00 0.00 0.00 0.00 0.00 0.00 0.00 0.00 0.00 0.01 0.02 0.03 0.03 0.02 0.06 0.07 0.09 0.12 0.09 0.09 0.08 0.05 0.04 0.04 0.03 0.02 0.02 0.03 0.02 0.03 0.04 0.04 0.03 0.03 0.04 0.05 0.04 0.05 0.07 0.11
0.01 0.00 0.00 0.00 0.00 0.00 0.00 0.00 0.00 0.00 0.00 0.00 0.00 0.01 0.01 0.02 0.04 0.05 0.05 0.08 0.10 0.08 0.09 0.08 0.07 0.07 0.06 0.04 0.03 0.02 0.02 0.02 0.02 0.03 0.04 0.04 0.03 0.04 0.03 0.03 0.03 0.04 0.03
0.01 0.00 0.00 0.00 0.00 0.00 0.00 0.00 0.00 0.00 0.00 0.00 0.00 0.00 0.00 0.01 0.03 0.04 0.05 0.07 0.09 0.06 0.09 0.09 0.10 0.09 0.07 0.04 0.03 0.02 0.03 0.03 0.04 0.04 0.04 0.04 0.03 0.04 0.03 0.04 0.04 0.08 0.08
0.00 0.00 0.00 0.00 0.00 0.00 0.00 0.01 0.01 0.01 0.01 0.01 0.01 0.00 0.00 0.01 0.03 0.04 0.03 0.04 0.07 0.06 0.08 0.09 0.09 0.09 0.07 0.04 0.02 0.02 0.02 0.03 0.03 0.03 0.04 0.04 0.02 0.02 0.02 0.02 0.03 0.04 0.04
0.00 0.00 0.00 0.00 0.01 0.01 0.01 0.01 0.01 0.01 0.01 0.00 0.00 0.00 0.00 0.00 0.02 0.03 0.03 0.05 0.06 0.07 0.08 0.08 0.08 0.07 0.05 0.04 0.03 0.03 0.03 0.04 0.03 0.02 0.03 0.03 0.03 0.03 0.02 0.01 0.01 0.01 0.02
0.00 0.00 0.00 0.01 0.01 0.01 0.01 0.00 0.00 0.01 0.00 0.01 0.01 0.01 0.00 0.00 0.01 0.02 0.03 0.05 0.06 0.06 0.06 0.06 0.05 0.05 0.04 0.03 0.02 0.02 0.01 0.01 0.02 0.02 0.02 0.03 0.03 0.03 0.03 0.02 0.02 0.01 0.02
0.00 0.00 0.00 0.01 0.01 0.01 0.00 0.00 0.00 0.01 0.01 0.01 0.00 0.01 0.00 0.01 0.02 0.03 0.03 0.03 0.04 0.04 0.04 0.03 0.02 0.02 0.02 0.01 0.01 0.01 0.01 0.01 0.01 0.02 0.02 0.02 0.03 0.03 0.02 0.02 0.02 0.02 0.02
0.01 0.01 0.01 0.01 0.01 0.01 0.01 0.00 0.01 0.01 0.01 0.01 0.01 0.00 0.00 0.01 0.02 0.02 0.03 0.02 0.02 0.01 0.01 0.00 0.00 0.00 0.01 0.01 0.01 0.01 0.01 0.01 0.01 0.01 0.02 0.02 0.02 0.01 0.02 0.02 0.01 0.01 0.01
0.01 0.02 0.02 0.01 0.01 0.01 0.01 0.01 0.02 0.02 0.02 0.01 0.01 0.00 0.01 0.01 0.02 0.02 0.02 0.01 0.00 0.00 0.00 0.00 0.00 0.00 0.00 0.00 0.00 0.01 0.01 0.00 0.01 0.01 0.01 0.00 0.01 0.01 0.01 0.01 0.01 0.01 0.01
0.01 0.02 0.02 0.01 0.02 0.01 0.02 0.02 0.01 0.02 0.01 0.01 0.02 0.01 0.01 0.01 0.01 0.01 0.01 0.01 0.00 0.00 0.00 0.00 0.00 0.00 0.00 0.00 0.00 0.00 0.00 0.00 0.00 0.00 0.00 0.00 0.00 0.00 0.00 0.00 0.00 0.00 0.00
0.02 0.02 0.03 0.03 0.03 0.03 0.03 0.02 0.02 0.02 0.02 0.02 0.01 0.01 0.01 0.00 0.01 0.01 0.01 0.01 0.00 0.00 0.00 0.00 0.00 0.00 0.00 0.00 0.00 0.00 0.00 0.00 0.00 0.00 0.00 0.00 0.00 0.00 0.00 0.00 0.00 0.00 0.00
0.02 0.02 0.03 0.03 0.03 0.03 0.03 0.02 0.02 0.02 0.02 0.02 0.02 0.01 0.01 0.00 0.00 0.00 0.00 0.00 0.00 0.00 0.00 0.00 0.00 0.00 0.00 0.00 0.00 0.00 0.00 0.00 0.00 0.00 0.00 0.00 0.00 0.00 0.00 0.00 0.00 0.00 0.00

GFSGL_prec_precacc12_033.txt.gz
Total_Precipitation_Accumulation
0.00 0.00 0.00 0.00 0.00 0.00 0.00 0.00 0.00 0.00 0.00 0.00 0.00 0.00 0.03 0.06 0.05 0.05 0.04 0.04 0.03 0.02 0.02 0.02 0.01 0.01 0.00 0.01 0.01 0.02 0.03 0.04 0.02 0.00 0.00 0.00 0.00 0.00 0.00 0.00 0.01 0.01 0.01
0.00 0.00 0.00 0.00 0.00 0.00 0.00 0.00 0.00 0.00 0.01 0.02 0.03 0.06 0.06 0.04 0.03 0.03 0.02 0.00 0.00 0.00 0.00 0.00 0.00 0.00 0.00 0.00 0.00 0.00 0.00 0.00 0.00 0.00 0.00 0.00 0.00 0.00 0.00 0.00 0.00 0.00 0.00
0.00 0.00 0.00 0.00 0.00 0.00 0.00 0.00 0.00 0.01 0.03 0.05 0.07 0.05 0.02 0.01 0.00 0.00 0.00 0.00 0.00 0.00 0.00 0.00 0.00 0.00 0.00 0.00 0.00 0.00 0.00 0.00 0.00 0.00 0.00 0.00 0.00 0.00 0.00 0.00 0.00 0.00 0.00
0.00 0.00 0.00 0.00 0.00 0.01 0.01 0.01 0.03 0.04 0.05 0.04 0.04 0.02 0.01 0.00 0.00 0.00 0.00 0.00 0.00 0.00 0.00 0.00 0.00 0.00 0.00 0.00 0.00 0.00 0.00 0.00 0.00 0.00 0.00 0.00 0.00 0.00 0.00 0.00 0.00 0.00 0.00
0.00 0.00 0.00 0.01 0.01 0.03 0.04 0.03 0.04 0.03 0.03 0.01 0.00 0.00 0.00 0.00 0.00 0.00 0.00 0.00 0.00 0.00 0.00 0.00 0.00 0.00 0.00 0.00 0.00 0.00 0.00 0.00 0.00 0.00 0.00 0.00 0.00 0.00 0.00 0.00 0.00 0.00 0.00
0.00 0.00 0.01 0.00 0.01 0.03 0.03 0.02 0.01 0.01 0.00 0.00 0.00 0.00 0.00 0.00 0.00 0.00 0.00 0.00 0.00 0.00 0.00 0.00 0.00 0.00 0.00 0.00 0.00 0.00 0.00 0.00 0.01 0.01 0.01 0.01 0.00 0.00 0.00 0.01 0.01 0.02 0.02
0.00 0.00 0.00 0.00 0.00 0.00 0.00 0.00 0.00 0.00 0.00 0.00 0.00 0.00 0.00 0.00 0.00 0.00 0.00 0.00 0.00 0.00 0.00 0.00 0.00 0.00 0.00 0.00 0.00 0.00 0.00 0.00 0.00 0.01 0.01 0.01 0.00 0.00 0.01 0.01 0.02 0.03 0.02
0.00 0.00 0.00 0.00 0.00 0.01 0.01 0.00 0.00 0.00 0.00 0.00 0.00 0.00 0.00 0.00 0.00 0.00 0.00 0.00 0.00 0.00 0.00 0.00 0.00 0.00 0.00 0.00 0.01 0.02 0.02 0.02 0.02 0.02 0.05 0.04 0.03 0.03 0.04 0.05 0.07 0.10 0.07
0.00 0.00 0.00 0.01 0.03 0.03 0.01 0.00 0.00 0.00 0.00 0.00 0.00 0.00 0.00 0.00 0.00 0.00 0.00 0.00 0.01 0.00 0.00 0.01 0.02 0.01 0.01 0.03 0.07 0.06 0.03 0.02 0.01 0.02 0.02 0.02 0.02 0.02 0.03 0.07 0.10 0.10 0.08
0.00 0.01 0.02 0.03 0.07 0.08 0.03 0.00 0.00 0.00 0.00 0.00 0.00 0.00 0.00 0.00 0.01 0.01 0.01 0.01 0.02 0.02 0.01 0.01 0.01 0.01 0.07 0.10 0.14 0.10 0.06 0.02 0.01 0.02 0.01 0.00 0.01 0.01 0.00 0.04 0.07 0.11 0.06
0.01 0.02 0.02 0.03 0.04 0.02 0.00 0.00 0.00 0.00 0.00 0.00 0.00 0.00 0.01 0.01 0.01 0.01 0.01 0.02 0.04 0.04 0.02 0.02 0.03 0.14 0.13 0.05 0.04 0.03 0.03 0.03 0.02 0.01 0.01 0.02 0.02 0.02 0.03 0.04 0.09 0.12 0.11
0.00 0.01 0.04 0.04 0.02 0.00 0.00 0.00 0.00 0.00 0.00 0.01 0.01 0.01 0.01 0.02 0.01 0.01 0.01 0.02 0.02 0.05 0.04 0.07 0.11 0.04 0.04 0.03 0.02 0.04 0.05 0.03 0.04 0.07 0.08 0.06 0.07 0.08 0.08 0.08 0.08 0.09 0.08
0.02 0.04 0.03 0.01 0.00 0.00 0.00 0.00 0.00 0.00 0.00 0.01 0.01 0.01 0.01 0.01 0.01 0.00 0.01 0.02 0.01 0.03 0.07 0.07 0.05 0.07 0.05 0.03 0.06 0.07 0.04 0.09 0.12 0.11 0.08 0.05 0.04 0.04 0.03 0.05 0.05 0.05 0.05
0.02 0.01 0.01 0.00 0.00 0.00 0.00 0.00 0.00 0.00 0.00 0.00 0.00 0.01 0.01 0.01 0.01 0.01 0.02 0.02 0.02 0.04 0.04 0.05 0.10 0.08 0.04 0.06 0.08 0.06 0.09 0.11 0.07 0.08 0.05 0.04 0.04 0.04 0.05 0.06 0.04 0.05 0.08
0.01 0.00 0.00 0.00 0.00 0.00 0.00 0.00 0.00 0.00 0.00 0.00 0.00 0.01 0.01 0.02 0.01 0.02 0.03 0.03 0.05 0.04 0.05 0.10 0.07 0.05 0.05 0.06 0.05 0.05 0.06 0.04 0.04 0.04 0.05 0.04 0.03 0.03 0.04 0.03 0.02 0.03 0.05
0.01 0.01 0.01 0.00 0.00 0.00 0.00 0.00 0.00 0.00 0.00 0.00 0.00 0.00 0.01 0.01 0.01 0.01 0.01 0.02 0.03 0.04 0.07 0.08 0.08 0.09 0.09 0.08 0.07 0.05 0.04 0.05 0.04 0.03 0.04 0.03 0.02 0.03 0.03 0.03 0.03 0.04 0.04
0.01 0.00 0.00 0.00 0.00 0.00 0.00 0.00 0.01 0.00 0.00 0.00 0.00 0.00 0.00 0.01 0.01 0.01 0.01 0.01 0.03 0.04 0.06 0.07 0.09 0.10 0.10 0.07 0.05 0.04 0.05 0.06 0.04 0.02 0.04 0.03 0.03 0.02 0.03 0.02 0.03 0.04 0.05
0.00 0.00 0.00 0.00 0.00 0.00 0.01 0.01 0.01 0.02 0.02 0.01 0.01 0.00 0.00 0.00 0.00 0.01 0.01 0.01 0.02 0.03 0.05 0.07 0.07 0.08 0.07 0.03 0.01 0.02 0.02 0.04 0.03 0.02 0.03 0.03 0.03 0.04 0.04 0.02 0.02 0.03 0.03
0.00 0.00 0.00 0.01 0.01 0.01 0.01 0.02 0.02 0.01 0.02 0.01 0.01 0.01 0.02 0.00 0.00 0.01 0.01 0.02 0.02 0.03 0.03 0.04 0.05 0.05 0.02 0.01 0.01 0.02 0.02 0.03 0.03 0.02 0.03 0.03 0.04 0.06 0.04 0.03 0.02 0.02 0.02
0.00 0.00 0.00 0.01 0.01 0.01 0.02 0.02 0.01 0.01 0.01 0.01 0.01 0.01 0.00 0.00 0.01 0.02 0.02 0.02 0.02 0.02 0.02 0.02 0.01 0.01 0.01 0.01 0.01 0.01 0.01 0.01 0.01 0.02 0.02 0.02 0.04 0.05 0.04 0.05 0.03 0.03 0.03
0.01 0.00 0.00 0.01 0.01 0.01 0.02 0.02 0.01 0.02 0.02 0.01 0.01 0.01 0.00 0.01 0.02 0.01 0.01 0.01 0.00 0.00 0.00 0.00 0.00 0.00 0.00 0.00 0.01 0.01 0.01 0.01 0.01 0.01 0.01 0.02 0.04 0.03 0.02 0.04 0.02 0.02 0.02
0.00 0.00 0.01 0.01 0.01 0.02 0.02 0.01 0.01 0.02 0.02 0.02 0.02 0.01 0.00 0.01 0.02 0.01 0.01 0.00 0.00 0.00 0.00 0.00 0.00 0.00 0.00 0.00 0.01 0.01 0.01 0.00 0.00 0.01 0.01 0.01 0.01 0.01 0.02 0.02 0.02 0.01 0.01
0.01 0.01 0.01 0.01 0.02 0.02 0.02 0.02 0.03 0.03 0.03 0.02 0.02 0.01 0.01 0.01 0.01 0.01 0.01 0.01 0.00 0.00 0.00 0.00 0.00 0.00 0.00 0.00 0.00 0.00 0.00 0.00 0.00 0.00 0.00 0.01 0.01 0.01 0.01 0.01 0.01 0.01 0.01
0.01 0.02 0.02 0.02 0.02 0.03 0.03 0.03 0.03 0.02 0.02 0.02 0.02 0.02 0.01 0.01 0.01 0.01 0.01 0.01 0.00 0.00 0.00 0.00 0.00 0.00 0.00 0.00 0.00 0.00 0.00 0.00 0.00 0.00 0.00 0.01 0.00 0.00 0.00 0.00 0.00 0.01 0.01
0.02 0.02 0.02 0.03 0.04 0.04 0.03 0.03 0.03 0.04 0.03 0.03 0.03 0.02 0.01 0.01 0.01 0.01 0.01 0.01 0.00 0.00 0.00 0.00 0.00 0.00 0.00 0.00 0.00 0.00 0.00 0.00 0.00 0.00 0.00 0.00 0.00 0.00 0.00 0.00 0.00 0.00 0.00
0.02 0.02 0.02 0.03 0.03 0.04 0.04 0.03 0.03 0.04 0.03 0.03 0.03 0.02 0.02 0.01 0.00 0.00 0.00 0.00 0.00 0.00 0.00 0.00 0.00 0.00 0.00 0.00 0.00 0.00 0.00 0.00 0.00 0.00 0.00 0.00 0.00 0.00 0.00 0.00 0.00 0.00 0.00

GFSGL_prec_precacc12_036.txt.gz
Total_Precipitation_Accumulation
0.00 0.00 0.00 0.00 0.00 0.00 0.00 0.00 0.00 0.00 0.00 0.00 0.00 0.00 0.01 0.02 0.02 0.02 0.03 0.03 0.03 0.02 0.01 0.01 0.01 0.01 0.01 0.01 0.01 0.02 0.04 0.04 0.02 0.00 0.00 0.00 0.00 0.00 0.00 0.00 0.01 0.02 0.02
0.00 0.00 0.00 0.00 0.00 0.00 0.00 0.00 0.00 0.00 0.00 0.01 0.02 0.03 0.03 0.03 0.02 0.02 0.02 0.00 0.00 0.00 0.00 0.00 0.00 0.00 0.00 0.00 0.00 0.00 0.00 0.00 0.00 0.00 0.00 0.00 0.00 0.00 0.00 0.00 0.00 0.00 0.00
0.00 0.00 0.00 0.00 0.00 0.00 0.00 0.00 0.00 0.01 0.03 0.04 0.05 0.04 0.02 0.01 0.00 0.00 0.00 0.00 0.00 0.00 0.00 0.00 0.00 0.00 0.00 0.00 0.00 0.00 0.00 0.00 0.00 0.00 0.00 0.00 0.00 0.00 0.00 0.00 0.00 0.00 0.00
0.00 0.00 0.00 0.00 0.00 0.01 0.01 0.01 0.02 0.03 0.04 0.03 0.03 0.01 0.00 0.00 0.00 0.00 0.00 0.00 0.00 0.00 0.00 0.00 0.00 0.00 0.00 0.00 0.00 0.00 0.00 0.00 0.00 0.00 0.00 0.00 0.00 0.00 0.00 0.00 0.00 0.00 0.00
0.00 0.00 0.00 0.00 0.00 0.01 0.01 0.02 0.02 0.02 0.01 0.00 0.00 0.00 0.00 0.00 0.00 0.00 0.00 0.00 0.00 0.00 0.00 0.00 0.00 0.00 0.00 0.00 0.01 0.00 0.00 0.00 0.00 0.00 0.00 0.00 0.00 0.00 0.00 0.00 0.00 0.00 0.00
0.00 0.00 0.00 0.00 0.00 0.01 0.01 0.01 0.00 0.01 0.01 0.00 0.00 0.00 0.00 0.00 0.00 0.00 0.00 0.00 0.00 0.00 0.00 0.00 0.00 0.00 0.00 0.00 0.00 0.00 0.00 0.00 0.00 0.00 0.01 0.00 0.00 0.00 0.00 0.00 0.01 0.01 0.01
0.00 0.00 0.00 0.00 0.00 0.00 0.00 0.02 0.07 0.08 0.01 0.00 0.00 0.00 0.00 0.00 0.00 0.00 0.00 0.00 0.00 0.00 0.00 0.00 0.00 0.00 0.00 0.00 0.00 0.00 0.00 0.00 0.01 0.01 0.02 0.00 0.00 0.00 0.00 0.00 0.01 0.01 0.01
0.00 0.00 0.00 0.00 0.00 0.01 0.05 0.08 0.07 0.04 0.01 0.00 0.00 0.00 0.00 0.00 0.00 0.00 0.00 0.00 0.00 0.00 0.00 0.00 0.00 0.00 0.00 0.00 0.01 0.01 0.01 0.01 0.01 0.02 0.05 0.03 0.02 0.02 0.04 0.04 0.06 0.09 0.06
0.00 0.00 0.00 0.01 0.03 0.05 0.06 0.09 0.05 0.01 0.00 0.00 0.00 0.00 0.00 0.00 0.00 0.00 0.00 0.00 0.00 0.00 0.00 0.01 0.01 0.01 0.01 0.04 0.08 0.06 0.02 0.01 0.01 0.02 0.03 0.03 0.03 0.03 0.03 0.08 0.10 0.08 0.05
0.00 0.01 0.02 0.03 0.07 0.10 0.07 0.01 0.00 0.00 0.00 0.00 0.00 0.00 0.00 0.00 0.01 0.01 0.01 0.01 0.01 0.01 0.01 0.01 0.01 0.01 0.07 0.10 0.11 0.09 0.06 0.01 0.01 0.01 0.00 0.00 0.00 0.00 0.00 0.02 0.03 0.06 0.03
0.01 0.02 0.02 0.03 0.04 0.03 0.01 0.00 0.00 0.00 0.00 0.00 0.00 0.00 0.01 0.01 0.01 0.01 0.01 0.01 0.03 0.03 0.02 0.01 0.02 0.12 0.13 0.06 0.05 0.05 0.04 0.04 0.03 0.02 0.01 0.01 0.02 0.03 0.04 0.06 0.11 0.17 0.13
0.00 0.01 0.04 0.04 0.02 0.01 0.00 0.00 0.00 0.00 0.00 0.00 0.01 0.01 0.01 0.01 0.01 0.01 0.01 0.01 0.02 0.03 0.03 0.04 0.09 0.06 0.05 0.04 0.04 0.07 0.07 0.05 0.05 0.08 0.09 0.07 0.09 0.10 0.09 0.09 0.08 0.08 0.08
0.02 0.04 0.03 0.01 0.01 0.00 0.00 0.00 0.00 0.00 0.00 0.00 0.01 0.01 0.01 0.01 0.00 0.00 0.00 0.01 0.01 0.02 0.04 0.06 0.06 0.08 0.05 0.03 0.07 0.08 0.05 0.10 0.13 0.12 0.10 0.07 0.06 0.06 0.05 0.05 0.04 0.04 0.03
0.02 0.01 0.01 0.00 0.00 0.00 0.00 0.00 0.00 0.00 0.00 0.00 0.00 0.00 0.00 0.00 0.00 0.00 0.01 0.01 0.01 0.02 0.02 0.02 0.09 0.07 0.04 0.07 0.09 0.07 0.11 0.12 0.08 0.08 0.06 0.04 0.04 0.04 0.04 0.05 0.03 0.03 0.06
0.01 0.00 0.00 0.00 0.01 0.00 0.00 0.00 0.00 0.00 0.00 0.00 0.00 0.00 0.00 0.01 0.00 0.00 0.02 0.02 0.02 0.03 0.03 0.07 0.06 0.03 0.05 0.06 0.06 0.06 0.07 0.04 0.04 0.04 0.05 0.04 0.02 0.02 0.04 0.03 0.02 0.02 0.03
0.02 0.01 0.01 0.00 0.00 0.00 0.00 0.00 0.00 0.00 0.00 0.00 0.00 0.00 0.00 0.00 0.00 0.01 0.01 0.01 0.01 0.02 0.05 0.06 0.05 0.06 0.08 0.08 0.08 0.06 0.05 0.06 0.05 0.04 0.04 0.03 0.02 0.02 0.02 0.02 0.03 0.04 0.03
0.02 0.01 0.00 0.00 0.00 0.00 0.00 0.00 0.00 0.00 0.00 0.00 0.00 0.00 0.00 0.00 0.00 0.00 0.01 0.01 0.01 0.02 0.03 0.04 0.06 0.07 0.08 0.07 0.05 0.04 0.05 0.07 0.04 0.03 0.05 0.04 0.03 0.03 0.03 0.01 0.01 0.03 0.04
0.01 0.01 0.00 0.00 0.00 0.00 0.00 0.01 0.01 0.01 0.01 0.01 0.01 0.00 0.00 0.00 0.00 0.00 0.01 0.00 0.01 0.02 0.02 0.04 0.05 0.06 0.05 0.02 0.01 0.01 0.02 0.03 0.02 0.02 0.04 0.04 0.04 0.05 0.04 0.02 0.01 0.02 0.02
0.00 0.00 0.00 0.00 0.01 0.01 0.01 0.01 0.02 0.02 0.02 0.01 0.01 0.01 0.02 0.00 0.00 0.01 0.01 0.01 0.01 0.01 0.01 0.02 0.03 0.03 0.01 0.00 0.01 0.01 0.02 0.02 0.02 0.02 0.02 0.03 0.04 0.06 0.04 0.03 0.02 0.02 0.02
0.00 0.00 0.00 0.00 0.01 0.01 0.02 0.02 0.01 0.01 0.01 0.01 0.01 0.01 0.00 0.00 0.01 0.01 0.01 0.01 0.01 0.00 0.00 0.00 0.00 0.00 0.00 0.00 0.01 0.01 0.00 0.01 0.01 0.01 0.01 0.02 0.03 0.04 0.04 0.05 0.02 0.02 0.02
0.00 0.00 0.00 0.00 0.01 0.01 0.02 0.01 0.01 0.02 0.01 0.01 0.01 0.01 0.00 0.00 0.01 0.01 0.01 0.01 0.00 0.00 0.00 0.00 0.00 0.00 0.00 0.00 0.01 0.00 0.00 0.00 0.00 0.00 0.01 0.01 0.03 0.02 0.02 0.03 0.02 0.01 0.01
0.00 0.00 0.00 0.01 0.01 0.02 0.02 0.01 0.01 0.01 0.02 0.02 0.01 0.01 0.00 0.01 0.02 0.01 0.01 0.00 0.00 0.00 0.00 0.00 0.00 0.00 0.00 0.00 0.00 0.00 0.00 0.00 0.00 0.00 0.00 0.01 0.01 0.01 0.01 0.01 0.01 0.01 0.01
0.01 0.01 0.01 0.01 0.02 0.02 0.02 0.02 0.02 0.03 0.03 0.02 0.01 0.01 0.01 0.01 0.01 0.01 0.01 0.01 0.00 0.00 0.00 0.00 0.00 0.00 0.00 0.00 0.00 0.00 0.00 0.00 0.00 0.00 0.00 0.01 0.00 0.00 0.00 0.01 0.01 0.01 0.01
0.01 0.01 0.01 0.01 0.02 0.02 0.03 0.03 0.03 0.02 0.01 0.01 0.02 0.01 0.01 0.01 0.01 0.01 0.01 0.01 0.00 0.00 0.00 0.00 0.00 0.00 0.00 0.00 0.00 0.00 0.00 0.00 0.00 0.00 0.00 0.01 0.00 0.00 0.00 0.00 0.00 0.00 0.00
0.01 0.01 0.02 0.02 0.03 0.03 0.03 0.03 0.03 0.03 0.03 0.03 0.03 0.02 0.01 0.01 0.01 0.00 0.00 0.00 0.00 0.00 0.00 0.00 0.00 0.00 0.00 0.00 0.00 0.00 0.00 0.00 0.00 0.00 0.00 0.00 0.00 0.00 0.00 0.00 0.00 0.00 0.00
0.02 0.02 0.02 0.02 0.03 0.03 0.03 0.03 0.03 0.03 0.03 0.03 0.03 0.02 0.01 0.01 0.00 0.00 0.00 0.00 0.00 0.00 0.00 0.00 0.00 0.00 0.00 0.00 0.00 0.00 0.00 0.00 0.00 0.00 0.00 0.00 0.00 0.00 0.00 0.00 0.00 0.00 0.00

GFSGL_prec_precacc12_039.txt.gz
Total_Precipitation_Accumulation
0.00 0.00 0.00 0.00 0.00 0.00 0.00 0.00 0.00 0.00 0.00 0.00 0.00 0.00 0.01 0.01 0.01 0.01 0.02 0.02 0.02 0.02 0.01 0.01 0.01 0.01 0.00 0.00 0.01 0.02 0.04 0.04 0.02 0.00 0.00 0.00 0.00 0.00 0.00 0.00 0.01 0.02 0.02
0.00 0.00 0.00 0.00 0.00 0.00 0.00 0.00 0.00 0.00 0.00 0.01 0.01 0.02 0.02 0.02 0.02 0.01 0.00 0.00 0.00 0.00 0.00 0.00 0.00 0.00 0.00 0.00 0.00 0.00 0.00 0.00 0.00 0.00 0.00 0.00 0.00 0.00 0.00 0.00 0.00 0.00 0.00
0.00 0.00 0.00 0.00 0.00 0.00 0.00 0.00 0.00 0.00 0.01 0.02 0.03 0.02 0.01 0.00 0.00 0.00 0.00 0.00 0.00 0.00 0.00 0.00 0.00 0.00 0.00 0.00 0.00 0.00 0.00 0.00 0.00 0.00 0.00 0.00 0.00 0.00 0.00 0.00 0.00 0.00 0.00
0.00 0.00 0.00 0.00 0.00 0.00 0.00 0.00 0.00 0.02 0.02 0.01 0.01 0.01 0.00 0.00 0.00 0.00 0.00 0.00 0.00 0.00 0.00 0.00 0.00 0.00 0.00 0.00 0.00 0.00 0.00 0.00 0.00 0.00 0.00 0.00 0.00 0.00 0.00 0.00 0.00 0.00 0.00
0.00 0.00 0.00 0.00 0.00 0.00 0.00 0.01 0.01 0.02 0.00 0.01 0.02 0.00 0.00 0.00 0.00 0.00 0.00 0.00 0.00 0.00 0.00 0.00 0.00 0.00 0.00 0.00 0.01 0.00 0.00 0.00 0.00 0.00 0.00 0.00 0.00 0.00 0.00 0.00 0.00 0.00 0.00
0.00 0.00 0.00 0.00 0.00 0.00 0.00 0.01 0.01 0.01 0.04 0.05 0.01 0.00 0.00 0.00 0.00 0.00 0.00 0.00 0.00 0.00 0.00 0.00 0.00 0.00 0.00 0.00 0.00 0.00 0.00 0.01 0.01 0.01 0.01 0.00 0.00 0.00 0.00 0.00 0.00 0.00 0.00
0.00 0.00 0.00 0.00 0.00 0.00 0.00 0.02 0.07 0.09 0.06 0.03 0.00 0.00 0.00 0.00 0.00 0.00 0.00 0.00 0.00 0.00 0.00 0.00 0.00 0.00 0.00 0.00 0.00 0.00 0.00 0.00 0.01 0.01 0.02 0.01 0.00 0.00 0.00 0.00 0.00 0.00 0.00
0.00 0.00 0.00 0.00 0.00 0.01 0.05 0.08 0.08 0.06 0.03 0.00 0.00 0.00 0.00 0.00 0.00 0.00 0.00 0.00 0.00 0.00 0.00 0.00 0.00 0.00 0.00 0.00 0.01 0.02 0.01 0.00 0.01 0.01 0.03 0.02 0.02 0.01 0.02 0.03 0.05 0.08 0.05
0.00 0.00 0.00 0.01 0.03 0.05 0.06 0.09 0.06 0.01 0.00 0.00 0.00 0.00 0.00 0.00 0.00 0.00 0.00 0.00 0.00 0.00 0.00 0.00 0.01 0.01 0.01 0.03 0.07 0.04 0.01 0.00 0.00 0.02 0.02 0.03 0.03 0.04 0.05 0.09 0.08 0.05 0.03
0.00 0.01 0.02 0.03 0.07 0.10 0.07 0.01 0.00 0.00 0.00 0.00 0.00 0.00 0.00 0.00 0.00 0.01 0.01 0.01 0.00 0.00 0.00 0.00 0.00 0.01 0.06 0.10 0.12 0.09 0.05 0.00 0.00 0.01 0.00 0.00 0.00 0.00 0.00 0.01 0.01 0.03 0.01
0.01 0.02 0.02 0.03 0.04 0.03 0.01 0.00 0.00 0.00 0.00 0.00 0.00 0.00 0.00 0.00 0.00 0.01 0.00 0.01 0.01 0.02 0.01 0.00 0.00 0.05 0.11 0.06 0.06 0.07 0.08 0.05 0.03 0.02 0.02 0.02 0.03 0.03 0.04 0.06 0.11 0.16 0.11
0.00 0.01 0.04 0.04 0.02 0.01 0.00 0.00 0.00 0.00 0.00 0.00 0.00 0.00 0.00 0.00 0.00 0.00 0.01 0.00 0.00 0.01 0.01 0.02 0.06 0.05 0.05 0.04 0.04 0.09 0.08 0.05 0.05 0.08 0.10 0.08 0.09 0.10 0.10 0.09 0.07 0.07 0.05
0.02 0.04 0.03 0.01 0.01 0.00 0.00 0.00 0.00 0.00 0.00 0.00 0.00 0.00 0.00 0.00 0.00 0.00 0.00 0.00 0.01 0.01 0.02 0.04 0.05 0.07 0.04 0.03 0.07 0.09 0.06 0.09 0.12 0.11 0.09 0.08 0.06 0.07 0.06 0.07 0.07 0.06 0.02
0.03 0.02 0.01 0.00 0.00 0.00 0.00 0.00 0.00 0.00 0.00 0.00 0.00 0.00 0.00 0.00 0.00 0.00 0.00 0.00 0.00 0.01 0.00 0.01 0.06 0.05 0.02 0.05 0.07 0.06 0.10 0.11 0.08 0.09 0.07 0.05 0.04 0.03 0.04 0.07 0.03 0.02 0.02
0.01 0.01 0.01 0.00 0.02 0.01 0.00 0.00 0.00 0.00 0.00 0.00 0.00 0.00 0.00 0.00 0.00 0.00 0.01 0.01 0.01 0.02 0.01 0.04 0.03 0.01 0.02 0.03 0.04 0.05 0.07 0.05 0.04 0.04 0.05 0.04 0.02 0.02 0.03 0.03 0.02 0.01 0.01
0.01 0.02 0.02 0.01 0.01 0.00 0.00 0.00 0.00 0.00 0.00 0.00 0.00 0.00 0.00 0.00 0.00 0.00 0.01 0.01 0.01 0.01 0.02 0.03 0.03 0.03 0.05 0.06 0.06 0.04 0.04 0.05 0.04 0.04 0.04 0.03 0.02 0.03 0.03 0.00 0.01 0.02 0.02
0.02 0.04 0.01 0.01 0.00 0.00 0.00 0.00 0.00 0.00 0.00 0.00 0.00 0.00 0.00 0.00 0.00 0.00 0.00 0.00 0.01 0.02 0.02 0.02 0.03 0.04 0.05 0.05 0.03 0.03 0.04 0.05 0.03 0.03 0.05 0.04 0.04 0.03 0.04 0.01 0.00 0.00 0.01
0.01 0.02 0.01 0.00 0.00 0.00 0.00 0.01 0.01 0.01 0.01 0.00 0.01 0.00 0.00 0.00 0.00 0.00 0.00 0.00 0.00 0.01 0.01 0.02 0.03 0.04 0.03 0.01 0.01 0.01 0.01 0.02 0.01 0.01 0.03 0.04 0.04 0.05 0.04 0.02 0.01 0.02 0.01
0.00 0.00 0.00 0.01 0.00 0.01 0.01 0.01 0.01 0.02 0.01 0.01 0.00 0.01 0.02 0.00 0.00 0.00 0.01 0.00 0.00 0.00 0.00 0.01 0.02 0.02 0.01 0.00 0.00 0.00 0.01 0.01 0.01 0.01 0.01 0.02 0.03 0.05 0.04 0.03 0.01 0.02 0.01
0.00 0.00 0.00 0.00 0.00 0.01 0.01 0.01 0.01 0.01 0.01 0.01 0.00 0.01 0.00 0.00 0.00 0.00 0.00 0.00 0.00 0.00 0.00 0.00 0.00 0.00 0.00 0.00 0.00 0.00 0.00 0.00 0.00 0.00 0.00 0.01 0.02 0.03 0.03 0.04 0.02 0.01 0.01
0.00 0.00 0.00 0.00 0.01 0.01 0.01 0.01 0.01 0.01 0.01 0.00 0.01 0.01 0.00 0.00 0.00 0.00 0.00 0.00 0.00 0.00 0.00 0.00 0.00 0.00 0.00 0.00 0.00 0.00 0.00 0.00 0.00 0.00 0.00 0.00 0.01 0.01 0.01 0.02 0.01 0.01 0.01
0.00 0.00 0.00 0.01 0.01 0.01 0.01 0.01 0.00 0.01 0.01 0.02 0.01 0.00 0.00 0.00 0.01 0.00 0.00 0.00 0.00 0.00 0.00 0.00 0.00 0.00 0.00 0.00 0.00 0.00 0.00 0.00 0.00 0.00 0.00 0.00 0.00 0.00 0.00 0.00 0.00 0.00 0.00
0.00 0.01 0.01 0.00 0.01 0.01 0.01 0.01 0.01 0.01 0.02 0.02 0.01 0.01 0.00 0.01 0.01 0.00 0.00 0.00 0.00 0.00 0.00 0.00 0.00 0.00 0.00 0.00 0.00 0.00 0.00 0.00 0.00 0.00 0.00 0.00 0.00 0.00 0.00 0.00 0.00 0.00 0.00
0.00 0.01 0.01 0.01 0.01 0.01 0.02 0.02 0.02 0.01 0.01 0.00 0.01 0.01 0.00 0.01 0.00 0.00 0.00 0.00 0.00 0.00 0.00 0.00 0.00 0.00 0.00 0.00 0.00 0.00 0.00 0.00 0.00 0.00 0.00 0.01 0.00 0.00 0.00 0.00 0.00 0.00 0.00
0.01 0.00 0.01 0.01 0.01 0.02 0.01 0.01 0.02 0.01 0.01 0.02 0.02 0.02 0.01 0.00 0.00 0.00 0.00 0.00 0.00 0.00 0.00 0.00 0.00 0.00 0.00 0.00 0.00 0.00 0.00 0.00 0.00 0.00 0.00 0.00 0.00 0.00 0.00 0.00 0.00 0.00 0.00
0.02 0.02 0.01 0.02 0.02 0.02 0.02 0.02 0.01 0.02 0.01 0.02 0.02 0.01 0.01 0.01 0.00 0.00 0.00 0.00 0.00 0.00 0.00 0.00 0.00 0.00 0.00 0.00 0.00 0.00 0.00 0.00 0.00 0.00 0.00 0.00 0.00 0.00 0.00 0.00 0.00 0.00 0.00

GFSGL_prec_precacc12_045.txt.gz
Total_Precipitation_Accumulation
0.00 0.00 0.00 0.00 0.00 0.00 0.00 0.00 0.00 0.00 0.00 0.00 0.00 0.00 0.00 0.00 0.01 0.01 0.01 0.00 0.00 0.00 0.00 0.00 0.00 0.00 0.00 0.00 0.00 0.00 0.00 0.00 0.00 0.00 0.00 0.00 0.00 0.00 0.00 0.00 0.00 0.00 0.01
0.00 0.00 0.00 0.00 0.00 0.00 0.00 0.00 0.00 0.00 0.00 0.00 0.00 0.00 0.00 0.00 0.00 0.00 0.00 0.00 0.00 0.00 0.00 0.00 0.00 0.00 0.00 0.00 0.00 0.00 0.00 0.00 0.00 0.00 0.00 0.00 0.00 0.00 0.00 0.00 0.00 0.00 0.00
0.00 0.00 0.00 0.00 0.00 0.00 0.00 0.00 0.00 0.00 0.00 0.00 0.00 0.00 0.01 0.00 0.00 0.00 0.00 0.00 0.00 0.00 0.00 0.00 0.00 0.00 0.00 0.00 0.00 0.00 0.00 0.00 0.00 0.02 0.01 0.00 0.00 0.00 0.00 0.00 0.00 0.00 0.00
0.00 0.00 0.00 0.00 0.00 0.00 0.00 0.00 0.00 0.00 0.00 0.00 0.00 0.01 0.01 0.01 0.01 0.01 0.00 0.00 0.00 0.00 0.00 0.00 0.00 0.00 0.00 0.00 0.00 0.00 0.00 0.01 0.01 0.01 0.01 0.00 0.00 0.00 0.00 0.00 0.00 0.00 0.00
0.00 0.00 0.00 0.00 0.00 0.00 0.00 0.00 0.01 0.01 0.00 0.01 0.02 0.02 0.03 0.03 0.01 0.00 0.00 0.00 0.00 0.00 0.00 0.00 0.00 0.00 0.00 0.00 0.01 0.00 0.01 0.01 0.01 0.01 0.01 0.00 0.00 0.00 0.00 0.00 0.00 0.00 0.00
0.00 0.00 0.00 0.00 0.00 0.00 0.00 0.01 0.01 0.01 0.04 0.06 0.04 0.04 0.01 0.00 0.00 0.00 0.00 0.00 0.00 0.00 0.00 0.00 0.00 0.00 0.00 0.00 0.00 0.00 0.01 0.02 0.03 0.03 0.03 0.02 0.01 0.00 0.00 0.01 0.01 0.01 0.00
0.00 0.00 0.00 0.00 0.00 0.00 0.00 0.02 0.07 0.09 0.06 0.03 0.01 0.00 0.00 0.00 0.00 0.00 0.00 0.00 0.00 0.00 0.00 0.00 0.00 0.00 0.00 0.00 0.00 0.00 0.00 0.01 0.03 0.07 0.10 0.04 0.02 0.01 0.02 0.02 0.01 0.01 0.01
0.00 0.00 0.00 0.00 0.00 0.00 0.03 0.08 0.08 0.06 0.03 0.00 0.00 0.00 0.00 0.00 0.00 0.00 0.00 0.00 0.00 0.00 0.00 0.00 0.00 0.00 0.00 0.01 0.02 0.03 0.01 0.00 0.00 0.01 0.04 0.02 0.01 0.01 0.02 0.02 0.02 0.03 0.02
0.00 0.00 0.00 0.00 0.00 0.01 0.05 0.09 0.06 0.01 0.00 0.00 0.00 0.00 0.00 0.00 0.00 0.00 0.00 0.00 0.00 0.00 0.00 0.00 0.00 0.00 0.00 0.03 0.10 0.06 0.01 0.00 0.00 0.00 0.02 0.03 0.04 0.05 0.07 0.15 0.13 0.11 0.05
0.00 0.00 0.00 0.00 0.00 0.02 0.04 0.01 0.00 0.00 0.00 0.00 0.00 0.00 0.00 0.00 0.00 0.00 0.00 0.00 0.00 0.00 0.00 0.00 0.00 0.01 0.02 0.05 0.08 0.07 0.04 0.02 0.00 0.00 0.00 0.01 0.01 0.02 0.01 0.03 0.02 0.03 0.03
0.00 0.00 0.00 0.00 0.00 0.01 0.01 0.00 0.00 0.00 0.02 0.02 0.00 0.00 0.00 0.00 0.00 0.00 0.00 0.00 0.00 0.00 0.00 0.00 0.00 0.01 0.04 0.04 0.05 0.08 0.13 0.06 0.03 0.04 0.04 0.04 0.06 0.08 0.10 0.11 0.10 0.12 0.06
0.00 0.00 0.00 0.00 0.00 0.00 0.00 0.00 0.00 0.02 0.02 0.00 0.00 0.00 0.00 0.00 0.00 0.00 0.00 0.00 0.01 0.00 0.00 0.00 0.02 0.04 0.02 0.02 0.03 0.08 0.07 0.03 0.04 0.06 0.07 0.06 0.08 0.09 0.10 0.13 0.13 0.10 0.04
0.00 0.00 0.00 0.00 0.00 0.00 0.00 0.00 0.00 0.00 0.00 0.00 0.00 0.00 0.00 0.00 0.00 0.00 0.00 0.00 0.00 0.00 0.00 0.02 0.03 0.01 0.00 0.01 0.03 0.04 0.03 0.04 0.04 0.04 0.05 0.05 0.05 0.06 0.06 0.06 0.11 0.16 0.08
0.00 0.01 0.00 0.00 0.00 0.01 0.01 0.01 0.00 0.00 0.00 0.00 0.00 0.00 0.00 0.00 0.00 0.00 0.00 0.00 0.00 0.00 0.00 0.00 0.00 0.00 0.00 0.01 0.02 0.02 0.04 0.05 0.06 0.07 0.06 0.04 0.03 0.03 0.05 0.06 0.05 0.09 0.12
0.01 0.01 0.01 0.00 0.02 0.02 0.00 0.00 0.00 0.00 0.00 0.00 0.00 0.00 0.00 0.00 0.00 0.00 0.01 0.00 0.00 0.01 0.00 0.00 0.00 0.00 0.00 0.01 0.01 0.02 0.03 0.02 0.02 0.04 0.04 0.03 0.03 0.04 0.06 0.05 0.03 0.02 0.02
0.01 0.02 0.02 0.01 0.02 0.00 0.00 0.00 0.00 0.00 0.00 0.00 0.00 0.00 0.00 0.00 0.00 0.00 0.00 0.00 0.00 0.00 0.00 0.00 0.00 0.00 0.01 0.01 0.01 0.01 0.01 0.02 0.01 0.02 0.03 0.04 0.04 0.04 0.04 0.02 0.01 0.01 0.01
0.02 0.05 0.02 0.01 0.01 0.00 0.00 0.00 0.00 0.00 0.00 0.00 0.00 0.00 0.00 0.00 0.00 0.00 0.00 0.00 0.00 0.00 0.00 0.00 0.00 0.01 0.01 0.01 0.00 0.00 0.01 0.01 0.01 0.02 0.03 0.04 0.04 0.03 0.03 0.01 0.00 0.00 0.00
0.01 0.02 0.02 0.01 0.01 0.01 0.00 0.00 0.00 0.00 0.00 0.00 0.00 0.00 0.00 0.00 0.00 0.00 0.00 0.00 0.00 0.00 0.00 0.00 0.01 0.01 0.00 0.00 0.00 0.00 0.00 0.00 0.00 0.00 0.02 0.02 0.02 0.03 0.03 0.02 0.01 0.01 0.00
0.00 0.00 0.00 0.01 0.01 0.00 0.00 0.00 0.00 0.01 0.01 0.00 0.00 0.00 0.00 0.00 0.00 0.00 0.00 0.00 0.00 0.00 0.00 0.00 0.00 0.00 0.00 0.00 0.00 0.00 0.00 0.00 0.00 0.00 0.00 0.01 0.01 0.01 0.02 0.02 0.01 0.01 0.00
0.00 0.00 0.00 0.00 0.00 0.00 0.00 0.00 0.00 0.00 0.01 0.00 0.00 0.00 0.00 0.00 0.00 0.00 0.00 0.00 0.00 0.00 0.00 0.00 0.00 0.00 0.00 0.00 0.00 0.00 0.00 0.00 0.00 0.00 0.00 0.00 0.00 0.01 0.01 0.01 0.01 0.00 0.00
0.00 0.00 0.00 0.00 0.00 0.00 0.00 0.00 0.00 0.00 0.00 0.00 0.00 0.00 0.00 0.02 0.00 0.00 0.00 0.00 0.00 0.00 0.00 0.00 0.00 0.00 0.00 0.00 0.00 0.00 0.00 0.00 0.00 0.00 0.00 0.00 0.00 0.00 0.00 0.00 0.00 0.00 0.00
0.01 0.01 0.01 0.01 0.00 0.00 0.00 0.00 0.00 0.00 0.00 0.00 0.00 0.00 0.00 0.01 0.00 0.01 0.00 0.00 0.00 0.00 0.00 0.00 0.00 0.00 0.00 0.00 0.00 0.00 0.00 0.00 0.00 0.00 0.00 0.00 0.00 0.00 0.00 0.00 0.00 0.00 0.00
0.02 0.02 0.01 0.01 0.01 0.01 0.01 0.00 0.00 0.00 0.00 0.00 0.00 0.00 0.00 0.00 0.00 0.00 0.00 0.00 0.00 0.00 0.00 0.00 0.00 0.00 0.00 0.00 0.00 0.00 0.00 0.00 0.00 0.00 0.00 0.00 0.00 0.00 0.00 0.00 0.00 0.00 0.00
0.02 0.03 0.02 0.02 0.01 0.01 0.02 0.01 0.01 0.01 0.01 0.01 0.01 0.00 0.00 0.00 0.00 0.00 0.00 0.00 0.00 0.00 0.00 0.00 0.00 0.00 0.00 0.00 0.00 0.00 0.00 0.00 0.00 0.00 0.00 0.00 0.00 0.00 0.00 0.00 0.00 0.00 0.00
0.03 0.04 0.04 0.03 0.03 0.03 0.04 0.03 0.03 0.03 0.03 0.02 0.01 0.01 0.00 0.00 0.00 0.00 0.00 0.00 0.00 0.00 0.00 0.00 0.00 0.00 0.00 0.00 0.00 0.00 0.00 0.00 0.00 0.00 0.00 0.00 0.00 0.00 0.00 0.00 0.00 0.00 0.00
0.03 0.04 0.04 0.04 0.05 0.04 0.06 0.05 0.04 0.03 0.03 0.02 0.02 0.02 0.01 0.00 0.00 0.00 0.00 0.00 0.00 0.00 0.00 0.00 0.00 0.00 0.00 0.00 0.00 0.00 0.00 0.00 0.00 0.00 0.00 0.00 0.00 0.00 0.00 0.00 0.00 0.00 0.00

GFSGL_prec_precacc12_048.txt.gz
Total_Precipitation_Accumulation
0.00 0.00 0.00 0.00 0.00 0.00 0.00 0.00 0.00 0.00 0.00 0.00 0.00 0.00 0.00 0.00 0.02 0.04 0.03 0.01 0.01 0.00 0.00 0.00 0.00 0.00 0.00 0.00 0.00 0.00 0.00 0.00 0.00 0.00 0.00 0.00 0.00 0.00 0.00 0.00 0.00 0.00 0.00
0.00 0.00 0.00 0.00 0.00 0.00 0.00 0.00 0.00 0.00 0.00 0.00 0.00 0.00 0.00 0.01 0.03 0.01 0.01 0.00 0.00 0.00 0.00 0.00 0.00 0.00 0.00 0.00 0.00 0.00 0.00 0.00 0.00 0.00 0.00 0.00 0.00 0.00 0.00 0.00 0.00 0.00 0.00
0.00 0.00 0.00 0.00 0.00 0.00 0.00 0.00 0.00 0.00 0.00 0.00 0.00 0.00 0.01 0.01 0.01 0.00 0.00 0.00 0.00 0.00 0.00 0.00 0.00 0.00 0.00 0.00 0.00 0.00 0.00 0.00 0.01 0.02 0.01 0.00 0.00 0.00 0.00 0.00 0.00 0.00 0.00
0.00 0.00 0.00 0.00 0.00 0.00 0.00 0.00 0.00 0.00 0.00 0.00 0.00 0.01 0.01 0.01 0.02 0.01 0.00 0.00 0.00 0.00 0.00 0.00 0.00 0.00 0.00 0.00 0.00 0.00 0.01 0.01 0.01 0.02 0.01 0.00 0.00 0.00 0.00 0.00 0.00 0.00 0.00
0.00 0.00 0.00 0.00 0.00 0.00 0.00 0.00 0.01 0.01 0.00 0.01 0.02 0.02 0.03 0.03 0.01 0.00 0.00 0.00 0.00 0.00 0.00 0.00 0.00 0.00 0.00 0.00 0.01 0.00 0.01 0.02 0.01 0.01 0.01 0.01 0.01 0.00 0.01 0.01 0.01 0.01 0.00
0.00 0.00 0.00 0.00 0.00 0.00 0.00 0.00 0.00 0.00 0.03 0.06 0.04 0.04 0.01 0.00 0.00 0.00 0.00 0.00 0.00 0.00 0.00 0.00 0.00 0.00 0.00 0.00 0.00 0.00 0.01 0.02 0.03 0.04 0.03 0.03 0.01 0.01 0.01 0.02 0.02 0.02 0.01
0.00 0.00 0.00 0.00 0.00 0.00 0.00 0.00 0.00 0.01 0.05 0.03 0.01 0.00 0.00 0.00 0.00 0.00 0.00 0.00 0.00 0.00 0.00 0.00 0.00 0.00 0.00 0.00 0.00 0.00 0.00 0.01 0.03 0.09 0.12 0.06 0.04 0.03 0.03 0.03 0.02 0.03 0.02
0.00 0.00 0.00 0.00 0.00 0.00 0.00 0.00 0.00 0.01 0.02 0.01 0.00 0.00 0.00 0.00 0.00 0.00 0.00 0.00 0.00 0.00 0.00 0.00 0.00 0.00 0.00 0.01 0.02 0.05 0.02 0.00 0.00 0.01 0.05 0.05 0.03 0.03 0.05 0.06 0.05 0.05 0.04
0.00 0.00 0.00 0.00 0.00 0.00 0.00 0.00 0.00 0.00 0.00 0.00 0.00 0.00 0.00 0.00 0.00 0.00 0.00 0.00 0.00 0.00 0.00 0.00 0.00 0.00 0.00 0.02 0.08 0.05 0.02 0.00 0.00 0.00 0.02 0.03 0.03 0.05 0.09 0.16 0.15 0.15 0.09
0.00 0.00 0.00 0.00 0.00 0.00 0.00 0.00 0.00 0.00 0.00 0.00 0.00 0.00 0.00 0.00 0.00 0.00 0.00 0.00 0.00 0.00 0.00 0.00 0.00 0.00 0.02 0.04 0.07 0.06 0.05 0.02 0.01 0.01 0.01 0.01 0.02 0.03 0.03 0.07 0.05 0.08 0.05
0.00 0.00 0.00 0.00 0.00 0.00 0.00 0.00 0.00 0.00 0.03 0.03 0.01 0.00 0.00 0.00 0.00 0.00 0.00 0.00 0.00 0.00 0.00 0.00 0.00 0.01 0.02 0.02 0.03 0.06 0.13 0.05 0.02 0.03 0.03 0.04 0.05 0.07 0.09 0.12 0.11 0.10 0.06
0.00 0.00 0.00 0.00 0.00 0.00 0.00 0.00 0.00 0.02 0.03 0.01 0.00 0.00 0.00 0.00 0.00 0.00 0.00 0.00 0.00 0.00 0.00 0.00 0.01 0.02 0.01 0.01 0.02 0.04 0.04 0.02 0.03 0.03 0.04 0.04 0.05 0.06 0.08 0.11 0.12 0.12 0.08
0.00 0.00 0.00 0.00 0.00 0.00 0.00 0.00 0.00 0.01 0.01 0.01 0.00 0.00 0.00 0.00 0.00 0.00 0.00 0.00 0.00 0.00 0.00 0.01 0.01 0.00 0.00 0.00 0.01 0.02 0.02 0.02 0.02 0.02 0.03 0.03 0.03 0.03 0.04 0.06 0.11 0.18 0.13
0.00 0.01 0.00 0.01 0.00 0.01 0.01 0.01 0.01 0.00 0.00 0.00 0.00 0.00 0.00 0.00 0.00 0.00 0.00 0.00 0.00 0.00 0.00 0.00 0.00 0.00 0.00 0.00 0.00 0.01 0.02 0.03 0.04 0.05 0.05 0.04 0.03 0.03 0.06 0.08 0.07 0.11 0.20
0.00 0.01 0.01 0.00 0.02 0.02 0.00 0.00 0.00 0.00 0.00 0.00 0.00 0.00 0.01 0.01 0.00 0.00 0.01 0.00 0.00 0.00 0.00 0.00 0.00 0.00 0.00 0.00 0.00 0.01 0.01 0.01 0.01 0.03 0.03 0.03 0.03 0.04 0.06 0.06 0.04 0.03 0.05
0.01 0.02 0.02 0.01 0.02 0.01 0.00 0.00 0.00 0.00 0.00 0.00 0.00 0.01 0.01 0.00 0.00 0.00 0.00 0.00 0.00 0.00 0.00 0.00 0.00 0.00 0.00 0.00 0.00 0.00 0.00 0.00 0.00 0.02 0.03 0.03 0.03 0.04 0.04 0.02 0.02 0.02 0.03
0.01 0.04 0.02 0.01 0.01 0.01 0.01 0.01 0.00 0.00 0.00 0.00 0.00 0.00 0.00 0.00 0.00 0.00 0.00 0.00 0.00 0.00 0.00 0.00 0.00 0.00 0.00 0.00 0.00 0.00 0.00 0.00 0.00 0.00 0.02 0.02 0.03 0.03 0.03 0.02 0.01 0.01 0.01
0.00 0.01 0.02 0.01 0.01 0.01 0.01 0.01 0.01 0.00 0.01 0.00 0.00 0.00 0.00 0.00 0.00 0.00 0.00 0.00 0.00 0.00 0.00 0.00 0.00 0.00 0.00 0.00 0.00 0.00 0.00 0.00 0.00 0.00 0.00 0.01 0.02 0.02 0.02 0.02 0.01 0.01 0.00
0.00 0.00 0.00 0.01 0.01 0.01 0.00 0.01 0.00 0.01 0.01 0.00 0.00 0.00 0.00 0.00 0.00 0.00 0.01 0.01 0.00 0.00 0.00 0.00 0.00 0.00 0.00 0.00 0.00 0.00 0.00 0.00 0.00 0.00 0.00 0.00 0.00 0.01 0.01 0.01 0.01 0.00 0.00
0.00 0.00 0.00 0.01 0.00 0.00 0.00 0.00 0.00 0.00 0.01 0.00 0.00 0.00 0.00 0.01 0.01 0.01 0.01 0.01 0.01 0.00 0.00 0.00 0.00 0.00 0.00 0.00 0.00 0.00 0.00 0.00 0.00 0.00 0.00 0.00 0.00 0.00 0.01 0.01 0.01 0.00 0.00
0.00 0.00 0.00 0.01 0.01 0.01 0.00 0.00 0.00 0.00 0.01 0.00 0.00 0.00 0.00 0.02 0.01 0.01 0.01 0.02 0.01 0.00 0.00 0.00 0.00 0.00 0.00 0.00 0.00 0.00 0.00 0.00 0.00 0.00 0.00 0.00 0.00 0.00 0.00 0.00 0.00 0.00 0.00
0.01 0.02 0.02 0.02 0.01 0.01 0.01 0.01 0.01 0.00 0.00 0.00 0.00 0.00 0.00 0.01 0.01 0.01 0.01 0.01 0.01 0.00 0.00 0.00 0.00 0.00 0.00 0.00 0.00 0.00 0.00 0.00 0.00 0.00 0.00 0.00 0.00 0.00 0.00 0.00 0.00 0.00 0.00
0.03 0.03 0.02 0.01 0.01 0.01 0.01 0.01 0.01 0.01 0.01 0.01 0.00 0.00 0.00 0.01 0.01 0.01 0.01 0.01 0.01 0.01 0.00 0.00 0.00 0.00 0.00 0.00 0.00 0.00 0.00 0.00 0.00 0.00 0.00 0.00 0.00 0.00 0.00 0.00 0.00 0.00 0.00
0.03 0.03 0.03 0.03 0.02 0.03 0.04 0.03 0.03 0.03 0.03 0.03 0.03 0.02 0.01 0.01 0.01 0.01 0.01 0.01 0.01 0.00 0.00 0.00 0.00 0.00 0.00 0.00 0.00 0.00 0.00 0.00 0.00 0.00 0.00 0.00 0.00 0.00 0.00 0.00 0.00 0.00 0.00
0.04 0.05 0.05 0.05 0.05 0.05 0.06 0.05 0.05 0.05 0.05 0.05 0.04 0.04 0.03 0.03 0.02 0.01 0.01 0.01 0.01 0.01 0.00 0.00 0.00 0.00 0.00 0.00 0.00 0.00 0.00 0.00 0.00 0.00 0.00 0.00 0.00 0.00 0.00 0.00 0.00 0.00 0.00
0.04 0.05 0.05 0.06 0.06 0.06 0.08 0.08 0.06 0.05 0.05 0.04 0.05 0.04 0.03 0.04 0.03 0.03 0.02 0.02 0.01 0.01 0.00 0.00 0.00 0.00 0.00 0.00 0.00 0.00 0.00 0.00 0.00 0.00 0.00 0.00 0.00 0.00 0.00 0.00 0.00 0.00 0.00

GFSGL_prec_precacc12_051.txt.gz
Total_Precipitation_Accumulation
0.00 0.00 0.00 0.00 0.00 0.00 0.00 0.00 0.00 0.00 0.00 0.00 0.00 0.00 0.00 0.00 0.02 0.04 0.04 0.03 0.02 0.01 0.00 0.00 0.00 0.00 0.00 0.00 0.00 0.00 0.00 0.00 0.00 0.00 0.00 0.00 0.00 0.00 0.00 0.00 0.00 0.00 0.00
0.00 0.00 0.00 0.00 0.00 0.00 0.00 0.00 0.00 0.00 0.00 0.00 0.00 0.00 0.00 0.01 0.03 0.02 0.01 0.00 0.00 0.00 0.00 0.00 0.00 0.00 0.00 0.00 0.00 0.00 0.00 0.00 0.00 0.00 0.00 0.00 0.00 0.00 0.00 0.00 0.00 0.00 0.00
0.00 0.00 0.00 0.00 0.00 0.00 0.00 0.00 0.00 0.00 0.00 0.00 0.00 0.00 0.01 0.01 0.01 0.00 0.00 0.00 0.00 0.00 0.00 0.00 0.00 0.00 0.00 0.00 0.00 0.00 0.00 0.00 0.01 0.02 0.01 0.00 0.00 0.00 0.00 0.00 0.00 0.00 0.00
0.00 0.00 0.00 0.00 0.00 0.00 0.00 0.00 0.00 0.00 0.00 0.00 0.00 0.01 0.01 0.01 0.02 0.01 0.00 0.00 0.00 0.00 0.00 0.00 0.00 0.00 0.00 0.00 0.00 0.00 0.01 0.01 0.01 0.02 0.01 0.00 0.00 0.00 0.00 0.00 0.00 0.00 0.00
0.00 0.00 0.00 0.00 0.00 0.00 0.00 0.00 0.00 0.00 0.00 0.00 0.00 0.01 0.03 0.03 0.01 0.00 0.00 0.00 0.00 0.00 0.00 0.00 0.00 0.00 0.00 0.00 0.01 0.00 0.01 0.01 0.01 0.01 0.01 0.01 0.01 0.01 0.01 0.01 0.01 0.01 0.01
0.00 0.00 0.00 0.00 0.00 0.00 0.00 0.00 0.00 0.00 0.00 0.00 0.02 0.04 0.01 0.00 0.00 0.00 0.00 0.00 0.00 0.00 0.00 0.00 0.00 0.00 0.00 0.00 0.00 0.00 0.00 0.01 0.03 0.04 0.04 0.04 0.02 0.02 0.03 0.04 0.04 0.04 0.03
0.00 0.00 0.00 0.00 0.00 0.00 0.00 0.00 0.00 0.00 0.00 0.00 0.00 0.00 0.01 0.02 0.00 0.00 0.00 0.00 0.00 0.00 0.00 0.00 0.00 0.00 0.00 0.00 0.00 0.00 0.00 0.01 0.05 0.11 0.14 0.07 0.07 0.06 0.06 0.06 0.05 0.05 0.05
0.00 0.00 0.00 0.00 0.00 0.00 0.00 0.00 0.00 0.00 0.00 0.00 0.00 0.01 0.02 0.02 0.00 0.00 0.00 0.00 0.00 0.00 0.00 0.00 0.00 0.00 0.00 0.00 0.02 0.04 0.02 0.01 0.01 0.02 0.06 0.06 0.04 0.03 0.05 0.06 0.07 0.08 0.06
0.00 0.00 0.00 0.00 0.00 0.00 0.00 0.00 0.00 0.00 0.00 0.00 0.00 0.01 0.01 0.01 0.00 0.00 0.00 0.00 0.00 0.00 0.00 0.00 0.00 0.00 0.00 0.02 0.07 0.05 0.02 0.01 0.01 0.00 0.02 0.03 0.03 0.03 0.06 0.17 0.17 0.18 0.12
0.00 0.00 0.00 0.00 0.00 0.00 0.00 0.00 0.00 0.00 0.00 0.00 0.00 0.00 0.00 0.00 0.00 0.00 0.00 0.00 0.00 0.00 0.00 0.00 0.00 0.00 0.01 0.03 0.04 0.04 0.04 0.03 0.01 0.01 0.01 0.01 0.02 0.04 0.04 0.10 0.13 0.17 0.10
0.00 0.00 0.00 0.00 0.00 0.00 0.00 0.00 0.00 0.00 0.03 0.03 0.01 0.00 0.00 0.00 0.00 0.00 0.00 0.00 0.00 0.00 0.00 0.00 0.00 0.01 0.01 0.01 0.02 0.04 0.09 0.04 0.02 0.03 0.03 0.03 0.05 0.07 0.09 0.12 0.11 0.12 0.08
0.00 0.00 0.00 0.00 0.00 0.00 0.00 0.00 0.00 0.02 0.03 0.02 0.01 0.00 0.01 0.00 0.00 0.00 0.00 0.00 0.00 0.00 0.01 0.00 0.00 0.01 0.00 0.01 0.01 0.02 0.03 0.01 0.02 0.02 0.02 0.02 0.03 0.04 0.05 0.08 0.10 0.10 0.09
0.00 0.00 0.00 0.00 0.00 0.00 0.00 0.00 0.00 0.01 0.01 0.01 0.02 0.01 0.01 0.01 0.01 0.00 0.00 0.00 0.00 0.00 0.00 0.00 0.00 0.00 0.00 0.00 0.00 0.01 0.01 0.01 0.01 0.01 0.02 0.02 0.02 0.02 0.03 0.05 0.09 0.16 0.15
0.00 0.00 0.00 0.01 0.00 0.01 0.01 0.01 0.01 0.00 0.00 0.00 0.01 0.01 0.01 0.01 0.01 0.01 0.01 0.01 0.01 0.00 0.00 0.00 0.00 0.00 0.00 0.00 0.00 0.00 0.01 0.01 0.02 0.03 0.03 0.03 0.02 0.03 0.05 0.07 0.06 0.10 0.26
0.00 0.00 0.00 0.00 0.00 0.01 0.00 0.00 0.00 0.00 0.00 0.00 0.00 0.01 0.01 0.02 0.01 0.00 0.01 0.00 0.01 0.00 0.00 0.00 0.00 0.00 0.00 0.00 0.00 0.00 0.00 0.00 0.00 0.01 0.02 0.02 0.02 0.03 0.05 0.05 0.05 0.04 0.07
0.00 0.00 0.01 0.01 0.01 0.00 0.00 0.00 0.00 0.00 0.00 0.00 0.00 0.01 0.01 0.01 0.00 0.00 0.00 0.00 0.00 0.00 0.00 0.00 0.00 0.01 0.00 0.00 0.00 0.00 0.00 0.00 0.00 0.00 0.01 0.02 0.02 0.02 0.02 0.03 0.03 0.03 0.04
0.00 0.01 0.01 0.01 0.01 0.01 0.01 0.01 0.01 0.00 0.00 0.00 0.00 0.00 0.00 0.01 0.00 0.00 0.00 0.00 0.00 0.00 0.00 0.00 0.01 0.01 0.00 0.00 0.00 0.00 0.00 0.00 0.00 0.00 0.00 0.01 0.02 0.02 0.02 0.02 0.01 0.01 0.01
0.00 0.00 0.01 0.01 0.02 0.01 0.01 0.01 0.01 0.01 0.01 0.01 0.00 0.00 0.00 0.00 0.00 0.00 0.00 0.01 0.01 0.01 0.01 0.00 0.01 0.00 0.00 0.00 0.00 0.00 0.00 0.00 0.00 0.00 0.00 0.00 0.01 0.01 0.02 0.01 0.01 0.01 0.01
0.00 0.00 0.00 0.01 0.01 0.01 0.01 0.01 0.01 0.01 0.01 0.01 0.00 0.00 0.00 0.00 0.00 0.00 0.01 0.02 0.01 0.01 0.01 0.01 0.01 0.00 0.00 0.00 0.00 0.00 0.00 0.00 0.00 0.00 0.00 0.00 0.00 0.00 0.00 0.01 0.01 0.00 0.00
0.00 0.00 0.00 0.01 0.01 0.01 0.01 0.01 0.01 0.01 0.01 0.01 0.01 0.01 0.00 0.02 0.02 0.02 0.02 0.02 0.02 0.01 0.01 0.01 0.01 0.00 0.00 0.00 0.00 0.00 0.00 0.00 0.00 0.00 0.00 0.00 0.00 0.00 0.00 0.00 0.00 0.00 0.00
0.00 0.00 0.01 0.02 0.02 0.03 0.03 0.03 0.02 0.02 0.02 0.01 0.01 0.01 0.01 0.02 0.02 0.02 0.03 0.04 0.03 0.02 0.02 0.01 0.01 0.01 0.01 0.00 0.00 0.00 0.00 0.00 0.00 0.00 0.00 0.00 0.00 0.00 0.00 0.00 0.00 0.00 0.00
0.01 0.02 0.03 0.03 0.03 0.03 0.03 0.03 0.03 0.03 0.02 0.02 0.02 0.01 0.00 0.02 0.01 0.01 0.01 0.02 0.02 0.02 0.01 0.01 0.01 0.01 0.00 0.00 0.00 0.00 0.00 0.00 0.00 0.00 0.00 0.00 0.00 0.00 0.00 0.00 0.00 0.00 0.00
0.03 0.03 0.02 0.02 0.02 0.02 0.03 0.02 0.03 0.04 0.04 0.04 0.03 0.03 0.03 0.04 0.02 0.01 0.01 0.01 0.01 0.02 0.01 0.01 0.01 0.01 0.01 0.00 0.00 0.00 0.00 0.00 0.00 0.00 0.00 0.00 0.00 0.00 0.00 0.00 0.00 0.00 0.00
0.05 0.04 0.04 0.04 0.04 0.04 0.06 0.06 0.05 0.05 0.06 0.07 0.06 0.06 0.05 0.04 0.04 0.03 0.02 0.02 0.02 0.02 0.01 0.01 0.01 0.00 0.00 0.00 0.00 0.00 0.00 0.00 0.00 0.00 0.00 0.00 0.00 0.00 0.00 0.00 0.00 0.00 0.00
0.07 0.09 0.08 0.07 0.07 0.07 0.08 0.08 0.09 0.09 0.09 0.08 0.07 0.06 0.05 0.06 0.06 0.05 0.04 0.04 0.05 0.03 0.02 0.01 0.01 0.00 0.00 0.00 0.00 0.00 0.00 0.00 0.00 0.00 0.00 0.00 0.00 0.00 0.00 0.00 0.00 0.00 0.00
0.08 0.08 0.06 0.06 0.07 0.07 0.09 0.09 0.08 0.07 0.08 0.07 0.07 0.07 0.06 0.06 0.05 0.05 0.05 0.06 0.06 0.05 0.03 0.02 0.01 0.00 0.01 0.00 0.00 0.00 0.00 0.00 0.00 0.00 0.00 0.00 0.00 0.00 0.00 0.00 0.00 0.00 0.00

GFSGL_prec_precacc12_054.txt.gz
Total_Precipitation_Accumulation
0.00 0.00 0.00 0.00 0.00 0.00 0.00 0.00 0.00 0.00 0.00 0.00 0.00 0.00 0.00 0.00 0.02 0.04 0.04 0.03 0.02 0.01 0.01 0.01 0.00 0.00 0.00 0.00 0.00 0.00 0.00 0.00 0.00 0.00 0.00 0.00 0.00 0.00 0.00 0.00 0.00 0.00 0.00
0.00 0.00 0.00 0.00 0.00 0.00 0.00 0.00 0.00 0.00 0.00 0.00 0.00 0.00 0.00 0.01 0.03 0.02 0.01 0.00 0.00 0.00 0.00 0.00 0.00 0.00 0.00 0.00 0.00 0.00 0.00 0.00 0.00 0.00 0.00 0.00 0.00 0.00 0.00 0.00 0.00 0.00 0.00
0.00 0.00 0.00 0.00 0.00 0.00 0.00 0.00 0.00 0.00 0.00 0.00 0.00 0.00 0.01 0.01 0.01 0.00 0.00 0.00 0.00 0.00 0.00 0.00 0.00 0.00 0.00 0.00 0.00 0.00 0.00 0.00 0.00 0.01 0.00 0.00 0.00 0.00 0.00 0.00 0.00 0.00 0.00
0.00 0.00 0.00 0.00 0.00 0.00 0.00 0.00 0.00 0.00 0.00 0.00 0.00 0.00 0.00 0.01 0.02 0.01 0.00 0.00 0.00 0.00 0.01 0.00 0.00 0.00 0.00 0.00 0.00 0.00 0.00 0.01 0.00 0.01 0.01 0.00 0.00 0.00 0.00 0.01 0.01 0.00 0.00
0.00 0.00 0.00 0.00 0.00 0.00 0.00 0.00 0.00 0.00 0.00 0.00 0.00 0.00 0.01 0.04 0.02 0.00 0.00 0.00 0.01 0.01 0.00 0.00 0.00 0.00 0.00 0.00 0.00 0.00 0.01 0.01 0.01 0.01 0.01 0.01 0.01 0.01 0.02 0.01 0.02 0.02 0.01
0.00 0.00 0.00 0.00 0.00 0.00 0.00 0.00 0.00 0.00 0.00 0.00 0.00 0.00 0.00 0.00 0.00 0.00 0.00 0.00 0.00 0.00 0.00 0.00 0.00 0.00 0.00 0.00 0.00 0.00 0.00 0.01 0.02 0.03 0.04 0.04 0.03 0.03 0.04 0.07 0.06 0.05 0.04
0.00 0.00 0.00 0.00 0.00 0.00 0.00 0.00 0.00 0.00 0.00 0.00 0.00 0.00 0.01 0.03 0.00 0.00 0.00 0.00 0.00 0.00 0.00 0.00 0.00 0.00 0.00 0.00 0.00 0.00 0.00 0.01 0.04 0.10 0.12 0.08 0.08 0.07 0.07 0.07 0.05 0.05 0.05
0.00 0.00 0.00 0.00 0.00 0.00 0.00 0.00 0.00 0.00 0.00 0.00 0.00 0.01 0.02 0.03 0.00 0.00 0.00 0.00 0.00 0.00 0.00 0.00 0.00 0.00 0.00 0.00 0.02 0.04 0.02 0.01 0.01 0.02 0.07 0.06 0.04 0.03 0.04 0.06 0.06 0.07 0.06
0.00 0.00 0.00 0.00 0.00 0.00 0.00 0.00 0.00 0.00 0.00 0.00 0.00 0.01 0.02 0.02 0.00 0.00 0.00 0.00 0.00 0.00 0.00 0.00 0.00 0.00 0.00 0.01 0.04 0.03 0.01 0.01 0.01 0.01 0.02 0.02 0.02 0.03 0.06 0.15 0.13 0.16 0.14
0.00 0.00 0.00 0.00 0.00 0.00 0.00 0.00 0.00 0.00 0.00 0.00 0.00 0.00 0.01 0.01 0.00 0.00 0.00 0.00 0.00 0.00 0.00 0.00 0.00 0.00 0.00 0.01 0.02 0.03 0.03 0.02 0.01 0.01 0.01 0.01 0.02 0.04 0.05 0.12 0.16 0.23 0.14
0.00 0.00 0.00 0.00 0.00 0.00 0.00 0.00 0.00 0.00 0.02 0.03 0.01 0.00 0.01 0.01 0.00 0.00 0.00 0.00 0.00 0.00 0.00 0.00 0.00 0.00 0.00 0.01 0.01 0.02 0.06 0.02 0.01 0.02 0.02 0.02 0.03 0.05 0.07 0.10 0.11 0.12 0.09
0.00 0.00 0.00 0.00 0.00 0.00 0.00 0.00 0.00 0.02 0.03 0.02 0.01 0.01 0.01 0.01 0.00 0.00 0.00 0.00 0.00 0.00 0.00 0.00 0.00 0.00 0.00 0.00 0.00 0.01 0.01 0.01 0.02 0.01 0.01 0.02 0.02 0.02 0.01 0.02 0.05 0.09 0.10
0.00 0.00 0.00 0.00 0.00 0.00 0.00 0.00 0.00 0.00 0.01 0.01 0.02 0.02 0.02 0.02 0.01 0.00 0.00 0.00 0.00 0.00 0.00 0.00 0.00 0.00 0.00 0.00 0.00 0.00 0.00 0.01 0.01 0.01 0.02 0.02 0.02 0.02 0.02 0.04 0.04 0.10 0.12
0.00 0.00 0.00 0.00 0.00 0.00 0.00 0.00 0.00 0.00 0.00 0.01 0.01 0.01 0.01 0.01 0.01 0.02 0.02 0.02 0.01 0.00 0.00 0.00 0.00 0.00 0.00 0.00 0.00 0.00 0.00 0.00 0.00 0.01 0.02 0.02 0.02 0.02 0.04 0.05 0.04 0.06 0.22
0.00 0.00 0.00 0.00 0.00 0.00 0.00 0.00 0.00 0.00 0.00 0.00 0.00 0.01 0.02 0.02 0.01 0.01 0.01 0.02 0.02 0.01 0.00 0.00 0.00 0.00 0.00 0.00 0.00 0.00 0.00 0.00 0.00 0.00 0.01 0.01 0.01 0.02 0.02 0.03 0.03 0.03 0.07
0.00 0.00 0.00 0.00 0.00 0.00 0.00 0.00 0.00 0.00 0.00 0.00 0.00 0.01 0.01 0.01 0.00 0.00 0.00 0.00 0.00 0.00 0.00 0.00 0.00 0.01 0.01 0.00 0.00 0.00 0.00 0.00 0.00 0.00 0.00 0.01 0.01 0.01 0.01 0.02 0.02 0.03 0.03
0.00 0.00 0.00 0.00 0.01 0.01 0.01 0.01 0.01 0.00 0.00 0.00 0.00 0.00 0.00 0.01 0.00 0.00 0.00 0.00 0.00 0.01 0.01 0.01 0.01 0.01 0.01 0.00 0.00 0.00 0.00 0.00 0.00 0.00 0.00 0.01 0.01 0.01 0.01 0.02 0.01 0.01 0.01
0.00 0.00 0.00 0.01 0.01 0.01 0.01 0.02 0.02 0.01 0.01 0.01 0.00 0.00 0.00 0.00 0.00 0.00 0.00 0.01 0.02 0.02 0.01 0.01 0.01 0.01 0.01 0.00 0.00 0.00 0.00 0.00 0.00 0.00 0.00 0.00 0.00 0.01 0.01 0.01 0.01 0.01 0.01
0.00 0.00 0.00 0.01 0.01 0.01 0.01 0.01 0.01 0.01 0.01 0.01 0.00 0.00 0.00 0.00 0.00 0.00 0.01 0.03 0.02 0.02 0.02 0.02 0.01 0.01 0.01 0.00 0.00 0.00 0.00 0.00 0.00 0.00 0.00 0.00 0.00 0.00 0.00 0.01 0.01 0.00 0.00
0.00 0.00 0.00 0.01 0.01 0.01 0.02 0.02 0.02 0.03 0.03 0.02 0.01 0.01 0.01 0.03 0.04 0.03 0.03 0.02 0.02 0.02 0.01 0.01 0.01 0.01 0.01 0.00 0.00 0.00 0.00 0.00 0.00 0.00 0.00 0.00 0.00 0.00 0.00 0.00 0.00 0.00 0.00
0.01 0.01 0.01 0.02 0.02 0.04 0.04 0.04 0.04 0.05 0.05 0.04 0.03 0.01 0.01 0.05 0.04 0.04 0.05 0.06 0.04 0.02 0.02 0.02 0.01 0.02 0.01 0.00 0.00 0.00 0.00 0.00 0.00 0.00 0.00 0.00 0.00 0.00 0.00 0.00 0.00 0.00 0.00
0.03 0.03 0.05 0.06 0.05 0.05 0.03 0.03 0.04 0.03 0.03 0.03 0.03 0.02 0.02 0.05 0.03 0.02 0.02 0.02 0.02 0.02 0.02 0.02 0.02 0.02 0.01 0.00 0.00 0.00 0.00 0.00 0.00 0.00 0.00 0.00 0.00 0.00 0.00 0.00 0.00 0.00 0.00
0.05 0.08 0.09 0.08 0.04 0.03 0.04 0.03 0.04 0.06 0.06 0.06 0.05 0.06 0.05 0.09 0.08 0.05 0.02 0.01 0.02 0.02 0.02 0.02 0.02 0.01 0.01 0.00 0.00 0.00 0.00 0.00 0.00 0.00 0.00 0.00 0.00 0.00 0.00 0.00 0.00 0.00 0.00
0.05 0.06 0.06 0.06 0.06 0.07 0.08 0.08 0.08 0.08 0.09 0.11 0.10 0.09 0.08 0.07 0.07 0.07 0.06 0.06 0.06 0.05 0.04 0.04 0.02 0.01 0.01 0.01 0.00 0.00 0.00 0.00 0.00 0.00 0.00 0.00 0.00 0.00 0.00 0.00 0.00 0.00 0.00
0.09 0.12 0.15 0.14 0.11 0.10 0.10 0.09 0.10 0.10 0.11 0.12 0.11 0.09 0.08 0.08 0.07 0.06 0.05 0.06 0.07 0.07 0.06 0.05 0.04 0.02 0.01 0.01 0.01 0.00 0.00 0.00 0.00 0.00 0.00 0.00 0.00 0.00 0.00 0.00 0.00 0.00 0.00
0.13 0.14 0.11 0.08 0.07 0.07 0.07 0.08 0.07 0.07 0.07 0.07 0.08 0.07 0.07 0.07 0.07 0.06 0.06 0.07 0.07 0.07 0.05 0.05 0.04 0.03 0.03 0.02 0.02 0.01 0.00 0.00 0.00 0.00 0.00 0.00 0.00 0.00 0.00 0.00 0.00 0.00 0.00

GFSGL_prec_precacc12_057.txt.gz
Total_Precipitation_Accumulation
0.00 0.00 0.00 0.00 0.00 0.00 0.00 0.00 0.00 0.00 0.00 0.00 0.00 0.00 0.00 0.00 0.02 0.04 0.04 0.03 0.02 0.01 0.01 0.01 0.00 0.00 0.00 0.00 0.00 0.00 0.00 0.00 0.00 0.00 0.00 0.00 0.00 0.00 0.00 0.00 0.00 0.00 0.00
0.00 0.00 0.00 0.00 0.00 0.00 0.00 0.00 0.00 0.00 0.00 0.00 0.00 0.00 0.00 0.01 0.03 0.02 0.01 0.00 0.00 0.00 0.00 0.00 0.00 0.00 0.00 0.00 0.00 0.00 0.00 0.00 0.00 0.00 0.00 0.00 0.00 0.00 0.00 0.00 0.00 0.00 0.00
0.00 0.00 0.00 0.00 0.00 0.00 0.00 0.00 0.00 0.00 0.00 0.00 0.00 0.00 0.00 0.00 0.00 0.00 0.00 0.00 0.00 0.00 0.00 0.00 0.00 0.00 0.00 0.00 0.00 0.00 0.00 0.00 0.00 0.00 0.00 0.00 0.00 0.00 0.00 0.00 0.00 0.00 0.00
0.00 0.00 0.00 0.00 0.00 0.00 0.00 0.00 0.00 0.00 0.00 0.00 0.00 0.00 0.00 0.00 0.00 0.01 0.00 0.00 0.00 0.00 0.01 0.00 0.00 0.00 0.00 0.00 0.00 0.00 0.00 0.00 0.00 0.00 0.00 0.00 0.00 0.00 0.00 0.00 0.01 0.00 0.00
0.00 0.00 0.00 0.00 0.00 0.00 0.00 0.00 0.00 0.00 0.00 0.00 0.00 0.00 0.00 0.00 0.00 0.00 0.00 0.00 0.01 0.01 0.00 0.00 0.00 0.00 0.00 0.00 0.00 0.00 0.00 0.00 0.00 0.00 0.00 0.01 0.01 0.01 0.01 0.01 0.02 0.02 0.01
0.00 0.00 0.00 0.00 0.00 0.00 0.00 0.00 0.00 0.00 0.00 0.00 0.00 0.00 0.00 0.00 0.00 0.00 0.00 0.00 0.00 0.00 0.00 0.00 0.00 0.00 0.00 0.00 0.00 0.00 0.00 0.00 0.01 0.02 0.03 0.03 0.02 0.03 0.06 0.08 0.06 0.04 0.03
0.00 0.00 0.00 0.00 0.00 0.00 0.00 0.00 0.00 0.00 0.00 0.00 0.00 0.00 0.01 0.03 0.00 0.00 0.00 0.00 0.00 0.00 0.00 0.00 0.00 0.00 0.00 0.00 0.00 0.00 0.00 0.01 0.03 0.06 0.08 0.07 0.09 0.08 0.06 0.05 0.04 0.04 0.04
0.00 0.00 0.00 0.00 0.00 0.00 0.00 0.00 0.00 0.00 0.00 0.00 0.00 0.01 0.02 0.03 0.00 0.00 0.00 0.00 0.00 0.00 0.00 0.00 0.00 0.00 0.00 0.00 0.01 0.02 0.01 0.01 0.01 0.01 0.04 0.05 0.03 0.03 0.04 0.05 0.05 0.06 0.05
0.00 0.00 0.00 0.00 0.00 0.00 0.00 0.00 0.00 0.00 0.00 0.00 0.00 0.01 0.02 0.02 0.00 0.00 0.00 0.00 0.00 0.00 0.00 0.00 0.00 0.00 0.00 0.00 0.01 0.02 0.01 0.01 0.01 0.00 0.00 0.00 0.00 0.01 0.03 0.11 0.12 0.15 0.14
0.00 0.00 0.00 0.00 0.00 0.00 0.00 0.00 0.00 0.00 0.00 0.00 0.00 0.00 0.01 0.01 0.00 0.00 0.00 0.00 0.00 0.00 0.00 0.00 0.00 0.00 0.00 0.00 0.01 0.02 0.02 0.01 0.01 0.00 0.00 0.01 0.01 0.02 0.04 0.10 0.17 0.23 0.14
0.00 0.00 0.00 0.00 0.00 0.00 0.00 0.00 0.00 0.00 0.00 0.01 0.01 0.00 0.01 0.01 0.00 0.00 0.00 0.00 0.00 0.00 0.00 0.00 0.00 0.00 0.00 0.00 0.00 0.01 0.02 0.01 0.01 0.01 0.01 0.01 0.02 0.02 0.03 0.05 0.07 0.11 0.12
0.00 0.00 0.00 0.00 0.00 0.00 0.00 0.00 0.00 0.00 0.01 0.01 0.01 0.01 0.01 0.01 0.00 0.00 0.00 0.00 0.00 0.00 0.00 0.00 0.00 0.00 0.00 0.00 0.00 0.00 0.00 0.00 0.01 0.01 0.01 0.02 0.02 0.02 0.01 0.01 0.01 0.05 0.09
0.00 0.00 0.00 0.00 0.00 0.00 0.00 0.00 0.00 0.00 0.00 0.01 0.02 0.02 0.02 0.02 0.01 0.00 0.00 0.00 0.00 0.00 0.00 0.00 0.00 0.00 0.00 0.00 0.00 0.00 0.00 0.00 0.00 0.01 0.01 0.01 0.01 0.02 0.02 0.04 0.03 0.05 0.09
0.00 0.00 0.00 0.00 0.00 0.00 0.00 0.00 0.00 0.00 0.00 0.01 0.01 0.02 0.02 0.01 0.01 0.02 0.02 0.02 0.01 0.01 0.00 0.00 0.00 0.00 0.00 0.00 0.00 0.00 0.00 0.00 0.00 0.00 0.01 0.01 0.01 0.02 0.03 0.03 0.03 0.02 0.14
0.00 0.00 0.00 0.00 0.00 0.00 0.00 0.00 0.00 0.00 0.00 0.00 0.00 0.01 0.02 0.02 0.01 0.01 0.01 0.02 0.04 0.03 0.02 0.01 0.00 0.00 0.00 0.00 0.00 0.00 0.00 0.00 0.00 0.00 0.00 0.01 0.01 0.01 0.01 0.02 0.02 0.02 0.06
0.00 0.00 0.00 0.00 0.00 0.00 0.00 0.00 0.00 0.00 0.00 0.00 0.00 0.00 0.01 0.01 0.00 0.00 0.00 0.00 0.00 0.00 0.00 0.00 0.00 0.01 0.01 0.01 0.00 0.00 0.00 0.00 0.00 0.00 0.00 0.00 0.00 0.01 0.01 0.01 0.02 0.02 0.02
0.00 0.00 0.00 0.00 0.00 0.00 0.00 0.01 0.01 0.00 0.00 0.00 0.00 0.00 0.00 0.00 0.00 0.00 0.00 0.00 0.01 0.01 0.02 0.01 0.01 0.01 0.01 0.01 0.00 0.00 0.00 0.00 0.00 0.00 0.00 0.00 0.00 0.01 0.01 0.02 0.01 0.01 0.01
0.00 0.00 0.00 0.01 0.01 0.01 0.01 0.01 0.02 0.01 0.01 0.01 0.00 0.00 0.00 0.00 0.00 0.00 0.00 0.03 0.03 0.02 0.01 0.01 0.01 0.01 0.01 0.00 0.00 0.00 0.00 0.00 0.00 0.00 0.00 0.00 0.00 0.00 0.01 0.01 0.01 0.01 0.01
0.00 0.00 0.00 0.01 0.01 0.01 0.01 0.01 0.01 0.02 0.02 0.01 0.00 0.00 0.00 0.00 0.00 0.00 0.01 0.07 0.03 0.02 0.02 0.02 0.01 0.01 0.01 0.00 0.00 0.00 0.00 0.00 0.00 0.00 0.00 0.00 0.00 0.00 0.00 0.00 0.00 0.00 0.00
0.00 0.00 0.01 0.02 0.02 0.02 0.03 0.05 0.07 0.07 0.06 0.05 0.03 0.02 0.01 0.05 0.06 0.03 0.03 0.03 0.03 0.02 0.01 0.01 0.01 0.01 0.01 0.01 0.00 0.00 0.00 0.00 0.00 0.00 0.00 0.00 0.00 0.00 0.00 0.00 0.00 0.00 0.00
0.01 0.02 0.02 0.03 0.04 0.06 0.10 0.11 0.10 0.09 0.06 0.04 0.03 0.02 0.02 0.07 0.07 0.06 0.07 0.09 0.06 0.03 0.02 0.02 0.01 0.02 0.01 0.00 0.00 0.00 0.00 0.00 0.00 0.00 0.00 0.00 0.00 0.00 0.00 0.00 0.00 0.00 0.00
0.03 0.04 0.05 0.07 0.08 0.09 0.09 0.09 0.07 0.03 0.03 0.03 0.03 0.02 0.02 0.06 0.06 0.03 0.03 0.04 0.04 0.05 0.04 0.04 0.03 0.02 0.01 0.00 0.00 0.00 0.00 0.00 0.00 0.00 0.00 0.00 0.00 0.00 0.00 0.00 0.00 0.00 0.00
0.04 0.06 0.08 0.08 0.07 0.07 0.07 0.06 0.06 0.07 0.08 0.09 0.08 0.07 0.09 0.15 0.12 0.09 0.07 0.04 0.04 0.05 0.04 0.05 0.05 0.04 0.01 0.01 0.00 0.00 0.00 0.00 0.00 0.00 0.00 0.00 0.00 0.00 0.00 0.00 0.00 0.00 0.00
0.05 0.06 0.06 0.08 0.12 0.16 0.19 0.15 0.12 0.12 0.13 0.13 0.13 0.14 0.14 0.13 0.13 0.11 0.09 0.10 0.11 0.10 0.09 0.09 0.07 0.04 0.03 0.03 0.01 0.00 0.00 0.00 0.00 0.00 0.00 0.00 0.00 0.00 0.00 0.00 0.00 0.00 0.00
0.10 0.13 0.18 0.21 0.16 0.14 0.12 0.10 0.09 0.09 0.10 0.10 0.10 0.10 0.09 0.10 0.09 0.07 0.07 0.08 0.09 0.08 0.07 0.06 0.06 0.06 0.05 0.05 0.04 0.00 0.00 0.00 0.00 0.00 0.00 0.00 0.00 0.00 0.00 0.00 0.00 0.00 0.00
0.14 0.15 0.13 0.09 0.08 0.08 0.07 0.07 0.06 0.06 0.05 0.05 0.06 0.06 0.07 0.07 0.07 0.06 0.07 0.08 0.09 0.09 0.08 0.07 0.05 0.04 0.05 0.06 0.06 0.02 0.00 0.01 0.01 0.00 0.00 0.00 0.00 0.00 0.00 0.00 0.00 0.00 0.00

GFSGL_prec_precacc12_060.txt.gz
Total_Precipitation_Accumulation
0.00 0.00 0.00 0.00 0.00 0.00 0.00 0.00 0.00 0.00 0.00 0.00 0.00 0.00 0.00 0.00 0.00 0.00 0.01 0.02 0.01 0.01 0.01 0.01 0.00 0.00 0.00 0.00 0.00 0.00 0.00 0.00 0.00 0.00 0.00 0.00 0.00 0.00 0.00 0.00 0.00 0.00 0.00
0.00 0.00 0.00 0.00 0.01 0.01 0.00 0.00 0.00 0.00 0.00 0.00 0.00 0.00 0.00 0.00 0.00 0.00 0.00 0.00 0.00 0.00 0.00 0.00 0.00 0.00 0.00 0.00 0.00 0.00 0.00 0.00 0.00 0.00 0.00 0.00 0.00 0.00 0.00 0.00 0.00 0.00 0.00
0.01 0.00 0.00 0.00 0.00 0.00 0.00 0.00 0.00 0.00 0.00 0.00 0.00 0.00 0.00 0.00 0.00 0.00 0.00 0.00 0.00 0.00 0.00 0.00 0.00 0.00 0.00 0.00 0.00 0.00 0.00 0.00 0.00 0.00 0.00 0.00 0.00 0.00 0.00 0.00 0.00 0.00 0.00
0.01 0.00 0.00 0.00 0.00 0.00 0.00 0.00 0.00 0.00 0.00 0.00 0.00 0.00 0.00 0.00 0.00 0.00 0.00 0.00 0.00 0.00 0.01 0.00 0.00 0.00 0.00 0.00 0.00 0.00 0.00 0.00 0.00 0.00 0.00 0.00 0.00 0.00 0.00 0.00 0.00 0.00 0.00
0.00 0.00 0.00 0.00 0.00 0.00 0.00 0.00 0.00 0.00 0.00 0.00 0.00 0.00 0.00 0.00 0.00 0.00 0.00 0.00 0.01 0.01 0.00 0.00 0.00 0.00 0.00 0.00 0.00 0.00 0.00 0.00 0.00 0.00 0.00 0.00 0.00 0.00 0.01 0.02 0.03 0.02 0.01
0.00 0.00 0.00 0.00 0.00 0.00 0.00 0.00 0.00 0.00 0.00 0.00 0.00 0.00 0.00 0.00 0.00 0.00 0.00 0.00 0.00 0.00 0.00 0.00 0.00 0.00 0.00 0.00 0.00 0.00 0.00 0.00 0.00 0.01 0.02 0.02 0.02 0.03 0.06 0.07 0.05 0.03 0.03
0.00 0.00 0.00 0.00 0.00 0.00 0.00 0.00 0.00 0.00 0.00 0.00 0.00 0.00 0.01 0.03 0.00 0.00 0.00 0.00 0.00 0.00 0.00 0.00 0.00 0.00 0.00 0.00 0.00 0.00 0.00 0.00 0.02 0.04 0.04 0.05 0.08 0.06 0.04 0.04 0.02 0.03 0.03
0.00 0.00 0.00 0.00 0.00 0.00 0.00 0.00 0.00 0.00 0.00 0.00 0.00 0.00 0.02 0.03 0.00 0.00 0.00 0.00 0.00 0.00 0.00 0.00 0.00 0.00 0.00 0.00 0.00 0.00 0.00 0.00 0.00 0.01 0.02 0.02 0.01 0.01 0.01 0.02 0.04 0.04 0.03
0.00 0.00 0.00 0.00 0.00 0.00 0.00 0.00 0.00 0.00 0.00 0.00 0.00 0.01 0.02 0.02 0.00 0.00 0.00 0.00 0.00 0.00 0.00 0.00 0.00 0.00 0.00 0.00 0.00 0.00 0.00 0.00 0.00 0.00 0.00 0.00 0.00 0.00 0.01 0.06 0.07 0.11 0.10
0.00 0.00 0.00 0.00 0.00 0.00 0.00 0.00 0.00 0.00 0.00 0.00 0.00 0.00 0.01 0.01 0.00 0.00 0.00 0.00 0.00 0.00 0.00 0.00 0.00 0.00 0.00 0.00 0.00 0.00 0.01 0.01 0.00 0.00 0.00 0.00 0.00 0.01 0.02 0.07 0.14 0.20 0.12
0.00 0.00 0.00 0.00 0.00 0.00 0.00 0.00 0.00 0.00 0.00 0.00 0.00 0.00 0.01 0.01 0.00 0.00 0.00 0.00 0.00 0.00 0.00 0.00 0.00 0.00 0.00 0.00 0.00 0.00 0.01 0.00 0.00 0.01 0.01 0.01 0.01 0.02 0.02 0.01 0.02 0.05 0.09
0.00 0.00 0.00 0.00 0.00 0.00 0.00 0.00 0.00 0.00 0.00 0.01 0.01 0.00 0.01 0.01 0.00 0.00 0.00 0.00 0.00 0.00 0.00 0.00 0.00 0.00 0.00 0.00 0.00 0.00 0.00 0.00 0.00 0.00 0.00 0.01 0.01 0.01 0.01 0.00 0.01 0.02 0.04
0.00 0.00 0.00 0.00 0.00 0.00 0.00 0.00 0.00 0.00 0.00 0.00 0.02 0.02 0.02 0.02 0.01 0.00 0.00 0.00 0.00 0.00 0.00 0.00 0.00 0.00 0.00 0.00 0.00 0.00 0.00 0.00 0.00 0.00 0.00 0.01 0.01 0.01 0.01 0.02 0.02 0.02 0.04
0.00 0.00 0.00 0.00 0.00 0.00 0.00 0.00 0.00 0.00 0.00 0.00 0.01 0.02 0.02 0.01 0.01 0.01 0.02 0.01 0.01 0.01 0.01 0.00 0.00 0.00 0.00 0.00 0.00 0.00 0.00 0.00 0.00 0.00 0.00 0.00 0.01 0.01 0.01 0.01 0.01 0.01 0.06
0.00 0.00 0.00 0.00 0.00 0.00 0.00 0.00 0.00 0.00 0.00 0.00 0.00 0.01 0.01 0.01 0.01 0.01 0.01 0.02 0.03 0.03 0.02 0.02 0.01 0.01 0.00 0.00 0.00 0.00 0.00 0.00 0.00 0.00 0.00 0.00 0.00 0.00 0.00 0.01 0.01 0.01 0.03
0.00 0.00 0.00 0.00 0.00 0.00 0.00 0.00 0.00 0.00 0.00 0.00 0.00 0.00 0.00 0.00 0.00 0.00 0.00 0.00 0.00 0.00 0.02 0.01 0.01 0.01 0.01 0.01 0.00 0.00 0.00 0.00 0.00 0.00 0.00 0.00 0.00 0.00 0.00 0.01 0.01 0.01 0.01
0.00 0.00 0.00 0.00 0.00 0.00 0.00 0.00 0.00 0.00 0.00 0.00 0.00 0.00 0.00 0.00 0.00 0.00 0.00 0.00 0.01 0.03 0.05 0.01 0.01 0.01 0.01 0.01 0.00 0.00 0.00 0.00 0.00 0.00 0.00 0.00 0.00 0.00 0.00 0.01 0.01 0.01 0.00
0.00 0.00 0.00 0.00 0.00 0.00 0.00 0.01 0.01 0.02 0.02 0.01 0.00 0.00 0.00 0.00 0.00 0.00 0.00 0.04 0.05 0.03 0.02 0.01 0.01 0.01 0.01 0.00 0.00 0.00 0.00 0.00 0.00 0.00 0.00 0.00 0.00 0.00 0.00 0.00 0.00 0.00 0.00
0.00 0.00 0.00 0.01 0.01 0.01 0.01 0.02 0.03 0.04 0.06 0.06 0.04 0.02 0.00 0.00 0.00 0.00 0.01 0.11 0.06 0.02 0.02 0.03 0.02 0.01 0.01 0.00 0.00 0.00 0.00 0.00 0.00 0.00 0.00 0.00 0.00 0.00 0.00 0.00 0.00 0.00 0.00
0.00 0.00 0.01 0.02 0.02 0.02 0.03 0.06 0.11 0.12 0.13 0.12 0.07 0.02 0.01 0.04 0.06 0.02 0.02 0.04 0.05 0.03 0.01 0.02 0.01 0.01 0.01 0.01 0.00 0.00 0.00 0.00 0.00 0.00 0.00 0.00 0.00 0.00 0.00 0.00 0.00 0.00 0.00
0.01 0.01 0.02 0.02 0.03 0.06 0.10 0.12 0.13 0.15 0.12 0.06 0.03 0.01 0.02 0.08 0.07 0.05 0.06 0.08 0.07 0.05 0.05 0.03 0.02 0.02 0.01 0.01 0.00 0.00 0.00 0.00 0.00 0.00 0.00 0.00 0.00 0.00 0.00 0.00 0.00 0.00 0.00
0.02 0.02 0.03 0.05 0.07 0.08 0.10 0.10 0.10 0.10 0.10 0.06 0.05 0.04 0.03 0.07 0.06 0.06 0.06 0.06 0.07 0.09 0.08 0.09 0.06 0.03 0.01 0.00 0.00 0.01 0.01 0.00 0.00 0.00 0.00 0.00 0.00 0.00 0.00 0.00 0.00 0.00 0.00
0.04 0.06 0.08 0.08 0.09 0.10 0.08 0.14 0.20 0.18 0.14 0.13 0.11 0.08 0.09 0.16 0.16 0.14 0.11 0.07 0.06 0.08 0.08 0.11 0.12 0.09 0.04 0.02 0.01 0.01 0.01 0.00 0.00 0.00 0.00 0.00 0.00 0.00 0.00 0.00 0.00 0.00 0.00
0.05 0.05 0.05 0.07 0.14 0.16 0.21 0.19 0.14 0.12 0.13 0.12 0.11 0.12 0.13 0.12 0.13 0.11 0.10 0.10 0.12 0.12 0.11 0.12 0.11 0.09 0.08 0.07 0.05 0.03 0.01 0.00 0.00 0.00 0.00 0.00 0.00 0.00 0.00 0.00 0.00 0.00 0.00
0.09 0.12 0.16 0.20 0.15 0.12 0.10 0.08 0.08 0.07 0.08 0.09 0.09 0.08 0.08 0.08 0.08 0.06 0.06 0.07 0.09 0.08 0.08 0.08 0.09 0.08 0.07 0.08 0.08 0.04 0.03 0.02 0.01 0.00 0.00 0.00 0.00 0.00 0.00 0.00 0.00 0.00 0.00
0.13 0.14 0.12 0.07 0.07 0.06 0.05 0.05 0.05 0.04 0.04 0.05 0.05 0.05 0.05 0.05 0.04 0.04 0.04 0.06 0.08 0.09 0.08 0.08 0.07 0.06 0.05 0.07 0.09 0.07 0.06 0.04 0.02 0.01 0.00 0.00 0.00 0.00 0.00 0.00 0.00 0.00 0.00

GFSGL_prec_precacc12_063.txt.gz
Total_Precipitation_Accumulation
0.00 0.00 0.00 0.00 0.00 0.01 0.02 0.03 0.03 0.01 0.00 0.00 0.00 0.00 0.00 0.00 0.00 0.00 0.00 0.00 0.00 0.00 0.00 0.00 0.00 0.00 0.00 0.00 0.00 0.00 0.01 0.01 0.00 0.00 0.00 0.00 0.00 0.00 0.00 0.00 0.00 0.00 0.00
0.00 0.00 0.00 0.00 0.02 0.06 0.07 0.03 0.00 0.00 0.00 0.00 0.00 0.00 0.00 0.00 0.00 0.00 0.00 0.00 0.00 0.00 0.00 0.00 0.00 0.00 0.00 0.00 0.00 0.00 0.00 0.00 0.00 0.00 0.00 0.00 0.00 0.00 0.00 0.00 0.00 0.00 0.00
0.01 0.01 0.01 0.02 0.02 0.01 0.00 0.00 0.00 0.00 0.00 0.00 0.00 0.00 0.00 0.00 0.00 0.00 0.00 0.00 0.00 0.00 0.00 0.00 0.00 0.00 0.00 0.00 0.00 0.00 0.00 0.00 0.00 0.00 0.00 0.00 0.00 0.00 0.00 0.00 0.00 0.00 0.00
0.02 0.02 0.01 0.01 0.01 0.00 0.00 0.00 0.00 0.00 0.00 0.00 0.00 0.00 0.00 0.00 0.00 0.00 0.00 0.00 0.00 0.00 0.00 0.00 0.00 0.00 0.00 0.00 0.00 0.00 0.00 0.00 0.00 0.00 0.00 0.00 0.00 0.00 0.00 0.00 0.00 0.00 0.00
0.02 0.01 0.00 0.00 0.00 0.00 0.00 0.00 0.00 0.00 0.00 0.00 0.00 0.00 0.00 0.00 0.00 0.00 0.00 0.00 0.00 0.00 0.00 0.00 0.00 0.00 0.00 0.00 0.00 0.00 0.00 0.00 0.00 0.00 0.00 0.00 0.00 0.00 0.00 0.01 0.03 0.01 0.00
0.01 0.00 0.00 0.00 0.00 0.00 0.00 0.00 0.00 0.00 0.00 0.00 0.00 0.00 0.00 0.00 0.00 0.00 0.00 0.00 0.00 0.00 0.00 0.00 0.00 0.00 0.00 0.00 0.00 0.00 0.00 0.00 0.00 0.00 0.01 0.01 0.01 0.02 0.05 0.05 0.02 0.01 0.01
0.00 0.00 0.00 0.00 0.00 0.00 0.00 0.00 0.00 0.00 0.00 0.00 0.00 0.00 0.00 0.01 0.00 0.00 0.00 0.00 0.00 0.00 0.00 0.00 0.00 0.00 0.00 0.00 0.00 0.00 0.00 0.00 0.00 0.01 0.02 0.03 0.05 0.03 0.02 0.00 0.00 0.01 0.01
0.00 0.00 0.00 0.00 0.00 0.00 0.00 0.00 0.00 0.00 0.00 0.00 0.00 0.00 0.00 0.01 0.00 0.00 0.00 0.00 0.00 0.00 0.00 0.00 0.00 0.00 0.00 0.00 0.00 0.00 0.00 0.00 0.00 0.00 0.01 0.00 0.00 0.00 0.00 0.01 0.02 0.02 0.01
0.00 0.00 0.00 0.00 0.00 0.00 0.00 0.00 0.00 0.00 0.00 0.00 0.00 0.00 0.01 0.01 0.00 0.00 0.00 0.00 0.00 0.00 0.00 0.00 0.00 0.00 0.00 0.00 0.00 0.00 0.00 0.00 0.00 0.00 0.00 0.00 0.00 0.00 0.01 0.03 0.03 0.06 0.06
0.00 0.00 0.00 0.00 0.00 0.00 0.00 0.00 0.00 0.00 0.00 0.00 0.00 0.00 0.00 0.00 0.00 0.00 0.00 0.00 0.00 0.00 0.00 0.00 0.00 0.00 0.00 0.00 0.00 0.00 0.00 0.00 0.00 0.00 0.00 0.00 0.00 0.00 0.01 0.03 0.06 0.11 0.07
0.00 0.00 0.00 0.00 0.00 0.00 0.00 0.00 0.00 0.00 0.00 0.00 0.00 0.00 0.00 0.00 0.00 0.00 0.00 0.00 0.00 0.00 0.00 0.00 0.00 0.00 0.00 0.00 0.00 0.00 0.00 0.00 0.00 0.00 0.00 0.00 0.00 0.01 0.01 0.00 0.00 0.02 0.06
0.00 0.00 0.00 0.00 0.00 0.00 0.00 0.00 0.00 0.00 0.00 0.00 0.00 0.00 0.00 0.01 0.00 0.00 0.00 0.00 0.00 0.00 0.00 0.00 0.00 0.00 0.00 0.00 0.00 0.00 0.00 0.00 0.00 0.00 0.00 0.00 0.00 0.00 0.00 0.00 0.00 0.01 0.02
0.00 0.00 0.00 0.00 0.00 0.00 0.00 0.00 0.00 0.00 0.00 0.00 0.00 0.01 0.01 0.01 0.01 0.00 0.00 0.00 0.00 0.01 0.01 0.00 0.00 0.00 0.00 0.00 0.00 0.00 0.00 0.00 0.00 0.00 0.00 0.00 0.00 0.00 0.00 0.00 0.00 0.00 0.00
0.00 0.00 0.00 0.00 0.00 0.00 0.00 0.00 0.00 0.00 0.00 0.00 0.00 0.01 0.01 0.00 0.00 0.01 0.01 0.01 0.00 0.01 0.01 0.01 0.01 0.02 0.02 0.01 0.00 0.00 0.00 0.00 0.00 0.00 0.00 0.00 0.00 0.00 0.00 0.00 0.00 0.00 0.00
0.00 0.00 0.00 0.00 0.00 0.00 0.00 0.00 0.00 0.00 0.00 0.00 0.00 0.00 0.00 0.00 0.00 0.00 0.01 0.02 0.03 0.02 0.03 0.03 0.02 0.02 0.02 0.01 0.00 0.00 0.00 0.00 0.00 0.00 0.00 0.00 0.00 0.00 0.00 0.00 0.00 0.00 0.01
0.00 0.00 0.00 0.00 0.00 0.00 0.00 0.00 0.00 0.00 0.00 0.00 0.00 0.00 0.00 0.00 0.00 0.00 0.00 0.00 0.00 0.01 0.04 0.02 0.00 0.01 0.01 0.01 0.00 0.00 0.00 0.00 0.00 0.00 0.00 0.00 0.00 0.00 0.00 0.00 0.00 0.00 0.00
0.00 0.00 0.00 0.00 0.00 0.00 0.00 0.00 0.00 0.00 0.00 0.00 0.00 0.00 0.01 0.03 0.06 0.06 0.02 0.00 0.01 0.04 0.10 0.02 0.01 0.01 0.01 0.02 0.01 0.00 0.00 0.00 0.00 0.00 0.00 0.00 0.00 0.00 0.00 0.00 0.00 0.00 0.00
0.00 0.00 0.00 0.00 0.00 0.00 0.00 0.01 0.01 0.02 0.02 0.01 0.00 0.01 0.03 0.08 0.10 0.07 0.02 0.05 0.07 0.04 0.04 0.01 0.01 0.01 0.01 0.02 0.01 0.00 0.00 0.00 0.00 0.00 0.00 0.00 0.00 0.00 0.00 0.00 0.00 0.00 0.00
0.00 0.00 0.00 0.00 0.00 0.01 0.01 0.02 0.02 0.04 0.06 0.06 0.05 0.04 0.06 0.06 0.02 0.01 0.01 0.11 0.06 0.03 0.02 0.04 0.03 0.03 0.02 0.01 0.01 0.00 0.00 0.00 0.00 0.00 0.00 0.00 0.00 0.00 0.00 0.00 0.00 0.00 0.00
0.00 0.00 0.01 0.02 0.01 0.01 0.02 0.06 0.10 0.12 0.13 0.13 0.11 0.10 0.04 0.03 0.04 0.01 0.00 0.02 0.05 0.04 0.02 0.03 0.01 0.03 0.04 0.02 0.02 0.01 0.00 0.00 0.00 0.00 0.00 0.00 0.00 0.00 0.00 0.00 0.00 0.00 0.00
0.01 0.01 0.02 0.02 0.02 0.04 0.08 0.11 0.12 0.14 0.13 0.12 0.11 0.08 0.06 0.11 0.07 0.05 0.05 0.08 0.09 0.07 0.07 0.07 0.05 0.05 0.04 0.04 0.03 0.02 0.01 0.00 0.00 0.00 0.00 0.00 0.00 0.00 0.00 0.00 0.00 0.00 0.00
0.02 0.02 0.02 0.05 0.06 0.07 0.09 0.09 0.09 0.11 0.12 0.11 0.08 0.07 0.07 0.10 0.09 0.08 0.09 0.10 0.09 0.10 0.09 0.11 0.10 0.08 0.06 0.05 0.04 0.05 0.03 0.01 0.00 0.00 0.00 0.00 0.00 0.00 0.00 0.00 0.00 0.00 0.00
0.04 0.06 0.08 0.08 0.08 0.09 0.07 0.12 0.18 0.17 0.13 0.12 0.10 0.07 0.08 0.14 0.16 0.14 0.11 0.08 0.07 0.08 0.09 0.13 0.13 0.10 0.06 0.07 0.07 0.07 0.06 0.02 0.01 0.01 0.00 0.00 0.00 0.00 0.00 0.00 0.00 0.00 0.00
0.03 0.04 0.04 0.06 0.13 0.15 0.19 0.16 0.11 0.10 0.09 0.08 0.08 0.09 0.10 0.09 0.10 0.09 0.09 0.09 0.11 0.11 0.10 0.12 0.11 0.11 0.11 0.10 0.09 0.08 0.06 0.05 0.05 0.02 0.00 0.00 0.00 0.00 0.00 0.00 0.00 0.00 0.00
0.06 0.09 0.14 0.18 0.14 0.10 0.07 0.06 0.05 0.04 0.05 0.06 0.07 0.06 0.05 0.05 0.05 0.03 0.03 0.04 0.05 0.05 0.06 0.07 0.09 0.09 0.08 0.09 0.10 0.06 0.06 0.09 0.08 0.04 0.01 0.00 0.00 0.00 0.00 0.00 0.00 0.00 0.00
0.08 0.10 0.10 0.07 0.06 0.05 0.04 0.03 0.03 0.02 0.02 0.02 0.03 0.03 0.03 0.03 0.03 0.02 0.02 0.02 0.03 0.05 0.06 0.07 0.07 0.06 0.06 0.08 0.10 0.08 0.09 0.12 0.10 0.05 0.02 0.00 0.00 0.00 0.00 0.00 0.00 0.00 0.00

GFSGL_prec_precacc12_066.txt.gz
Total_Precipitation_Accumulation
0.00 0.00 0.00 0.00 0.00 0.01 0.02 0.03 0.04 0.05 0.04 0.00 0.00 0.00 0.00 0.00 0.00 0.00 0.00 0.00 0.00 0.00 0.00 0.00 0.00 0.00 0.00 0.00 0.00 0.00 0.01 0.01 0.00 0.00 0.00 0.00 0.00 0.00 0.00 0.00 0.00 0.00 0.00
0.00 0.00 0.00 0.00 0.02 0.06 0.07 0.05 0.03 0.02 0.00 0.00 0.00 0.00 0.00 0.00 0.00 0.00 0.00 0.00 0.00 0.00 0.00 0.00 0.00 0.00 0.00 0.00 0.00 0.00 0.00 0.00 0.00 0.00 0.00 0.00 0.00 0.00 0.00 0.00 0.00 0.00 0.00
0.02 0.01 0.02 0.02 0.02 0.02 0.04 0.05 0.02 0.00 0.00 0.00 0.00 0.00 0.00 0.00 0.00 0.00 0.00 0.00 0.00 0.00 0.00 0.00 0.00 0.00 0.00 0.00 0.00 0.00 0.00 0.00 0.00 0.00 0.00 0.00 0.00 0.00 0.00 0.00 0.00 0.00 0.00
0.05 0.04 0.03 0.03 0.02 0.01 0.00 0.00 0.00 0.00 0.00 0.00 0.00 0.00 0.00 0.00 0.00 0.00 0.00 0.00 0.00 0.00 0.00 0.00 0.00 0.00 0.00 0.00 0.00 0.00 0.00 0.00 0.00 0.00 0.00 0.00 0.00 0.00 0.00 0.00 0.00 0.00 0.00
0.06 0.04 0.05 0.03 0.00 0.00 0.00 0.00 0.00 0.00 0.00 0.00 0.00 0.00 0.00 0.00 0.00 0.00 0.00 0.00 0.00 0.00 0.00 0.00 0.00 0.00 0.00 0.00 0.00 0.00 0.00 0.00 0.00 0.00 0.00 0.00 0.00 0.00 0.00 0.01 0.02 0.00 0.00
0.06 0.06 0.03 0.00 0.00 0.00 0.00 0.00 0.00 0.00 0.00 0.00 0.00 0.00 0.00 0.00 0.00 0.00 0.00 0.00 0.00 0.00 0.00 0.00 0.00 0.00 0.00 0.00 0.00 0.00 0.00 0.00 0.00 0.00 0.00 0.00 0.00 0.01 0.03 0.02 0.00 0.00 0.01
0.01 0.00 0.00 0.00 0.00 0.00 0.00 0.00 0.00 0.00 0.00 0.00 0.00 0.00 0.00 0.00 0.00 0.00 0.00 0.00 0.00 0.00 0.00 0.00 0.00 0.00 0.00 0.00 0.00 0.00 0.00 0.00 0.00 0.00 0.00 0.01 0.03 0.01 0.00 0.00 0.00 0.01 0.01
0.00 0.00 0.00 0.00 0.00 0.00 0.00 0.00 0.00 0.00 0.00 0.00 0.00 0.00 0.00 0.00 0.00 0.00 0.00 0.00 0.00 0.00 0.00 0.00 0.00 0.00 0.00 0.00 0.00 0.00 0.00 0.00 0.00 0.00 0.00 0.00 0.00 0.00 0.00 0.01 0.02 0.02 0.01
0.00 0.00 0.00 0.00 0.00 0.00 0.00 0.00 0.00 0.00 0.00 0.00 0.00 0.00 0.00 0.00 0.00 0.00 0.00 0.00 0.00 0.00 0.00 0.00 0.00 0.00 0.00 0.00 0.00 0.00 0.00 0.00 0.00 0.00 0.00 0.00 0.00 0.00 0.00 0.02 0.02 0.05 0.02
0.00 0.00 0.00 0.00 0.00 0.00 0.00 0.00 0.00 0.00 0.00 0.00 0.00 0.00 0.00 0.00 0.00 0.00 0.00 0.00 0.00 0.00 0.00 0.00 0.00 0.00 0.00 0.00 0.00 0.00 0.00 0.00 0.00 0.00 0.00 0.00 0.00 0.00 0.00 0.01 0.03 0.04 0.02
0.00 0.00 0.00 0.00 0.00 0.00 0.00 0.00 0.00 0.00 0.00 0.00 0.00 0.00 0.00 0.00 0.00 0.00 0.00 0.00 0.00 0.00 0.00 0.00 0.00 0.00 0.00 0.00 0.00 0.00 0.00 0.00 0.00 0.00 0.00 0.00 0.00 0.00 0.00 0.00 0.00 0.02 0.05
0.00 0.00 0.00 0.00 0.00 0.00 0.00 0.00 0.00 0.00 0.00 0.00 0.00 0.00 0.00 0.00 0.00 0.00 0.00 0.00 0.00 0.00 0.00 0.00 0.00 0.00 0.00 0.00 0.00 0.00 0.00 0.00 0.00 0.00 0.00 0.00 0.00 0.00 0.00 0.00 0.00 0.00 0.01
0.00 0.00 0.00 0.00 0.00 0.00 0.00 0.00 0.00 0.00 0.00 0.00 0.00 0.00 0.00 0.00 0.00 0.00 0.00 0.00 0.00 0.01 0.01 0.01 0.01 0.02 0.03 0.03 0.01 0.01 0.00 0.00 0.00 0.01 0.00 0.00 0.00 0.00 0.00 0.00 0.00 0.00 0.00
0.00 0.00 0.00 0.00 0.00 0.00 0.00 0.00 0.00 0.00 0.00 0.00 0.00 0.01 0.01 0.00 0.00 0.00 0.00 0.00 0.00 0.01 0.01 0.01 0.02 0.03 0.03 0.03 0.02 0.02 0.03 0.01 0.01 0.00 0.00 0.00 0.00 0.00 0.00 0.00 0.00 0.00 0.00
0.00 0.00 0.00 0.00 0.00 0.00 0.00 0.00 0.00 0.00 0.00 0.00 0.00 0.00 0.01 0.01 0.00 0.00 0.00 0.01 0.03 0.03 0.02 0.03 0.02 0.02 0.02 0.01 0.01 0.01 0.01 0.01 0.01 0.00 0.00 0.00 0.00 0.00 0.00 0.00 0.00 0.00 0.00
0.00 0.00 0.00 0.00 0.00 0.00 0.00 0.00 0.00 0.00 0.00 0.00 0.00 0.00 0.00 0.00 0.00 0.00 0.01 0.05 0.08 0.10 0.12 0.03 0.01 0.00 0.01 0.01 0.01 0.01 0.01 0.01 0.01 0.00 0.00 0.00 0.00 0.00 0.00 0.00 0.00 0.00 0.00
0.00 0.00 0.00 0.00 0.00 0.00 0.00 0.00 0.00 0.00 0.00 0.00 0.00 0.00 0.01 0.04 0.06 0.09 0.11 0.13 0.14 0.15 0.20 0.04 0.01 0.00 0.01 0.02 0.02 0.01 0.01 0.00 0.00 0.00 0.00 0.00 0.00 0.00 0.00 0.00 0.00 0.00 0.00
0.00 0.00 0.00 0.00 0.00 0.00 0.00 0.01 0.01 0.01 0.02 0.01 0.00 0.01 0.04 0.09 0.12 0.10 0.09 0.14 0.12 0.06 0.07 0.05 0.04 0.02 0.02 0.03 0.03 0.03 0.01 0.01 0.00 0.00 0.00 0.00 0.00 0.00 0.00 0.00 0.00 0.00 0.00
0.00 0.00 0.00 0.00 0.00 0.01 0.01 0.02 0.02 0.04 0.06 0.06 0.05 0.05 0.08 0.09 0.03 0.02 0.02 0.13 0.08 0.04 0.02 0.04 0.04 0.05 0.04 0.03 0.04 0.04 0.03 0.01 0.00 0.00 0.00 0.00 0.00 0.00 0.00 0.00 0.00 0.00 0.00
0.00 0.00 0.01 0.01 0.01 0.01 0.02 0.05 0.09 0.10 0.11 0.12 0.12 0.12 0.07 0.04 0.03 0.01 0.02 0.04 0.07 0.06 0.05 0.06 0.03 0.05 0.07 0.06 0.04 0.05 0.04 0.02 0.01 0.00 0.00 0.00 0.00 0.00 0.00 0.00 0.00 0.00 0.00
0.00 0.00 0.01 0.01 0.02 0.03 0.07 0.10 0.11 0.12 0.11 0.10 0.11 0.09 0.08 0.11 0.09 0.06 0.07 0.09 0.10 0.09 0.08 0.09 0.07 0.07 0.08 0.10 0.10 0.08 0.05 0.03 0.01 0.00 0.00 0.00 0.01 0.00 0.00 0.00 0.00 0.00 0.00
0.01 0.01 0.01 0.02 0.04 0.06 0.08 0.09 0.09 0.11 0.12 0.10 0.07 0.06 0.06 0.07 0.08 0.09 0.10 0.11 0.11 0.12 0.11 0.13 0.11 0.09 0.09 0.10 0.10 0.11 0.08 0.05 0.03 0.02 0.00 0.00 0.01 0.00 0.00 0.00 0.00 0.00 0.00
0.01 0.00 0.01 0.02 0.06 0.08 0.06 0.12 0.17 0.15 0.12 0.10 0.08 0.05 0.05 0.09 0.10 0.10 0.10 0.08 0.07 0.08 0.09 0.14 0.15 0.11 0.07 0.09 0.11 0.13 0.13 0.07 0.04 0.05 0.03 0.01 0.01 0.00 0.00 0.00 0.00 0.00 0.00
0.01 0.01 0.02 0.04 0.11 0.13 0.17 0.15 0.09 0.07 0.06 0.04 0.04 0.06 0.07 0.06 0.07 0.05 0.05 0.05 0.07 0.08 0.08 0.10 0.11 0.12 0.12 0.10 0.10 0.10 0.10 0.10 0.13 0.09 0.05 0.02 0.01 0.00 0.00 0.00 0.00 0.00 0.00
0.02 0.02 0.04 0.09 0.08 0.07 0.04 0.03 0.03 0.02 0.02 0.02 0.03 0.03 0.03 0.03 0.03 0.02 0.02 0.02 0.02 0.02 0.02 0.04 0.06 0.08 0.08 0.09 0.10 0.08 0.08 0.11 0.13 0.12 0.08 0.03 0.01 0.01 0.00 0.00 0.00 0.00 0.00
0.02 0.02 0.03 0.02 0.03 0.03 0.03 0.03 0.03 0.02 0.02 0.02 0.02 0.02 0.02 0.02 0.02 0.01 0.00 0.01 0.02 0.03 0.03 0.03 0.04 0.04 0.05 0.07 0.08 0.07 0.09 0.13 0.15 0.12 0.09 0.03 0.01 0.01 0.00 0.00 0.00 0.00 0.00

GFSGL_prec_precacc12_069.txt.gz
Total_Precipitation_Accumulation
0.00 0.01 0.02 0.02 0.02 0.05 0.05 0.04 0.05 0.06 0.08 0.10 0.08 0.01 0.00 0.00 0.00 0.00 0.00 0.00 0.00 0.00 0.00 0.00 0.00 0.00 0.00 0.00 0.00 0.00 0.01 0.01 0.01 0.00 0.00 0.00 0.00 0.00 0.00 0.00 0.00 0.00 0.00
0.00 0.01 0.03 0.04 0.05 0.08 0.08 0.06 0.08 0.11 0.08 0.01 0.00 0.00 0.00 0.00 0.00 0.00 0.00 0.00 0.00 0.00 0.00 0.00 0.00 0.00 0.00 0.00 0.00 0.00 0.00 0.00 0.00 0.00 0.00 0.00 0.00 0.00 0.00 0.00 0.00 0.00 0.00
0.04 0.06 0.07 0.06 0.03 0.04 0.11 0.14 0.04 0.01 0.00 0.00 0.00 0.00 0.00 0.00 0.00 0.00 0.00 0.00 0.00 0.00 0.00 0.00 0.00 0.00 0.00 0.00 0.00 0.00 0.00 0.00 0.00 0.00 0.00 0.00 0.00 0.00 0.00 0.00 0.00 0.00 0.00
0.11 0.10 0.08 0.05 0.05 0.07 0.04 0.02 0.00 0.00 0.00 0.00 0.00 0.00 0.00 0.00 0.00 0.00 0.00 0.00 0.00 0.00 0.00 0.00 0.00 0.00 0.00 0.00 0.00 0.00 0.00 0.00 0.00 0.00 0.00 0.00 0.00 0.00 0.00 0.00 0.00 0.00 0.00
0.15 0.10 0.09 0.17 0.27 0.20 0.05 0.00 0.01 0.00 0.00 0.00 0.00 0.00 0.00 0.00 0.00 0.00 0.00 0.00 0.00 0.00 0.00 0.00 0.00 0.00 0.00 0.00 0.00 0.00 0.00 0.00 0.00 0.00 0.00 0.00 0.00 0.00 0.00 0.01 0.01 0.00 0.00
0.08 0.10 0.18 0.22 0.10 0.01 0.00 0.01 0.00 0.00 0.00 0.00 0.00 0.00 0.00 0.00 0.00 0.00 0.00 0.00 0.00 0.00 0.00 0.00 0.00 0.00 0.00 0.00 0.00 0.00 0.00 0.00 0.00 0.00 0.00 0.00 0.00 0.00 0.01 0.00 0.00 0.00 0.01
0.02 0.02 0.02 0.01 0.00 0.00 0.00 0.00 0.00 0.00 0.00 0.00 0.00 0.00 0.00 0.00 0.00 0.00 0.00 0.00 0.00 0.00 0.00 0.00 0.00 0.00 0.00 0.00 0.00 0.00 0.00 0.00 0.00 0.00 0.00 0.00 0.00 0.00 0.00 0.00 0.00 0.01 0.01
0.00 0.00 0.00 0.00 0.00 0.00 0.00 0.00 0.00 0.00 0.00 0.00 0.00 0.00 0.00 0.00 0.00 0.00 0.00 0.00 0.00 0.00 0.00 0.00 0.00 0.00 0.00 0.00 0.00 0.00 0.00 0.00 0.00 0.00 0.00 0.00 0.00 0.00 0.00 0.01 0.02 0.02 0.01
0.00 0.00 0.00 0.00 0.00 0.00 0.00 0.00 0.00 0.00 0.00 0.00 0.00 0.00 0.00 0.00 0.00 0.00 0.00 0.00 0.00 0.00 0.00 0.00 0.00 0.00 0.00 0.00 0.00 0.00 0.00 0.00 0.00 0.00 0.00 0.00 0.00 0.00 0.00 0.01 0.01 0.02 0.01
0.00 0.00 0.00 0.00 0.00 0.00 0.00 0.00 0.00 0.00 0.00 0.00 0.00 0.00 0.00 0.00 0.00 0.00 0.00 0.00 0.00 0.00 0.00 0.00 0.00 0.00 0.00 0.00 0.00 0.00 0.00 0.00 0.00 0.00 0.00 0.00 0.00 0.00 0.00 0.00 0.00 0.02 0.01
0.00 0.00 0.00 0.00 0.00 0.00 0.00 0.00 0.00 0.00 0.00 0.00 0.00 0.00 0.00 0.00 0.00 0.00 0.00 0.00 0.00 0.00 0.00 0.00 0.00 0.00 0.00 0.00 0.00 0.00 0.00 0.00 0.00 0.00 0.00 0.00 0.00 0.00 0.00 0.00 0.00 0.00 0.01
0.00 0.00 0.00 0.00 0.00 0.00 0.00 0.00 0.00 0.00 0.00 0.00 0.00 0.00 0.00 0.00 0.00 0.00 0.00 0.00 0.00 0.01 0.00 0.00 0.00 0.00 0.00 0.00 0.00 0.00 0.00 0.00 0.01 0.00 0.00 0.00 0.00 0.00 0.00 0.00 0.00 0.00 0.00
0.00 0.00 0.00 0.00 0.00 0.00 0.00 0.00 0.00 0.00 0.00 0.00 0.00 0.00 0.00 0.00 0.00 0.00 0.00 0.00 0.00 0.03 0.02 0.01 0.01 0.02 0.04 0.06 0.04 0.04 0.05 0.05 0.03 0.02 0.00 0.00 0.00 0.00 0.00 0.00 0.00 0.00 0.00
0.00 0.00 0.00 0.00 0.00 0.00 0.00 0.00 0.00 0.00 0.00 0.00 0.00 0.00 0.00 0.00 0.00 0.00 0.00 0.00 0.01 0.02 0.03 0.04 0.04 0.05 0.04 0.04 0.02 0.03 0.06 0.05 0.03 0.02 0.01 0.00 0.00 0.00 0.00 0.00 0.00 0.00 0.00
0.00 0.00 0.00 0.00 0.00 0.00 0.00 0.00 0.00 0.00 0.00 0.00 0.00 0.00 0.01 0.01 0.00 0.00 0.01 0.02 0.04 0.05 0.08 0.10 0.07 0.05 0.05 0.03 0.02 0.01 0.02 0.03 0.04 0.02 0.02 0.01 0.00 0.00 0.00 0.00 0.00 0.00 0.00
0.00 0.00 0.00 0.00 0.00 0.00 0.00 0.00 0.00 0.00 0.00 0.00 0.00 0.00 0.00 0.01 0.00 0.01 0.02 0.06 0.09 0.12 0.24 0.13 0.05 0.04 0.04 0.02 0.02 0.01 0.01 0.02 0.01 0.02 0.02 0.01 0.00 0.00 0.00 0.00 0.00 0.00 0.00
0.00 0.00 0.00 0.00 0.00 0.00 0.00 0.00 0.00 0.00 0.00 0.00 0.00 0.00 0.02 0.04 0.07 0.10 0.12 0.15 0.14 0.18 0.31 0.15 0.10 0.07 0.05 0.04 0.03 0.03 0.01 0.01 0.01 0.01 0.00 0.00 0.00 0.00 0.00 0.00 0.00 0.00 0.00
0.00 0.00 0.00 0.00 0.00 0.00 0.00 0.01 0.01 0.01 0.02 0.01 0.00 0.01 0.04 0.09 0.12 0.10 0.10 0.14 0.12 0.08 0.11 0.10 0.08 0.05 0.04 0.06 0.06 0.05 0.03 0.03 0.03 0.01 0.00 0.00 0.00 0.00 0.00 0.00 0.00 0.00 0.00
0.00 0.00 0.00 0.00 0.00 0.00 0.01 0.02 0.02 0.03 0.05 0.06 0.05 0.05 0.08 0.09 0.03 0.02 0.02 0.10 0.09 0.05 0.03 0.05 0.05 0.08 0.07 0.05 0.05 0.06 0.05 0.04 0.03 0.01 0.00 0.00 0.00 0.00 0.00 0.00 0.00 0.00 0.00
0.00 0.00 0.00 0.00 0.00 0.00 0.01 0.02 0.04 0.06 0.09 0.10 0.10 0.12 0.06 0.02 0.01 0.01 0.02 0.04 0.08 0.08 0.07 0.08 0.05 0.08 0.10 0.09 0.07 0.08 0.08 0.05 0.04 0.02 0.01 0.01 0.00 0.00 0.00 0.00 0.00 0.00 0.00
0.00 0.00 0.00 0.00 0.00 0.01 0.02 0.03 0.05 0.08 0.10 0.09 0.10 0.09 0.07 0.08 0.05 0.04 0.04 0.07 0.10 0.10 0.09 0.10 0.08 0.09 0.09 0.12 0.13 0.13 0.10 0.07 0.04 0.03 0.02 0.01 0.01 0.00 0.00 0.00 0.00 0.00 0.00
0.00 0.00 0.00 0.01 0.01 0.02 0.03 0.03 0.06 0.10 0.12 0.10 0.07 0.06 0.06 0.05 0.05 0.07 0.09 0.10 0.09 0.10 0.10 0.12 0.11 0.10 0.11 0.12 0.12 0.13 0.10 0.08 0.07 0.07 0.05 0.03 0.01 0.00 0.00 0.00 0.00 0.00 0.00
0.00 0.00 0.00 0.01 0.02 0.04 0.03 0.09 0.16 0.14 0.09 0.07 0.06 0.03 0.01 0.03 0.06 0.06 0.06 0.05 0.04 0.05 0.07 0.11 0.12 0.10 0.07 0.10 0.13 0.16 0.15 0.10 0.09 0.11 0.10 0.05 0.03 0.01 0.01 0.00 0.00 0.00 0.00
0.00 0.00 0.01 0.01 0.03 0.02 0.04 0.07 0.04 0.03 0.02 0.01 0.01 0.01 0.01 0.01 0.02 0.01 0.02 0.01 0.02 0.03 0.03 0.05 0.07 0.08 0.09 0.08 0.10 0.12 0.13 0.12 0.15 0.13 0.12 0.08 0.04 0.03 0.02 0.01 0.00 0.00 0.00
0.00 0.00 0.00 0.00 0.01 0.01 0.00 0.01 0.01 0.00 0.01 0.01 0.02 0.01 0.01 0.01 0.01 0.01 0.01 0.01 0.00 0.00 0.01 0.02 0.04 0.04 0.04 0.05 0.08 0.08 0.09 0.12 0.16 0.16 0.15 0.09 0.05 0.03 0.03 0.01 0.00 0.00 0.00
0.00 0.00 0.00 0.00 0.00 0.00 0.00 0.01 0.01 0.00 0.01 0.02 0.02 0.02 0.02 0.01 0.01 0.01 0.00 0.00 0.00 0.00 0.00 0.02 0.03 0.03 0.02 0.03 0.04 0.06 0.09 0.12 0.15 0.15 0.14 0.10 0.05 0.04 0.03 0.02 0.00 0.00 0.00

GFSGL_prec_precacc12_075.txt.gz
Total_Precipitation_Accumulation
0.00 0.02 0.03 0.06 0.06 0.09 0.12 0.12 0.12 0.09 0.09 0.13 0.19 0.18 0.15 0.11 0.06 0.01 0.00 0.00 0.00 0.00 0.00 0.00 0.00 0.00 0.00 0.00 0.00 0.00 0.00 0.00 0.00 0.00 0.00 0.00 0.00 0.00 0.00 0.00 0.00 0.00 0.00
0.00 0.03 0.07 0.11 0.11 0.10 0.08 0.10 0.16 0.20 0.21 0.20 0.15 0.10 0.06 0.02 0.00 0.00 0.00 0.00 0.00 0.00 0.00 0.00 0.00 0.00 0.00 0.00 0.00 0.00 0.00 0.00 0.01 0.01 0.00 0.00 0.00 0.00 0.00 0.00 0.00 0.00 0.00
0.07 0.11 0.12 0.11 0.09 0.11 0.20 0.30 0.30 0.30 0.27 0.14 0.08 0.08 0.04 0.01 0.00 0.00 0.00 0.00 0.00 0.00 0.00 0.00 0.00 0.00 0.00 0.00 0.00 0.00 0.00 0.00 0.00 0.00 0.00 0.00 0.00 0.00 0.00 0.00 0.00 0.00 0.00
0.18 0.15 0.10 0.07 0.07 0.10 0.15 0.27 0.36 0.26 0.18 0.17 0.17 0.11 0.03 0.00 0.00 0.00 0.00 0.00 0.00 0.00 0.00 0.00 0.00 0.00 0.00 0.00 0.00 0.00 0.00 0.00 0.00 0.00 0.00 0.00 0.00 0.00 0.01 0.01 0.01 0.00 0.00
0.19 0.16 0.14 0.19 0.30 0.30 0.30 0.23 0.14 0.10 0.07 0.04 0.01 0.00 0.00 0.00 0.00 0.00 0.00 0.00 0.00 0.00 0.00 0.00 0.00 0.00 0.00 0.00 0.00 0.00 0.00 0.00 0.00 0.00 0.01 0.01 0.01 0.01 0.02 0.01 0.01 0.00 0.00
0.11 0.14 0.26 0.29 0.16 0.10 0.08 0.04 0.02 0.01 0.00 0.00 0.00 0.00 0.00 0.00 0.00 0.00 0.00 0.00 0.00 0.00 0.00 0.00 0.00 0.00 0.00 0.00 0.00 0.00 0.00 0.00 0.01 0.02 0.02 0.03 0.02 0.02 0.01 0.01 0.00 0.00 0.00
0.10 0.08 0.07 0.03 0.01 0.00 0.00 0.00 0.00 0.00 0.00 0.00 0.00 0.00 0.00 0.00 0.00 0.00 0.00 0.00 0.00 0.00 0.00 0.00 0.00 0.00 0.00 0.00 0.00 0.00 0.00 0.00 0.00 0.01 0.02 0.02 0.02 0.02 0.01 0.00 0.00 0.00 0.00
0.04 0.02 0.01 0.00 0.00 0.00 0.00 0.00 0.00 0.00 0.00 0.00 0.00 0.00 0.00 0.00 0.00 0.00 0.00 0.00 0.00 0.00 0.00 0.00 0.00 0.00 0.00 0.00 0.00 0.00 0.01 0.01 0.01 0.00 0.00 0.00 0.00 0.00 0.01 0.00 0.00 0.00 0.00
0.00 0.00 0.00 0.00 0.00 0.00 0.01 0.00 0.00 0.00 0.00 0.00 0.00 0.00 0.00 0.00 0.00 0.00 0.00 0.00 0.00 0.00 0.00 0.00 0.00 0.00 0.00 0.00 0.00 0.01 0.01 0.00 0.00 0.00 0.00 0.00 0.00 0.00 0.00 0.00 0.00 0.01 0.01
0.00 0.00 0.00 0.00 0.00 0.00 0.00 0.00 0.00 0.00 0.00 0.00 0.00 0.00 0.00 0.00 0.00 0.00 0.00 0.00 0.00 0.00 0.00 0.00 0.00 0.00 0.00 0.00 0.01 0.02 0.04 0.01 0.01 0.01 0.01 0.00 0.00 0.00 0.00 0.00 0.00 0.01 0.01
0.00 0.00 0.00 0.00 0.00 0.00 0.00 0.00 0.00 0.00 0.00 0.00 0.00 0.00 0.00 0.00 0.00 0.00 0.00 0.00 0.00 0.00 0.00 0.00 0.00 0.00 0.00 0.00 0.01 0.03 0.03 0.01 0.02 0.04 0.03 0.02 0.01 0.00 0.00 0.00 0.00 0.01 0.01
0.00 0.00 0.00 0.00 0.00 0.00 0.00 0.00 0.00 0.00 0.00 0.00 0.00 0.00 0.00 0.00 0.00 0.00 0.00 0.00 0.00 0.01 0.01 0.00 0.00 0.00 0.01 0.00 0.01 0.01 0.01 0.02 0.07 0.06 0.06 0.03 0.02 0.01 0.00 0.00 0.00 0.00 0.00
0.00 0.00 0.00 0.00 0.00 0.00 0.00 0.00 0.00 0.00 0.00 0.00 0.00 0.00 0.00 0.00 0.00 0.00 0.00 0.00 0.00 0.02 0.03 0.02 0.01 0.03 0.06 0.08 0.05 0.05 0.10 0.17 0.16 0.14 0.08 0.04 0.02 0.01 0.01 0.01 0.01 0.01 0.01
0.00 0.00 0.00 0.00 0.00 0.00 0.00 0.00 0.00 0.00 0.00 0.00 0.00 0.00 0.00 0.00 0.00 0.00 0.01 0.01 0.01 0.03 0.04 0.04 0.05 0.05 0.05 0.06 0.06 0.07 0.10 0.10 0.09 0.09 0.06 0.05 0.05 0.05 0.03 0.02 0.02 0.01 0.01
0.00 0.00 0.00 0.00 0.00 0.00 0.00 0.00 0.00 0.00 0.00 0.00 0.00 0.00 0.01 0.01 0.00 0.01 0.01 0.03 0.04 0.06 0.08 0.10 0.08 0.08 0.08 0.08 0.08 0.06 0.05 0.05 0.06 0.04 0.04 0.05 0.06 0.05 0.04 0.02 0.02 0.02 0.02
0.00 0.00 0.00 0.00 0.00 0.00 0.00 0.00 0.00 0.00 0.00 0.00 0.00 0.00 0.00 0.01 0.00 0.01 0.02 0.06 0.09 0.12 0.21 0.14 0.09 0.09 0.09 0.09 0.11 0.11 0.09 0.06 0.03 0.03 0.03 0.03 0.03 0.05 0.04 0.03 0.03 0.02 0.02
0.00 0.00 0.00 0.00 0.00 0.00 0.00 0.00 0.00 0.00 0.00 0.00 0.00 0.00 0.00 0.01 0.01 0.04 0.11 0.15 0.14 0.15 0.23 0.15 0.13 0.13 0.13 0.13 0.13 0.13 0.12 0.12 0.11 0.09 0.06 0.04 0.03 0.03 0.04 0.04 0.03 0.03 0.02
0.00 0.00 0.00 0.00 0.00 0.00 0.00 0.00 0.00 0.00 0.00 0.00 0.00 0.00 0.00 0.01 0.02 0.04 0.08 0.11 0.07 0.05 0.08 0.09 0.09 0.06 0.05 0.07 0.08 0.09 0.08 0.09 0.11 0.10 0.09 0.07 0.07 0.05 0.05 0.03 0.02 0.03 0.02
0.00 0.00 0.00 0.00 0.00 0.00 0.00 0.00 0.00 0.00 0.00 0.00 0.00 0.01 0.02 0.02 0.01 0.01 0.02 0.04 0.04 0.02 0.02 0.03 0.04 0.06 0.07 0.06 0.08 0.10 0.11 0.11 0.10 0.11 0.08 0.07 0.06 0.06 0.05 0.03 0.02 0.01 0.01
0.00 0.00 0.00 0.00 0.00 0.00 0.00 0.00 0.00 0.00 0.00 0.01 0.01 0.03 0.03 0.02 0.01 0.01 0.02 0.03 0.05 0.06 0.06 0.06 0.05 0.06 0.08 0.10 0.08 0.10 0.11 0.10 0.11 0.10 0.09 0.09 0.08 0.08 0.06 0.04 0.03 0.03 0.01
0.00 0.00 0.00 0.00 0.00 0.00 0.00 0.00 0.00 0.00 0.00 0.00 0.01 0.01 0.02 0.04 0.04 0.04 0.04 0.04 0.05 0.05 0.04 0.04 0.04 0.06 0.07 0.09 0.11 0.12 0.12 0.11 0.13 0.13 0.11 0.10 0.10 0.10 0.07 0.05 0.04 0.02 0.01
0.00 0.00 0.00 0.00 0.00 0.00 0.00 0.00 0.00 0.00 0.00 0.00 0.00 0.00 0.00 0.01 0.02 0.02 0.02 0.02 0.03 0.04 0.05 0.04 0.03 0.04 0.06 0.09 0.10 0.10 0.10 0.09 0.11 0.13 0.11 0.09 0.09 0.08 0.10 0.08 0.04 0.03 0.01
0.00 0.00 0.00 0.00 0.00 0.00 0.00 0.00 0.00 0.00 0.00 0.00 0.00 0.00 0.00 0.01 0.01 0.01 0.01 0.01 0.01 0.01 0.02 0.03 0.03 0.02 0.02 0.04 0.08 0.11 0.12 0.10 0.11 0.15 0.15 0.11 0.09 0.08 0.10 0.11 0.07 0.04 0.01
0.00 0.00 0.00 0.00 0.00 0.00 0.00 0.00 0.00 0.00 0.00 0.00 0.00 0.01 0.00 0.01 0.01 0.01 0.01 0.01 0.01 0.00 0.01 0.01 0.02 0.02 0.02 0.01 0.02 0.05 0.07 0.08 0.12 0.13 0.15 0.12 0.10 0.10 0.12 0.12 0.10 0.05 0.02
0.00 0.00 0.00 0.00 0.00 0.00 0.00 0.00 0.00 0.00 0.00 0.00 0.01 0.00 0.01 0.00 0.00 0.01 0.01 0.01 0.00 0.00 0.00 0.00 0.01 0.01 0.01 0.01 0.02 0.02 0.03 0.04 0.10 0.13 0.16 0.12 0.08 0.08 0.10 0.10 0.09 0.08 0.04
0.00 0.00 0.00 0.00 0.01 0.01 0.01 0.01 0.01 0.01 0.01 0.01 0.00 0.00 0.01 0.00 0.01 0.00 0.00 0.00 0.00 0.00 0.00 0.00 0.00 0.00 0.00 0.01 0.00 0.01 0.01 0.01 0.06 0.11 0.16 0.11 0.09 0.08 0.09 0.09 0.09 0.09 0.04

GFSGL_prec_precacc12_078.txt.gz
Total_Precipitation_Accumulation
0.00 0.01 0.04 0.11 0.11 0.12 0.14 0.13 0.13 0.09 0.09 0.16 0.27 0.30 0.27 0.18 0.15 0.12 0.08 0.03 0.00 0.00 0.00 0.00 0.00 0.00 0.00 0.00 0.00 0.00 0.00 0.00 0.00 0.00 0.00 0.00 0.00 0.00 0.00 0.00 0.00 0.00 0.00
0.00 0.03 0.12 0.25 0.14 0.14 0.17 0.13 0.15 0.23 0.32 0.46 0.50 0.34 0.20 0.13 0.07 0.04 0.02 0.01 0.00 0.00 0.00 0.00 0.00 0.00 0.00 0.00 0.00 0.00 0.00 0.00 0.01 0.01 0.00 0.00 0.00 0.00 0.00 0.00 0.00 0.00 0.00
0.11 0.19 0.20 0.25 0.11 0.15 0.20 0.28 0.32 0.31 0.30 0.21 0.14 0.16 0.17 0.13 0.08 0.04 0.01 0.00 0.00 0.00 0.00 0.00 0.00 0.00 0.00 0.00 0.00 0.00 0.00 0.00 0.00 0.00 0.00 0.00 0.00 0.00 0.00 0.00 0.00 0.00 0.00
0.31 0.32 0.25 0.12 0.11 0.18 0.20 0.30 0.37 0.26 0.18 0.17 0.20 0.22 0.11 0.04 0.01 0.00 0.00 0.00 0.00 0.00 0.00 0.00 0.00 0.00 0.00 0.00 0.00 0.00 0.00 0.00 0.00 0.00 0.00 0.00 0.00 0.00 0.01 0.02 0.01 0.01 0.00
0.27 0.20 0.14 0.22 0.40 0.38 0.32 0.25 0.16 0.10 0.08 0.06 0.04 0.02 0.00 0.00 0.00 0.00 0.00 0.00 0.00 0.00 0.00 0.00 0.00 0.00 0.00 0.00 0.00 0.00 0.00 0.00 0.00 0.00 0.01 0.01 0.01 0.01 0.02 0.03 0.02 0.01 0.00
0.11 0.14 0.30 0.40 0.25 0.17 0.11 0.05 0.03 0.01 0.00 0.00 0.00 0.00 0.00 0.00 0.00 0.00 0.00 0.00 0.00 0.00 0.00 0.00 0.00 0.00 0.00 0.00 0.00 0.00 0.00 0.00 0.01 0.02 0.03 0.03 0.03 0.03 0.03 0.03 0.03 0.02 0.00
0.11 0.13 0.14 0.09 0.05 0.02 0.01 0.00 0.00 0.00 0.00 0.00 0.00 0.00 0.00 0.00 0.00 0.00 0.00 0.00 0.00 0.00 0.00 0.00 0.00 0.00 0.00 0.00 0.00 0.00 0.00 0.00 0.00 0.02 0.03 0.02 0.03 0.02 0.03 0.01 0.00 0.00 0.00
0.08 0.06 0.04 0.03 0.02 0.00 0.00 0.00 0.00 0.00 0.00 0.00 0.00 0.00 0.00 0.00 0.00 0.00 0.00 0.00 0.00 0.00 0.00 0.00 0.00 0.00 0.00 0.00 0.00 0.00 0.01 0.02 0.02 0.01 0.01 0.01 0.01 0.00 0.01 0.01 0.01 0.00 0.00
0.01 0.01 0.00 0.00 0.00 0.00 0.01 0.00 0.00 0.00 0.00 0.00 0.00 0.00 0.00 0.00 0.00 0.00 0.00 0.00 0.00 0.00 0.00 0.00 0.00 0.00 0.00 0.00 0.00 0.01 0.01 0.00 0.00 0.00 0.02 0.01 0.00 0.00 0.00 0.00 0.00 0.01 0.01
0.00 0.00 0.00 0.00 0.00 0.00 0.00 0.00 0.00 0.00 0.00 0.00 0.00 0.00 0.00 0.00 0.00 0.00 0.00 0.00 0.00 0.00 0.00 0.00 0.00 0.00 0.00 0.00 0.01 0.02 0.04 0.01 0.01 0.02 0.03 0.02 0.01 0.01 0.00 0.00 0.00 0.01 0.01
0.00 0.00 0.00 0.00 0.00 0.00 0.00 0.00 0.00 0.00 0.00 0.00 0.00 0.00 0.00 0.00 0.00 0.00 0.00 0.00 0.00 0.00 0.00 0.00 0.00 0.00 0.00 0.00 0.01 0.03 0.03 0.01 0.02 0.04 0.05 0.04 0.02 0.02 0.00 0.00 0.00 0.01 0.01
0.00 0.00 0.00 0.00 0.00 0.00 0.00 0.00 0.00 0.00 0.00 0.00 0.00 0.00 0.00 0.00 0.00 0.00 0.00 0.00 0.00 0.01 0.01 0.00 0.00 0.00 0.00 0.00 0.01 0.01 0.01 0.02 0.07 0.07 0.07 0.05 0.03 0.03 0.02 0.02 0.01 0.00 0.00
0.00 0.00 0.00 0.00 0.00 0.00 0.00 0.00 0.00 0.00 0.00 0.00 0.00 0.00 0.00 0.00 0.00 0.00 0.00 0.00 0.00 0.02 0.02 0.01 0.01 0.01 0.03 0.04 0.03 0.04 0.09 0.16 0.16 0.15 0.09 0.05 0.03 0.02 0.02 0.02 0.02 0.01 0.01
0.00 0.00 0.00 0.00 0.00 0.00 0.00 0.00 0.00 0.00 0.00 0.00 0.00 0.00 0.00 0.00 0.00 0.00 0.01 0.01 0.01 0.03 0.04 0.04 0.04 0.04 0.04 0.04 0.05 0.05 0.08 0.09 0.09 0.09 0.07 0.05 0.06 0.07 0.05 0.03 0.03 0.02 0.03
0.00 0.00 0.00 0.00 0.00 0.00 0.00 0.00 0.00 0.00 0.00 0.00 0.00 0.00 0.01 0.01 0.00 0.01 0.01 0.02 0.03 0.04 0.08 0.10 0.08 0.07 0.07 0.07 0.07 0.06 0.05 0.06 0.09 0.07 0.06 0.05 0.06 0.06 0.05 0.03 0.04 0.03 0.06
0.00 0.00 0.00 0.00 0.00 0.00 0.00 0.00 0.00 0.00 0.00 0.00 0.00 0.00 0.00 0.01 0.00 0.00 0.01 0.01 0.01 0.03 0.14 0.13 0.09 0.10 0.09 0.08 0.11 0.10 0.09 0.08 0.09 0.11 0.11 0.07 0.04 0.05 0.04 0.04 0.03 0.03 0.03
0.00 0.00 0.00 0.00 0.00 0.00 0.00 0.00 0.00 0.00 0.00 0.00 0.00 0.00 0.00 0.00 0.00 0.01 0.01 0.01 0.01 0.04 0.12 0.13 0.13 0.13 0.13 0.13 0.11 0.12 0.12 0.13 0.16 0.19 0.17 0.14 0.09 0.05 0.04 0.04 0.05 0.05 0.03
0.02 0.02 0.01 0.00 0.00 0.00 0.00 0.00 0.00 0.00 0.00 0.00 0.00 0.00 0.00 0.00 0.00 0.00 0.01 0.01 0.01 0.02 0.04 0.05 0.06 0.04 0.04 0.06 0.06 0.07 0.07 0.09 0.11 0.10 0.11 0.12 0.13 0.13 0.11 0.07 0.04 0.04 0.04
0.03 0.01 0.00 0.00 0.00 0.00 0.00 0.00 0.00 0.00 0.00 0.00 0.00 0.00 0.00 0.00 0.00 0.00 0.01 0.02 0.02 0.01 0.01 0.01 0.02 0.04 0.05 0.05 0.06 0.07 0.09 0.10 0.11 0.12 0.10 0.10 0.10 0.11 0.11 0.08 0.06 0.03 0.02
0.01 0.01 0.00 0.00 0.00 0.00 0.00 0.00 0.00 0.00 0.00 0.00 0.00 0.00 0.00 0.00 0.00 0.00 0.01 0.02 0.03 0.03 0.03 0.03 0.03 0.04 0.05 0.06 0.06 0.07 0.07 0.08 0.11 0.11 0.11 0.12 0.13 0.13 0.11 0.09 0.09 0.08 0.03
0.00 0.00 0.00 0.00 0.00 0.00 0.00 0.00 0.00 0.00 0.00 0.00 0.00 0.00 0.00 0.00 0.00 0.01 0.01 0.01 0.02 0.03 0.02 0.02 0.02 0.03 0.03 0.04 0.05 0.07 0.08 0.09 0.12 0.14 0.13 0.12 0.13 0.12 0.10 0.10 0.11 0.08 0.03
0.00 0.00 0.00 0.00 0.00 0.00 0.00 0.00 0.00 0.00 0.00 0.00 0.00 0.00 0.00 0.00 0.01 0.01 0.01 0.01 0.02 0.01 0.02 0.02 0.02 0.02 0.03 0.04 0.04 0.05 0.05 0.06 0.09 0.12 0.11 0.10 0.10 0.10 0.13 0.14 0.13 0.11 0.05
0.00 0.00 0.00 0.00 0.00 0.00 0.00 0.00 0.00 0.00 0.00 0.00 0.00 0.00 0.00 0.01 0.01 0.01 0.01 0.01 0.01 0.01 0.01 0.01 0.02 0.01 0.02 0.03 0.04 0.06 0.05 0.06 0.09 0.11 0.12 0.11 0.10 0.09 0.12 0.13 0.12 0.11 0.09
0.00 0.00 0.00 0.00 0.00 0.00 0.00 0.00 0.00 0.00 0.00 0.00 0.01 0.01 0.01 0.01 0.01 0.01 0.01 0.01 0.01 0.01 0.01 0.01 0.01 0.01 0.01 0.01 0.02 0.03 0.04 0.04 0.04 0.06 0.11 0.11 0.09 0.11 0.14 0.14 0.12 0.11 0.11
0.00 0.00 0.00 0.00 0.00 0.00 0.00 0.00 0.01 0.01 0.01 0.01 0.01 0.01 0.01 0.01 0.01 0.01 0.01 0.01 0.01 0.01 0.01 0.01 0.01 0.01 0.01 0.01 0.01 0.01 0.02 0.03 0.05 0.06 0.09 0.10 0.08 0.08 0.11 0.13 0.12 0.12 0.12
0.00 0.00 0.00 0.00 0.01 0.01 0.01 0.01 0.01 0.01 0.01 0.01 0.01 0.01 0.01 0.01 0.01 0.01 0.01 0.01 0.01 0.01 0.00 0.01 0.01 0.01 0.01 0.01 0.01 0.01 0.01 0.00 0.01 0.04 0.09 0.09 0.08 0.08 0.10 0.11 0.11 0.12 0.10

GFSGL_prec_precacc12_081.txt.gz
Total_Precipitation_Accumulation
0.01 0.00 0.02 0.16 0.14 0.12 0.17 0.24 0.19 0.22 0.17 0.15 0.22 0.35 0.52 0.59 0.48 0.33 0.21 0.15 0.09 0.05 0.02 0.01 0.00 0.00 0.00 0.00 0.00 0.00 0.00 0.00 0.00 0.00 0.00 0.00 0.00 0.00 0.00 0.00 0.00 0.00 0.00
0.05 0.09 0.09 0.24 0.24 0.22 0.25 0.22 0.23 0.21 0.27 0.46 0.51 0.38 0.25 0.16 0.11 0.09 0.08 0.06 0.04 0.02 0.01 0.00 0.00 0.00 0.00 0.00 0.00 0.00 0.00 0.00 0.01 0.01 0.00 0.00 0.00 0.00 0.00 0.00 0.00 0.00 0.00
0.19 0.23 0.16 0.30 0.34 0.42 0.34 0.36 0.41 0.37 0.32 0.22 0.14 0.16 0.17 0.13 0.09 0.07 0.03 0.01 0.00 0.00 0.00 0.00 0.00 0.00 0.00 0.00 0.00 0.00 0.00 0.00 0.00 0.00 0.00 0.00 0.00 0.00 0.00 0.00 0.00 0.00 0.00
0.26 0.28 0.23 0.28 0.35 0.26 0.30 0.37 0.45 0.29 0.20 0.22 0.26 0.23 0.12 0.05 0.02 0.01 0.00 0.00 0.00 0.00 0.00 0.00 0.00 0.00 0.00 0.00 0.00 0.00 0.00 0.00 0.00 0.00 0.00 0.00 0.00 0.00 0.01 0.02 0.01 0.01 0.00
0.22 0.29 0.26 0.32 0.41 0.30 0.40 0.32 0.17 0.13 0.11 0.08 0.05 0.03 0.01 0.00 0.00 0.00 0.00 0.00 0.00 0.00 0.00 0.00 0.00 0.00 0.00 0.00 0.00 0.00 0.00 0.00 0.00 0.00 0.01 0.01 0.01 0.01 0.02 0.03 0.02 0.01 0.01
0.17 0.16 0.22 0.27 0.19 0.23 0.17 0.08 0.04 0.01 0.01 0.01 0.00 0.00 0.00 0.00 0.00 0.00 0.00 0.00 0.00 0.00 0.00 0.00 0.00 0.00 0.00 0.00 0.00 0.00 0.00 0.00 0.01 0.02 0.03 0.03 0.03 0.03 0.03 0.03 0.04 0.04 0.02
0.13 0.15 0.17 0.13 0.07 0.06 0.03 0.02 0.01 0.00 0.01 0.00 0.00 0.00 0.00 0.00 0.00 0.00 0.00 0.00 0.00 0.00 0.00 0.00 0.00 0.00 0.00 0.00 0.00 0.00 0.00 0.00 0.00 0.02 0.03 0.03 0.03 0.03 0.03 0.03 0.01 0.00 0.00
0.09 0.08 0.06 0.04 0.02 0.02 0.02 0.02 0.02 0.01 0.00 0.00 0.00 0.00 0.00 0.00 0.00 0.00 0.00 0.00 0.00 0.00 0.00 0.00 0.00 0.00 0.00 0.00 0.00 0.00 0.01 0.02 0.02 0.01 0.01 0.01 0.01 0.01 0.02 0.02 0.01 0.00 0.00
0.01 0.01 0.00 0.00 0.00 0.01 0.01 0.01 0.00 0.00 0.00 0.00 0.00 0.00 0.00 0.00 0.00 0.00 0.00 0.00 0.00 0.00 0.00 0.00 0.00 0.00 0.00 0.00 0.00 0.01 0.01 0.00 0.00 0.00 0.02 0.01 0.00 0.00 0.01 0.02 0.02 0.02 0.01
0.00 0.00 0.00 0.00 0.00 0.00 0.00 0.00 0.00 0.00 0.00 0.00 0.00 0.00 0.00 0.00 0.00 0.00 0.00 0.00 0.00 0.00 0.00 0.00 0.00 0.00 0.00 0.00 0.00 0.02 0.04 0.01 0.01 0.02 0.03 0.02 0.01 0.01 0.02 0.03 0.04 0.06 0.02
0.00 0.00 0.00 0.00 0.00 0.00 0.00 0.00 0.00 0.00 0.00 0.00 0.00 0.00 0.00 0.00 0.00 0.00 0.00 0.00 0.00 0.00 0.00 0.00 0.00 0.00 0.00 0.00 0.01 0.03 0.03 0.01 0.02 0.04 0.05 0.04 0.02 0.02 0.01 0.00 0.00 0.01 0.01
0.00 0.00 0.00 0.00 0.00 0.00 0.00 0.00 0.00 0.00 0.00 0.00 0.00 0.00 0.00 0.00 0.00 0.00 0.00 0.00 0.00 0.00 0.01 0.00 0.00 0.00 0.00 0.00 0.01 0.01 0.01 0.02 0.07 0.08 0.07 0.05 0.03 0.03 0.02 0.02 0.02 0.01 0.01
0.00 0.00 0.00 0.00 0.00 0.00 0.00 0.00 0.00 0.00 0.00 0.00 0.00 0.00 0.00 0.00 0.00 0.00 0.00 0.00 0.00 0.00 0.01 0.01 0.00 0.01 0.02 0.02 0.01 0.01 0.05 0.11 0.14 0.14 0.10 0.06 0.03 0.02 0.03 0.04 0.03 0.03 0.02
0.00 0.00 0.00 0.00 0.00 0.00 0.00 0.00 0.00 0.00 0.00 0.00 0.00 0.00 0.00 0.00 0.00 0.00 0.00 0.01 0.01 0.01 0.01 0.01 0.01 0.02 0.03 0.04 0.05 0.04 0.05 0.05 0.07 0.10 0.09 0.07 0.06 0.07 0.05 0.04 0.07 0.07 0.08
0.00 0.00 0.00 0.00 0.00 0.00 0.00 0.00 0.00 0.00 0.00 0.00 0.00 0.00 0.00 0.00 0.00 0.00 0.01 0.01 0.01 0.01 0.01 0.02 0.03 0.05 0.04 0.05 0.07 0.06 0.05 0.04 0.07 0.08 0.08 0.07 0.07 0.07 0.06 0.04 0.05 0.04 0.07
0.00 0.00 0.00 0.00 0.00 0.01 0.01 0.00 0.00 0.00 0.00 0.00 0.00 0.00 0.00 0.00 0.00 0.00 0.00 0.00 0.00 0.00 0.01 0.03 0.04 0.06 0.06 0.07 0.10 0.10 0.08 0.08 0.08 0.10 0.10 0.11 0.13 0.15 0.14 0.09 0.05 0.04 0.03
0.00 0.00 0.01 0.02 0.02 0.02 0.01 0.00 0.00 0.00 0.00 0.00 0.00 0.00 0.00 0.00 0.00 0.00 0.00 0.00 0.00 0.00 0.00 0.02 0.04 0.06 0.09 0.10 0.10 0.10 0.11 0.12 0.15 0.18 0.17 0.14 0.13 0.11 0.10 0.09 0.08 0.07 0.04
0.03 0.04 0.04 0.03 0.02 0.02 0.02 0.02 0.01 0.00 0.00 0.00 0.00 0.00 0.00 0.00 0.00 0.00 0.00 0.00 0.00 0.00 0.00 0.01 0.01 0.01 0.02 0.03 0.04 0.04 0.05 0.06 0.09 0.09 0.11 0.12 0.14 0.16 0.16 0.14 0.11 0.11 0.09
0.12 0.10 0.07 0.06 0.04 0.03 0.01 0.01 0.00 0.00 0.00 0.00 0.00 0.00 0.00 0.00 0.00 0.00 0.00 0.01 0.01 0.00 0.00 0.00 0.01 0.01 0.01 0.02 0.04 0.05 0.07 0.07 0.08 0.10 0.10 0.10 0.11 0.13 0.13 0.12 0.12 0.09 0.06
0.09 0.07 0.04 0.01 0.00 0.00 0.00 0.00 0.00 0.00 0.00 0.00 0.00 0.00 0.00 0.00 0.00 0.00 0.01 0.01 0.01 0.01 0.01 0.01 0.01 0.01 0.02 0.03 0.03 0.04 0.04 0.05 0.08 0.10 0.11 0.12 0.13 0.15 0.14 0.12 0.12 0.12 0.07
0.03 0.01 0.00 0.00 0.00 0.00 0.00 0.00 0.00 0.00 0.00 0.00 0.00 0.00 0.00 0.00 0.00 0.00 0.01 0.01 0.02 0.02 0.01 0.01 0.01 0.01 0.02 0.02 0.02 0.02 0.03 0.05 0.09 0.11 0.12 0.11 0.13 0.13 0.12 0.13 0.14 0.13 0.13
0.00 0.00 0.00 0.00 0.00 0.00 0.00 0.00 0.00 0.00 0.00 0.00 0.00 0.00 0.00 0.00 0.01 0.01 0.01 0.01 0.01 0.01 0.01 0.01 0.01 0.01 0.01 0.02 0.02 0.03 0.03 0.04 0.05 0.08 0.07 0.08 0.09 0.10 0.14 0.15 0.15 0.15 0.13
0.00 0.00 0.00 0.00 0.00 0.00 0.00 0.00 0.00 0.00 0.00 0.00 0.00 0.00 0.00 0.01 0.01 0.01 0.01 0.01 0.01 0.01 0.00 0.01 0.01 0.01 0.01 0.01 0.02 0.03 0.04 0.03 0.04 0.05 0.06 0.07 0.08 0.08 0.11 0.14 0.15 0.15 0.14
0.00 0.00 0.00 0.00 0.00 0.00 0.00 0.00 0.00 0.00 0.01 0.01 0.01 0.01 0.01 0.01 0.01 0.01 0.01 0.01 0.01 0.01 0.01 0.01 0.01 0.01 0.00 0.01 0.02 0.02 0.01 0.01 0.03 0.04 0.06 0.06 0.06 0.08 0.12 0.13 0.13 0.14 0.15
0.00 0.00 0.00 0.00 0.00 0.00 0.00 0.00 0.01 0.01 0.01 0.01 0.01 0.01 0.01 0.01 0.01 0.01 0.01 0.01 0.01 0.01 0.01 0.01 0.01 0.01 0.01 0.01 0.01 0.01 0.02 0.03 0.03 0.02 0.02 0.04 0.04 0.05 0.08 0.12 0.12 0.14 0.15
0.00 0.00 0.00 0.00 0.01 0.01 0.01 0.01 0.01 0.01 0.01 0.01 0.01 0.01 0.01 0.01 0.01 0.01 0.01 0.01 0.01 0.01 0.00 0.01 0.01 0.01 0.01 0.01 0.01 0.01 0.01 0.00 0.01 0.02 0.05 0.04 0.04 0.05 0.07 0.09 0.11 0.14 0.13

GFSGL_prec_precacc12_084.txt.gz
Total_Precipitation_Accumulation
0.02 0.00 0.02 0.13 0.13 0.19 0.18 0.25 0.21 0.36 0.38 0.31 0.26 0.29 0.50 0.60 0.49 0.34 0.23 0.16 0.11 0.08 0.05 0.02 0.01 0.00 0.00 0.00 0.00 0.00 0.00 0.00 0.00 0.00 0.00 0.00 0.00 0.00 0.00 0.00 0.00 0.00 0.00
0.08 0.08 0.07 0.20 0.24 0.27 0.42 0.42 0.46 0.48 0.45 0.54 0.60 0.43 0.25 0.16 0.11 0.09 0.08 0.07 0.04 0.03 0.01 0.00 0.00 0.00 0.00 0.00 0.00 0.00 0.00 0.00 0.00 0.00 0.00 0.00 0.00 0.00 0.00 0.00 0.00 0.00 0.00
0.17 0.23 0.13 0.26 0.28 0.55 0.59 0.74 0.80 0.70 0.46 0.28 0.18 0.18 0.18 0.14 0.09 0.08 0.05 0.03 0.02 0.01 0.00 0.00 0.00 0.00 0.00 0.00 0.00 0.00 0.00 0.00 0.00 0.00 0.00 0.00 0.00 0.00 0.00 0.00 0.00 0.00 0.00
0.19 0.25 0.21 0.25 0.35 0.44 0.48 0.50 0.56 0.28 0.24 0.26 0.29 0.26 0.14 0.06 0.04 0.04 0.04 0.03 0.03 0.01 0.00 0.00 0.00 0.00 0.00 0.00 0.00 0.00 0.00 0.00 0.00 0.00 0.00 0.00 0.00 0.00 0.01 0.02 0.01 0.01 0.00
0.21 0.33 0.31 0.38 0.60 0.60 0.57 0.32 0.19 0.16 0.14 0.10 0.06 0.03 0.02 0.02 0.04 0.04 0.02 0.01 0.01 0.01 0.00 0.00 0.00 0.00 0.00 0.00 0.00 0.00 0.00 0.00 0.00 0.00 0.00 0.01 0.01 0.01 0.02 0.03 0.02 0.01 0.01
0.20 0.20 0.27 0.31 0.23 0.24 0.18 0.14 0.08 0.03 0.03 0.01 0.01 0.01 0.02 0.03 0.11 0.08 0.03 0.01 0.01 0.00 0.00 0.00 0.00 0.00 0.00 0.00 0.00 0.00 0.00 0.00 0.00 0.01 0.02 0.03 0.02 0.03 0.03 0.03 0.04 0.06 0.05
0.15 0.16 0.19 0.14 0.08 0.08 0.06 0.05 0.04 0.02 0.02 0.01 0.01 0.01 0.02 0.02 0.04 0.02 0.01 0.00 0.00 0.00 0.00 0.00 0.00 0.00 0.00 0.00 0.00 0.00 0.00 0.00 0.00 0.01 0.02 0.02 0.03 0.02 0.03 0.03 0.02 0.02 0.01
0.10 0.08 0.06 0.04 0.03 0.02 0.03 0.03 0.03 0.05 0.04 0.03 0.03 0.04 0.05 0.04 0.04 0.02 0.01 0.00 0.00 0.00 0.00 0.00 0.00 0.00 0.00 0.00 0.00 0.00 0.01 0.02 0.02 0.01 0.01 0.01 0.01 0.01 0.02 0.02 0.02 0.01 0.01
0.02 0.02 0.01 0.00 0.00 0.01 0.01 0.01 0.02 0.04 0.04 0.04 0.03 0.02 0.01 0.01 0.01 0.00 0.00 0.00 0.00 0.00 0.00 0.00 0.00 0.00 0.00 0.00 0.00 0.01 0.01 0.00 0.00 0.00 0.02 0.01 0.00 0.00 0.01 0.03 0.03 0.04 0.03
0.00 0.00 0.00 0.00 0.00 0.00 0.01 0.01 0.01 0.01 0.01 0.00 0.00 0.00 0.00 0.00 0.00 0.00 0.00 0.00 0.00 0.00 0.00 0.00 0.00 0.00 0.00 0.00 0.00 0.02 0.03 0.01 0.01 0.02 0.03 0.02 0.01 0.01 0.02 0.04 0.04 0.07 0.07
0.00 0.00 0.00 0.00 0.00 0.00 0.00 0.00 0.01 0.00 0.00 0.00 0.00 0.00 0.00 0.00 0.00 0.00 0.00 0.00 0.00 0.00 0.00 0.00 0.00 0.00 0.00 0.00 0.01 0.02 0.02 0.01 0.02 0.04 0.05 0.04 0.02 0.02 0.01 0.00 0.00 0.02 0.05
0.00 0.00 0.00 0.00 0.00 0.00 0.00 0.00 0.00 0.00 0.00 0.00 0.00 0.00 0.00 0.00 0.00 0.00 0.00 0.00 0.00 0.00 0.00 0.00 0.00 0.00 0.00 0.00 0.00 0.01 0.01 0.02 0.05 0.05 0.06 0.04 0.03 0.03 0.02 0.02 0.02 0.01 0.01
0.00 0.00 0.00 0.00 0.00 0.00 0.00 0.00 0.00 0.00 0.00 0.00 0.00 0.00 0.00 0.00 0.00 0.00 0.00 0.00 0.00 0.00 0.00 0.00 0.00 0.00 0.00 0.00 0.00 0.00 0.01 0.04 0.07 0.09 0.07 0.05 0.04 0.03 0.02 0.03 0.03 0.03 0.03
0.00 0.00 0.00 0.00 0.00 0.00 0.00 0.00 0.00 0.00 0.00 0.00 0.01 0.00 0.00 0.00 0.00 0.00 0.00 0.00 0.00 0.00 0.00 0.00 0.00 0.00 0.01 0.01 0.01 0.01 0.02 0.02 0.04 0.07 0.08 0.06 0.05 0.06 0.05 0.04 0.08 0.08 0.12
0.00 0.00 0.00 0.00 0.00 0.00 0.00 0.00 0.00 0.01 0.01 0.00 0.00 0.00 0.00 0.01 0.00 0.00 0.00 0.00 0.00 0.00 0.00 0.01 0.02 0.02 0.02 0.02 0.02 0.03 0.03 0.04 0.06 0.07 0.07 0.05 0.04 0.05 0.05 0.04 0.06 0.06 0.10
0.00 0.00 0.00 0.00 0.01 0.01 0.02 0.02 0.02 0.01 0.01 0.01 0.01 0.01 0.01 0.00 0.00 0.00 0.00 0.00 0.00 0.00 0.00 0.00 0.01 0.02 0.02 0.02 0.04 0.06 0.07 0.07 0.08 0.09 0.10 0.10 0.11 0.12 0.13 0.13 0.14 0.15 0.12
0.00 0.01 0.02 0.06 0.08 0.08 0.05 0.04 0.04 0.05 0.05 0.03 0.01 0.00 0.00 0.00 0.00 0.00 0.00 0.00 0.00 0.00 0.00 0.00 0.00 0.01 0.01 0.01 0.03 0.05 0.08 0.10 0.12 0.15 0.15 0.14 0.12 0.10 0.09 0.10 0.11 0.12 0.10
0.07 0.11 0.12 0.11 0.09 0.07 0.08 0.08 0.07 0.04 0.02 0.01 0.00 0.01 0.01 0.00 0.00 0.00 0.00 0.00 0.00 0.00 0.00 0.00 0.00 0.00 0.00 0.00 0.01 0.01 0.02 0.03 0.05 0.07 0.08 0.10 0.12 0.15 0.15 0.14 0.12 0.15 0.15
0.22 0.18 0.14 0.12 0.10 0.09 0.06 0.04 0.02 0.01 0.01 0.00 0.00 0.00 0.00 0.01 0.00 0.00 0.00 0.00 0.01 0.01 0.01 0.00 0.00 0.00 0.00 0.01 0.01 0.02 0.02 0.04 0.05 0.07 0.07 0.08 0.09 0.11 0.12 0.11 0.13 0.12 0.12
0.14 0.11 0.07 0.05 0.03 0.02 0.02 0.02 0.01 0.00 0.00 0.00 0.00 0.00 0.01 0.00 0.00 0.00 0.00 0.01 0.01 0.01 0.01 0.00 0.00 0.01 0.01 0.01 0.01 0.02 0.02 0.02 0.03 0.05 0.08 0.10 0.10 0.13 0.14 0.12 0.12 0.13 0.08
0.04 0.01 0.00 0.00 0.00 0.00 0.00 0.00 0.00 0.00 0.00 0.00 0.00 0.00 0.00 0.00 0.00 0.01 0.02 0.01 0.02 0.01 0.01 0.01 0.01 0.01 0.01 0.01 0.01 0.01 0.01 0.02 0.03 0.04 0.06 0.07 0.08 0.10 0.11 0.12 0.13 0.14 0.15
0.00 0.00 0.00 0.00 0.00 0.00 0.00 0.00 0.00 0.00 0.00 0.00 0.00 0.00 0.00 0.00 0.01 0.01 0.01 0.01 0.01 0.01 0.02 0.01 0.01 0.01 0.01 0.01 0.01 0.02 0.02 0.02 0.03 0.04 0.03 0.03 0.04 0.07 0.12 0.13 0.14 0.15 0.14
0.00 0.00 0.00 0.00 0.00 0.00 0.00 0.00 0.00 0.00 0.00 0.01 0.01 0.01 0.01 0.01 0.01 0.01 0.01 0.01 0.01 0.01 0.01 0.01 0.01 0.01 0.00 0.00 0.01 0.02 0.03 0.03 0.03 0.03 0.04 0.04 0.04 0.04 0.08 0.11 0.14 0.15 0.15
0.00 0.00 0.00 0.00 0.00 0.00 0.00 0.01 0.00 0.00 0.01 0.01 0.01 0.01 0.01 0.01 0.01 0.01 0.01 0.01 0.01 0.00 0.00 0.01 0.01 0.01 0.00 0.01 0.02 0.01 0.01 0.01 0.03 0.04 0.04 0.03 0.02 0.04 0.06 0.09 0.11 0.14 0.16
0.00 0.00 0.00 0.00 0.00 0.01 0.00 0.00 0.01 0.01 0.01 0.01 0.01 0.01 0.01 0.01 0.01 0.01 0.01 0.01 0.00 0.00 0.01 0.01 0.00 0.01 0.01 0.01 0.01 0.01 0.02 0.03 0.02 0.01 0.01 0.02 0.02 0.02 0.04 0.07 0.10 0.14 0.16
0.00 0.00 0.00 0.00 0.01 0.01 0.01 0.01 0.01 0.01 0.01 0.02 0.01 0.01 0.01 0.01 0.01 0.00 0.00 0.00 0.01 0.01 0.00 0.00 0.01 0.01 0.00 0.01 0.01 0.01 0.01 0.00 0.00 0.01 0.02 0.03 0.02 0.02 0.03 0.05 0.08 0.14 0.14

GFSGL_prec_precacc12_087.txt.gz
Total_Precipitation_Accumulation
0.02 0.00 0.01 0.12 0.12 0.18 0.14 0.18 0.17 0.37 0.44 0.40 0.37 0.35 0.51 0.65 0.55 0.34 0.24 0.17 0.12 0.09 0.06 0.02 0.01 0.00 0.00 0.00 0.00 0.00 0.00 0.00 0.00 0.00 0.00 0.00 0.00 0.00 0.00 0.00 0.00 0.00 0.00
0.15 0.08 0.06 0.19 0.22 0.26 0.41 0.39 0.47 0.57 0.56 0.61 0.67 0.53 0.38 0.29 0.21 0.12 0.08 0.07 0.05 0.03 0.01 0.00 0.00 0.00 0.00 0.00 0.00 0.00 0.00 0.00 0.00 0.00 0.00 0.00 0.00 0.00 0.00 0.00 0.00 0.00 0.00
0.25 0.25 0.11 0.27 0.29 0.55 0.56 0.71 0.85 0.85 0.92 0.92 0.59 0.38 0.29 0.18 0.13 0.09 0.06 0.03 0.02 0.02 0.02 0.02 0.01 0.01 0.00 0.00 0.00 0.00 0.00 0.00 0.00 0.00 0.00 0.00 0.00 0.00 0.00 0.00 0.00 0.00 0.00
0.18 0.24 0.21 0.26 0.36 0.45 0.52 0.54 0.80 0.93 0.69 0.34 0.22 0.21 0.16 0.10 0.06 0.04 0.05 0.06 0.06 0.05 0.03 0.02 0.01 0.01 0.00 0.00 0.00 0.00 0.00 0.00 0.00 0.00 0.00 0.00 0.00 0.00 0.00 0.00 0.01 0.01 0.00
0.20 0.30 0.28 0.36 0.61 0.64 0.66 0.54 0.40 0.22 0.15 0.10 0.06 0.04 0.03 0.03 0.06 0.05 0.04 0.03 0.04 0.04 0.04 0.02 0.01 0.01 0.00 0.00 0.00 0.00 0.00 0.00 0.00 0.00 0.00 0.00 0.00 0.00 0.00 0.01 0.01 0.01 0.01
0.16 0.16 0.20 0.25 0.22 0.26 0.23 0.19 0.14 0.09 0.08 0.05 0.03 0.03 0.06 0.07 0.16 0.16 0.13 0.15 0.18 0.16 0.06 0.01 0.01 0.00 0.00 0.00 0.00 0.00 0.00 0.00 0.00 0.00 0.00 0.00 0.00 0.01 0.02 0.02 0.04 0.06 0.05
0.07 0.10 0.14 0.13 0.09 0.09 0.08 0.08 0.07 0.05 0.06 0.04 0.04 0.05 0.08 0.10 0.21 0.12 0.08 0.05 0.04 0.03 0.02 0.01 0.00 0.00 0.00 0.00 0.00 0.00 0.00 0.00 0.00 0.01 0.01 0.00 0.01 0.01 0.03 0.03 0.02 0.02 0.01
0.06 0.07 0.06 0.05 0.04 0.03 0.04 0.05 0.04 0.06 0.05 0.06 0.08 0.12 0.13 0.16 0.21 0.17 0.16 0.11 0.06 0.00 0.00 0.00 0.00 0.00 0.00 0.00 0.00 0.00 0.00 0.00 0.01 0.01 0.01 0.00 0.01 0.01 0.01 0.02 0.01 0.02 0.01
0.02 0.02 0.01 0.01 0.01 0.01 0.01 0.01 0.03 0.05 0.06 0.08 0.11 0.13 0.13 0.13 0.14 0.09 0.04 0.01 0.00 0.00 0.00 0.00 0.00 0.00 0.00 0.00 0.00 0.00 0.00 0.00 0.00 0.00 0.01 0.01 0.00 0.00 0.01 0.03 0.03 0.04 0.03
0.02 0.01 0.01 0.00 0.00 0.00 0.01 0.01 0.02 0.03 0.06 0.07 0.06 0.05 0.06 0.04 0.05 0.03 0.01 0.00 0.00 0.00 0.00 0.00 0.00 0.00 0.00 0.00 0.00 0.00 0.00 0.00 0.00 0.01 0.02 0.01 0.01 0.01 0.02 0.04 0.04 0.08 0.08
0.01 0.00 0.00 0.00 0.00 0.00 0.00 0.01 0.01 0.02 0.01 0.01 0.01 0.02 0.02 0.02 0.02 0.02 0.01 0.01 0.00 0.00 0.00 0.00 0.00 0.00 0.00 0.00 0.00 0.00 0.00 0.01 0.01 0.01 0.01 0.01 0.01 0.01 0.01 0.00 0.00 0.03 0.06
0.00 0.00 0.00 0.00 0.00 0.00 0.00 0.00 0.00 0.00 0.00 0.01 0.01 0.01 0.01 0.02 0.01 0.01 0.01 0.00 0.00 0.00 0.00 0.00 0.00 0.00 0.00 0.00 0.00 0.00 0.00 0.00 0.01 0.01 0.02 0.01 0.01 0.02 0.02 0.02 0.02 0.01 0.03
0.00 0.00 0.00 0.00 0.00 0.00 0.00 0.00 0.01 0.00 0.01 0.01 0.01 0.02 0.04 0.05 0.04 0.02 0.00 0.00 0.00 0.00 0.00 0.00 0.00 0.00 0.00 0.00 0.00 0.00 0.00 0.00 0.01 0.03 0.02 0.02 0.02 0.02 0.01 0.03 0.03 0.03 0.03
0.00 0.00 0.00 0.00 0.00 0.00 0.00 0.00 0.01 0.01 0.01 0.03 0.08 0.10 0.08 0.04 0.01 0.00 0.00 0.00 0.00 0.00 0.00 0.00 0.00 0.00 0.00 0.00 0.00 0.00 0.01 0.00 0.02 0.04 0.04 0.03 0.02 0.03 0.03 0.02 0.07 0.07 0.12
0.00 0.00 0.00 0.00 0.00 0.00 0.01 0.01 0.02 0.07 0.08 0.07 0.05 0.02 0.02 0.03 0.02 0.01 0.00 0.00 0.00 0.00 0.00 0.00 0.00 0.00 0.00 0.00 0.00 0.00 0.01 0.02 0.05 0.06 0.06 0.03 0.02 0.02 0.02 0.02 0.04 0.05 0.09
0.00 0.00 0.00 0.01 0.02 0.04 0.06 0.09 0.09 0.07 0.05 0.05 0.05 0.04 0.03 0.03 0.01 0.01 0.01 0.00 0.00 0.00 0.00 0.00 0.00 0.00 0.00 0.00 0.00 0.00 0.01 0.04 0.06 0.08 0.09 0.09 0.10 0.10 0.11 0.10 0.12 0.14 0.12
0.00 0.01 0.04 0.10 0.13 0.14 0.12 0.10 0.10 0.12 0.11 0.08 0.05 0.03 0.03 0.02 0.03 0.04 0.02 0.00 0.00 0.01 0.01 0.01 0.01 0.01 0.01 0.01 0.00 0.00 0.00 0.01 0.05 0.11 0.11 0.11 0.11 0.09 0.07 0.07 0.08 0.09 0.09
0.09 0.14 0.15 0.13 0.10 0.09 0.10 0.11 0.10 0.07 0.05 0.05 0.05 0.05 0.06 0.03 0.03 0.02 0.01 0.00 0.01 0.02 0.03 0.03 0.01 0.01 0.01 0.00 0.01 0.00 0.01 0.00 0.00 0.01 0.02 0.05 0.07 0.12 0.12 0.12 0.11 0.13 0.14
0.24 0.20 0.16 0.14 0.12 0.10 0.08 0.05 0.03 0.02 0.02 0.01 0.00 0.00 0.04 0.04 0.01 0.00 0.00 0.00 0.01 0.01 0.01 0.01 0.00 0.00 0.00 0.00 0.00 0.01 0.01 0.01 0.01 0.01 0.02 0.03 0.06 0.07 0.07 0.09 0.11 0.11 0.11
0.15 0.12 0.08 0.06 0.05 0.04 0.03 0.02 0.02 0.00 0.00 0.00 0.01 0.02 0.02 0.02 0.01 0.01 0.01 0.01 0.01 0.01 0.01 0.00 0.00 0.00 0.00 0.00 0.01 0.01 0.01 0.00 0.00 0.01 0.03 0.04 0.05 0.07 0.08 0.08 0.10 0.11 0.07
0.04 0.01 0.01 0.00 0.00 0.00 0.00 0.00 0.00 0.00 0.00 0.00 0.00 0.01 0.01 0.00 0.01 0.01 0.02 0.02 0.01 0.01 0.01 0.01 0.01 0.00 0.01 0.01 0.01 0.00 0.01 0.01 0.00 0.01 0.02 0.02 0.03 0.04 0.05 0.08 0.10 0.13 0.14
0.00 0.00 0.00 0.00 0.00 0.00 0.00 0.00 0.00 0.00 0.00 0.00 0.00 0.00 0.00 0.00 0.01 0.01 0.01 0.01 0.01 0.01 0.02 0.02 0.01 0.01 0.01 0.01 0.01 0.01 0.01 0.01 0.02 0.01 0.01 0.01 0.02 0.03 0.04 0.07 0.11 0.13 0.14
0.00 0.00 0.00 0.00 0.00 0.00 0.00 0.00 0.00 0.00 0.00 0.00 0.00 0.00 0.00 0.00 0.01 0.01 0.01 0.01 0.01 0.01 0.00 0.00 0.00 0.01 0.00 0.00 0.00 0.01 0.02 0.02 0.01 0.01 0.02 0.02 0.02 0.02 0.02 0.04 0.08 0.12 0.14
0.00 0.00 0.00 0.00 0.00 0.00 0.00 0.00 0.00 0.00 0.01 0.01 0.01 0.01 0.01 0.01 0.01 0.01 0.01 0.01 0.00 0.00 0.00 0.00 0.01 0.00 0.00 0.01 0.01 0.01 0.00 0.01 0.03 0.04 0.03 0.02 0.01 0.02 0.03 0.03 0.04 0.10 0.14
0.00 0.00 0.00 0.00 0.00 0.00 0.00 0.00 0.00 0.00 0.01 0.01 0.01 0.01 0.01 0.01 0.01 0.00 0.00 0.00 0.00 0.00 0.00 0.00 0.00 0.00 0.01 0.01 0.00 0.00 0.01 0.03 0.02 0.00 0.01 0.02 0.01 0.01 0.02 0.03 0.04 0.07 0.13
0.00 0.00 0.00 0.00 0.01 0.00 0.01 0.01 0.01 0.01 0.01 0.01 0.01 0.01 0.01 0.01 0.01 0.00 0.00 0.00 0.00 0.01 0.00 0.00 0.00 0.00 0.00 0.00 0.01 0.01 0.00 0.00 0.00 0.01 0.02 0.02 0.02 0.01 0.02 0.03 0.03 0.06 0.10

GFSGL_prec_precacc12_090.txt.gz
Total_Precipitation_Accumulation
0.02 0.00 0.00 0.06 0.07 0.15 0.13 0.16 0.15 0.34 0.42 0.37 0.30 0.25 0.41 0.62 0.57 0.45 0.41 0.35 0.24 0.13 0.08 0.05 0.03 0.02 0.00 0.00 0.00 0.00 0.00 0.00 0.00 0.00 0.00 0.00 0.00 0.00 0.00 0.00 0.00 0.00 0.00
0.16 0.08 0.01 0.05 0.19 0.21 0.32 0.36 0.44 0.52 0.48 0.43 0.42 0.41 0.44 0.53 0.61 0.58 0.51 0.39 0.17 0.06 0.03 0.02 0.01 0.01 0.00 0.00 0.00 0.00 0.00 0.00 0.00 0.00 0.00 0.00 0.00 0.00 0.00 0.00 0.00 0.00 0.00
0.25 0.19 0.03 0.13 0.27 0.50 0.52 0.69 0.82 0.84 0.91 0.98 1.00 0.82 0.67 0.53 0.39 0.29 0.21 0.13 0.07 0.07 0.06 0.04 0.03 0.02 0.03 0.04 0.02 0.00 0.00 0.00 0.00 0.00 0.00 0.00 0.00 0.00 0.00 0.00 0.00 0.00 0.00
0.03 0.04 0.04 0.20 0.32 0.38 0.48 0.52 0.82 0.97 0.77 0.55 0.47 0.27 0.09 0.07 0.06 0.07 0.09 0.10 0.11 0.10 0.07 0.05 0.04 0.03 0.03 0.03 0.02 0.01 0.01 0.01 0.00 0.00 0.00 0.00 0.00 0.00 0.00 0.00 0.00 0.00 0.00
0.09 0.23 0.23 0.31 0.51 0.57 0.66 0.58 0.46 0.29 0.25 0.19 0.12 0.08 0.05 0.04 0.07 0.08 0.07 0.06 0.06 0.07 0.10 0.12 0.14 0.14 0.08 0.03 0.01 0.02 0.02 0.00 0.00 0.00 0.00 0.00 0.00 0.00 0.00 0.00 0.00 0.00 0.01
0.13 0.10 0.13 0.15 0.14 0.21 0.23 0.22 0.17 0.14 0.13 0.11 0.11 0.09 0.10 0.09 0.21 0.20 0.16 0.16 0.19 0.21 0.21 0.17 0.14 0.14 0.10 0.06 0.03 0.01 0.00 0.00 0.00 0.00 0.00 0.00 0.00 0.00 0.00 0.00 0.01 0.04 0.04
0.05 0.05 0.07 0.08 0.06 0.09 0.09 0.10 0.09 0.08 0.09 0.08 0.08 0.08 0.10 0.13 0.30 0.25 0.22 0.14 0.16 0.15 0.12 0.10 0.08 0.05 0.03 0.02 0.01 0.00 0.00 0.00 0.00 0.00 0.00 0.00 0.00 0.00 0.01 0.02 0.02 0.01 0.01
0.03 0.03 0.03 0.02 0.03 0.03 0.04 0.06 0.06 0.08 0.07 0.08 0.10 0.15 0.18 0.31 0.43 0.32 0.33 0.27 0.29 0.23 0.19 0.14 0.08 0.01 0.00 0.00 0.00 0.00 0.00 0.00 0.00 0.00 0.00 0.00 0.00 0.00 0.01 0.01 0.01 0.01 0.01
0.03 0.03 0.02 0.02 0.02 0.03 0.04 0.03 0.04 0.06 0.07 0.10 0.12 0.15 0.16 0.23 0.31 0.23 0.18 0.13 0.12 0.08 0.05 0.02 0.01 0.01 0.00 0.00 0.00 0.00 0.00 0.00 0.00 0.00 0.00 0.00 0.00 0.00 0.01 0.03 0.04 0.05 0.03
0.02 0.03 0.02 0.02 0.02 0.02 0.02 0.02 0.03 0.05 0.10 0.10 0.11 0.10 0.13 0.09 0.15 0.10 0.05 0.02 0.02 0.02 0.02 0.03 0.04 0.02 0.00 0.00 0.00 0.00 0.00 0.00 0.00 0.00 0.00 0.00 0.00 0.00 0.02 0.05 0.06 0.10 0.09
0.01 0.01 0.00 0.00 0.00 0.01 0.01 0.01 0.02 0.03 0.02 0.01 0.01 0.02 0.03 0.04 0.06 0.06 0.04 0.04 0.05 0.06 0.05 0.02 0.00 0.00 0.00 0.00 0.00 0.00 0.00 0.00 0.00 0.00 0.00 0.00 0.00 0.00 0.00 0.00 0.01 0.05 0.08
0.00 0.00 0.00 0.00 0.00 0.00 0.00 0.01 0.01 0.01 0.01 0.02 0.02 0.03 0.04 0.05 0.07 0.08 0.09 0.07 0.05 0.03 0.02 0.01 0.01 0.01 0.00 0.00 0.00 0.00 0.00 0.00 0.00 0.00 0.00 0.00 0.00 0.00 0.00 0.00 0.01 0.02 0.03
0.00 0.00 0.00 0.00 0.00 0.00 0.00 0.00 0.01 0.01 0.01 0.02 0.02 0.03 0.06 0.10 0.12 0.12 0.07 0.04 0.02 0.02 0.02 0.02 0.02 0.01 0.01 0.01 0.00 0.00 0.00 0.00 0.00 0.01 0.01 0.01 0.01 0.01 0.00 0.01 0.02 0.03 0.03
0.00 0.00 0.00 0.00 0.00 0.00 0.00 0.01 0.01 0.01 0.02 0.05 0.11 0.15 0.15 0.12 0.09 0.07 0.06 0.06 0.05 0.04 0.02 0.01 0.00 0.01 0.01 0.01 0.00 0.00 0.00 0.00 0.01 0.03 0.03 0.02 0.01 0.01 0.01 0.01 0.05 0.06 0.10
0.00 0.00 0.00 0.00 0.00 0.00 0.01 0.02 0.04 0.12 0.14 0.15 0.14 0.12 0.12 0.13 0.12 0.08 0.06 0.04 0.02 0.01 0.02 0.03 0.04 0.03 0.03 0.02 0.01 0.01 0.01 0.01 0.01 0.03 0.05 0.03 0.01 0.01 0.01 0.01 0.03 0.03 0.06
0.00 0.00 0.00 0.01 0.02 0.04 0.08 0.13 0.15 0.14 0.12 0.12 0.12 0.11 0.10 0.09 0.06 0.05 0.05 0.05 0.05 0.04 0.03 0.03 0.02 0.02 0.02 0.02 0.02 0.02 0.01 0.00 0.00 0.00 0.01 0.05 0.10 0.10 0.10 0.09 0.12 0.13 0.11
0.00 0.01 0.04 0.10 0.14 0.15 0.13 0.11 0.12 0.14 0.13 0.10 0.07 0.05 0.05 0.06 0.07 0.08 0.05 0.03 0.03 0.03 0.04 0.04 0.03 0.03 0.03 0.04 0.03 0.01 0.01 0.00 0.00 0.00 0.00 0.01 0.05 0.08 0.07 0.06 0.06 0.07 0.08
0.08 0.12 0.14 0.14 0.11 0.10 0.11 0.12 0.10 0.08 0.06 0.07 0.07 0.09 0.11 0.06 0.05 0.04 0.02 0.01 0.02 0.04 0.06 0.06 0.05 0.03 0.02 0.01 0.00 0.00 0.00 0.00 0.00 0.00 0.00 0.00 0.01 0.04 0.06 0.08 0.09 0.12 0.12
0.21 0.19 0.15 0.14 0.12 0.10 0.08 0.05 0.03 0.03 0.02 0.02 0.01 0.01 0.06 0.06 0.02 0.01 0.00 0.00 0.02 0.02 0.01 0.01 0.01 0.01 0.00 0.00 0.00 0.00 0.00 0.00 0.00 0.00 0.00 0.01 0.02 0.02 0.02 0.05 0.08 0.09 0.10
0.13 0.11 0.08 0.06 0.05 0.04 0.03 0.02 0.02 0.00 0.00 0.01 0.01 0.02 0.02 0.02 0.02 0.01 0.01 0.01 0.01 0.01 0.01 0.00 0.01 0.01 0.00 0.00 0.00 0.01 0.00 0.00 0.00 0.00 0.00 0.01 0.01 0.02 0.04 0.04 0.03 0.06 0.06
0.04 0.01 0.00 0.00 0.00 0.00 0.00 0.00 0.00 0.00 0.00 0.00 0.01 0.01 0.00 0.00 0.01 0.01 0.01 0.01 0.01 0.01 0.01 0.01 0.01 0.00 0.00 0.00 0.00 0.00 0.00 0.00 0.00 0.01 0.01 0.01 0.00 0.01 0.02 0.03 0.03 0.07 0.12
0.00 0.00 0.00 0.00 0.00 0.00 0.00 0.00 0.00 0.00 0.00 0.00 0.00 0.00 0.00 0.00 0.00 0.01 0.01 0.01 0.01 0.01 0.01 0.01 0.01 0.01 0.01 0.00 0.00 0.00 0.00 0.01 0.01 0.00 0.00 0.00 0.01 0.01 0.01 0.02 0.03 0.05 0.10
0.00 0.00 0.00 0.00 0.00 0.00 0.00 0.00 0.00 0.00 0.00 0.01 0.01 0.00 0.00 0.00 0.00 0.00 0.00 0.00 0.00 0.00 0.00 0.00 0.00 0.00 0.00 0.00 0.00 0.01 0.02 0.01 0.00 0.01 0.02 0.02 0.01 0.00 0.01 0.02 0.03 0.05 0.07
0.00 0.00 0.00 0.00 0.00 0.00 0.00 0.00 0.00 0.00 0.01 0.01 0.00 0.00 0.00 0.00 0.00 0.00 0.00 0.00 0.00 0.00 0.00 0.00 0.00 0.00 0.00 0.00 0.01 0.00 0.00 0.01 0.03 0.04 0.03 0.02 0.01 0.00 0.01 0.01 0.02 0.04 0.06
0.00 0.00 0.00 0.00 0.00 0.00 0.00 0.00 0.00 0.00 0.00 0.00 0.00 0.00 0.01 0.00 0.00 0.00 0.00 0.00 0.00 0.00 0.00 0.00 0.00 0.00 0.00 0.00 0.00 0.00 0.01 0.02 0.01 0.00 0.01 0.02 0.01 0.01 0.01 0.01 0.02 0.03 0.05
0.00 0.00 0.00 0.00 0.00 0.00 0.00 0.00 0.00 0.00 0.01 0.01 0.01 0.01 0.01 0.00 0.00 0.00 0.00 0.00 0.00 0.00 0.00 0.00 0.00 0.00 0.00 0.00 0.00 0.00 0.00 0.00 0.00 0.01 0.02 0.02 0.02 0.01 0.01 0.02 0.02 0.03 0.04

GFSGL_prec_precacc12_093.txt.gz
Total_Precipitation_Accumulation
0.01 0.00 0.00 0.00 0.02 0.12 0.06 0.04 0.08 0.20 0.29 0.29 0.26 0.18 0.16 0.21 0.24 0.26 0.29 0.26 0.24 0.23 0.19 0.15 0.11 0.09 0.09 0.08 0.08 0.06 0.02 0.00 0.00 0.00 0.00 0.00 0.00 0.00 0.00 0.00 0.00 0.00 0.00
0.12 0.01 0.01 0.01 0.06 0.11 0.23 0.25 0.31 0.46 0.47 0.42 0.41 0.38 0.41 0.55 0.73 0.80 0.70 0.62 0.54 0.44 0.35 0.29 0.17 0.10 0.07 0.06 0.05 0.01 0.00 0.00 0.00 0.00 0.00 0.00 0.00 0.00 0.00 0.00 0.00 0.00 0.00
0.15 0.11 0.03 0.03 0.02 0.22 0.31 0.51 0.70 0.78 0.90 0.98 1.02 0.86 0.73 0.66 0.54 0.45 0.34 0.30 0.26 0.24 0.20 0.16 0.13 0.10 0.08 0.09 0.09 0.06 0.05 0.04 0.02 0.01 0.00 0.00 0.00 0.00 0.00 0.00 0.00 0.00 0.00
0.02 0.02 0.02 0.02 0.06 0.25 0.34 0.43 0.74 0.94 0.75 0.51 0.43 0.30 0.15 0.08 0.07 0.07 0.09 0.11 0.14 0.16 0.14 0.13 0.14 0.15 0.13 0.14 0.08 0.07 0.08 0.07 0.05 0.02 0.01 0.01 0.00 0.00 0.00 0.00 0.00 0.00 0.00
0.05 0.09 0.07 0.07 0.24 0.44 0.53 0.51 0.44 0.28 0.25 0.21 0.16 0.12 0.09 0.07 0.09 0.09 0.08 0.07 0.07 0.09 0.13 0.16 0.17 0.22 0.22 0.18 0.15 0.13 0.14 0.12 0.10 0.05 0.02 0.02 0.01 0.00 0.00 0.00 0.00 0.00 0.00
0.03 0.04 0.05 0.06 0.10 0.13 0.16 0.19 0.17 0.16 0.15 0.13 0.13 0.12 0.13 0.12 0.25 0.23 0.18 0.17 0.19 0.22 0.21 0.18 0.17 0.23 0.18 0.19 0.18 0.17 0.14 0.10 0.07 0.04 0.03 0.03 0.02 0.01 0.00 0.00 0.00 0.02 0.02
0.02 0.02 0.02 0.03 0.03 0.05 0.07 0.09 0.09 0.09 0.09 0.09 0.09 0.09 0.12 0.17 0.38 0.29 0.27 0.16 0.18 0.24 0.29 0.34 0.39 0.39 0.34 0.23 0.19 0.11 0.06 0.05 0.03 0.03 0.03 0.02 0.01 0.00 0.00 0.00 0.01 0.01 0.01
0.02 0.02 0.01 0.02 0.02 0.02 0.02 0.04 0.05 0.08 0.08 0.10 0.14 0.21 0.24 0.36 0.49 0.35 0.37 0.29 0.34 0.39 0.38 0.31 0.25 0.19 0.15 0.11 0.08 0.07 0.06 0.05 0.04 0.02 0.02 0.00 0.00 0.00 0.00 0.00 0.01 0.01 0.01
0.02 0.03 0.03 0.02 0.02 0.03 0.05 0.04 0.05 0.07 0.11 0.15 0.16 0.18 0.18 0.24 0.35 0.24 0.20 0.13 0.14 0.13 0.10 0.08 0.08 0.07 0.09 0.09 0.07 0.06 0.04 0.03 0.01 0.00 0.00 0.00 0.00 0.00 0.00 0.01 0.03 0.04 0.03
0.03 0.03 0.03 0.03 0.03 0.03 0.03 0.04 0.05 0.08 0.12 0.11 0.13 0.11 0.15 0.10 0.18 0.13 0.08 0.03 0.05 0.06 0.07 0.09 0.12 0.07 0.05 0.03 0.02 0.02 0.02 0.02 0.02 0.02 0.01 0.01 0.00 0.00 0.00 0.01 0.03 0.05 0.08
0.02 0.02 0.02 0.02 0.02 0.02 0.02 0.03 0.04 0.04 0.03 0.02 0.02 0.02 0.04 0.05 0.07 0.08 0.07 0.06 0.09 0.11 0.10 0.08 0.06 0.06 0.04 0.03 0.03 0.04 0.04 0.03 0.02 0.01 0.00 0.00 0.00 0.00 0.01 0.01 0.01 0.05 0.08
0.01 0.01 0.01 0.01 0.01 0.01 0.01 0.01 0.01 0.01 0.02 0.02 0.03 0.04 0.05 0.06 0.11 0.13 0.14 0.13 0.13 0.13 0.12 0.10 0.07 0.05 0.05 0.05 0.05 0.03 0.01 0.01 0.01 0.00 0.01 0.01 0.01 0.01 0.00 0.00 0.00 0.01 0.03
0.00 0.00 0.00 0.00 0.00 0.00 0.00 0.00 0.01 0.01 0.01 0.02 0.03 0.04 0.08 0.12 0.17 0.20 0.14 0.11 0.10 0.11 0.10 0.09 0.08 0.06 0.05 0.06 0.03 0.02 0.00 0.00 0.01 0.02 0.02 0.02 0.02 0.01 0.00 0.00 0.00 0.01 0.02
0.00 0.00 0.00 0.00 0.00 0.00 0.00 0.01 0.01 0.02 0.03 0.06 0.13 0.19 0.21 0.19 0.17 0.15 0.13 0.12 0.11 0.09 0.07 0.05 0.04 0.03 0.04 0.04 0.04 0.03 0.03 0.02 0.03 0.03 0.02 0.02 0.01 0.00 0.00 0.00 0.02 0.02 0.05
0.00 0.00 0.00 0.00 0.00 0.00 0.01 0.03 0.05 0.14 0.16 0.18 0.19 0.18 0.17 0.17 0.16 0.11 0.08 0.05 0.03 0.02 0.03 0.05 0.06 0.06 0.07 0.06 0.05 0.04 0.04 0.03 0.03 0.02 0.02 0.01 0.00 0.00 0.00 0.01 0.02 0.02 0.05
0.00 0.00 0.00 0.01 0.02 0.03 0.07 0.14 0.16 0.15 0.13 0.13 0.13 0.12 0.12 0.11 0.09 0.06 0.06 0.06 0.07 0.05 0.03 0.03 0.03 0.02 0.03 0.04 0.05 0.04 0.03 0.02 0.01 0.01 0.00 0.00 0.00 0.00 0.01 0.04 0.10 0.12 0.11
0.00 0.01 0.04 0.09 0.12 0.13 0.12 0.11 0.13 0.14 0.13 0.10 0.08 0.06 0.06 0.07 0.08 0.08 0.05 0.03 0.03 0.04 0.05 0.05 0.04 0.04 0.05 0.05 0.04 0.03 0.02 0.01 0.00 0.00 0.00 0.00 0.00 0.01 0.01 0.01 0.03 0.06 0.07
0.07 0.10 0.11 0.11 0.09 0.08 0.09 0.10 0.09 0.08 0.07 0.07 0.07 0.10 0.12 0.07 0.06 0.04 0.02 0.01 0.02 0.04 0.07 0.07 0.06 0.04 0.03 0.02 0.01 0.01 0.00 0.00 0.00 0.00 0.00 0.00 0.01 0.01 0.01 0.01 0.02 0.05 0.07
0.12 0.10 0.08 0.08 0.08 0.07 0.06 0.04 0.03 0.03 0.02 0.02 0.01 0.01 0.06 0.06 0.02 0.01 0.00 0.00 0.01 0.01 0.01 0.01 0.01 0.02 0.01 0.01 0.01 0.01 0.01 0.01 0.00 0.00 0.00 0.00 0.01 0.01 0.01 0.01 0.02 0.04 0.07
0.05 0.05 0.04 0.04 0.04 0.03 0.03 0.02 0.02 0.00 0.00 0.01 0.01 0.02 0.02 0.02 0.02 0.01 0.01 0.01 0.00 0.01 0.00 0.01 0.01 0.01 0.00 0.01 0.01 0.01 0.01 0.00 0.00 0.00 0.00 0.01 0.01 0.01 0.01 0.01 0.01 0.02 0.02
0.01 0.00 0.00 0.00 0.00 0.00 0.00 0.00 0.00 0.00 0.00 0.00 0.01 0.01 0.00 0.00 0.01 0.01 0.01 0.01 0.01 0.01 0.01 0.01 0.01 0.01 0.00 0.01 0.01 0.00 0.00 0.00 0.00 0.00 0.01 0.01 0.00 0.01 0.00 0.01 0.01 0.02 0.03
0.00 0.00 0.00 0.00 0.00 0.00 0.00 0.00 0.00 0.00 0.00 0.00 0.00 0.00 0.00 0.00 0.00 0.00 0.00 0.01 0.01 0.01 0.02 0.01 0.01 0.01 0.01 0.00 0.00 0.00 0.00 0.00 0.01 0.00 0.00 0.01 0.01 0.01 0.01 0.01 0.01 0.01 0.02
0.00 0.00 0.00 0.00 0.00 0.00 0.00 0.00 0.00 0.00 0.00 0.01 0.01 0.00 0.00 0.00 0.00 0.00 0.00 0.00 0.00 0.00 0.00 0.00 0.00 0.00 0.00 0.00 0.00 0.00 0.01 0.01 0.00 0.01 0.02 0.02 0.01 0.01 0.01 0.01 0.01 0.01 0.03
0.00 0.00 0.00 0.00 0.00 0.00 0.00 0.00 0.00 0.00 0.00 0.00 0.00 0.00 0.00 0.00 0.00 0.00 0.00 0.00 0.00 0.00 0.00 0.00 0.00 0.00 0.00 0.00 0.00 0.00 0.00 0.01 0.02 0.03 0.02 0.02 0.01 0.01 0.01 0.01 0.01 0.02 0.03
0.00 0.00 0.00 0.00 0.00 0.00 0.00 0.00 0.00 0.00 0.00 0.00 0.00 0.00 0.01 0.00 0.00 0.00 0.00 0.00 0.00 0.00 0.00 0.00 0.00 0.00 0.00 0.00 0.00 0.00 0.00 0.01 0.01 0.01 0.02 0.02 0.01 0.01 0.01 0.01 0.01 0.01 0.02
0.00 0.00 0.00 0.00 0.00 0.00 0.00 0.00 0.00 0.00 0.00 0.01 0.01 0.01 0.01 0.00 0.00 0.00 0.00 0.00 0.00 0.00 0.00 0.00 0.00 0.00 0.00 0.00 0.00 0.00 0.00 0.01 0.00 0.01 0.02 0.02 0.02 0.01 0.01 0.02 0.01 0.02 0.02

GFSGL_prec_precacc12_096.txt.gz
Total_Precipitation_Accumulation
0.00 0.00 0.00 0.00 0.00 0.00 0.00 0.00 0.04 0.05 0.08 0.11 0.12 0.12 0.14 0.20 0.24 0.25 0.27 0.24 0.22 0.21 0.18 0.18 0.19 0.19 0.21 0.22 0.24 0.27 0.29 0.31 0.26 0.09 0.03 0.00 0.00 0.00 0.00 0.00 0.00 0.00 0.00
0.09 0.01 0.00 0.00 0.00 0.00 0.01 0.02 0.06 0.15 0.24 0.28 0.29 0.33 0.40 0.54 0.73 0.80 0.71 0.64 0.58 0.52 0.46 0.47 0.44 0.42 0.44 0.34 0.27 0.22 0.17 0.15 0.16 0.13 0.06 0.02 0.00 0.00 0.00 0.00 0.00 0.00 0.00
0.12 0.07 0.02 0.03 0.01 0.02 0.02 0.05 0.14 0.31 0.69 0.90 0.97 0.84 0.72 0.65 0.55 0.48 0.41 0.33 0.27 0.25 0.25 0.25 0.22 0.22 0.22 0.20 0.18 0.16 0.14 0.13 0.13 0.12 0.07 0.02 0.02 0.02 0.01 0.01 0.00 0.00 0.00
0.00 0.02 0.01 0.02 0.02 0.04 0.06 0.12 0.43 0.85 0.68 0.46 0.39 0.27 0.13 0.07 0.04 0.04 0.05 0.09 0.11 0.15 0.16 0.16 0.17 0.17 0.17 0.22 0.25 0.25 0.25 0.26 0.22 0.17 0.13 0.10 0.10 0.09 0.07 0.06 0.04 0.02 0.01
0.00 0.00 0.00 0.00 0.03 0.06 0.13 0.29 0.34 0.23 0.20 0.18 0.15 0.13 0.10 0.06 0.06 0.06 0.07 0.07 0.09 0.12 0.16 0.19 0.20 0.24 0.26 0.23 0.20 0.17 0.21 0.25 0.25 0.25 0.25 0.22 0.19 0.16 0.12 0.12 0.08 0.05 0.03
0.00 0.00 0.00 0.01 0.02 0.05 0.09 0.10 0.12 0.14 0.13 0.12 0.13 0.12 0.12 0.10 0.16 0.17 0.18 0.17 0.21 0.24 0.24 0.20 0.19 0.31 0.25 0.30 0.31 0.32 0.30 0.31 0.32 0.32 0.28 0.25 0.25 0.22 0.17 0.13 0.08 0.04 0.02
0.00 0.00 0.00 0.01 0.02 0.04 0.05 0.06 0.07 0.07 0.08 0.09 0.09 0.08 0.11 0.16 0.41 0.29 0.29 0.18 0.19 0.25 0.31 0.37 0.42 0.45 0.46 0.35 0.35 0.32 0.28 0.27 0.24 0.24 0.26 0.25 0.22 0.16 0.11 0.05 0.02 0.01 0.02
0.00 0.01 0.01 0.01 0.02 0.02 0.02 0.05 0.06 0.06 0.05 0.07 0.12 0.18 0.21 0.35 0.49 0.34 0.37 0.30 0.34 0.39 0.38 0.32 0.27 0.23 0.21 0.17 0.13 0.14 0.16 0.16 0.16 0.15 0.14 0.11 0.07 0.04 0.03 0.03 0.03 0.02 0.01
0.02 0.03 0.02 0.02 0.03 0.05 0.09 0.08 0.05 0.06 0.09 0.12 0.14 0.17 0.18 0.25 0.37 0.25 0.20 0.13 0.14 0.13 0.11 0.10 0.10 0.10 0.17 0.16 0.13 0.14 0.12 0.10 0.07 0.06 0.06 0.06 0.06 0.05 0.04 0.03 0.02 0.02 0.01
0.02 0.03 0.03 0.03 0.04 0.05 0.04 0.04 0.05 0.08 0.13 0.13 0.15 0.12 0.16 0.10 0.19 0.14 0.08 0.03 0.05 0.06 0.08 0.12 0.18 0.12 0.11 0.08 0.08 0.08 0.08 0.08 0.08 0.07 0.06 0.04 0.02 0.01 0.00 0.01 0.03 0.05 0.04
0.02 0.02 0.02 0.02 0.02 0.02 0.03 0.03 0.04 0.05 0.04 0.03 0.02 0.03 0.04 0.05 0.08 0.09 0.08 0.06 0.10 0.12 0.13 0.11 0.10 0.14 0.10 0.08 0.08 0.09 0.09 0.06 0.03 0.02 0.02 0.02 0.02 0.02 0.02 0.03 0.03 0.06 0.07
0.01 0.01 0.01 0.01 0.01 0.01 0.01 0.01 0.02 0.02 0.02 0.02 0.03 0.05 0.05 0.07 0.12 0.14 0.14 0.14 0.16 0.15 0.17 0.16 0.12 0.09 0.07 0.07 0.06 0.04 0.03 0.03 0.04 0.04 0.03 0.03 0.03 0.03 0.03 0.02 0.01 0.02 0.03
0.00 0.00 0.00 0.00 0.00 0.00 0.00 0.00 0.01 0.01 0.01 0.02 0.03 0.05 0.09 0.13 0.20 0.23 0.16 0.13 0.13 0.13 0.13 0.10 0.09 0.07 0.06 0.08 0.05 0.03 0.02 0.02 0.03 0.04 0.05 0.04 0.03 0.02 0.01 0.01 0.00 0.01 0.01
0.00 0.00 0.00 0.00 0.00 0.00 0.00 0.01 0.01 0.02 0.03 0.06 0.13 0.20 0.22 0.20 0.18 0.16 0.13 0.13 0.12 0.09 0.07 0.06 0.04 0.04 0.05 0.06 0.06 0.05 0.04 0.03 0.03 0.04 0.04 0.03 0.02 0.01 0.01 0.00 0.00 0.00 0.01
0.00 0.00 0.00 0.00 0.00 0.00 0.01 0.03 0.04 0.14 0.16 0.18 0.19 0.18 0.17 0.17 0.17 0.12 0.08 0.06 0.04 0.03 0.03 0.05 0.06 0.06 0.07 0.07 0.06 0.05 0.05 0.04 0.04 0.04 0.03 0.02 0.01 0.00 0.00 0.00 0.00 0.00 0.01
0.00 0.00 0.00 0.01 0.01 0.03 0.06 0.12 0.15 0.14 0.13 0.12 0.12 0.11 0.12 0.12 0.09 0.07 0.06 0.06 0.07 0.05 0.03 0.04 0.03 0.03 0.04 0.05 0.06 0.06 0.04 0.03 0.03 0.01 0.00 0.00 0.00 0.00 0.00 0.00 0.00 0.00 0.01
0.01 0.01 0.02 0.05 0.06 0.08 0.08 0.07 0.09 0.10 0.08 0.07 0.07 0.06 0.06 0.07 0.08 0.08 0.05 0.03 0.03 0.04 0.05 0.05 0.05 0.05 0.05 0.06 0.05 0.03 0.02 0.02 0.01 0.00 0.00 0.00 0.00 0.00 0.01 0.00 0.00 0.00 0.01
0.03 0.03 0.03 0.03 0.02 0.02 0.03 0.04 0.04 0.04 0.05 0.06 0.07 0.09 0.12 0.07 0.05 0.04 0.02 0.01 0.02 0.04 0.07 0.07 0.06 0.05 0.03 0.02 0.01 0.01 0.01 0.00 0.00 0.00 0.00 0.00 0.01 0.01 0.01 0.01 0.00 0.01 0.01
0.02 0.02 0.02 0.02 0.02 0.01 0.01 0.01 0.01 0.01 0.02 0.02 0.01 0.01 0.06 0.05 0.02 0.01 0.00 0.00 0.01 0.01 0.01 0.01 0.01 0.02 0.01 0.01 0.01 0.01 0.01 0.01 0.01 0.01 0.01 0.01 0.01 0.01 0.01 0.01 0.01 0.01 0.01
0.01 0.01 0.01 0.01 0.01 0.01 0.01 0.00 0.00 0.00 0.00 0.00 0.01 0.02 0.02 0.01 0.01 0.01 0.01 0.01 0.01 0.01 0.00 0.01 0.01 0.01 0.01 0.01 0.01 0.01 0.01 0.00 0.00 0.01 0.01 0.01 0.01 0.01 0.01 0.01 0.01 0.01 0.01
0.00 0.00 0.00 0.00 0.00 0.00 0.00 0.00 0.00 0.00 0.00 0.01 0.01 0.01 0.00 0.00 0.01 0.01 0.01 0.01 0.01 0.00 0.01 0.01 0.01 0.01 0.01 0.01 0.01 0.01 0.01 0.01 0.00 0.01 0.01 0.01 0.01 0.01 0.01 0.01 0.01 0.01 0.01
0.00 0.00 0.00 0.00 0.00 0.00 0.00 0.00 0.00 0.00 0.00 0.00 0.01 0.00 0.00 0.00 0.00 0.00 0.00 0.00 0.00 0.00 0.01 0.01 0.01 0.01 0.01 0.00 0.00 0.00 0.00 0.00 0.01 0.00 0.01 0.01 0.01 0.01 0.01 0.01 0.01 0.01 0.01
0.00 0.00 0.00 0.00 0.00 0.00 0.00 0.00 0.00 0.00 0.00 0.00 0.00 0.00 0.00 0.00 0.00 0.00 0.00 0.00 0.00 0.00 0.00 0.00 0.00 0.00 0.00 0.00 0.00 0.00 0.01 0.01 0.01 0.02 0.02 0.02 0.01 0.01 0.01 0.02 0.01 0.01 0.01
0.00 0.00 0.00 0.00 0.00 0.00 0.00 0.00 0.00 0.00 0.00 0.00 0.00 0.00 0.00 0.01 0.01 0.00 0.00 0.00 0.00 0.00 0.00 0.00 0.00 0.00 0.00 0.00 0.00 0.00 0.00 0.01 0.02 0.02 0.03 0.02 0.02 0.01 0.02 0.02 0.01 0.01 0.02
0.00 0.00 0.00 0.00 0.00 0.00 0.00 0.00 0.00 0.00 0.00 0.00 0.00 0.00 0.00 0.00 0.00 0.00 0.00 0.00 0.00 0.00 0.00 0.00 0.00 0.00 0.00 0.00 0.00 0.00 0.00 0.01 0.01 0.01 0.02 0.02 0.02 0.01 0.02 0.02 0.01 0.01 0.01
0.00 0.00 0.00 0.00 0.00 0.00 0.00 0.00 0.00 0.00 0.00 0.00 0.00 0.00 0.00 0.00 0.00 0.00 0.00 0.00 0.00 0.00 0.00 0.00 0.00 0.00 0.00 0.00 0.00 0.00 0.00 0.00 0.01 0.01 0.02 0.02 0.02 0.01 0.02 0.02 0.01 0.02 0.01

GFSGL_prec_precacc12_099.txt.gz
Total_Precipitation_Accumulation
0.00 0.00 0.00 0.00 0.00 0.00 0.00 0.00 0.00 0.00 0.01 0.00 0.00 0.01 0.02 0.04 0.13 0.23 0.26 0.24 0.22 0.20 0.17 0.18 0.19 0.20 0.24 0.25 0.28 0.32 0.36 0.41 0.47 0.24 0.12 0.10 0.09 0.06 0.02 0.02 0.02 0.00 0.00
0.02 0.00 0.00 0.00 0.00 0.00 0.00 0.00 0.00 0.01 0.04 0.08 0.10 0.14 0.21 0.40 0.63 0.77 0.71 0.63 0.57 0.52 0.46 0.47 0.45 0.43 0.45 0.36 0.32 0.28 0.25 0.23 0.29 0.28 0.14 0.11 0.09 0.05 0.03 0.03 0.02 0.00 0.00
0.04 0.03 0.01 0.00 0.00 0.00 0.00 0.00 0.00 0.01 0.03 0.15 0.48 0.56 0.57 0.60 0.52 0.46 0.41 0.33 0.27 0.24 0.23 0.24 0.21 0.22 0.22 0.21 0.21 0.23 0.25 0.22 0.23 0.21 0.18 0.15 0.11 0.07 0.05 0.04 0.03 0.02 0.01
0.00 0.00 0.00 0.01 0.02 0.02 0.02 0.01 0.02 0.04 0.09 0.23 0.30 0.20 0.08 0.03 0.03 0.04 0.05 0.06 0.08 0.11 0.13 0.15 0.18 0.23 0.23 0.28 0.32 0.31 0.31 0.32 0.29 0.27 0.25 0.24 0.22 0.21 0.22 0.24 0.23 0.22 0.22
0.00 0.00 0.00 0.00 0.00 0.01 0.03 0.06 0.08 0.11 0.14 0.15 0.13 0.11 0.09 0.05 0.04 0.05 0.05 0.07 0.08 0.11 0.17 0.27 0.31 0.37 0.33 0.28 0.24 0.19 0.23 0.28 0.29 0.31 0.33 0.33 0.34 0.36 0.38 0.42 0.43 0.41 0.35
0.00 0.00 0.00 0.00 0.01 0.02 0.03 0.04 0.05 0.07 0.08 0.09 0.12 0.10 0.09 0.08 0.12 0.10 0.09 0.07 0.11 0.16 0.26 0.25 0.23 0.38 0.30 0.37 0.36 0.38 0.35 0.35 0.35 0.37 0.39 0.39 0.42 0.43 0.42 0.42 0.40 0.33 0.25
0.00 0.00 0.00 0.00 0.01 0.02 0.02 0.03 0.04 0.05 0.05 0.06 0.06 0.05 0.07 0.10 0.28 0.23 0.29 0.16 0.18 0.25 0.32 0.39 0.44 0.47 0.51 0.35 0.38 0.34 0.31 0.31 0.29 0.28 0.31 0.32 0.32 0.27 0.23 0.20 0.17 0.14 0.11
0.00 0.00 0.00 0.01 0.01 0.01 0.02 0.04 0.05 0.06 0.05 0.05 0.08 0.14 0.17 0.30 0.39 0.24 0.27 0.20 0.30 0.40 0.39 0.33 0.27 0.23 0.22 0.17 0.13 0.14 0.16 0.18 0.19 0.19 0.18 0.16 0.12 0.09 0.09 0.10 0.11 0.12 0.10
0.01 0.02 0.02 0.01 0.02 0.05 0.08 0.09 0.07 0.07 0.10 0.10 0.11 0.11 0.11 0.16 0.29 0.19 0.18 0.12 0.13 0.13 0.11 0.10 0.11 0.10 0.19 0.16 0.14 0.15 0.13 0.12 0.11 0.11 0.12 0.13 0.13 0.13 0.11 0.11 0.10 0.10 0.06
0.01 0.01 0.02 0.03 0.04 0.05 0.04 0.05 0.06 0.08 0.10 0.08 0.11 0.09 0.13 0.07 0.17 0.12 0.08 0.03 0.05 0.06 0.08 0.12 0.19 0.13 0.12 0.09 0.08 0.09 0.10 0.10 0.09 0.09 0.08 0.06 0.03 0.03 0.02 0.03 0.06 0.10 0.09
0.01 0.02 0.02 0.02 0.02 0.02 0.03 0.04 0.05 0.05 0.05 0.04 0.03 0.02 0.02 0.05 0.07 0.08 0.07 0.05 0.09 0.12 0.13 0.11 0.11 0.16 0.10 0.08 0.09 0.11 0.11 0.08 0.04 0.02 0.02 0.02 0.02 0.03 0.03 0.04 0.06 0.10 0.10
0.01 0.01 0.01 0.01 0.01 0.01 0.01 0.01 0.02 0.02 0.02 0.02 0.02 0.03 0.03 0.05 0.11 0.12 0.14 0.14 0.16 0.16 0.17 0.16 0.13 0.09 0.07 0.07 0.07 0.04 0.03 0.03 0.05 0.05 0.04 0.04 0.05 0.05 0.06 0.04 0.03 0.03 0.05
0.00 0.00 0.00 0.00 0.00 0.00 0.00 0.00 0.00 0.00 0.00 0.01 0.02 0.03 0.05 0.08 0.16 0.22 0.16 0.13 0.13 0.13 0.13 0.10 0.09 0.07 0.06 0.09 0.05 0.03 0.02 0.03 0.04 0.05 0.06 0.05 0.04 0.04 0.02 0.01 0.01 0.01 0.01
0.00 0.00 0.00 0.00 0.00 0.00 0.00 0.00 0.00 0.01 0.02 0.03 0.06 0.10 0.14 0.16 0.17 0.16 0.13 0.12 0.12 0.09 0.07 0.06 0.04 0.04 0.05 0.06 0.07 0.06 0.05 0.04 0.04 0.05 0.05 0.04 0.03 0.02 0.01 0.01 0.01 0.00 0.00
0.00 0.00 0.00 0.00 0.00 0.00 0.01 0.02 0.03 0.08 0.09 0.11 0.15 0.16 0.16 0.16 0.16 0.11 0.08 0.05 0.04 0.03 0.03 0.05 0.06 0.06 0.07 0.07 0.06 0.06 0.06 0.05 0.05 0.05 0.03 0.02 0.01 0.01 0.00 0.00 0.00 0.00 0.00
0.00 0.00 0.00 0.00 0.00 0.01 0.01 0.05 0.08 0.09 0.09 0.09 0.09 0.08 0.09 0.10 0.08 0.06 0.05 0.06 0.07 0.05 0.03 0.04 0.04 0.03 0.04 0.05 0.06 0.06 0.04 0.04 0.03 0.01 0.01 0.01 0.00 0.00 0.00 0.00 0.00 0.00 0.01
0.02 0.03 0.03 0.02 0.01 0.01 0.01 0.01 0.04 0.04 0.02 0.03 0.03 0.03 0.03 0.05 0.05 0.05 0.03 0.03 0.03 0.03 0.04 0.04 0.04 0.05 0.05 0.05 0.05 0.03 0.02 0.02 0.01 0.00 0.00 0.01 0.01 0.00 0.01 0.01 0.00 0.01 0.01
0.07 0.03 0.01 0.01 0.00 0.00 0.01 0.01 0.01 0.01 0.02 0.02 0.03 0.04 0.06 0.04 0.03 0.02 0.01 0.01 0.01 0.02 0.04 0.05 0.05 0.04 0.03 0.02 0.01 0.01 0.01 0.01 0.01 0.01 0.01 0.01 0.01 0.02 0.01 0.01 0.01 0.01 0.01
0.04 0.01 0.00 0.00 0.00 0.00 0.00 0.00 0.00 0.00 0.00 0.01 0.01 0.01 0.02 0.02 0.01 0.01 0.00 0.00 0.00 0.01 0.00 0.01 0.01 0.01 0.01 0.01 0.01 0.01 0.01 0.01 0.01 0.01 0.01 0.01 0.01 0.02 0.02 0.01 0.01 0.01 0.01
0.00 0.00 0.00 0.00 0.00 0.00 0.00 0.00 0.00 0.00 0.00 0.00 0.00 0.00 0.00 0.00 0.00 0.00 0.01 0.01 0.01 0.01 0.01 0.00 0.01 0.01 0.01 0.01 0.01 0.01 0.01 0.01 0.01 0.01 0.01 0.01 0.01 0.02 0.02 0.02 0.01 0.02 0.01
0.00 0.00 0.00 0.00 0.00 0.00 0.00 0.00 0.00 0.00 0.00 0.00 0.00 0.01 0.00 0.00 0.00 0.01 0.00 0.00 0.01 0.00 0.01 0.01 0.01 0.01 0.01 0.01 0.01 0.01 0.01 0.01 0.01 0.01 0.01 0.01 0.01 0.01 0.01 0.01 0.02 0.02 0.01
0.00 0.00 0.00 0.00 0.00 0.00 0.00 0.00 0.00 0.00 0.00 0.00 0.00 0.00 0.00 0.00 0.00 0.00 0.00 0.00 0.00 0.00 0.00 0.01 0.01 0.01 0.01 0.00 0.00 0.00 0.00 0.00 0.01 0.01 0.01 0.01 0.01 0.01 0.02 0.02 0.02 0.02 0.01
0.00 0.00 0.00 0.00 0.00 0.00 0.00 0.00 0.00 0.00 0.00 0.00 0.00 0.00 0.00 0.01 0.01 0.01 0.01 0.01 0.00 0.00 0.00 0.00 0.00 0.00 0.00 0.00 0.00 0.00 0.01 0.01 0.01 0.02 0.02 0.02 0.02 0.02 0.02 0.02 0.01 0.02 0.02
0.00 0.00 0.00 0.00 0.00 0.00 0.00 0.00 0.00 0.00 0.00 0.00 0.00 0.00 0.00 0.01 0.01 0.00 0.01 0.00 0.00 0.00 0.00 0.00 0.00 0.00 0.00 0.00 0.00 0.00 0.00 0.01 0.02 0.02 0.02 0.03 0.02 0.01 0.02 0.02 0.02 0.02 0.02
0.00 0.00 0.00 0.00 0.00 0.00 0.00 0.00 0.00 0.00 0.00 0.00 0.00 0.00 0.00 0.00 0.00 0.01 0.00 0.00 0.00 0.00 0.00 0.00 0.00 0.00 0.00 0.00 0.00 0.00 0.01 0.01 0.01 0.02 0.02 0.02 0.02 0.02 0.02 0.02 0.02 0.02 0.02
0.00 0.00 0.00 0.00 0.00 0.00 0.00 0.00 0.00 0.00 0.00 0.00 0.00 0.00 0.00 0.00 0.00 0.00 0.00 0.00 0.00 0.00 0.00 0.00 0.00 0.00 0.00 0.00 0.00 0.01 0.01 0.01 0.01 0.02 0.02 0.02 0.02 0.02 0.02 0.02 0.02 0.02 0.02

GFSGL_prec_precacc12_102.txt.gz
Total_Precipitation_Accumulation
0.00 0.00 0.00 0.00 0.00 0.00 0.00 0.00 0.00 0.00 0.00 0.00 0.00 0.00 0.00 0.00 0.01 0.01 0.02 0.03 0.10 0.16 0.16 0.17 0.18 0.19 0.27 0.27 0.30 0.35 0.38 0.42 0.48 0.26 0.12 0.10 0.09 0.07 0.03 0.04 0.04 0.04 0.02
0.01 0.00 0.00 0.00 0.00 0.00 0.00 0.00 0.00 0.00 0.00 0.00 0.00 0.01 0.01 0.05 0.16 0.27 0.26 0.30 0.45 0.49 0.44 0.47 0.45 0.44 0.48 0.38 0.34 0.30 0.27 0.29 0.42 0.40 0.17 0.13 0.11 0.07 0.04 0.05 0.03 0.01 0.01
0.00 0.01 0.00 0.00 0.00 0.00 0.00 0.00 0.00 0.00 0.00 0.01 0.02 0.05 0.06 0.13 0.17 0.22 0.24 0.24 0.22 0.20 0.19 0.23 0.22 0.25 0.22 0.19 0.21 0.26 0.33 0.39 0.42 0.33 0.21 0.16 0.14 0.12 0.11 0.11 0.08 0.06 0.04
0.00 0.00 0.00 0.00 0.00 0.00 0.00 0.00 0.00 0.00 0.00 0.01 0.01 0.05 0.07 0.02 0.01 0.01 0.01 0.02 0.04 0.09 0.14 0.17 0.19 0.23 0.29 0.41 0.53 0.57 0.54 0.43 0.34 0.30 0.28 0.28 0.25 0.24 0.25 0.30 0.32 0.32 0.32
0.00 0.00 0.00 0.00 0.00 0.00 0.00 0.01 0.02 0.02 0.03 0.04 0.05 0.06 0.07 0.05 0.04 0.03 0.03 0.06 0.08 0.11 0.16 0.24 0.29 0.42 0.45 0.39 0.32 0.22 0.25 0.31 0.34 0.36 0.38 0.37 0.38 0.40 0.41 0.45 0.47 0.44 0.40
0.00 0.00 0.00 0.00 0.00 0.00 0.00 0.01 0.01 0.02 0.03 0.03 0.04 0.05 0.05 0.05 0.07 0.06 0.07 0.07 0.11 0.14 0.18 0.19 0.22 0.37 0.27 0.40 0.39 0.41 0.38 0.36 0.36 0.38 0.40 0.40 0.43 0.45 0.45 0.45 0.42 0.37 0.31
0.00 0.00 0.00 0.00 0.00 0.00 0.01 0.01 0.01 0.01 0.01 0.02 0.02 0.02 0.05 0.08 0.21 0.11 0.16 0.09 0.11 0.21 0.29 0.36 0.42 0.48 0.55 0.37 0.41 0.35 0.31 0.31 0.29 0.28 0.31 0.33 0.33 0.30 0.26 0.23 0.20 0.18 0.16
0.00 0.00 0.00 0.00 0.00 0.01 0.01 0.03 0.03 0.04 0.04 0.04 0.06 0.11 0.13 0.17 0.20 0.11 0.13 0.06 0.09 0.21 0.25 0.23 0.23 0.24 0.24 0.19 0.14 0.14 0.16 0.18 0.20 0.19 0.18 0.17 0.14 0.11 0.12 0.14 0.14 0.15 0.12
0.00 0.00 0.00 0.01 0.01 0.04 0.06 0.07 0.06 0.07 0.10 0.10 0.11 0.11 0.10 0.11 0.18 0.09 0.06 0.01 0.04 0.09 0.08 0.09 0.11 0.09 0.19 0.17 0.14 0.15 0.13 0.12 0.12 0.11 0.12 0.14 0.15 0.15 0.14 0.14 0.13 0.14 0.08
0.00 0.00 0.01 0.02 0.02 0.03 0.03 0.04 0.05 0.07 0.08 0.08 0.11 0.09 0.11 0.06 0.13 0.08 0.07 0.02 0.05 0.06 0.06 0.09 0.17 0.11 0.11 0.09 0.08 0.09 0.10 0.10 0.10 0.09 0.08 0.06 0.04 0.03 0.03 0.04 0.07 0.12 0.12
0.00 0.01 0.02 0.02 0.02 0.02 0.03 0.05 0.06 0.07 0.06 0.06 0.05 0.03 0.03 0.04 0.08 0.09 0.06 0.03 0.05 0.06 0.08 0.09 0.10 0.16 0.10 0.08 0.09 0.11 0.11 0.08 0.05 0.02 0.02 0.02 0.03 0.04 0.05 0.06 0.08 0.11 0.11
0.00 0.01 0.01 0.01 0.01 0.02 0.03 0.03 0.04 0.04 0.04 0.03 0.03 0.03 0.02 0.03 0.07 0.06 0.06 0.07 0.11 0.13 0.16 0.15 0.12 0.09 0.07 0.07 0.06 0.04 0.03 0.04 0.05 0.05 0.04 0.05 0.05 0.05 0.06 0.04 0.03 0.03 0.05
0.00 0.01 0.01 0.00 0.01 0.02 0.03 0.02 0.03 0.02 0.01 0.02 0.02 0.02 0.03 0.04 0.08 0.12 0.09 0.09 0.11 0.12 0.11 0.08 0.07 0.06 0.05 0.08 0.05 0.03 0.03 0.03 0.04 0.05 0.06 0.06 0.05 0.04 0.02 0.02 0.01 0.01 0.01
0.01 0.01 0.02 0.02 0.01 0.00 0.01 0.00 0.00 0.01 0.01 0.02 0.04 0.06 0.08 0.09 0.09 0.09 0.08 0.07 0.06 0.05 0.05 0.05 0.04 0.03 0.04 0.05 0.06 0.06 0.06 0.04 0.04 0.06 0.05 0.04 0.03 0.02 0.02 0.01 0.01 0.00 0.01
0.01 0.01 0.01 0.01 0.01 0.00 0.01 0.01 0.02 0.05 0.03 0.05 0.06 0.06 0.06 0.06 0.06 0.04 0.02 0.02 0.02 0.01 0.01 0.02 0.03 0.03 0.04 0.05 0.05 0.05 0.05 0.04 0.05 0.05 0.03 0.02 0.01 0.01 0.01 0.00 0.00 0.00 0.01
0.01 0.01 0.01 0.00 0.00 0.00 0.01 0.03 0.03 0.03 0.02 0.01 0.02 0.02 0.03 0.04 0.03 0.02 0.01 0.01 0.01 0.01 0.01 0.01 0.01 0.02 0.02 0.03 0.04 0.04 0.03 0.03 0.03 0.01 0.01 0.01 0.01 0.01 0.01 0.01 0.01 0.01 0.02
0.03 0.03 0.04 0.05 0.06 0.06 0.06 0.05 0.05 0.02 0.01 0.01 0.01 0.01 0.01 0.02 0.01 0.01 0.00 0.00 0.00 0.00 0.01 0.01 0.02 0.02 0.02 0.02 0.02 0.02 0.02 0.02 0.01 0.01 0.00 0.01 0.01 0.01 0.01 0.01 0.01 0.02 0.02
0.24 0.25 0.23 0.19 0.12 0.06 0.02 0.01 0.00 0.01 0.01 0.01 0.01 0.01 0.01 0.01 0.00 0.00 0.00 0.00 0.00 0.00 0.00 0.01 0.01 0.02 0.01 0.01 0.01 0.01 0.01 0.01 0.01 0.01 0.01 0.01 0.01 0.02 0.02 0.02 0.01 0.02 0.01
0.31 0.19 0.10 0.04 0.01 0.00 0.00 0.00 0.00 0.00 0.00 0.00 0.00 0.00 0.00 0.00 0.00 0.00 0.00 0.00 0.00 0.00 0.00 0.00 0.00 0.01 0.01 0.01 0.01 0.01 0.02 0.01 0.01 0.01 0.01 0.01 0.02 0.02 0.02 0.01 0.01 0.01 0.02
0.03 0.00 0.00 0.00 0.00 0.00 0.00 0.00 0.00 0.00 0.00 0.00 0.00 0.00 0.00 0.00 0.00 0.00 0.00 0.00 0.00 0.00 0.00 0.00 0.01 0.01 0.01 0.01 0.01 0.01 0.01 0.01 0.01 0.01 0.01 0.01 0.02 0.02 0.02 0.02 0.02 0.03 0.02
0.00 0.00 0.00 0.00 0.00 0.00 0.00 0.00 0.00 0.00 0.00 0.00 0.00 0.00 0.00 0.00 0.00 0.00 0.00 0.00 0.00 0.00 0.01 0.00 0.00 0.01 0.01 0.01 0.01 0.01 0.01 0.01 0.01 0.01 0.01 0.01 0.01 0.02 0.01 0.02 0.03 0.02 0.02
0.00 0.00 0.00 0.00 0.00 0.00 0.00 0.00 0.00 0.00 0.00 0.00 0.00 0.00 0.00 0.00 0.00 0.00 0.00 0.01 0.01 0.01 0.01 0.01 0.01 0.01 0.00 0.00 0.01 0.01 0.01 0.01 0.01 0.01 0.01 0.01 0.01 0.02 0.02 0.02 0.02 0.02 0.02
0.00 0.00 0.00 0.00 0.00 0.00 0.00 0.00 0.00 0.00 0.00 0.00 0.00 0.00 0.00 0.00 0.00 0.00 0.01 0.01 0.00 0.01 0.01 0.00 0.00 0.00 0.00 0.00 0.01 0.01 0.01 0.01 0.02 0.02 0.02 0.02 0.02 0.02 0.02 0.03 0.02 0.02 0.02
0.00 0.00 0.00 0.00 0.00 0.00 0.00 0.00 0.00 0.00 0.00 0.00 0.00 0.00 0.00 0.00 0.01 0.00 0.00 0.00 0.00 0.00 0.00 0.00 0.00 0.00 0.00 0.00 0.01 0.01 0.01 0.01 0.02 0.02 0.02 0.02 0.02 0.01 0.02 0.02 0.02 0.02 0.03
0.00 0.00 0.00 0.00 0.00 0.00 0.00 0.00 0.00 0.00 0.00 0.00 0.00 0.00 0.00 0.00 0.00 0.00 0.00 0.00 0.00 0.00 0.00 0.00 0.00 0.00 0.00 0.00 0.00 0.00 0.01 0.01 0.01 0.01 0.02 0.02 0.02 0.02 0.02 0.02 0.02 0.02 0.02
0.00 0.00 0.00 0.00 0.00 0.00 0.00 0.00 0.00 0.00 0.00 0.00 0.00 0.00 0.00 0.00 0.00 0.00 0.00 0.00 0.00 0.00 0.00 0.00 0.00 0.00 0.00 0.00 0.00 0.01 0.00 0.01 0.01 0.02 0.03 0.02 0.02 0.02 0.03 0.02 0.02 0.02 0.02

GFSGL_prec_precacc12_105.txt.gz
Total_Precipitation_Accumulation
0.00 0.00 0.00 0.00 0.00 0.00 0.00 0.00 0.00 0.00 0.00 0.00 0.00 0.00 0.00 0.00 0.00 0.00 0.00 0.00 0.00 0.01 0.03 0.06 0.10 0.13 0.18 0.19 0.24 0.31 0.37 0.43 0.49 0.26 0.12 0.11 0.12 0.09 0.06 0.05 0.04 0.04 0.03
0.00 0.00 0.00 0.00 0.00 0.00 0.00 0.00 0.00 0.00 0.00 0.00 0.00 0.00 0.00 0.00 0.00 0.00 0.01 0.01 0.04 0.08 0.12 0.21 0.29 0.35 0.42 0.34 0.30 0.30 0.28 0.30 0.45 0.45 0.23 0.22 0.21 0.12 0.06 0.06 0.04 0.02 0.01
0.00 0.00 0.00 0.00 0.00 0.00 0.00 0.00 0.00 0.00 0.00 0.00 0.00 0.00 0.00 0.00 0.00 0.03 0.09 0.06 0.03 0.02 0.05 0.13 0.15 0.20 0.19 0.16 0.17 0.23 0.32 0.48 0.63 0.60 0.39 0.28 0.21 0.16 0.13 0.13 0.10 0.07 0.07
0.00 0.00 0.00 0.00 0.00 0.00 0.00 0.00 0.00 0.00 0.00 0.00 0.00 0.00 0.00 0.00 0.00 0.00 0.01 0.01 0.03 0.07 0.10 0.12 0.09 0.12 0.19 0.30 0.49 0.62 0.68 0.69 0.58 0.46 0.37 0.34 0.30 0.26 0.26 0.31 0.33 0.33 0.33
0.00 0.00 0.00 0.00 0.00 0.00 0.00 0.00 0.00 0.01 0.01 0.00 0.00 0.01 0.02 0.02 0.01 0.01 0.02 0.06 0.09 0.09 0.14 0.20 0.26 0.37 0.34 0.28 0.27 0.25 0.27 0.31 0.32 0.37 0.39 0.36 0.37 0.40 0.41 0.45 0.47 0.44 0.40
0.00 0.00 0.00 0.00 0.00 0.00 0.00 0.00 0.00 0.00 0.01 0.01 0.01 0.02 0.02 0.02 0.03 0.03 0.05 0.07 0.11 0.14 0.19 0.19 0.20 0.32 0.24 0.36 0.35 0.33 0.28 0.31 0.32 0.35 0.38 0.38 0.41 0.44 0.45 0.45 0.43 0.37 0.31
0.00 0.00 0.00 0.00 0.00 0.00 0.00 0.00 0.00 0.01 0.01 0.01 0.02 0.02 0.03 0.04 0.15 0.08 0.13 0.08 0.10 0.14 0.16 0.16 0.18 0.27 0.38 0.25 0.34 0.31 0.29 0.29 0.27 0.26 0.28 0.31 0.32 0.30 0.26 0.23 0.20 0.18 0.16
0.00 0.00 0.00 0.00 0.00 0.00 0.01 0.02 0.02 0.03 0.03 0.02 0.04 0.06 0.08 0.14 0.17 0.10 0.11 0.05 0.07 0.11 0.12 0.15 0.17 0.22 0.29 0.25 0.13 0.09 0.11 0.13 0.16 0.17 0.17 0.16 0.14 0.12 0.13 0.15 0.15 0.16 0.12
0.01 0.00 0.00 0.00 0.00 0.02 0.04 0.06 0.05 0.07 0.07 0.06 0.09 0.10 0.10 0.12 0.20 0.11 0.08 0.02 0.06 0.08 0.11 0.16 0.21 0.23 0.25 0.14 0.07 0.08 0.09 0.09 0.10 0.11 0.12 0.13 0.15 0.15 0.14 0.14 0.13 0.14 0.08
0.01 0.00 0.00 0.00 0.01 0.01 0.03 0.04 0.06 0.07 0.08 0.10 0.13 0.12 0.15 0.08 0.17 0.11 0.08 0.02 0.06 0.12 0.15 0.18 0.19 0.10 0.08 0.06 0.06 0.07 0.08 0.08 0.08 0.07 0.07 0.05 0.03 0.04 0.04 0.05 0.06 0.12 0.12
0.06 0.03 0.02 0.01 0.01 0.02 0.04 0.05 0.07 0.09 0.10 0.10 0.09 0.07 0.06 0.08 0.14 0.13 0.07 0.02 0.03 0.04 0.04 0.04 0.05 0.10 0.06 0.05 0.06 0.07 0.07 0.05 0.03 0.02 0.02 0.02 0.03 0.04 0.04 0.05 0.07 0.11 0.11
0.07 0.08 0.08 0.07 0.04 0.03 0.04 0.05 0.06 0.07 0.08 0.07 0.07 0.05 0.03 0.05 0.09 0.06 0.03 0.01 0.02 0.03 0.05 0.06 0.05 0.04 0.02 0.02 0.02 0.02 0.01 0.03 0.04 0.05 0.04 0.04 0.05 0.05 0.06 0.04 0.03 0.03 0.05
0.07 0.10 0.08 0.06 0.04 0.03 0.04 0.03 0.05 0.04 0.04 0.04 0.05 0.05 0.05 0.04 0.05 0.05 0.02 0.02 0.02 0.03 0.03 0.02 0.01 0.01 0.01 0.03 0.02 0.01 0.02 0.03 0.03 0.03 0.04 0.04 0.03 0.03 0.02 0.02 0.01 0.01 0.01
0.02 0.04 0.04 0.05 0.04 0.04 0.04 0.04 0.04 0.03 0.03 0.03 0.03 0.03 0.03 0.03 0.02 0.02 0.01 0.01 0.00 0.00 0.00 0.00 0.00 0.01 0.01 0.02 0.02 0.03 0.03 0.02 0.01 0.03 0.03 0.02 0.02 0.02 0.02 0.01 0.01 0.00 0.01
0.04 0.04 0.05 0.06 0.05 0.05 0.06 0.07 0.07 0.07 0.04 0.04 0.04 0.03 0.02 0.03 0.03 0.01 0.00 0.00 0.00 0.00 0.00 0.00 0.00 0.00 0.01 0.01 0.01 0.02 0.02 0.02 0.02 0.02 0.01 0.01 0.01 0.01 0.01 0.00 0.00 0.00 0.01
0.05 0.05 0.06 0.05 0.04 0.06 0.08 0.12 0.12 0.11 0.09 0.07 0.06 0.04 0.02 0.02 0.01 0.00 0.00 0.00 0.00 0.00 0.00 0.00 0.01 0.01 0.01 0.01 0.01 0.01 0.01 0.01 0.02 0.00 0.01 0.01 0.01 0.01 0.01 0.01 0.01 0.01 0.02
0.11 0.09 0.12 0.13 0.14 0.16 0.21 0.22 0.25 0.20 0.09 0.05 0.02 0.01 0.01 0.01 0.00 0.00 0.00 0.00 0.00 0.00 0.00 0.00 0.01 0.01 0.01 0.00 0.01 0.00 0.01 0.01 0.01 0.01 0.00 0.01 0.01 0.01 0.01 0.01 0.01 0.02 0.02
0.42 0.44 0.40 0.41 0.39 0.33 0.26 0.19 0.11 0.07 0.05 0.03 0.02 0.01 0.01 0.01 0.00 0.00 0.00 0.00 0.00 0.00 0.00 0.00 0.00 0.01 0.00 0.00 0.00 0.00 0.01 0.01 0.01 0.01 0.01 0.01 0.01 0.02 0.01 0.01 0.01 0.02 0.01
0.73 0.65 0.50 0.34 0.22 0.14 0.07 0.04 0.03 0.02 0.02 0.03 0.02 0.01 0.00 0.00 0.00 0.00 0.00 0.00 0.00 0.00 0.00 0.00 0.00 0.00 0.00 0.00 0.01 0.01 0.01 0.01 0.01 0.01 0.01 0.01 0.01 0.02 0.02 0.01 0.01 0.01 0.02
0.29 0.16 0.07 0.03 0.01 0.01 0.01 0.01 0.01 0.01 0.00 0.00 0.00 0.00 0.00 0.00 0.00 0.00 0.00 0.00 0.00 0.00 0.00 0.00 0.00 0.00 0.01 0.01 0.01 0.01 0.01 0.01 0.01 0.01 0.01 0.01 0.01 0.02 0.02 0.02 0.02 0.02 0.02
0.07 0.03 0.00 0.00 0.00 0.00 0.00 0.00 0.00 0.00 0.00 0.00 0.00 0.00 0.00 0.00 0.00 0.00 0.00 0.00 0.00 0.00 0.01 0.00 0.00 0.01 0.00 0.00 0.00 0.01 0.01 0.01 0.01 0.01 0.01 0.01 0.01 0.01 0.01 0.02 0.02 0.02 0.01
0.00 0.00 0.00 0.00 0.00 0.00 0.00 0.00 0.00 0.00 0.00 0.00 0.00 0.00 0.00 0.00 0.00 0.00 0.00 0.01 0.01 0.00 0.00 0.01 0.01 0.01 0.00 0.00 0.01 0.01 0.01 0.01 0.01 0.01 0.01 0.01 0.01 0.01 0.01 0.02 0.02 0.02 0.02
0.00 0.00 0.00 0.00 0.00 0.00 0.00 0.00 0.00 0.00 0.00 0.00 0.00 0.00 0.00 0.00 0.00 0.00 0.01 0.01 0.00 0.01 0.01 0.00 0.00 0.00 0.00 0.00 0.01 0.01 0.01 0.01 0.02 0.02 0.02 0.02 0.01 0.02 0.02 0.03 0.02 0.02 0.01
0.00 0.00 0.00 0.00 0.00 0.00 0.00 0.00 0.00 0.00 0.00 0.00 0.00 0.00 0.00 0.00 0.01 0.00 0.00 0.00 0.00 0.00 0.00 0.00 0.00 0.00 0.00 0.00 0.01 0.01 0.01 0.01 0.01 0.01 0.02 0.02 0.02 0.01 0.02 0.02 0.01 0.02 0.03
0.00 0.00 0.00 0.00 0.00 0.00 0.00 0.00 0.00 0.00 0.00 0.00 0.00 0.00 0.00 0.00 0.00 0.00 0.00 0.00 0.00 0.00 0.00 0.00 0.00 0.00 0.00 0.00 0.00 0.01 0.02 0.01 0.01 0.01 0.02 0.02 0.02 0.02 0.02 0.02 0.02 0.02 0.02
0.00 0.00 0.00 0.00 0.00 0.00 0.00 0.00 0.00 0.00 0.00 0.00 0.00 0.00 0.00 0.00 0.00 0.00 0.00 0.00 0.00 0.00 0.00 0.00 0.00 0.00 0.00 0.00 0.00 0.01 0.00 0.01 0.01 0.01 0.02 0.02 0.02 0.03 0.02 0.02 0.02 0.02 0.01

GFSGL_prec_precacc12_111.txt.gz
Total_Precipitation_Accumulation
0.00 0.00 0.00 0.00 0.00 0.00 0.00 0.00 0.01 0.02 0.13 0.28 0.38 0.53 0.49 0.35 0.31 0.33 0.26 0.17 0.14 0.16 0.11 0.06 0.03 0.03 0.05 0.04 0.06 0.06 0.05 0.03 0.03 0.02 0.01 0.01 0.04 0.06 0.09 0.14 0.16 0.15 0.12
0.00 0.00 0.00 0.00 0.00 0.00 0.00 0.00 0.00 0.00 0.02 0.10 0.19 0.36 0.47 0.38 0.23 0.15 0.14 0.11 0.08 0.06 0.04 0.04 0.02 0.04 0.05 0.04 0.04 0.03 0.04 0.08 0.20 0.22 0.16 0.20 0.28 0.22 0.15 0.10 0.07 0.04 0.03
0.00 0.00 0.00 0.00 0.00 0.00 0.00 0.00 0.00 0.00 0.00 0.00 0.01 0.06 0.15 0.20 0.22 0.09 0.04 0.01 0.00 0.01 0.01 0.04 0.06 0.08 0.06 0.03 0.04 0.06 0.15 0.34 0.49 0.49 0.37 0.26 0.21 0.18 0.17 0.15 0.10 0.07 0.07
0.00 0.00 0.00 0.00 0.00 0.00 0.00 0.00 0.00 0.00 0.00 0.00 0.00 0.01 0.02 0.02 0.04 0.02 0.00 0.01 0.03 0.07 0.08 0.08 0.04 0.03 0.08 0.16 0.25 0.37 0.47 0.48 0.42 0.35 0.29 0.27 0.23 0.15 0.07 0.07 0.10 0.10 0.11
0.00 0.00 0.00 0.00 0.00 0.00 0.00 0.00 0.00 0.00 0.00 0.00 0.00 0.00 0.01 0.01 0.00 0.00 0.01 0.03 0.03 0.03 0.05 0.07 0.11 0.22 0.24 0.19 0.19 0.19 0.21 0.23 0.28 0.30 0.24 0.17 0.11 0.08 0.06 0.04 0.03 0.03 0.06
0.00 0.00 0.00 0.00 0.00 0.00 0.00 0.00 0.00 0.00 0.00 0.00 0.00 0.00 0.00 0.00 0.01 0.01 0.01 0.01 0.02 0.04 0.10 0.13 0.17 0.24 0.18 0.27 0.27 0.28 0.29 0.30 0.25 0.17 0.16 0.15 0.10 0.06 0.03 0.03 0.03 0.04 0.06
0.00 0.00 0.00 0.00 0.00 0.00 0.00 0.00 0.00 0.00 0.00 0.00 0.01 0.01 0.01 0.02 0.06 0.03 0.05 0.03 0.09 0.14 0.15 0.16 0.19 0.30 0.35 0.22 0.34 0.33 0.29 0.28 0.23 0.18 0.12 0.05 0.03 0.04 0.03 0.03 0.03 0.05 0.05
0.09 0.00 0.00 0.00 0.00 0.00 0.00 0.00 0.00 0.01 0.01 0.02 0.02 0.03 0.02 0.06 0.11 0.07 0.09 0.05 0.10 0.14 0.16 0.19 0.23 0.30 0.40 0.39 0.33 0.31 0.25 0.13 0.05 0.02 0.01 0.02 0.03 0.04 0.05 0.05 0.05 0.05 0.02
0.24 0.16 0.04 0.00 0.00 0.00 0.00 0.01 0.02 0.03 0.05 0.04 0.06 0.07 0.08 0.10 0.19 0.12 0.09 0.03 0.10 0.16 0.21 0.29 0.34 0.39 0.48 0.38 0.21 0.11 0.05 0.02 0.00 0.00 0.00 0.01 0.02 0.03 0.03 0.03 0.04 0.05 0.03
0.13 0.14 0.14 0.06 0.01 0.00 0.01 0.02 0.04 0.05 0.06 0.09 0.12 0.14 0.17 0.09 0.21 0.14 0.11 0.02 0.11 0.22 0.29 0.37 0.40 0.25 0.18 0.10 0.04 0.01 0.01 0.00 0.00 0.00 0.00 0.00 0.00 0.01 0.02 0.03 0.03 0.05 0.05
0.16 0.16 0.14 0.10 0.07 0.03 0.03 0.05 0.07 0.10 0.10 0.12 0.12 0.09 0.08 0.11 0.21 0.19 0.14 0.04 0.06 0.11 0.15 0.16 0.15 0.11 0.05 0.02 0.01 0.00 0.01 0.00 0.00 0.00 0.00 0.00 0.00 0.01 0.02 0.02 0.02 0.03 0.04
0.18 0.19 0.20 0.18 0.10 0.05 0.04 0.06 0.08 0.09 0.11 0.10 0.11 0.09 0.09 0.14 0.20 0.16 0.14 0.13 0.16 0.18 0.24 0.23 0.17 0.09 0.02 0.01 0.00 0.00 0.00 0.00 0.00 0.00 0.00 0.01 0.01 0.00 0.00 0.00 0.00 0.00 0.00
0.17 0.26 0.28 0.24 0.23 0.22 0.19 0.13 0.15 0.14 0.14 0.13 0.12 0.16 0.20 0.21 0.29 0.28 0.25 0.23 0.21 0.16 0.15 0.11 0.05 0.01 0.01 0.01 0.01 0.01 0.01 0.00 0.00 0.00 0.00 0.00 0.00 0.00 0.00 0.00 0.00 0.00 0.00
0.05 0.07 0.09 0.11 0.10 0.14 0.24 0.28 0.29 0.29 0.30 0.30 0.24 0.22 0.18 0.17 0.17 0.19 0.18 0.16 0.12 0.10 0.06 0.04 0.02 0.02 0.02 0.01 0.00 0.00 0.01 0.00 0.00 0.00 0.00 0.00 0.00 0.00 0.00 0.00 0.00 0.00 0.00
0.06 0.06 0.07 0.10 0.09 0.10 0.18 0.24 0.27 0.34 0.31 0.34 0.38 0.38 0.40 0.47 0.48 0.41 0.32 0.23 0.16 0.11 0.07 0.04 0.02 0.01 0.00 0.00 0.00 0.00 0.00 0.00 0.00 0.00 0.00 0.00 0.00 0.00 0.00 0.00 0.00 0.00 0.00
0.11 0.14 0.19 0.15 0.16 0.18 0.25 0.47 0.55 0.65 0.72 0.73 0.77 0.70 0.64 0.55 0.44 0.32 0.21 0.14 0.09 0.06 0.04 0.03 0.01 0.01 0.00 0.00 0.00 0.00 0.00 0.00 0.00 0.00 0.00 0.00 0.00 0.00 0.00 0.00 0.00 0.01 0.01
0.15 0.14 0.21 0.22 0.28 0.33 0.42 0.47 0.68 0.78 0.65 0.55 0.45 0.33 0.20 0.13 0.10 0.09 0.07 0.05 0.03 0.02 0.01 0.00 0.00 0.00 0.00 0.00 0.00 0.00 0.00 0.00 0.00 0.00 0.00 0.00 0.00 0.00 0.01 0.00 0.00 0.01 0.01
0.49 0.57 0.54 0.61 0.64 0.65 0.63 0.61 0.54 0.49 0.45 0.39 0.28 0.19 0.14 0.09 0.06 0.04 0.02 0.01 0.01 0.00 0.00 0.00 0.00 0.00 0.00 0.00 0.00 0.00 0.00 0.00 0.00 0.00 0.00 0.00 0.00 0.00 0.00 0.00 0.00 0.01 0.01
0.89 0.91 0.85 0.81 0.71 0.61 0.53 0.42 0.32 0.22 0.16 0.16 0.13 0.11 0.09 0.07 0.05 0.03 0.01 0.00 0.00 0.00 0.00 0.00 0.00 0.00 0.00 0.00 0.00 0.00 0.00 0.00 0.00 0.00 0.00 0.00 0.00 0.01 0.01 0.00 0.01 0.01 0.01
0.68 0.57 0.44 0.34 0.31 0.28 0.23 0.17 0.13 0.11 0.10 0.09 0.07 0.05 0.03 0.01 0.00 0.00 0.00 0.00 0.00 0.00 0.00 0.00 0.00 0.00 0.00 0.00 0.00 0.00 0.00 0.00 0.00 0.00 0.00 0.00 0.01 0.00 0.00 0.01 0.01 0.01 0.01
0.32 0.31 0.24 0.16 0.12 0.09 0.07 0.06 0.06 0.04 0.03 0.02 0.01 0.00 0.00 0.00 0.00 0.00 0.00 0.00 0.00 0.00 0.00 0.00 0.00 0.00 0.00 0.00 0.00 0.00 0.00 0.00 0.00 0.00 0.00 0.00 0.00 0.00 0.00 0.01 0.01 0.01 0.01
0.09 0.06 0.04 0.03 0.03 0.03 0.03 0.02 0.02 0.01 0.00 0.00 0.00 0.00 0.00 0.00 0.00 0.00 0.00 0.00 0.00 0.00 0.00 0.00 0.00 0.00 0.00 0.00 0.00 0.00 0.00 0.00 0.00 0.01 0.00 0.00 0.00 0.00 0.00 0.01 0.01 0.01 0.01
0.03 0.01 0.01 0.00 0.00 0.00 0.00 0.00 0.00 0.00 0.00 0.00 0.00 0.00 0.00 0.00 0.00 0.00 0.00 0.00 0.00 0.00 0.00 0.00 0.00 0.00 0.00 0.00 0.00 0.00 0.00 0.00 0.01 0.01 0.01 0.01 0.01 0.00 0.01 0.01 0.01 0.01 0.01
0.00 0.00 0.00 0.00 0.00 0.00 0.00 0.00 0.00 0.00 0.00 0.00 0.00 0.00 0.00 0.00 0.00 0.00 0.00 0.00 0.00 0.00 0.00 0.00 0.00 0.00 0.00 0.00 0.00 0.00 0.01 0.01 0.01 0.00 0.01 0.01 0.01 0.00 0.01 0.01 0.00 0.01 0.01
0.00 0.00 0.00 0.00 0.00 0.00 0.00 0.00 0.00 0.00 0.00 0.00 0.00 0.00 0.00 0.00 0.00 0.00 0.00 0.00 0.00 0.00 0.00 0.00 0.00 0.00 0.00 0.00 0.00 0.00 0.01 0.00 0.00 0.00 0.01 0.01 0.01 0.01 0.01 0.01 0.01 0.02 0.01
0.00 0.00 0.00 0.00 0.00 0.00 0.00 0.00 0.00 0.00 0.00 0.00 0.00 0.00 0.00 0.00 0.00 0.00 0.00 0.00 0.00 0.00 0.00 0.00 0.00 0.00 0.00 0.00 0.00 0.00 0.00 0.00 0.01 0.00 0.01 0.01 0.01 0.01 0.01 0.01 0.00 0.01 0.01

GFSGL_prec_precacc12_114.txt.gz
Total_Precipitation_Accumulation
0.00 0.01 0.01 0.00 0.00 0.00 0.00 0.00 0.01 0.02 0.14 0.36 0.59 0.81 0.85 0.61 0.55 0.66 0.61 0.47 0.40 0.46 0.47 0.36 0.24 0.20 0.18 0.12 0.11 0.11 0.09 0.08 0.07 0.01 0.01 0.01 0.03 0.05 0.08 0.12 0.14 0.13 0.12
0.00 0.00 0.01 0.00 0.01 0.00 0.00 0.00 0.00 0.00 0.03 0.14 0.38 0.68 0.73 0.70 0.51 0.48 0.50 0.46 0.39 0.28 0.23 0.27 0.23 0.15 0.07 0.05 0.05 0.04 0.04 0.04 0.10 0.12 0.13 0.19 0.26 0.21 0.15 0.10 0.08 0.06 0.05
0.00 0.00 0.01 0.00 0.01 0.01 0.00 0.00 0.00 0.00 0.00 0.03 0.06 0.22 0.45 0.45 0.57 0.46 0.37 0.30 0.27 0.21 0.20 0.15 0.12 0.07 0.04 0.03 0.03 0.04 0.07 0.18 0.33 0.40 0.35 0.26 0.20 0.17 0.15 0.12 0.08 0.06 0.06
0.00 0.00 0.00 0.01 0.01 0.01 0.00 0.00 0.00 0.00 0.00 0.01 0.01 0.02 0.11 0.19 0.29 0.43 0.29 0.23 0.18 0.10 0.07 0.06 0.02 0.01 0.01 0.00 0.01 0.10 0.23 0.36 0.37 0.33 0.30 0.29 0.24 0.16 0.09 0.06 0.03 0.02 0.02
0.00 0.00 0.00 0.01 0.01 0.01 0.00 0.00 0.00 0.00 0.00 0.00 0.00 0.01 0.03 0.06 0.16 0.18 0.14 0.06 0.07 0.02 0.01 0.02 0.01 0.04 0.04 0.06 0.10 0.15 0.18 0.20 0.23 0.27 0.25 0.19 0.13 0.09 0.06 0.03 0.01 0.00 0.00
0.00 0.00 0.00 0.01 0.01 0.01 0.01 0.00 0.00 0.00 0.00 0.00 0.00 0.00 0.01 0.02 0.08 0.09 0.07 0.02 0.02 0.02 0.03 0.03 0.06 0.12 0.11 0.19 0.21 0.24 0.26 0.29 0.24 0.19 0.19 0.17 0.13 0.06 0.02 0.00 0.00 0.00 0.00
0.00 0.00 0.00 0.00 0.00 0.00 0.01 0.01 0.00 0.01 0.01 0.01 0.01 0.01 0.01 0.02 0.07 0.04 0.04 0.02 0.04 0.06 0.07 0.10 0.14 0.24 0.28 0.18 0.31 0.31 0.30 0.31 0.25 0.20 0.14 0.08 0.03 0.02 0.01 0.00 0.00 0.00 0.01
0.12 0.00 0.00 0.00 0.00 0.00 0.00 0.00 0.00 0.02 0.02 0.03 0.03 0.04 0.02 0.05 0.09 0.05 0.06 0.03 0.08 0.11 0.13 0.16 0.21 0.29 0.40 0.39 0.33 0.31 0.27 0.16 0.08 0.03 0.02 0.01 0.01 0.01 0.01 0.01 0.01 0.01 0.00
0.27 0.17 0.04 0.00 0.00 0.00 0.00 0.01 0.02 0.03 0.05 0.04 0.05 0.05 0.05 0.07 0.15 0.10 0.07 0.03 0.08 0.14 0.21 0.30 0.35 0.41 0.56 0.42 0.23 0.12 0.06 0.03 0.01 0.00 0.00 0.00 0.00 0.01 0.01 0.00 0.00 0.00 0.00
0.16 0.16 0.15 0.06 0.01 0.00 0.01 0.02 0.03 0.04 0.05 0.07 0.09 0.11 0.13 0.07 0.17 0.13 0.10 0.03 0.11 0.22 0.31 0.43 0.45 0.30 0.28 0.16 0.06 0.03 0.02 0.01 0.00 0.00 0.00 0.00 0.00 0.01 0.01 0.01 0.01 0.00 0.00
0.19 0.19 0.17 0.12 0.07 0.02 0.03 0.04 0.06 0.09 0.09 0.10 0.11 0.08 0.08 0.11 0.20 0.18 0.15 0.04 0.07 0.13 0.19 0.22 0.25 0.21 0.10 0.06 0.04 0.04 0.04 0.02 0.01 0.01 0.00 0.00 0.00 0.00 0.00 0.00 0.00 0.00 0.00
0.21 0.20 0.22 0.24 0.16 0.06 0.03 0.03 0.05 0.07 0.09 0.09 0.10 0.09 0.10 0.15 0.23 0.20 0.18 0.18 0.22 0.22 0.32 0.34 0.32 0.27 0.19 0.14 0.11 0.09 0.07 0.05 0.03 0.01 0.00 0.00 0.00 0.00 0.00 0.00 0.00 0.00 0.00
0.33 0.36 0.34 0.31 0.38 0.37 0.26 0.23 0.18 0.15 0.15 0.13 0.13 0.18 0.23 0.25 0.37 0.35 0.31 0.31 0.27 0.21 0.24 0.23 0.20 0.16 0.14 0.13 0.11 0.07 0.05 0.03 0.02 0.01 0.00 0.00 0.00 0.00 0.00 0.00 0.00 0.00 0.00
0.11 0.14 0.20 0.35 0.31 0.32 0.41 0.45 0.49 0.53 0.50 0.52 0.50 0.45 0.38 0.36 0.35 0.35 0.31 0.29 0.28 0.23 0.18 0.16 0.15 0.14 0.12 0.09 0.07 0.05 0.03 0.02 0.01 0.00 0.00 0.00 0.00 0.00 0.00 0.00 0.00 0.00 0.00
0.07 0.07 0.10 0.11 0.10 0.12 0.19 0.25 0.27 0.34 0.34 0.38 0.45 0.48 0.51 0.62 0.68 0.64 0.51 0.40 0.33 0.29 0.27 0.23 0.19 0.14 0.09 0.05 0.03 0.01 0.00 0.00 0.00 0.00 0.00 0.00 0.00 0.00 0.00 0.00 0.00 0.00 0.00
0.15 0.18 0.23 0.17 0.18 0.21 0.28 0.56 0.65 0.77 0.82 0.82 0.90 0.90 0.95 0.86 0.79 0.63 0.47 0.33 0.23 0.15 0.08 0.06 0.04 0.03 0.01 0.01 0.00 0.00 0.00 0.00 0.00 0.00 0.00 0.00 0.00 0.00 0.00 0.00 0.00 0.00 0.00
0.15 0.15 0.24 0.22 0.27 0.32 0.40 0.47 0.76 0.92 0.79 0.69 0.58 0.44 0.29 0.22 0.17 0.14 0.11 0.08 0.05 0.03 0.03 0.01 0.01 0.00 0.00 0.00 0.00 0.00 0.00 0.00 0.00 0.00 0.00 0.00 0.00 0.00 0.00 0.00 0.00 0.00 0.00
0.35 0.39 0.33 0.43 0.53 0.61 0.64 0.66 0.61 0.59 0.59 0.55 0.41 0.30 0.22 0.16 0.11 0.07 0.05 0.04 0.03 0.02 0.01 0.00 0.00 0.00 0.00 0.00 0.00 0.00 0.00 0.00 0.00 0.00 0.00 0.00 0.00 0.00 0.00 0.00 0.00 0.00 0.00
0.64 0.74 0.78 0.80 0.75 0.65 0.58 0.50 0.41 0.32 0.26 0.24 0.19 0.14 0.10 0.07 0.06 0.04 0.02 0.01 0.01 0.00 0.00 0.00 0.00 0.00 0.00 0.00 0.00 0.00 0.00 0.00 0.00 0.00 0.00 0.00 0.00 0.00 0.00 0.00 0.00 0.00 0.00
0.70 0.62 0.49 0.38 0.37 0.34 0.29 0.22 0.18 0.14 0.12 0.10 0.08 0.06 0.03 0.02 0.01 0.00 0.00 0.00 0.00 0.00 0.00 0.00 0.00 0.00 0.00 0.00 0.00 0.00 0.00 0.00 0.00 0.00 0.00 0.00 0.00 0.00 0.00 0.00 0.00 0.00 0.00
0.36 0.37 0.30 0.22 0.18 0.14 0.11 0.09 0.07 0.06 0.05 0.03 0.02 0.01 0.00 0.00 0.00 0.00 0.00 0.00 0.00 0.00 0.00 0.00 0.00 0.00 0.00 0.00 0.00 0.00 0.00 0.00 0.00 0.00 0.00 0.00 0.00 0.00 0.00 0.00 0.00 0.00 0.00
0.13 0.11 0.08 0.05 0.04 0.03 0.03 0.03 0.02 0.01 0.01 0.01 0.01 0.00 0.00 0.00 0.00 0.00 0.00 0.00 0.00 0.00 0.00 0.00 0.00 0.00 0.00 0.00 0.00 0.00 0.00 0.00 0.00 0.00 0.00 0.00 0.00 0.00 0.00 0.00 0.00 0.00 0.00
0.08 0.04 0.02 0.01 0.01 0.00 0.00 0.00 0.00 0.00 0.00 0.00 0.00 0.00 0.00 0.00 0.00 0.00 0.00 0.00 0.00 0.00 0.00 0.00 0.00 0.00 0.00 0.00 0.00 0.00 0.00 0.00 0.01 0.01 0.00 0.00 0.00 0.00 0.00 0.01 0.00 0.00 0.00
0.01 0.01 0.01 0.01 0.01 0.00 0.00 0.00 0.00 0.00 0.00 0.00 0.00 0.00 0.00 0.00 0.00 0.00 0.00 0.00 0.00 0.00 0.00 0.00 0.00 0.00 0.00 0.00 0.00 0.00 0.01 0.01 0.00 0.00 0.00 0.00 0.00 0.00 0.00 0.00 0.00 0.01 0.01
0.00 0.00 0.00 0.00 0.00 0.00 0.00 0.00 0.00 0.00 0.00 0.00 0.00 0.00 0.00 0.00 0.00 0.00 0.00 0.00 0.00 0.00 0.00 0.00 0.00 0.00 0.00 0.00 0.00 0.00 0.01 0.00 0.00 0.00 0.00 0.00 0.01 0.01 0.01 0.01 0.01 0.01 0.00
0.00 0.00 0.00 0.00 0.00 0.00 0.00 0.00 0.00 0.00 0.00 0.00 0.00 0.00 0.00 0.00 0.00 0.00 0.00 0.00 0.00 0.00 0.00 0.00 0.00 0.00 0.00 0.00 0.00 0.00 0.00 0.00 0.00 0.00 0.00 0.00 0.01 0.00 0.01 0.01 0.00 0.00 0.00

GFSGL_prec_precacc12_117.txt.gz
Total_Precipitation_Accumulation
0.03 0.01 0.01 0.00 0.00 0.00 0.00 0.00 0.01 0.02 0.14 0.36 0.64 1.05 1.34 0.97 0.77 0.77 0.68 0.54 0.43 0.47 0.54 0.51 0.44 0.41 0.39 0.30 0.24 0.19 0.15 0.15 0.11 0.01 0.06 0.07 0.07 0.06 0.08 0.12 0.15 0.14 0.16
0.00 0.00 0.01 0.01 0.01 0.00 0.00 0.00 0.00 0.00 0.03 0.14 0.40 0.86 1.09 1.04 0.75 0.77 0.76 0.65 0.60 0.43 0.32 0.37 0.38 0.31 0.26 0.22 0.20 0.14 0.10 0.10 0.15 0.11 0.14 0.16 0.22 0.20 0.15 0.10 0.09 0.09 0.08
0.01 0.00 0.01 0.01 0.01 0.01 0.00 0.00 0.00 0.00 0.01 0.03 0.07 0.35 0.68 0.68 0.82 0.78 0.70 0.65 0.69 0.59 0.40 0.26 0.21 0.16 0.13 0.12 0.09 0.07 0.08 0.11 0.13 0.19 0.26 0.22 0.21 0.18 0.15 0.13 0.11 0.07 0.04
0.04 0.00 0.00 0.01 0.01 0.01 0.00 0.00 0.00 0.00 0.01 0.01 0.02 0.04 0.26 0.47 0.58 0.75 0.73 0.79 0.73 0.53 0.34 0.23 0.15 0.09 0.07 0.06 0.05 0.05 0.06 0.07 0.10 0.16 0.21 0.25 0.24 0.19 0.13 0.09 0.06 0.04 0.04
0.02 0.00 0.01 0.01 0.01 0.02 0.01 0.00 0.00 0.00 0.00 0.01 0.01 0.01 0.04 0.18 0.48 0.48 0.57 0.42 0.39 0.30 0.14 0.08 0.11 0.11 0.08 0.10 0.09 0.07 0.07 0.10 0.17 0.23 0.23 0.20 0.15 0.09 0.07 0.03 0.01 0.01 0.00
0.01 0.00 0.00 0.01 0.01 0.02 0.02 0.01 0.01 0.01 0.01 0.00 0.00 0.01 0.03 0.06 0.22 0.31 0.41 0.27 0.17 0.20 0.15 0.07 0.07 0.14 0.13 0.15 0.14 0.18 0.23 0.25 0.22 0.19 0.19 0.19 0.15 0.07 0.02 0.01 0.00 0.00 0.00
0.00 0.00 0.00 0.00 0.01 0.01 0.02 0.02 0.02 0.03 0.03 0.02 0.03 0.01 0.01 0.05 0.15 0.17 0.28 0.18 0.10 0.18 0.15 0.10 0.10 0.14 0.15 0.09 0.19 0.25 0.27 0.30 0.25 0.21 0.16 0.09 0.04 0.02 0.01 0.00 0.00 0.00 0.00
0.12 0.00 0.00 0.00 0.00 0.00 0.02 0.02 0.02 0.03 0.03 0.03 0.05 0.05 0.02 0.06 0.11 0.09 0.10 0.07 0.09 0.08 0.08 0.08 0.10 0.14 0.22 0.22 0.26 0.30 0.27 0.16 0.09 0.04 0.02 0.02 0.01 0.01 0.01 0.00 0.00 0.00 0.00
0.26 0.17 0.04 0.00 0.00 0.00 0.01 0.02 0.03 0.03 0.05 0.04 0.04 0.05 0.04 0.05 0.14 0.11 0.06 0.02 0.06 0.11 0.13 0.19 0.19 0.22 0.45 0.38 0.22 0.12 0.06 0.04 0.03 0.01 0.01 0.01 0.01 0.01 0.00 0.00 0.00 0.00 0.00
0.19 0.17 0.15 0.06 0.01 0.00 0.00 0.02 0.03 0.03 0.04 0.07 0.07 0.08 0.10 0.05 0.13 0.13 0.10 0.03 0.10 0.15 0.19 0.31 0.38 0.29 0.31 0.17 0.06 0.03 0.03 0.01 0.01 0.01 0.02 0.03 0.03 0.02 0.01 0.01 0.01 0.00 0.00
0.24 0.18 0.15 0.10 0.07 0.02 0.01 0.02 0.04 0.06 0.05 0.07 0.08 0.06 0.07 0.09 0.14 0.15 0.15 0.04 0.05 0.11 0.19 0.24 0.30 0.25 0.12 0.07 0.05 0.05 0.06 0.06 0.07 0.07 0.06 0.04 0.02 0.01 0.00 0.00 0.00 0.00 0.00
0.55 0.21 0.18 0.19 0.13 0.05 0.02 0.02 0.03 0.04 0.05 0.05 0.06 0.07 0.08 0.14 0.20 0.18 0.20 0.22 0.26 0.23 0.34 0.38 0.40 0.32 0.22 0.16 0.14 0.14 0.13 0.10 0.07 0.05 0.03 0.02 0.01 0.00 0.00 0.00 0.00 0.00 0.00
0.99 0.70 0.37 0.30 0.37 0.37 0.27 0.24 0.18 0.13 0.12 0.11 0.10 0.15 0.21 0.24 0.37 0.38 0.36 0.37 0.33 0.25 0.32 0.34 0.31 0.26 0.23 0.22 0.18 0.13 0.11 0.09 0.07 0.05 0.03 0.01 0.00 0.00 0.00 0.00 0.00 0.00 0.00
0.31 0.52 0.47 0.46 0.36 0.42 0.61 0.61 0.71 0.76 0.57 0.55 0.52 0.46 0.40 0.39 0.40 0.40 0.39 0.39 0.39 0.36 0.34 0.30 0.27 0.25 0.23 0.20 0.17 0.13 0.08 0.04 0.02 0.01 0.00 0.00 0.00 0.00 0.00 0.00 0.00 0.00 0.00
0.11 0.15 0.27 0.53 0.35 0.18 0.25 0.37 0.32 0.48 0.50 0.42 0.47 0.50 0.53 0.64 0.73 0.70 0.60 0.51 0.45 0.43 0.43 0.40 0.34 0.25 0.17 0.10 0.05 0.02 0.01 0.00 0.00 0.00 0.00 0.00 0.00 0.00 0.00 0.00 0.00 0.00 0.00
0.15 0.19 0.28 0.37 0.39 0.23 0.23 0.51 0.64 0.75 0.81 0.82 0.90 0.90 0.99 0.91 0.86 0.70 0.56 0.46 0.38 0.27 0.17 0.12 0.08 0.05 0.03 0.01 0.01 0.00 0.00 0.00 0.00 0.00 0.00 0.00 0.00 0.00 0.00 0.00 0.00 0.00 0.00
0.10 0.12 0.23 0.26 0.30 0.26 0.30 0.37 0.67 0.90 0.84 0.75 0.64 0.51 0.39 0.37 0.31 0.27 0.19 0.11 0.06 0.04 0.04 0.03 0.02 0.01 0.00 0.00 0.00 0.00 0.00 0.00 0.00 0.00 0.00 0.00 0.00 0.00 0.00 0.00 0.00 0.00 0.00
0.18 0.24 0.18 0.24 0.32 0.39 0.47 0.55 0.59 0.61 0.64 0.67 0.55 0.43 0.33 0.24 0.15 0.09 0.06 0.04 0.03 0.02 0.01 0.00 0.00 0.00 0.00 0.00 0.00 0.00 0.00 0.00 0.00 0.00 0.00 0.00 0.00 0.00 0.00 0.00 0.00 0.00 0.00
0.23 0.31 0.40 0.53 0.58 0.57 0.56 0.50 0.42 0.34 0.28 0.28 0.25 0.20 0.13 0.08 0.06 0.04 0.02 0.01 0.01 0.00 0.00 0.00 0.00 0.00 0.00 0.00 0.00 0.00 0.00 0.00 0.00 0.00 0.00 0.00 0.00 0.00 0.00 0.00 0.00 0.00 0.00
0.50 0.53 0.46 0.40 0.41 0.39 0.34 0.28 0.24 0.20 0.16 0.14 0.10 0.07 0.04 0.02 0.01 0.00 0.00 0.00 0.00 0.00 0.00 0.00 0.00 0.00 0.00 0.00 0.00 0.00 0.00 0.00 0.00 0.00 0.00 0.00 0.00 0.00 0.00 0.00 0.00 0.00 0.00
0.33 0.39 0.34 0.27 0.24 0.20 0.18 0.16 0.13 0.11 0.07 0.04 0.03 0.01 0.00 0.00 0.00 0.00 0.00 0.00 0.00 0.00 0.00 0.00 0.00 0.00 0.00 0.00 0.00 0.00 0.00 0.00 0.00 0.00 0.00 0.00 0.00 0.00 0.00 0.00 0.00 0.00 0.00
0.15 0.14 0.13 0.09 0.08 0.08 0.09 0.09 0.07 0.03 0.02 0.01 0.01 0.00 0.00 0.00 0.00 0.00 0.00 0.00 0.00 0.00 0.00 0.00 0.00 0.00 0.00 0.00 0.00 0.00 0.00 0.00 0.00 0.00 0.00 0.00 0.00 0.00 0.00 0.00 0.00 0.00 0.00
0.11 0.07 0.05 0.05 0.05 0.04 0.02 0.01 0.01 0.00 0.00 0.00 0.00 0.00 0.00 0.00 0.00 0.00 0.00 0.00 0.00 0.00 0.00 0.00 0.00 0.00 0.00 0.00 0.00 0.00 0.00 0.00 0.00 0.00 0.00 0.00 0.00 0.00 0.00 0.00 0.00 0.00 0.00
0.03 0.03 0.03 0.02 0.02 0.01 0.00 0.00 0.00 0.00 0.00 0.00 0.00 0.00 0.00 0.00 0.00 0.00 0.00 0.00 0.00 0.00 0.00 0.00 0.00 0.00 0.00 0.00 0.00 0.00 0.00 0.00 0.00 0.00 0.00 0.00 0.00 0.00 0.00 0.00 0.00 0.00 0.00
0.00 0.00 0.00 0.00 0.00 0.00 0.00 0.00 0.00 0.00 0.00 0.00 0.00 0.00 0.00 0.00 0.00 0.00 0.00 0.00 0.00 0.00 0.00 0.00 0.00 0.00 0.00 0.00 0.00 0.00 0.00 0.00 0.00 0.00 0.00 0.00 0.00 0.00 0.00 0.00 0.00 0.00 0.00
0.00 0.00 0.00 0.00 0.00 0.00 0.00 0.00 0.00 0.00 0.00 0.00 0.00 0.00 0.00 0.00 0.00 0.00 0.00 0.00 0.00 0.00 0.00 0.00 0.00 0.00 0.00 0.00 0.00 0.00 0.00 0.00 0.00 0.00 0.00 0.00 0.00 0.00 0.00 0.00 0.00 0.00 0.00

GFSGL_prec_precacc12_120.txt.gz
Total_Precipitation_Accumulation
0.04 0.03 0.04 0.06 0.03 0.00 0.00 0.00 0.01 0.03 0.12 0.34 0.66 0.99 1.37 1.02 0.77 0.75 0.70 0.56 0.44 0.47 0.54 0.50 0.44 0.41 0.40 0.31 0.26 0.23 0.20 0.18 0.15 0.06 0.16 0.15 0.13 0.11 0.09 0.07 0.10 0.12 0.16
0.01 0.05 0.08 0.07 0.02 0.00 0.00 0.00 0.00 0.01 0.04 0.15 0.40 0.88 1.28 1.56 1.16 0.90 0.81 0.67 0.61 0.44 0.32 0.38 0.39 0.33 0.28 0.25 0.22 0.19 0.16 0.15 0.20 0.18 0.27 0.23 0.21 0.17 0.15 0.13 0.12 0.11 0.09
0.04 0.08 0.07 0.04 0.01 0.01 0.00 0.00 0.00 0.00 0.01 0.03 0.07 0.36 0.72 0.92 1.29 1.11 0.86 0.75 0.78 0.66 0.47 0.31 0.28 0.24 0.18 0.14 0.12 0.12 0.12 0.15 0.19 0.29 0.34 0.32 0.28 0.22 0.19 0.17 0.14 0.10 0.06
0.11 0.10 0.05 0.03 0.02 0.01 0.00 0.00 0.00 0.00 0.01 0.01 0.02 0.05 0.28 0.58 0.84 0.97 0.97 1.03 0.96 0.85 0.70 0.57 0.40 0.25 0.17 0.11 0.10 0.11 0.12 0.15 0.17 0.19 0.24 0.26 0.25 0.22 0.16 0.12 0.09 0.06 0.04
0.13 0.08 0.03 0.02 0.02 0.02 0.01 0.00 0.00 0.00 0.00 0.01 0.01 0.01 0.06 0.26 0.69 0.75 0.85 0.75 0.87 0.78 0.63 0.53 0.49 0.38 0.24 0.17 0.16 0.15 0.15 0.18 0.19 0.23 0.25 0.23 0.19 0.14 0.10 0.05 0.02 0.01 0.01
0.13 0.06 0.02 0.02 0.02 0.02 0.02 0.01 0.01 0.01 0.01 0.00 0.00 0.01 0.03 0.07 0.36 0.51 0.63 0.54 0.54 0.60 0.49 0.31 0.23 0.24 0.21 0.20 0.20 0.23 0.22 0.20 0.16 0.14 0.17 0.19 0.16 0.09 0.04 0.01 0.01 0.00 0.00
0.13 0.05 0.01 0.01 0.01 0.01 0.02 0.02 0.02 0.03 0.03 0.03 0.03 0.01 0.01 0.06 0.15 0.24 0.44 0.39 0.28 0.38 0.47 0.31 0.16 0.17 0.17 0.11 0.15 0.13 0.14 0.18 0.17 0.16 0.14 0.10 0.04 0.02 0.01 0.00 0.00 0.00 0.00
0.20 0.07 0.00 0.00 0.01 0.01 0.02 0.02 0.02 0.03 0.03 0.03 0.04 0.04 0.02 0.06 0.09 0.10 0.19 0.32 0.17 0.14 0.20 0.25 0.18 0.14 0.19 0.15 0.10 0.09 0.12 0.12 0.09 0.04 0.02 0.01 0.00 0.00 0.00 0.00 0.00 0.00 0.00
0.26 0.19 0.05 0.00 0.00 0.01 0.01 0.02 0.02 0.03 0.04 0.03 0.02 0.03 0.03 0.03 0.14 0.12 0.07 0.11 0.12 0.15 0.11 0.13 0.12 0.12 0.29 0.19 0.10 0.09 0.06 0.04 0.04 0.02 0.01 0.01 0.01 0.01 0.01 0.01 0.01 0.01 0.01
0.28 0.18 0.14 0.06 0.01 0.00 0.01 0.01 0.03 0.03 0.04 0.06 0.05 0.05 0.08 0.03 0.11 0.14 0.10 0.03 0.07 0.08 0.11 0.21 0.25 0.18 0.24 0.12 0.05 0.03 0.03 0.02 0.01 0.01 0.03 0.04 0.03 0.03 0.02 0.02 0.01 0.01 0.00
0.40 0.23 0.15 0.09 0.06 0.02 0.01 0.01 0.03 0.04 0.03 0.05 0.06 0.05 0.06 0.06 0.09 0.13 0.14 0.03 0.04 0.07 0.11 0.16 0.28 0.23 0.11 0.07 0.05 0.05 0.06 0.06 0.09 0.08 0.06 0.04 0.03 0.02 0.02 0.01 0.00 0.00 0.00
0.83 0.42 0.22 0.16 0.11 0.04 0.02 0.02 0.02 0.03 0.03 0.04 0.05 0.05 0.05 0.09 0.15 0.15 0.18 0.21 0.25 0.20 0.30 0.34 0.39 0.32 0.22 0.17 0.15 0.15 0.15 0.12 0.10 0.07 0.06 0.04 0.03 0.01 0.00 0.00 0.00 0.00 0.00
1.40 1.20 0.73 0.32 0.32 0.33 0.24 0.21 0.14 0.08 0.07 0.08 0.07 0.09 0.12 0.12 0.21 0.24 0.27 0.36 0.34 0.25 0.35 0.39 0.36 0.28 0.25 0.25 0.21 0.16 0.14 0.14 0.11 0.08 0.04 0.02 0.00 0.00 0.00 0.00 0.00 0.00 0.00
0.67 0.99 1.23 1.03 0.48 0.44 0.62 0.60 0.69 0.72 0.53 0.49 0.46 0.39 0.34 0.33 0.36 0.39 0.40 0.41 0.42 0.39 0.42 0.39 0.36 0.35 0.31 0.28 0.24 0.19 0.12 0.06 0.02 0.01 0.00 0.00 0.00 0.00 0.00 0.00 0.00 0.00 0.00
0.30 0.53 0.64 1.07 0.84 0.34 0.28 0.43 0.43 0.48 0.55 0.38 0.28 0.35 0.40 0.51 0.66 0.65 0.57 0.52 0.49 0.49 0.50 0.48 0.43 0.32 0.23 0.14 0.07 0.03 0.01 0.00 0.00 0.00 0.00 0.00 0.00 0.00 0.00 0.00 0.00 0.00 0.00
0.16 0.38 0.47 0.60 0.93 0.69 0.37 0.48 0.63 0.80 0.79 0.73 0.76 0.77 0.91 0.85 0.85 0.70 0.59 0.52 0.44 0.32 0.20 0.14 0.09 0.05 0.03 0.02 0.01 0.00 0.00 0.00 0.00 0.00 0.00 0.00 0.00 0.00 0.00 0.00 0.00 0.00 0.00
0.10 0.14 0.30 0.41 0.48 0.49 0.35 0.27 0.44 0.59 0.61 0.61 0.55 0.48 0.43 0.45 0.38 0.33 0.25 0.17 0.11 0.07 0.06 0.04 0.03 0.01 0.00 0.00 0.00 0.00 0.00 0.00 0.00 0.00 0.00 0.00 0.00 0.00 0.00 0.00 0.00 0.00 0.00
0.10 0.17 0.13 0.19 0.31 0.52 0.54 0.41 0.42 0.50 0.65 0.79 0.72 0.60 0.47 0.31 0.21 0.15 0.08 0.05 0.04 0.02 0.01 0.01 0.00 0.00 0.00 0.00 0.00 0.00 0.00 0.00 0.00 0.00 0.00 0.00 0.00 0.00 0.00 0.00 0.00 0.00 0.00
0.09 0.13 0.15 0.23 0.30 0.34 0.50 0.49 0.44 0.40 0.36 0.41 0.37 0.27 0.19 0.12 0.07 0.04 0.02 0.01 0.01 0.00 0.00 0.00 0.00 0.00 0.00 0.00 0.00 0.00 0.00 0.00 0.00 0.00 0.00 0.00 0.00 0.00 0.00 0.00 0.00 0.00 0.00
0.23 0.25 0.23 0.22 0.30 0.33 0.33 0.30 0.29 0.25 0.20 0.15 0.12 0.10 0.06 0.02 0.01 0.00 0.00 0.00 0.00 0.00 0.00 0.00 0.00 0.00 0.00 0.00 0.00 0.00 0.00 0.00 0.00 0.00 0.00 0.00 0.00 0.00 0.00 0.00 0.00 0.00 0.00
0.18 0.24 0.23 0.22 0.23 0.21 0.22 0.20 0.19 0.15 0.11 0.07 0.05 0.01 0.00 0.00 0.00 0.00 0.00 0.00 0.00 0.00 0.00 0.00 0.00 0.00 0.00 0.00 0.00 0.00 0.00 0.00 0.00 0.00 0.00 0.00 0.00 0.00 0.00 0.00 0.00 0.00 0.00
0.16 0.16 0.16 0.11 0.11 0.12 0.13 0.14 0.12 0.07 0.04 0.02 0.02 0.00 0.00 0.00 0.00 0.00 0.00 0.00 0.00 0.00 0.00 0.00 0.00 0.00 0.00 0.00 0.00 0.00 0.00 0.00 0.00 0.00 0.00 0.00 0.00 0.00 0.00 0.00 0.00 0.00 0.00
0.14 0.10 0.08 0.08 0.08 0.08 0.06 0.04 0.03 0.01 0.01 0.01 0.00 0.00 0.00 0.00 0.00 0.00 0.00 0.00 0.00 0.00 0.00 0.00 0.00 0.00 0.00 0.00 0.00 0.00 0.00 0.00 0.00 0.00 0.00 0.00 0.00 0.00 0.00 0.00 0.00 0.00 0.00
0.05 0.06 0.05 0.05 0.05 0.03 0.02 0.01 0.00 0.00 0.00 0.00 0.00 0.00 0.00 0.00 0.00 0.00 0.00 0.00 0.00 0.00 0.00 0.00 0.00 0.00 0.00 0.00 0.00 0.00 0.00 0.00 0.00 0.00 0.00 0.00 0.00 0.00 0.00 0.00 0.00 0.00 0.00
0.02 0.02 0.01 0.01 0.00 0.00 0.00 0.00 0.00 0.00 0.00 0.00 0.00 0.00 0.00 0.00 0.00 0.00 0.00 0.00 0.00 0.00 0.00 0.00 0.00 0.00 0.00 0.00 0.00 0.00 0.00 0.00 0.00 0.00 0.00 0.00 0.00 0.00 0.00 0.00 0.00 0.00 0.00
0.00 0.00 0.00 0.00 0.00 0.00 0.00 0.00 0.00 0.00 0.00 0.00 0.00 0.00 0.00 0.00 0.00 0.00 0.00 0.00 0.00 0.00 0.00 0.00 0.00 0.00 0.00 0.00 0.00 0.00 0.00 0.00 0.00 0.00 0.00 0.00 0.00 0.00 0.00 0.00 0.00 0.00 0.00

GFSGL_prec_precacc12_123.txt.gz
Total_Precipitation_Accumulation
0.04 0.04 0.06 0.15 0.12 0.04 0.01 0.01 0.01 0.02 0.03 0.12 0.36 0.73 1.17 0.84 0.53 0.48 0.59 0.54 0.37 0.34 0.46 0.47 0.43 0.40 0.39 0.30 0.25 0.22 0.18 0.18 0.18 0.10 0.19 0.19 0.18 0.16 0.13 0.10 0.09 0.07 0.11
0.02 0.05 0.10 0.13 0.06 0.02 0.01 0.01 0.01 0.02 0.03 0.05 0.22 0.61 0.93 1.31 1.16 0.87 0.71 0.66 0.61 0.40 0.29 0.37 0.39 0.32 0.28 0.24 0.22 0.19 0.16 0.15 0.19 0.19 0.34 0.30 0.28 0.23 0.20 0.16 0.13 0.10 0.08
0.05 0.08 0.09 0.07 0.03 0.02 0.01 0.01 0.01 0.01 0.02 0.04 0.07 0.31 0.60 0.79 1.23 1.24 0.98 0.79 0.81 0.70 0.48 0.31 0.28 0.24 0.18 0.14 0.12 0.12 0.12 0.15 0.19 0.34 0.46 0.40 0.34 0.26 0.22 0.18 0.13 0.09 0.05
0.11 0.12 0.08 0.07 0.04 0.04 0.01 0.01 0.01 0.00 0.01 0.02 0.02 0.05 0.28 0.58 0.87 1.12 1.19 1.22 1.02 0.87 0.74 0.62 0.44 0.27 0.18 0.16 0.15 0.14 0.14 0.16 0.20 0.26 0.31 0.29 0.23 0.19 0.17 0.14 0.10 0.07 0.05
0.16 0.11 0.08 0.06 0.05 0.03 0.03 0.01 0.01 0.01 0.01 0.01 0.02 0.02 0.06 0.27 0.70 0.80 0.96 0.95 1.10 0.99 0.83 0.75 0.68 0.53 0.41 0.31 0.27 0.26 0.23 0.22 0.21 0.22 0.26 0.26 0.21 0.16 0.12 0.07 0.04 0.02 0.01
0.16 0.11 0.08 0.08 0.06 0.04 0.04 0.02 0.02 0.02 0.01 0.01 0.01 0.01 0.03 0.07 0.38 0.61 0.81 0.80 0.86 0.92 0.74 0.55 0.48 0.51 0.51 0.47 0.34 0.29 0.26 0.20 0.16 0.16 0.19 0.18 0.17 0.12 0.06 0.03 0.01 0.01 0.01
0.16 0.13 0.09 0.07 0.05 0.04 0.04 0.03 0.03 0.03 0.03 0.03 0.03 0.01 0.01 0.06 0.15 0.28 0.59 0.55 0.51 0.66 0.75 0.60 0.45 0.46 0.42 0.31 0.26 0.19 0.18 0.20 0.16 0.12 0.11 0.10 0.06 0.02 0.01 0.00 0.00 0.00 0.00
0.15 0.13 0.09 0.06 0.04 0.03 0.03 0.03 0.02 0.03 0.03 0.03 0.04 0.04 0.02 0.05 0.08 0.10 0.19 0.38 0.29 0.35 0.39 0.44 0.38 0.34 0.31 0.23 0.18 0.14 0.09 0.08 0.08 0.04 0.02 0.01 0.00 0.00 0.00 0.00 0.00 0.01 0.01
0.17 0.13 0.10 0.08 0.03 0.02 0.02 0.02 0.02 0.03 0.04 0.03 0.02 0.03 0.02 0.02 0.13 0.11 0.07 0.12 0.17 0.22 0.18 0.25 0.27 0.25 0.31 0.17 0.09 0.07 0.05 0.05 0.07 0.03 0.02 0.01 0.01 0.01 0.01 0.01 0.01 0.02 0.02
0.38 0.23 0.18 0.11 0.03 0.01 0.01 0.01 0.02 0.02 0.03 0.05 0.03 0.03 0.06 0.02 0.09 0.13 0.09 0.03 0.08 0.10 0.12 0.19 0.25 0.17 0.21 0.10 0.03 0.02 0.03 0.03 0.02 0.01 0.03 0.04 0.04 0.04 0.03 0.02 0.01 0.01 0.01
0.52 0.42 0.27 0.13 0.03 0.00 0.01 0.01 0.02 0.02 0.02 0.03 0.04 0.04 0.05 0.05 0.07 0.11 0.12 0.02 0.02 0.04 0.07 0.10 0.19 0.16 0.08 0.05 0.04 0.04 0.06 0.06 0.09 0.09 0.07 0.05 0.04 0.03 0.03 0.03 0.02 0.00 0.00
1.08 0.62 0.47 0.31 0.09 0.03 0.02 0.02 0.02 0.02 0.02 0.02 0.03 0.03 0.04 0.06 0.11 0.12 0.14 0.15 0.13 0.06 0.12 0.16 0.25 0.25 0.20 0.16 0.15 0.15 0.15 0.12 0.10 0.08 0.07 0.07 0.06 0.04 0.02 0.01 0.00 0.00 0.00
1.64 1.49 0.99 0.52 0.31 0.23 0.15 0.17 0.10 0.05 0.03 0.02 0.02 0.03 0.05 0.06 0.13 0.16 0.17 0.20 0.18 0.11 0.22 0.29 0.31 0.27 0.25 0.24 0.20 0.16 0.15 0.15 0.13 0.09 0.07 0.04 0.01 0.00 0.00 0.00 0.00 0.00 0.00
0.82 1.36 1.60 1.53 0.73 0.45 0.49 0.44 0.52 0.53 0.31 0.28 0.31 0.26 0.25 0.25 0.26 0.24 0.26 0.30 0.34 0.34 0.39 0.37 0.36 0.35 0.31 0.28 0.26 0.20 0.14 0.07 0.03 0.01 0.00 0.00 0.00 0.00 0.00 0.00 0.00 0.00 0.00
0.46 0.85 1.06 1.50 1.40 0.51 0.33 0.49 0.46 0.46 0.51 0.31 0.18 0.17 0.17 0.22 0.31 0.34 0.32 0.32 0.35 0.42 0.46 0.49 0.46 0.35 0.25 0.15 0.07 0.03 0.01 0.00 0.00 0.00 0.00 0.00 0.00 0.00 0.00 0.00 0.00 0.00 0.00
0.28 0.59 0.77 0.98 1.36 1.23 0.57 0.48 0.67 0.75 0.64 0.60 0.63 0.56 0.68 0.62 0.62 0.52 0.48 0.48 0.44 0.34 0.21 0.16 0.12 0.07 0.03 0.02 0.01 0.00 0.00 0.00 0.00 0.00 0.00 0.00 0.00 0.00 0.00 0.00 0.00 0.00 0.00
0.13 0.21 0.43 0.66 0.83 0.87 0.82 0.57 0.49 0.57 0.59 0.58 0.54 0.50 0.56 0.68 0.57 0.48 0.36 0.26 0.19 0.13 0.10 0.07 0.03 0.01 0.00 0.00 0.00 0.00 0.00 0.00 0.00 0.00 0.00 0.00 0.00 0.00 0.00 0.00 0.00 0.00 0.00
0.10 0.23 0.23 0.26 0.53 0.72 0.78 0.65 0.58 0.56 0.56 0.68 0.70 0.67 0.59 0.50 0.43 0.36 0.29 0.19 0.11 0.06 0.04 0.02 0.00 0.00 0.00 0.00 0.00 0.00 0.00 0.00 0.00 0.00 0.00 0.00 0.00 0.00 0.00 0.00 0.00 0.00 0.00
0.07 0.10 0.18 0.31 0.34 0.38 0.59 0.66 0.55 0.53 0.52 0.49 0.46 0.37 0.29 0.23 0.18 0.12 0.06 0.02 0.01 0.00 0.00 0.00 0.00 0.00 0.00 0.00 0.00 0.00 0.00 0.00 0.00 0.00 0.00 0.00 0.00 0.00 0.00 0.00 0.00 0.00 0.00
0.22 0.19 0.15 0.20 0.34 0.41 0.40 0.46 0.50 0.44 0.37 0.28 0.20 0.20 0.16 0.07 0.04 0.01 0.00 0.00 0.00 0.00 0.00 0.00 0.00 0.00 0.00 0.00 0.00 0.00 0.00 0.00 0.00 0.00 0.00 0.00 0.00 0.00 0.00 0.00 0.00 0.00 0.00
0.16 0.20 0.18 0.18 0.19 0.22 0.30 0.30 0.27 0.23 0.19 0.14 0.10 0.04 0.01 0.01 0.00 0.00 0.00 0.00 0.00 0.00 0.00 0.00 0.00 0.00 0.00 0.00 0.00 0.00 0.00 0.00 0.00 0.00 0.00 0.00 0.00 0.00 0.00 0.00 0.00 0.00 0.00
0.14 0.15 0.17 0.14 0.15 0.15 0.16 0.16 0.15 0.10 0.06 0.04 0.03 0.01 0.00 0.00 0.00 0.00 0.00 0.00 0.00 0.00 0.00 0.00 0.00 0.00 0.00 0.00 0.00 0.00 0.00 0.00 0.00 0.00 0.00 0.00 0.00 0.00 0.00 0.00 0.00 0.00 0.00
0.12 0.11 0.10 0.11 0.12 0.11 0.09 0.07 0.05 0.03 0.01 0.01 0.01 0.00 0.00 0.00 0.00 0.00 0.00 0.00 0.00 0.00 0.00 0.00 0.00 0.00 0.00 0.00 0.00 0.00 0.00 0.00 0.00 0.00 0.00 0.00 0.00 0.00 0.00 0.01 0.01 0.01 0.01
0.06 0.07 0.07 0.07 0.08 0.06 0.04 0.03 0.01 0.00 0.00 0.00 0.00 0.00 0.00 0.00 0.00 0.00 0.00 0.00 0.00 0.00 0.00 0.00 0.00 0.00 0.00 0.00 0.00 0.00 0.00 0.00 0.00 0.00 0.00 0.00 0.00 0.00 0.00 0.00 0.00 0.01 0.01
0.03 0.03 0.03 0.02 0.02 0.01 0.01 0.00 0.00 0.00 0.00 0.00 0.00 0.00 0.00 0.00 0.00 0.00 0.00 0.00 0.00 0.00 0.00 0.00 0.00 0.00 0.00 0.00 0.00 0.00 0.00 0.00 0.00 0.00 0.00 0.00 0.00 0.00 0.00 0.00 0.00 0.00 0.00
0.01 0.01 0.00 0.00 0.00 0.00 0.00 0.00 0.00 0.00 0.00 0.00 0.00 0.00 0.00 0.00 0.00 0.00 0.00 0.00 0.00 0.00 0.00 0.00 0.00 0.00 0.00 0.00 0.00 0.00 0.00 0.00 0.00 0.00 0.00 0.00 0.00 0.00 0.00 0.00 0.00 0.00 0.00

GFSGL_prec_precacc12_126.txt.gz
Total_Precipitation_Accumulation
0.04 0.04 0.06 0.15 0.13 0.05 0.03 0.02 0.02 0.03 0.02 0.04 0.15 0.46 0.81 0.58 0.30 0.16 0.32 0.47 0.41 0.28 0.35 0.39 0.32 0.27 0.26 0.21 0.17 0.16 0.15 0.12 0.12 0.09 0.18 0.19 0.19 0.16 0.14 0.10 0.08 0.06 0.09
0.02 0.05 0.11 0.13 0.06 0.03 0.02 0.03 0.04 0.03 0.03 0.02 0.04 0.29 0.67 1.00 0.88 0.55 0.37 0.39 0.48 0.38 0.28 0.34 0.32 0.27 0.29 0.25 0.20 0.18 0.16 0.14 0.16 0.17 0.33 0.30 0.28 0.22 0.19 0.14 0.11 0.07 0.06
0.05 0.09 0.09 0.07 0.03 0.05 0.03 0.03 0.02 0.02 0.03 0.03 0.03 0.16 0.31 0.54 0.89 0.89 0.67 0.54 0.62 0.64 0.44 0.32 0.30 0.30 0.21 0.18 0.15 0.14 0.14 0.14 0.17 0.31 0.45 0.39 0.32 0.23 0.19 0.16 0.12 0.09 0.05
0.11 0.12 0.09 0.07 0.05 0.06 0.04 0.03 0.03 0.02 0.01 0.02 0.02 0.05 0.19 0.40 0.63 0.72 0.94 1.04 0.91 0.89 0.84 0.70 0.49 0.35 0.23 0.17 0.17 0.15 0.15 0.17 0.20 0.25 0.28 0.24 0.20 0.16 0.13 0.12 0.10 0.07 0.05
0.16 0.11 0.07 0.06 0.06 0.08 0.06 0.03 0.03 0.04 0.01 0.01 0.02 0.02 0.04 0.23 0.57 0.63 0.83 0.91 1.10 1.04 0.92 0.86 0.78 0.64 0.50 0.34 0.28 0.26 0.25 0.26 0.26 0.24 0.24 0.21 0.16 0.13 0.11 0.08 0.07 0.05 0.02
0.16 0.11 0.08 0.09 0.09 0.09 0.08 0.05 0.03 0.04 0.02 0.01 0.01 0.01 0.02 0.05 0.32 0.56 0.77 0.80 0.89 1.11 0.91 0.66 0.59 0.64 0.64 0.56 0.44 0.39 0.35 0.31 0.29 0.25 0.22 0.18 0.16 0.13 0.08 0.06 0.05 0.04 0.03
0.16 0.13 0.09 0.09 0.10 0.09 0.08 0.06 0.05 0.04 0.02 0.02 0.02 0.01 0.01 0.05 0.14 0.27 0.59 0.60 0.64 0.91 0.99 0.85 0.65 0.69 0.62 0.51 0.47 0.41 0.39 0.36 0.28 0.21 0.18 0.14 0.10 0.06 0.04 0.03 0.02 0.01 0.00
0.12 0.14 0.09 0.08 0.08 0.10 0.10 0.05 0.04 0.02 0.02 0.02 0.02 0.03 0.01 0.05 0.08 0.10 0.19 0.40 0.37 0.53 0.66 0.74 0.71 0.68 0.63 0.50 0.48 0.46 0.33 0.22 0.17 0.10 0.08 0.07 0.04 0.01 0.00 0.00 0.00 0.01 0.02
0.14 0.12 0.12 0.10 0.09 0.14 0.17 0.05 0.03 0.03 0.03 0.02 0.01 0.02 0.01 0.02 0.11 0.10 0.06 0.11 0.18 0.29 0.33 0.47 0.53 0.52 0.57 0.41 0.34 0.32 0.22 0.17 0.16 0.10 0.07 0.05 0.03 0.02 0.02 0.02 0.02 0.02 0.04
0.34 0.22 0.19 0.17 0.16 0.20 0.17 0.05 0.03 0.03 0.04 0.05 0.03 0.02 0.05 0.02 0.08 0.12 0.08 0.02 0.06 0.08 0.11 0.21 0.33 0.32 0.31 0.23 0.17 0.13 0.13 0.12 0.06 0.04 0.05 0.07 0.06 0.05 0.04 0.03 0.02 0.02 0.02
0.49 0.40 0.26 0.20 0.24 0.21 0.14 0.04 0.03 0.03 0.03 0.04 0.04 0.03 0.03 0.03 0.05 0.09 0.10 0.01 0.02 0.02 0.03 0.05 0.12 0.14 0.10 0.08 0.05 0.03 0.05 0.06 0.09 0.08 0.06 0.05 0.04 0.04 0.05 0.05 0.03 0.01 0.01
1.04 0.61 0.49 0.34 0.20 0.18 0.13 0.06 0.04 0.04 0.03 0.04 0.03 0.03 0.03 0.04 0.07 0.09 0.11 0.11 0.07 0.02 0.04 0.05 0.10 0.07 0.06 0.05 0.05 0.08 0.08 0.07 0.07 0.06 0.06 0.07 0.08 0.06 0.04 0.01 0.00 0.00 0.00
1.47 1.39 0.97 0.55 0.36 0.29 0.26 0.11 0.07 0.08 0.04 0.03 0.02 0.02 0.02 0.02 0.07 0.12 0.14 0.16 0.14 0.07 0.13 0.17 0.17 0.12 0.12 0.13 0.12 0.10 0.11 0.12 0.11 0.09 0.08 0.05 0.02 0.00 0.00 0.00 0.00 0.00 0.00
0.76 1.32 1.62 1.49 0.79 0.63 0.64 0.43 0.35 0.33 0.17 0.08 0.06 0.04 0.05 0.07 0.09 0.10 0.15 0.20 0.23 0.22 0.28 0.25 0.23 0.24 0.22 0.22 0.21 0.16 0.11 0.06 0.03 0.02 0.01 0.00 0.00 0.00 0.00 0.00 0.00 0.00 0.00
0.45 0.87 1.13 1.80 1.76 0.93 0.68 0.68 0.53 0.56 0.57 0.29 0.12 0.08 0.06 0.07 0.13 0.14 0.14 0.17 0.20 0.26 0.28 0.31 0.30 0.22 0.16 0.11 0.06 0.03 0.02 0.01 0.01 0.00 0.00 0.00 0.00 0.00 0.00 0.00 0.00 0.00 0.00
0.28 0.64 0.89 1.23 1.77 1.68 0.96 0.69 0.77 0.81 0.70 0.66 0.61 0.40 0.41 0.35 0.31 0.25 0.29 0.37 0.37 0.31 0.18 0.16 0.14 0.09 0.06 0.04 0.03 0.01 0.00 0.00 0.00 0.00 0.00 0.00 0.00 0.00 0.00 0.00 0.00 0.00 0.00
0.16 0.26 0.51 0.88 1.16 1.27 1.21 0.88 0.55 0.57 0.65 0.65 0.59 0.58 0.63 0.77 0.66 0.58 0.46 0.37 0.31 0.22 0.18 0.18 0.13 0.08 0.04 0.01 0.00 0.00 0.00 0.00 0.00 0.00 0.00 0.00 0.00 0.00 0.00 0.00 0.00 0.00 0.00
0.10 0.26 0.37 0.46 0.80 1.11 1.21 1.01 0.84 0.60 0.53 0.70 0.75 0.76 0.73 0.65 0.60 0.57 0.52 0.43 0.36 0.27 0.20 0.13 0.07 0.03 0.01 0.00 0.00 0.00 0.00 0.00 0.00 0.00 0.00 0.00 0.00 0.00 0.00 0.00 0.00 0.00 0.00
0.09 0.12 0.26 0.42 0.50 0.66 0.90 1.02 0.91 0.81 0.77 0.78 0.74 0.61 0.52 0.46 0.40 0.33 0.25 0.18 0.16 0.14 0.09 0.04 0.01 0.00 0.00 0.00 0.00 0.00 0.00 0.00 0.00 0.00 0.00 0.00 0.00 0.00 0.00 0.00 0.00 0.00 0.00
0.21 0.18 0.15 0.24 0.45 0.56 0.58 0.71 0.80 0.79 0.75 0.69 0.59 0.54 0.42 0.25 0.21 0.19 0.15 0.10 0.06 0.03 0.02 0.01 0.00 0.00 0.00 0.00 0.00 0.00 0.00 0.00 0.00 0.00 0.00 0.00 0.00 0.00 0.00 0.00 0.00 0.00 0.00
0.15 0.19 0.15 0.17 0.20 0.25 0.39 0.49 0.52 0.48 0.46 0.42 0.33 0.24 0.19 0.16 0.14 0.10 0.07 0.03 0.01 0.00 0.00 0.00 0.00 0.00 0.00 0.00 0.00 0.00 0.00 0.00 0.00 0.00 0.00 0.00 0.00 0.00 0.00 0.00 0.00 0.00 0.00
0.13 0.15 0.17 0.16 0.19 0.20 0.22 0.23 0.23 0.22 0.20 0.16 0.15 0.11 0.06 0.04 0.04 0.03 0.02 0.01 0.00 0.00 0.00 0.00 0.00 0.00 0.00 0.00 0.00 0.00 0.00 0.00 0.00 0.00 0.00 0.00 0.00 0.00 0.00 0.00 0.00 0.00 0.00
0.10 0.11 0.11 0.13 0.14 0.16 0.14 0.13 0.11 0.08 0.06 0.05 0.04 0.03 0.01 0.01 0.01 0.01 0.01 0.00 0.00 0.00 0.00 0.00 0.00 0.00 0.00 0.00 0.00 0.00 0.00 0.00 0.00 0.00 0.00 0.00 0.00 0.00 0.00 0.00 0.00 0.00 0.00
0.07 0.08 0.07 0.09 0.09 0.08 0.06 0.06 0.04 0.02 0.01 0.01 0.00 0.00 0.00 0.00 0.00 0.00 0.00 0.00 0.00 0.00 0.00 0.00 0.00 0.00 0.00 0.00 0.00 0.00 0.00 0.00 0.00 0.00 0.00 0.00 0.00 0.00 0.00 0.00 0.00 0.00 0.00
0.04 0.04 0.04 0.04 0.03 0.03 0.03 0.02 0.02 0.01 0.01 0.00 0.00 0.00 0.00 0.00 0.00 0.00 0.00 0.00 0.00 0.00 0.00 0.00 0.00 0.00 0.00 0.00 0.00 0.00 0.00 0.00 0.00 0.00 0.00 0.00 0.00 0.00 0.00 0.00 0.00 0.00 0.00
0.02 0.01 0.01 0.01 0.01 0.01 0.01 0.00 0.00 0.00 0.00 0.00 0.00 0.00 0.00 0.00 0.00 0.00 0.00 0.00 0.00 0.00 0.00 0.00 0.00 0.00 0.00 0.00 0.00 0.00 0.00 0.00 0.00 0.00 0.00 0.00 0.00 0.00 0.00 0.00 0.00 0.00 0.00

GFSGL_prec_precacc12_129.txt.gz
Total_Precipitation_Accumulation
0.01 0.03 0.07 0.16 0.13 0.05 0.07 0.07 0.07 0.04 0.03 0.08 0.12 0.22 0.33 0.23 0.08 0.05 0.24 0.41 0.42 0.37 0.48 0.46 0.28 0.19 0.22 0.09 0.06 0.08 0.08 0.05 0.07 0.09 0.13 0.12 0.14 0.13 0.12 0.10 0.07 0.04 0.05
0.01 0.05 0.11 0.13 0.07 0.04 0.05 0.09 0.08 0.07 0.05 0.06 0.06 0.12 0.32 0.65 0.64 0.26 0.11 0.20 0.29 0.29 0.37 0.51 0.38 0.28 0.36 0.21 0.14 0.10 0.12 0.09 0.10 0.15 0.27 0.24 0.23 0.18 0.17 0.13 0.08 0.04 0.03
0.03 0.09 0.08 0.07 0.03 0.05 0.04 0.07 0.08 0.11 0.08 0.06 0.06 0.06 0.08 0.31 0.64 0.57 0.34 0.19 0.21 0.28 0.31 0.38 0.47 0.41 0.30 0.28 0.22 0.15 0.12 0.12 0.15 0.28 0.38 0.31 0.25 0.19 0.16 0.13 0.08 0.07 0.05
0.07 0.11 0.08 0.07 0.05 0.07 0.05 0.06 0.09 0.12 0.08 0.07 0.06 0.06 0.04 0.12 0.33 0.40 0.49 0.48 0.34 0.43 0.56 0.58 0.53 0.52 0.34 0.27 0.26 0.20 0.13 0.16 0.20 0.26 0.31 0.25 0.16 0.11 0.09 0.08 0.07 0.05 0.04
0.14 0.11 0.07 0.05 0.06 0.09 0.09 0.07 0.07 0.14 0.11 0.07 0.06 0.06 0.04 0.10 0.25 0.33 0.40 0.55 0.77 0.77 0.79 0.81 0.74 0.67 0.63 0.43 0.32 0.31 0.29 0.25 0.25 0.24 0.25 0.21 0.17 0.13 0.10 0.08 0.09 0.07 0.03
0.15 0.11 0.08 0.08 0.09 0.10 0.09 0.09 0.06 0.10 0.08 0.04 0.03 0.02 0.04 0.05 0.21 0.34 0.43 0.55 0.74 0.92 0.78 0.65 0.66 0.70 0.74 0.75 0.52 0.45 0.38 0.31 0.29 0.26 0.26 0.21 0.17 0.13 0.10 0.08 0.08 0.08 0.06
0.15 0.13 0.09 0.09 0.10 0.10 0.09 0.10 0.10 0.08 0.05 0.02 0.01 0.01 0.00 0.02 0.06 0.15 0.37 0.45 0.59 0.79 0.92 0.94 0.90 0.88 0.76 0.68 0.60 0.52 0.47 0.40 0.30 0.22 0.20 0.18 0.14 0.10 0.09 0.09 0.09 0.07 0.04
0.12 0.14 0.09 0.08 0.08 0.11 0.15 0.14 0.13 0.11 0.04 0.02 0.01 0.01 0.01 0.03 0.05 0.08 0.16 0.36 0.33 0.53 0.72 0.84 0.97 1.05 0.83 0.67 0.66 0.76 0.62 0.42 0.32 0.22 0.17 0.16 0.13 0.10 0.09 0.08 0.05 0.03 0.03
0.13 0.12 0.12 0.10 0.09 0.14 0.22 0.25 0.13 0.10 0.06 0.02 0.01 0.01 0.00 0.01 0.08 0.08 0.06 0.11 0.17 0.28 0.36 0.52 0.71 0.77 0.88 0.70 0.60 0.69 0.62 0.51 0.42 0.33 0.26 0.19 0.13 0.09 0.05 0.04 0.04 0.04 0.07
0.31 0.21 0.19 0.17 0.16 0.20 0.22 0.16 0.14 0.14 0.06 0.04 0.03 0.02 0.04 0.01 0.05 0.08 0.05 0.01 0.04 0.06 0.10 0.21 0.45 0.57 0.62 0.58 0.51 0.45 0.44 0.43 0.28 0.23 0.17 0.12 0.07 0.06 0.05 0.02 0.02 0.03 0.03
0.38 0.37 0.26 0.20 0.24 0.23 0.19 0.16 0.17 0.16 0.07 0.05 0.04 0.02 0.02 0.03 0.04 0.07 0.07 0.01 0.01 0.01 0.02 0.03 0.08 0.18 0.27 0.34 0.32 0.27 0.31 0.25 0.20 0.14 0.09 0.05 0.04 0.04 0.05 0.05 0.03 0.01 0.01
0.64 0.52 0.47 0.32 0.19 0.21 0.20 0.17 0.21 0.25 0.18 0.08 0.04 0.03 0.03 0.03 0.06 0.07 0.08 0.08 0.05 0.01 0.01 0.02 0.03 0.04 0.08 0.12 0.12 0.14 0.12 0.08 0.07 0.07 0.06 0.07 0.08 0.07 0.05 0.02 0.01 0.00 0.00
0.75 0.97 0.87 0.51 0.34 0.29 0.35 0.31 0.27 0.27 0.21 0.09 0.04 0.03 0.03 0.02 0.06 0.10 0.11 0.10 0.09 0.04 0.05 0.07 0.06 0.04 0.05 0.07 0.07 0.06 0.06 0.06 0.06 0.05 0.06 0.04 0.02 0.01 0.01 0.00 0.00 0.00 0.00
0.54 0.91 1.33 1.35 0.72 0.50 0.46 0.46 0.48 0.38 0.28 0.12 0.05 0.03 0.03 0.03 0.04 0.04 0.07 0.12 0.14 0.12 0.15 0.13 0.13 0.14 0.12 0.13 0.12 0.09 0.06 0.04 0.03 0.03 0.02 0.01 0.00 0.00 0.00 0.00 0.00 0.00 0.00
0.38 0.77 0.93 1.35 1.47 0.82 0.65 0.72 0.69 0.70 0.69 0.40 0.14 0.09 0.05 0.04 0.09 0.09 0.06 0.06 0.09 0.14 0.13 0.15 0.15 0.12 0.09 0.06 0.04 0.03 0.03 0.03 0.02 0.01 0.01 0.00 0.00 0.00 0.00 0.00 0.00 0.00 0.00
0.26 0.61 0.79 0.98 1.54 1.67 1.04 0.87 1.05 1.04 0.88 0.92 0.82 0.53 0.47 0.39 0.29 0.21 0.23 0.27 0.25 0.21 0.11 0.11 0.11 0.08 0.06 0.05 0.04 0.03 0.02 0.01 0.01 0.01 0.01 0.00 0.00 0.00 0.00 0.00 0.00 0.00 0.00
0.17 0.26 0.47 0.79 1.09 1.29 1.35 1.05 0.75 0.73 0.77 0.83 0.88 0.79 0.67 0.72 0.64 0.55 0.46 0.40 0.36 0.25 0.21 0.22 0.18 0.14 0.12 0.09 0.05 0.02 0.01 0.01 0.01 0.00 0.00 0.00 0.00 0.00 0.00 0.00 0.00 0.00 0.00
0.12 0.26 0.37 0.48 0.84 1.14 1.28 1.18 1.10 0.88 0.65 0.81 0.92 0.92 0.86 0.76 0.73 0.73 0.67 0.52 0.48 0.41 0.34 0.30 0.25 0.19 0.15 0.12 0.07 0.05 0.03 0.02 0.00 0.00 0.00 0.00 0.00 0.00 0.00 0.00 0.00 0.00 0.00
0.14 0.17 0.31 0.48 0.54 0.74 1.01 1.16 1.14 1.14 1.08 1.04 1.00 0.80 0.69 0.67 0.62 0.57 0.52 0.44 0.37 0.35 0.30 0.25 0.20 0.15 0.10 0.06 0.03 0.01 0.01 0.00 0.00 0.00 0.00 0.00 0.00 0.00 0.00 0.00 0.00 0.00 0.00
0.20 0.18 0.18 0.28 0.49 0.66 0.71 0.84 0.97 1.04 1.04 0.99 0.96 0.94 0.75 0.50 0.49 0.50 0.43 0.37 0.31 0.28 0.22 0.16 0.12 0.08 0.05 0.03 0.01 0.00 0.00 0.00 0.00 0.00 0.00 0.00 0.00 0.00 0.00 0.00 0.00 0.00 0.00
0.15 0.17 0.16 0.18 0.22 0.26 0.41 0.56 0.66 0.67 0.72 0.71 0.68 0.66 0.63 0.53 0.46 0.37 0.31 0.25 0.19 0.14 0.09 0.06 0.04 0.02 0.01 0.01 0.00 0.00 0.00 0.00 0.00 0.00 0.00 0.00 0.00 0.00 0.00 0.00 0.00 0.00 0.00
0.14 0.15 0.17 0.17 0.21 0.24 0.26 0.28 0.32 0.36 0.40 0.40 0.42 0.38 0.31 0.28 0.24 0.21 0.16 0.13 0.08 0.05 0.03 0.02 0.01 0.01 0.01 0.00 0.00 0.00 0.00 0.00 0.00 0.00 0.00 0.00 0.00 0.00 0.00 0.00 0.00 0.00 0.00
0.10 0.12 0.13 0.13 0.15 0.17 0.20 0.22 0.20 0.18 0.19 0.20 0.19 0.19 0.16 0.12 0.09 0.07 0.05 0.04 0.03 0.02 0.01 0.01 0.01 0.01 0.00 0.00 0.00 0.00 0.00 0.00 0.00 0.00 0.00 0.00 0.00 0.00 0.00 0.00 0.00 0.00 0.00
0.06 0.07 0.08 0.11 0.11 0.11 0.11 0.12 0.11 0.09 0.10 0.10 0.09 0.08 0.08 0.07 0.04 0.03 0.03 0.02 0.02 0.01 0.00 0.00 0.00 0.00 0.00 0.00 0.00 0.00 0.00 0.00 0.00 0.00 0.00 0.00 0.00 0.00 0.00 0.00 0.00 0.00 0.00
0.04 0.04 0.04 0.05 0.05 0.05 0.05 0.05 0.06 0.06 0.05 0.04 0.03 0.03 0.03 0.02 0.02 0.01 0.01 0.01 0.00 0.00 0.00 0.00 0.00 0.00 0.00 0.00 0.00 0.00 0.00 0.00 0.00 0.00 0.00 0.00 0.00 0.00 0.00 0.00 0.00 0.00 0.00
0.02 0.02 0.01 0.01 0.02 0.02 0.02 0.02 0.02 0.02 0.02 0.01 0.00 0.00 0.00 0.00 0.01 0.00 0.00 0.00 0.00 0.00 0.00 0.00 0.00 0.00 0.00 0.00 0.00 0.00 0.00 0.00 0.00 0.00 0.00 0.00 0.00 0.00 0.00 0.00 0.00 0.00 0.00

GFSGL_prec_precacc12_132.txt.gz
Total_Precipitation_Accumulation
0.00 0.01 0.03 0.10 0.11 0.05 0.07 0.08 0.10 0.11 0.10 0.09 0.05 0.05 0.10 0.09 0.05 0.05 0.21 0.39 0.43 0.39 0.50 0.58 0.54 0.53 0.56 0.27 0.10 0.06 0.05 0.01 0.03 0.04 0.03 0.04 0.06 0.06 0.06 0.05 0.04 0.03 0.04
0.00 0.01 0.03 0.07 0.06 0.04 0.05 0.09 0.10 0.12 0.13 0.15 0.11 0.07 0.09 0.13 0.24 0.14 0.07 0.18 0.29 0.29 0.38 0.53 0.49 0.54 0.67 0.48 0.31 0.13 0.08 0.03 0.02 0.04 0.10 0.09 0.11 0.11 0.11 0.08 0.04 0.02 0.02
0.00 0.01 0.02 0.04 0.03 0.05 0.04 0.07 0.10 0.15 0.18 0.16 0.13 0.08 0.05 0.09 0.17 0.24 0.18 0.09 0.12 0.21 0.23 0.33 0.47 0.55 0.57 0.63 0.54 0.32 0.15 0.08 0.05 0.13 0.22 0.17 0.16 0.14 0.13 0.12 0.10 0.08 0.04
0.01 0.02 0.03 0.05 0.05 0.06 0.05 0.06 0.10 0.16 0.18 0.17 0.12 0.10 0.07 0.02 0.07 0.18 0.26 0.24 0.11 0.11 0.20 0.24 0.29 0.47 0.44 0.48 0.48 0.47 0.27 0.13 0.07 0.12 0.16 0.18 0.15 0.12 0.12 0.12 0.10 0.09 0.08
0.02 0.03 0.05 0.05 0.05 0.09 0.08 0.08 0.07 0.16 0.19 0.17 0.16 0.15 0.09 0.05 0.05 0.06 0.12 0.22 0.29 0.28 0.30 0.36 0.36 0.40 0.53 0.55 0.50 0.52 0.48 0.24 0.17 0.13 0.15 0.19 0.21 0.19 0.15 0.12 0.14 0.10 0.08
0.03 0.05 0.07 0.08 0.08 0.10 0.09 0.09 0.06 0.11 0.16 0.22 0.12 0.08 0.07 0.06 0.08 0.14 0.21 0.28 0.37 0.52 0.43 0.40 0.48 0.56 0.62 0.78 0.67 0.52 0.46 0.38 0.28 0.22 0.22 0.20 0.24 0.22 0.19 0.15 0.12 0.14 0.13
0.03 0.07 0.08 0.08 0.09 0.09 0.09 0.10 0.10 0.09 0.08 0.14 0.28 0.19 0.03 0.02 0.06 0.09 0.21 0.23 0.40 0.58 0.58 0.71 0.79 0.82 0.77 0.80 0.86 0.73 0.60 0.52 0.42 0.28 0.22 0.19 0.21 0.21 0.21 0.19 0.15 0.14 0.11
0.02 0.07 0.09 0.07 0.07 0.11 0.15 0.15 0.15 0.12 0.07 0.06 0.09 0.27 0.18 0.02 0.05 0.05 0.07 0.10 0.23 0.44 0.58 0.66 0.88 1.09 0.90 0.84 1.03 1.11 0.91 0.57 0.44 0.33 0.25 0.23 0.19 0.20 0.22 0.19 0.18 0.16 0.12
0.04 0.06 0.10 0.10 0.09 0.14 0.22 0.25 0.19 0.15 0.17 0.10 0.04 0.02 0.01 0.01 0.05 0.05 0.05 0.04 0.11 0.20 0.32 0.48 0.70 0.83 1.06 0.88 0.82 0.99 0.96 0.74 0.58 0.48 0.40 0.34 0.28 0.25 0.20 0.19 0.19 0.14 0.15
0.13 0.14 0.17 0.17 0.16 0.20 0.21 0.16 0.14 0.19 0.14 0.22 0.27 0.09 0.03 0.01 0.04 0.05 0.04 0.01 0.04 0.06 0.08 0.19 0.45 0.62 0.77 0.80 0.70 0.62 0.71 0.75 0.49 0.43 0.37 0.29 0.24 0.23 0.19 0.14 0.14 0.12 0.10
0.13 0.23 0.20 0.20 0.24 0.23 0.18 0.16 0.16 0.17 0.23 0.20 0.20 0.27 0.13 0.02 0.03 0.05 0.06 0.01 0.01 0.02 0.02 0.03 0.06 0.18 0.35 0.53 0.58 0.55 0.61 0.56 0.46 0.40 0.37 0.30 0.23 0.20 0.18 0.17 0.12 0.09 0.06
0.27 0.24 0.36 0.31 0.19 0.20 0.19 0.16 0.20 0.24 0.26 0.26 0.19 0.15 0.13 0.04 0.05 0.06 0.07 0.07 0.05 0.01 0.01 0.01 0.01 0.03 0.11 0.22 0.33 0.41 0.44 0.37 0.32 0.34 0.34 0.32 0.27 0.21 0.16 0.10 0.06 0.03 0.01
0.26 0.40 0.45 0.44 0.32 0.27 0.33 0.30 0.26 0.27 0.26 0.28 0.27 0.22 0.12 0.04 0.05 0.09 0.09 0.08 0.08 0.03 0.02 0.03 0.03 0.03 0.05 0.07 0.13 0.15 0.15 0.13 0.13 0.15 0.19 0.17 0.12 0.08 0.05 0.03 0.01 0.00 0.00
0.18 0.42 0.56 0.76 0.57 0.46 0.41 0.43 0.46 0.37 0.30 0.27 0.29 0.28 0.23 0.09 0.03 0.03 0.06 0.11 0.13 0.10 0.08 0.05 0.05 0.05 0.04 0.06 0.07 0.06 0.04 0.04 0.04 0.05 0.05 0.03 0.02 0.01 0.01 0.00 0.00 0.00 0.00
0.19 0.38 0.56 0.78 0.97 0.63 0.53 0.52 0.44 0.50 0.51 0.34 0.27 0.29 0.30 0.20 0.10 0.08 0.05 0.03 0.04 0.08 0.06 0.06 0.06 0.05 0.03 0.02 0.02 0.02 0.03 0.05 0.03 0.02 0.02 0.01 0.00 0.00 0.00 0.00 0.00 0.00 0.00
0.21 0.37 0.53 0.71 0.94 1.14 0.81 0.73 0.85 0.76 0.71 0.85 0.81 0.59 0.62 0.59 0.39 0.24 0.22 0.23 0.20 0.17 0.08 0.09 0.11 0.08 0.06 0.05 0.04 0.04 0.05 0.06 0.04 0.02 0.01 0.00 0.00 0.00 0.00 0.00 0.00 0.00 0.00
0.14 0.20 0.33 0.58 0.82 0.95 1.16 0.97 0.70 0.71 0.80 0.92 1.02 1.01 0.93 0.96 0.84 0.65 0.48 0.37 0.33 0.24 0.20 0.22 0.19 0.16 0.13 0.10 0.08 0.05 0.05 0.04 0.03 0.02 0.01 0.00 0.00 0.00 0.00 0.00 0.00 0.00 0.00
0.11 0.22 0.34 0.42 0.69 0.82 0.98 1.08 1.06 0.84 0.61 0.78 0.92 0.99 1.07 1.01 1.02 1.03 0.87 0.61 0.54 0.45 0.37 0.34 0.32 0.28 0.27 0.25 0.20 0.16 0.11 0.07 0.05 0.03 0.01 0.01 0.00 0.00 0.00 0.00 0.00 0.00 0.00
0.17 0.19 0.33 0.47 0.52 0.68 0.78 0.97 1.02 1.06 1.06 1.05 1.06 0.96 0.89 0.90 0.88 0.82 0.76 0.67 0.56 0.48 0.39 0.37 0.35 0.31 0.26 0.22 0.18 0.13 0.08 0.05 0.03 0.01 0.00 0.00 0.00 0.00 0.00 0.00 0.00 0.00 0.00
0.18 0.18 0.21 0.31 0.49 0.65 0.66 0.78 0.92 1.02 1.09 1.11 1.12 1.14 0.96 0.72 0.75 0.79 0.75 0.68 0.68 0.66 0.60 0.45 0.34 0.27 0.22 0.15 0.09 0.06 0.04 0.02 0.01 0.00 0.00 0.00 0.00 0.00 0.00 0.00 0.00 0.00 0.00
0.16 0.15 0.16 0.22 0.25 0.30 0.41 0.55 0.66 0.71 0.80 0.84 0.90 0.96 1.01 0.93 0.88 0.76 0.70 0.64 0.54 0.45 0.37 0.30 0.22 0.14 0.09 0.06 0.04 0.02 0.01 0.00 0.00 0.00 0.00 0.00 0.00 0.00 0.00 0.00 0.00 0.00 0.00
0.14 0.16 0.18 0.24 0.24 0.24 0.27 0.31 0.33 0.40 0.48 0.53 0.61 0.63 0.59 0.58 0.57 0.54 0.48 0.40 0.32 0.22 0.15 0.11 0.09 0.07 0.05 0.03 0.01 0.01 0.00 0.00 0.00 0.00 0.00 0.00 0.00 0.00 0.00 0.00 0.00 0.00 0.00
0.07 0.12 0.13 0.15 0.17 0.19 0.22 0.27 0.25 0.25 0.28 0.31 0.33 0.37 0.36 0.32 0.29 0.26 0.24 0.20 0.17 0.14 0.09 0.06 0.04 0.03 0.02 0.01 0.00 0.00 0.00 0.00 0.00 0.00 0.00 0.00 0.00 0.00 0.00 0.00 0.00 0.00 0.00
0.03 0.05 0.07 0.11 0.13 0.13 0.15 0.18 0.19 0.18 0.19 0.21 0.21 0.21 0.23 0.23 0.20 0.17 0.14 0.10 0.07 0.05 0.03 0.02 0.01 0.01 0.00 0.00 0.00 0.00 0.00 0.00 0.00 0.00 0.00 0.00 0.00 0.00 0.00 0.00 0.00 0.00 0.00
0.02 0.03 0.04 0.05 0.07 0.09 0.10 0.10 0.11 0.12 0.12 0.12 0.12 0.12 0.11 0.10 0.08 0.07 0.06 0.04 0.04 0.03 0.02 0.01 0.01 0.00 0.00 0.00 0.00 0.00 0.00 0.00 0.00 0.00 0.00 0.00 0.00 0.00 0.00 0.00 0.00 0.00 0.00
0.02 0.02 0.01 0.02 0.02 0.03 0.04 0.05 0.06 0.06 0.06 0.05 0.04 0.04 0.03 0.03 0.03 0.03 0.03 0.02 0.02 0.01 0.01 0.00 0.00 0.00 0.00 0.00 0.00 0.00 0.00 0.00 0.00 0.00 0.00 0.00 0.00 0.00 0.00 0.00 0.00 0.00 0.00

GFSGL_prec_precacc12_135.txt.gz
Total_Precipitation_Accumulation
0.00 0.00 0.01 0.01 0.01 0.02 0.06 0.07 0.08 0.10 0.12 0.10 0.06 0.04 0.04 0.08 0.09 0.08 0.13 0.29 0.38 0.38 0.51 0.59 0.55 0.58 0.69 0.47 0.35 0.31 0.21 0.13 0.10 0.05 0.02 0.00 0.01 0.01 0.01 0.01 0.00 0.00 0.01
0.00 0.00 0.01 0.01 0.01 0.03 0.04 0.09 0.10 0.11 0.13 0.18 0.16 0.08 0.04 0.03 0.03 0.04 0.06 0.11 0.22 0.28 0.38 0.55 0.51 0.58 0.85 0.85 0.68 0.42 0.26 0.17 0.14 0.04 0.02 0.03 0.02 0.02 0.03 0.02 0.02 0.02 0.02
0.00 0.00 0.01 0.01 0.02 0.04 0.04 0.06 0.09 0.15 0.17 0.16 0.16 0.15 0.08 0.04 0.03 0.03 0.03 0.05 0.10 0.18 0.23 0.34 0.48 0.56 0.63 0.81 0.77 0.48 0.27 0.25 0.19 0.09 0.06 0.08 0.07 0.05 0.06 0.07 0.09 0.10 0.08
0.00 0.00 0.00 0.01 0.03 0.04 0.04 0.05 0.09 0.16 0.18 0.18 0.14 0.16 0.13 0.05 0.02 0.01 0.04 0.05 0.06 0.09 0.16 0.20 0.26 0.46 0.45 0.52 0.72 0.72 0.45 0.33 0.17 0.10 0.12 0.16 0.11 0.08 0.08 0.10 0.14 0.16 0.16
0.00 0.00 0.00 0.01 0.03 0.07 0.07 0.07 0.06 0.15 0.19 0.17 0.18 0.18 0.12 0.09 0.08 0.02 0.00 0.01 0.05 0.07 0.10 0.15 0.17 0.25 0.37 0.46 0.51 0.65 0.79 0.45 0.25 0.19 0.15 0.17 0.17 0.16 0.14 0.13 0.17 0.18 0.16
0.00 0.00 0.00 0.01 0.04 0.08 0.08 0.07 0.05 0.10 0.16 0.22 0.13 0.11 0.11 0.09 0.10 0.07 0.04 0.02 0.05 0.20 0.18 0.15 0.22 0.27 0.31 0.50 0.58 0.58 0.51 0.45 0.34 0.25 0.19 0.16 0.18 0.24 0.28 0.28 0.25 0.25 0.22
0.00 0.00 0.00 0.02 0.05 0.06 0.07 0.09 0.09 0.08 0.08 0.14 0.28 0.21 0.08 0.12 0.18 0.10 0.08 0.07 0.15 0.27 0.28 0.40 0.49 0.51 0.49 0.57 0.73 0.72 0.70 0.60 0.47 0.33 0.23 0.19 0.22 0.26 0.33 0.38 0.32 0.27 0.20
0.00 0.00 0.00 0.01 0.04 0.08 0.13 0.14 0.15 0.12 0.07 0.06 0.09 0.29 0.59 0.33 0.17 0.26 0.18 0.04 0.09 0.21 0.36 0.44 0.64 0.85 0.74 0.72 0.98 1.14 0.95 0.72 0.61 0.51 0.40 0.33 0.28 0.32 0.40 0.35 0.35 0.34 0.32
0.00 0.00 0.01 0.02 0.06 0.12 0.22 0.25 0.19 0.15 0.17 0.10 0.04 0.04 0.16 0.42 0.39 0.17 0.12 0.02 0.04 0.10 0.22 0.34 0.52 0.66 0.96 0.84 0.84 1.07 1.07 0.92 0.80 0.73 0.60 0.58 0.56 0.54 0.44 0.37 0.37 0.32 0.33
0.00 0.00 0.02 0.07 0.13 0.20 0.21 0.16 0.14 0.19 0.14 0.22 0.27 0.12 0.12 0.10 0.22 0.22 0.10 0.02 0.02 0.02 0.05 0.14 0.36 0.55 0.75 0.81 0.76 0.74 0.84 0.92 0.62 0.59 0.62 0.59 0.54 0.53 0.52 0.40 0.29 0.27 0.26
0.00 0.01 0.03 0.09 0.21 0.23 0.18 0.16 0.16 0.17 0.23 0.20 0.20 0.34 0.31 0.15 0.11 0.16 0.21 0.03 0.01 0.01 0.01 0.02 0.05 0.18 0.34 0.54 0.61 0.61 0.72 0.73 0.70 0.64 0.63 0.54 0.48 0.42 0.41 0.43 0.35 0.26 0.22
0.00 0.00 0.04 0.10 0.16 0.20 0.19 0.15 0.19 0.24 0.26 0.26 0.19 0.16 0.21 0.32 0.30 0.21 0.14 0.09 0.05 0.01 0.01 0.01 0.03 0.05 0.11 0.23 0.36 0.50 0.60 0.56 0.57 0.69 0.71 0.64 0.54 0.46 0.39 0.31 0.25 0.17 0.11
0.00 0.01 0.05 0.11 0.20 0.24 0.33 0.29 0.25 0.26 0.26 0.28 0.27 0.22 0.15 0.10 0.16 0.24 0.21 0.13 0.08 0.04 0.03 0.05 0.04 0.04 0.05 0.08 0.14 0.19 0.24 0.27 0.34 0.44 0.50 0.48 0.41 0.32 0.26 0.20 0.15 0.10 0.08
0.01 0.04 0.15 0.22 0.29 0.38 0.37 0.38 0.42 0.35 0.29 0.26 0.28 0.28 0.26 0.20 0.14 0.10 0.09 0.10 0.12 0.09 0.08 0.04 0.03 0.04 0.04 0.05 0.05 0.05 0.04 0.10 0.15 0.20 0.23 0.20 0.15 0.13 0.12 0.11 0.08 0.06 0.04
0.03 0.05 0.13 0.33 0.39 0.46 0.45 0.43 0.37 0.46 0.47 0.32 0.26 0.29 0.31 0.28 0.25 0.25 0.19 0.09 0.04 0.05 0.03 0.02 0.02 0.01 0.01 0.01 0.01 0.02 0.04 0.09 0.09 0.07 0.06 0.04 0.03 0.03 0.02 0.03 0.03 0.02 0.01
0.07 0.13 0.18 0.29 0.47 0.55 0.53 0.54 0.60 0.55 0.55 0.66 0.59 0.41 0.46 0.52 0.47 0.37 0.36 0.30 0.21 0.14 0.04 0.05 0.07 0.06 0.05 0.05 0.04 0.04 0.05 0.07 0.04 0.02 0.01 0.01 0.01 0.00 0.00 0.00 0.00 0.00 0.00
0.10 0.12 0.16 0.30 0.43 0.52 0.62 0.60 0.51 0.53 0.60 0.70 0.83 0.83 0.70 0.73 0.72 0.63 0.52 0.44 0.36 0.24 0.16 0.19 0.19 0.17 0.14 0.11 0.08 0.06 0.06 0.05 0.04 0.03 0.02 0.01 0.01 0.00 0.00 0.00 0.00 0.00 0.00
0.09 0.12 0.20 0.29 0.40 0.53 0.61 0.66 0.70 0.54 0.46 0.66 0.81 0.89 0.96 0.89 0.92 0.97 0.86 0.63 0.58 0.48 0.40 0.37 0.35 0.30 0.29 0.26 0.22 0.18 0.14 0.10 0.07 0.05 0.04 0.03 0.02 0.01 0.01 0.01 0.00 0.00 0.00
0.16 0.19 0.26 0.33 0.39 0.54 0.56 0.64 0.75 0.81 0.84 0.92 0.95 0.87 0.85 0.86 0.85 0.89 0.92 0.85 0.75 0.65 0.54 0.53 0.51 0.44 0.35 0.31 0.27 0.21 0.17 0.14 0.10 0.07 0.04 0.02 0.01 0.01 0.00 0.00 0.00 0.00 0.00
0.14 0.17 0.21 0.26 0.36 0.49 0.54 0.55 0.63 0.78 0.86 0.94 1.01 1.06 0.92 0.76 0.87 1.00 1.02 1.01 1.07 1.08 0.95 0.75 0.62 0.54 0.46 0.37 0.29 0.22 0.16 0.11 0.08 0.05 0.03 0.02 0.01 0.00 0.00 0.00 0.00 0.00 0.00
0.12 0.14 0.17 0.21 0.24 0.29 0.35 0.44 0.55 0.62 0.72 0.79 0.89 1.01 1.10 1.06 1.09 1.05 1.02 0.97 0.87 0.81 0.78 0.66 0.54 0.39 0.30 0.23 0.18 0.13 0.08 0.06 0.04 0.02 0.01 0.01 0.00 0.00 0.00 0.00 0.00 0.00 0.00
0.11 0.14 0.18 0.25 0.25 0.25 0.28 0.31 0.31 0.38 0.49 0.56 0.65 0.71 0.68 0.70 0.73 0.76 0.77 0.72 0.63 0.52 0.43 0.36 0.32 0.27 0.22 0.16 0.11 0.08 0.06 0.04 0.03 0.01 0.01 0.00 0.00 0.00 0.00 0.00 0.00 0.00 0.00
0.06 0.10 0.12 0.14 0.17 0.20 0.23 0.28 0.25 0.27 0.31 0.36 0.40 0.45 0.47 0.45 0.43 0.42 0.41 0.41 0.39 0.36 0.31 0.23 0.18 0.14 0.09 0.07 0.05 0.04 0.03 0.02 0.01 0.00 0.00 0.00 0.00 0.00 0.00 0.00 0.00 0.00 0.00
0.02 0.03 0.06 0.10 0.13 0.14 0.15 0.20 0.22 0.22 0.24 0.27 0.28 0.30 0.33 0.35 0.35 0.33 0.30 0.25 0.19 0.16 0.11 0.09 0.08 0.07 0.06 0.04 0.03 0.02 0.02 0.01 0.00 0.00 0.00 0.00 0.00 0.00 0.00 0.00 0.00 0.00 0.00
0.01 0.02 0.03 0.04 0.07 0.10 0.12 0.13 0.15 0.16 0.16 0.17 0.18 0.20 0.21 0.20 0.19 0.19 0.17 0.14 0.13 0.10 0.09 0.07 0.06 0.05 0.04 0.03 0.02 0.01 0.00 0.00 0.00 0.00 0.00 0.00 0.00 0.00 0.00 0.00 0.00 0.00 0.00
0.02 0.01 0.02 0.02 0.03 0.04 0.05 0.07 0.09 0.10 0.11 0.10 0.10 0.10 0.11 0.11 0.10 0.09 0.08 0.07 0.06 0.05 0.04 0.04 0.03 0.02 0.01 0.01 0.00 0.00 0.00 0.00 0.00 0.00 0.00 0.00 0.00 0.00 0.00 0.00 0.00 0.00 0.00

GFSGL_prec_precacc12_138.txt.gz
Total_Precipitation_Accumulation
0.00 0.00 0.00 0.00 0.00 0.01 0.04 0.06 0.08 0.09 0.11 0.10 0.06 0.06 0.08 0.12 0.12 0.08 0.06 0.07 0.11 0.17 0.27 0.38 0.47 0.55 0.68 0.47 0.36 0.36 0.31 0.28 0.33 0.22 0.15 0.14 0.12 0.05 0.01 0.01 0.00 0.00 0.01
0.00 0.00 0.00 0.00 0.01 0.01 0.02 0.06 0.07 0.10 0.12 0.17 0.16 0.08 0.05 0.06 0.08 0.08 0.05 0.04 0.05 0.11 0.23 0.38 0.38 0.52 0.80 0.81 0.68 0.51 0.50 0.47 0.54 0.30 0.16 0.21 0.20 0.14 0.05 0.02 0.01 0.02 0.01
0.00 0.00 0.00 0.00 0.01 0.01 0.01 0.04 0.08 0.13 0.16 0.14 0.16 0.14 0.08 0.06 0.07 0.05 0.05 0.04 0.05 0.06 0.11 0.24 0.41 0.48 0.59 0.78 0.78 0.55 0.36 0.45 0.48 0.21 0.12 0.17 0.23 0.22 0.13 0.08 0.07 0.08 0.07
0.00 0.00 0.00 0.00 0.01 0.01 0.01 0.03 0.07 0.14 0.18 0.16 0.12 0.15 0.12 0.06 0.07 0.06 0.05 0.02 0.02 0.03 0.05 0.12 0.22 0.39 0.40 0.51 0.72 0.74 0.51 0.52 0.41 0.18 0.18 0.26 0.27 0.27 0.23 0.15 0.13 0.14 0.15
0.00 0.00 0.00 0.00 0.00 0.02 0.03 0.04 0.04 0.12 0.18 0.16 0.17 0.17 0.12 0.08 0.07 0.06 0.04 0.03 0.01 0.00 0.01 0.02 0.08 0.15 0.30 0.44 0.51 0.65 0.82 0.50 0.27 0.27 0.25 0.29 0.33 0.28 0.25 0.19 0.18 0.18 0.19
0.00 0.00 0.00 0.00 0.00 0.01 0.02 0.04 0.04 0.08 0.15 0.22 0.12 0.11 0.11 0.10 0.11 0.07 0.07 0.08 0.05 0.01 0.01 0.05 0.11 0.15 0.19 0.41 0.48 0.49 0.47 0.38 0.24 0.19 0.20 0.21 0.26 0.28 0.35 0.37 0.34 0.31 0.28
0.00 0.00 0.00 0.00 0.00 0.01 0.02 0.06 0.07 0.07 0.07 0.14 0.28 0.21 0.08 0.12 0.19 0.11 0.14 0.11 0.10 0.08 0.05 0.15 0.29 0.28 0.29 0.38 0.51 0.51 0.55 0.47 0.34 0.22 0.16 0.17 0.26 0.31 0.40 0.52 0.43 0.34 0.28
0.00 0.00 0.00 0.00 0.00 0.01 0.06 0.11 0.13 0.11 0.07 0.06 0.09 0.29 0.59 0.33 0.18 0.28 0.38 0.19 0.12 0.09 0.11 0.14 0.30 0.50 0.40 0.45 0.68 0.81 0.72 0.59 0.52 0.48 0.38 0.34 0.34 0.45 0.58 0.57 0.59 0.60 0.57
0.00 0.00 0.00 0.00 0.00 0.00 0.06 0.22 0.18 0.14 0.16 0.09 0.04 0.04 0.16 0.42 0.41 0.18 0.22 0.34 0.28 0.17 0.24 0.15 0.24 0.37 0.64 0.58 0.59 0.82 0.91 0.83 0.80 0.77 0.66 0.72 0.78 0.81 0.78 0.76 0.75 0.61 0.58
0.00 0.00 0.00 0.00 0.00 0.01 0.05 0.12 0.13 0.18 0.13 0.21 0.26 0.11 0.12 0.10 0.22 0.23 0.13 0.10 0.20 0.18 0.11 0.11 0.23 0.35 0.55 0.63 0.61 0.62 0.75 0.86 0.61 0.62 0.71 0.78 0.77 0.82 0.88 0.75 0.57 0.50 0.46
0.00 0.00 0.00 0.00 0.00 0.02 0.05 0.13 0.16 0.16 0.22 0.18 0.19 0.33 0.31 0.14 0.10 0.17 0.25 0.12 0.10 0.10 0.05 0.02 0.03 0.13 0.28 0.48 0.57 0.59 0.70 0.73 0.75 0.72 0.74 0.72 0.70 0.67 0.64 0.73 0.73 0.58 0.44
0.00 0.00 0.00 0.00 0.00 0.03 0.07 0.12 0.17 0.22 0.23 0.23 0.18 0.14 0.20 0.32 0.29 0.22 0.17 0.19 0.14 0.05 0.09 0.03 0.03 0.05 0.09 0.21 0.35 0.49 0.60 0.56 0.58 0.70 0.78 0.78 0.69 0.65 0.62 0.56 0.53 0.46 0.42
0.00 0.00 0.00 0.00 0.00 0.02 0.11 0.22 0.21 0.20 0.23 0.26 0.26 0.21 0.14 0.09 0.14 0.22 0.24 0.24 0.19 0.12 0.10 0.11 0.06 0.06 0.05 0.08 0.14 0.19 0.24 0.28 0.36 0.47 0.57 0.61 0.62 0.60 0.56 0.50 0.44 0.37 0.31
0.01 0.01 0.00 0.00 0.01 0.01 0.04 0.23 0.39 0.31 0.23 0.23 0.27 0.27 0.25 0.20 0.14 0.10 0.11 0.17 0.20 0.19 0.17 0.10 0.05 0.05 0.04 0.04 0.04 0.04 0.04 0.10 0.16 0.24 0.34 0.37 0.35 0.36 0.38 0.35 0.30 0.29 0.24
0.01 0.01 0.01 0.01 0.01 0.01 0.09 0.22 0.29 0.34 0.39 0.30 0.25 0.28 0.31 0.27 0.23 0.23 0.18 0.13 0.14 0.13 0.10 0.07 0.04 0.01 0.01 0.01 0.00 0.01 0.03 0.08 0.09 0.10 0.13 0.16 0.17 0.19 0.20 0.19 0.17 0.15 0.13
0.03 0.02 0.02 0.02 0.02 0.07 0.11 0.23 0.37 0.37 0.40 0.52 0.49 0.37 0.42 0.48 0.44 0.33 0.31 0.26 0.24 0.23 0.14 0.09 0.07 0.03 0.02 0.02 0.02 0.03 0.05 0.08 0.05 0.03 0.03 0.04 0.06 0.06 0.06 0.06 0.06 0.05 0.03
0.05 0.04 0.03 0.05 0.06 0.08 0.19 0.25 0.35 0.38 0.40 0.50 0.65 0.65 0.56 0.56 0.57 0.50 0.40 0.36 0.34 0.25 0.15 0.15 0.15 0.12 0.12 0.10 0.08 0.06 0.06 0.05 0.04 0.03 0.03 0.03 0.03 0.03 0.02 0.01 0.00 0.00 0.00
0.05 0.05 0.06 0.08 0.12 0.13 0.16 0.27 0.37 0.41 0.34 0.47 0.63 0.71 0.76 0.71 0.75 0.79 0.64 0.41 0.37 0.36 0.35 0.36 0.37 0.32 0.29 0.27 0.23 0.19 0.15 0.11 0.08 0.06 0.06 0.05 0.04 0.02 0.01 0.01 0.00 0.00 0.00
0.12 0.14 0.18 0.19 0.21 0.25 0.21 0.22 0.31 0.44 0.49 0.55 0.61 0.60 0.62 0.64 0.64 0.70 0.76 0.73 0.66 0.62 0.60 0.65 0.65 0.54 0.46 0.38 0.31 0.25 0.19 0.16 0.12 0.08 0.06 0.04 0.02 0.02 0.02 0.01 0.01 0.00 0.00
0.09 0.12 0.17 0.20 0.22 0.30 0.32 0.29 0.32 0.41 0.47 0.53 0.62 0.72 0.67 0.59 0.71 0.87 0.94 0.99 1.12 1.18 1.11 0.96 0.85 0.77 0.68 0.60 0.52 0.42 0.32 0.24 0.18 0.13 0.09 0.06 0.03 0.02 0.01 0.01 0.01 0.00 0.00
0.09 0.09 0.14 0.18 0.21 0.25 0.27 0.28 0.31 0.36 0.45 0.52 0.67 0.84 0.95 0.93 1.00 1.01 1.04 1.06 1.01 0.98 0.97 0.90 0.82 0.69 0.60 0.51 0.42 0.36 0.28 0.23 0.16 0.12 0.09 0.06 0.04 0.03 0.02 0.01 0.01 0.01 0.00
0.08 0.10 0.14 0.22 0.22 0.23 0.26 0.29 0.26 0.28 0.37 0.46 0.57 0.66 0.67 0.70 0.75 0.80 0.84 0.84 0.80 0.72 0.64 0.57 0.55 0.52 0.46 0.38 0.31 0.25 0.19 0.15 0.11 0.08 0.05 0.03 0.03 0.02 0.02 0.01 0.01 0.00 0.00
0.04 0.07 0.10 0.12 0.15 0.17 0.20 0.26 0.24 0.24 0.29 0.36 0.42 0.48 0.52 0.51 0.50 0.50 0.50 0.54 0.55 0.56 0.54 0.46 0.39 0.34 0.27 0.21 0.16 0.12 0.10 0.08 0.07 0.05 0.05 0.05 0.04 0.03 0.02 0.01 0.00 0.00 0.00
0.01 0.02 0.05 0.09 0.11 0.13 0.15 0.20 0.23 0.24 0.26 0.31 0.32 0.35 0.39 0.42 0.43 0.41 0.39 0.36 0.31 0.30 0.27 0.24 0.21 0.18 0.17 0.16 0.14 0.12 0.10 0.08 0.06 0.04 0.03 0.02 0.01 0.01 0.01 0.00 0.00 0.00 0.00
0.01 0.01 0.02 0.04 0.06 0.09 0.12 0.14 0.16 0.18 0.19 0.21 0.23 0.25 0.26 0.27 0.26 0.27 0.26 0.24 0.23 0.21 0.20 0.18 0.17 0.15 0.13 0.11 0.10 0.08 0.05 0.04 0.02 0.02 0.02 0.01 0.01 0.01 0.00 0.00 0.00 0.00 0.00
0.02 0.02 0.02 0.02 0.03 0.04 0.05 0.08 0.11 0.13 0.14 0.14 0.14 0.15 0.16 0.16 0.16 0.16 0.15 0.14 0.13 0.12 0.11 0.10 0.08 0.07 0.06 0.05 0.04 0.03 0.02 0.02 0.01 0.01 0.00 0.00 0.00 0.00 0.00 0.00 0.00 0.00 0.00

GFSGL_prec_precacc12_141.txt.gz
Total_Precipitation_Accumulation
0.01 0.00 0.00 0.00 0.00 0.00 0.00 0.00 0.03 0.07 0.11 0.06 0.03 0.05 0.08 0.12 0.13 0.10 0.07 0.08 0.07 0.08 0.10 0.17 0.34 0.48 0.53 0.45 0.36 0.35 0.30 0.28 0.34 0.23 0.15 0.19 0.20 0.16 0.11 0.06 0.01 0.00 0.01
0.00 0.00 0.00 0.00 0.00 0.00 0.00 0.00 0.03 0.06 0.10 0.13 0.12 0.08 0.05 0.06 0.09 0.11 0.09 0.05 0.04 0.04 0.05 0.11 0.18 0.40 0.58 0.69 0.61 0.50 0.47 0.46 0.55 0.39 0.22 0.29 0.34 0.30 0.21 0.13 0.05 0.02 0.01
0.00 0.00 0.00 0.00 0.00 0.00 0.00 0.00 0.02 0.05 0.11 0.11 0.13 0.13 0.08 0.06 0.08 0.08 0.08 0.09 0.07 0.05 0.05 0.06 0.13 0.30 0.45 0.61 0.64 0.48 0.34 0.43 0.51 0.26 0.14 0.21 0.32 0.35 0.32 0.30 0.20 0.09 0.06
0.00 0.00 0.00 0.00 0.00 0.00 0.00 0.00 0.00 0.04 0.11 0.11 0.08 0.11 0.12 0.06 0.07 0.08 0.09 0.08 0.04 0.04 0.06 0.06 0.09 0.20 0.28 0.39 0.61 0.67 0.50 0.53 0.44 0.20 0.17 0.26 0.30 0.37 0.42 0.35 0.33 0.26 0.16
0.00 0.00 0.00 0.00 0.00 0.00 0.00 0.00 0.00 0.01 0.08 0.11 0.12 0.12 0.10 0.08 0.08 0.07 0.05 0.08 0.11 0.13 0.06 0.03 0.03 0.06 0.15 0.31 0.40 0.56 0.76 0.51 0.31 0.28 0.25 0.29 0.35 0.35 0.36 0.36 0.34 0.29 0.27
0.00 0.00 0.00 0.00 0.00 0.00 0.00 0.00 0.00 0.01 0.09 0.19 0.10 0.09 0.08 0.06 0.08 0.09 0.09 0.09 0.10 0.10 0.10 0.04 0.01 0.04 0.03 0.17 0.36 0.42 0.42 0.37 0.25 0.20 0.16 0.17 0.24 0.30 0.42 0.51 0.50 0.48 0.47
0.00 0.00 0.00 0.00 0.00 0.00 0.00 0.00 0.00 0.01 0.03 0.12 0.27 0.21 0.07 0.12 0.17 0.09 0.13 0.11 0.10 0.13 0.12 0.06 0.02 0.07 0.15 0.21 0.38 0.41 0.47 0.44 0.31 0.20 0.12 0.12 0.23 0.32 0.47 0.68 0.58 0.46 0.37
0.00 0.00 0.00 0.00 0.00 0.00 0.00 0.01 0.02 0.01 0.04 0.05 0.08 0.29 0.58 0.32 0.17 0.25 0.35 0.19 0.14 0.12 0.13 0.25 0.33 0.33 0.22 0.28 0.50 0.52 0.43 0.40 0.38 0.36 0.28 0.24 0.24 0.42 0.65 0.70 0.82 0.92 0.86
0.00 0.00 0.00 0.00 0.00 0.00 0.00 0.00 0.06 0.05 0.12 0.08 0.03 0.04 0.16 0.41 0.40 0.16 0.20 0.34 0.29 0.18 0.26 0.23 0.23 0.40 0.48 0.30 0.32 0.46 0.51 0.49 0.56 0.57 0.49 0.59 0.69 0.76 0.87 0.99 1.05 0.93 0.87
0.00 0.00 0.00 0.00 0.00 0.00 0.00 0.00 0.01 0.06 0.08 0.19 0.25 0.10 0.10 0.09 0.21 0.22 0.12 0.10 0.20 0.19 0.12 0.12 0.16 0.13 0.31 0.31 0.27 0.31 0.44 0.54 0.38 0.44 0.59 0.73 0.75 0.83 0.97 0.86 0.80 0.79 0.74
0.00 0.00 0.00 0.00 0.00 0.00 0.00 0.00 0.00 0.02 0.17 0.16 0.16 0.32 0.30 0.14 0.09 0.16 0.24 0.11 0.09 0.11 0.07 0.03 0.04 0.09 0.14 0.22 0.30 0.34 0.44 0.51 0.61 0.62 0.69 0.74 0.75 0.71 0.71 0.86 0.90 0.85 0.66
0.00 0.00 0.00 0.00 0.00 0.00 0.00 0.00 0.00 0.00 0.08 0.18 0.16 0.13 0.18 0.31 0.28 0.21 0.16 0.17 0.13 0.06 0.14 0.15 0.12 0.11 0.08 0.16 0.28 0.41 0.52 0.51 0.53 0.66 0.75 0.78 0.72 0.68 0.64 0.63 0.65 0.65 0.61
0.00 0.00 0.00 0.00 0.00 0.00 0.00 0.00 0.00 0.01 0.06 0.19 0.24 0.19 0.12 0.08 0.13 0.21 0.22 0.22 0.19 0.12 0.11 0.20 0.30 0.31 0.22 0.16 0.16 0.19 0.24 0.28 0.36 0.46 0.57 0.61 0.62 0.63 0.62 0.62 0.61 0.54 0.49
0.00 0.00 0.00 0.00 0.00 0.00 0.00 0.00 0.00 0.01 0.04 0.15 0.25 0.26 0.24 0.19 0.12 0.09 0.10 0.15 0.18 0.18 0.18 0.14 0.12 0.11 0.19 0.23 0.12 0.04 0.04 0.10 0.15 0.23 0.33 0.38 0.37 0.39 0.45 0.47 0.45 0.47 0.44
0.00 0.00 0.00 0.00 0.01 0.00 0.00 0.00 0.01 0.02 0.10 0.15 0.21 0.24 0.29 0.26 0.21 0.22 0.18 0.13 0.14 0.14 0.12 0.11 0.11 0.10 0.08 0.06 0.02 0.00 0.02 0.07 0.08 0.09 0.12 0.16 0.19 0.22 0.26 0.30 0.28 0.27 0.28
0.01 0.01 0.01 0.01 0.01 0.00 0.00 0.01 0.02 0.05 0.13 0.20 0.23 0.22 0.32 0.39 0.39 0.30 0.28 0.23 0.22 0.23 0.15 0.10 0.11 0.12 0.12 0.09 0.05 0.03 0.04 0.07 0.03 0.02 0.03 0.04 0.07 0.09 0.12 0.19 0.23 0.22 0.22
0.02 0.02 0.01 0.01 0.02 0.02 0.01 0.02 0.03 0.07 0.14 0.21 0.27 0.35 0.42 0.47 0.46 0.41 0.34 0.32 0.31 0.23 0.12 0.11 0.12 0.11 0.13 0.12 0.09 0.06 0.05 0.04 0.03 0.03 0.03 0.04 0.04 0.07 0.08 0.09 0.10 0.09 0.09
0.02 0.02 0.03 0.03 0.04 0.05 0.04 0.03 0.03 0.06 0.13 0.22 0.31 0.42 0.52 0.53 0.59 0.62 0.50 0.32 0.26 0.24 0.22 0.22 0.23 0.24 0.26 0.26 0.23 0.17 0.13 0.10 0.08 0.06 0.07 0.08 0.08 0.07 0.06 0.06 0.05 0.04 0.02
0.05 0.07 0.10 0.11 0.13 0.12 0.07 0.04 0.05 0.07 0.14 0.23 0.28 0.35 0.41 0.43 0.42 0.46 0.49 0.49 0.46 0.43 0.42 0.49 0.54 0.52 0.50 0.46 0.39 0.29 0.21 0.18 0.13 0.10 0.09 0.07 0.06 0.05 0.05 0.04 0.02 0.01 0.00
0.05 0.06 0.11 0.12 0.12 0.14 0.13 0.09 0.08 0.09 0.14 0.19 0.24 0.32 0.34 0.33 0.43 0.57 0.67 0.75 0.89 0.98 0.97 0.90 0.87 0.88 0.84 0.77 0.71 0.58 0.44 0.34 0.24 0.17 0.14 0.09 0.06 0.04 0.03 0.03 0.02 0.02 0.01
0.06 0.05 0.08 0.12 0.13 0.18 0.18 0.14 0.12 0.13 0.17 0.22 0.33 0.44 0.53 0.57 0.70 0.77 0.83 0.89 0.88 0.91 0.95 0.93 0.91 0.83 0.80 0.73 0.66 0.60 0.51 0.44 0.31 0.23 0.18 0.13 0.09 0.07 0.05 0.03 0.02 0.02 0.02
0.04 0.06 0.09 0.16 0.15 0.15 0.16 0.19 0.14 0.14 0.18 0.23 0.32 0.40 0.44 0.50 0.59 0.67 0.75 0.78 0.79 0.74 0.70 0.64 0.65 0.66 0.65 0.60 0.51 0.43 0.36 0.32 0.29 0.21 0.16 0.11 0.08 0.06 0.05 0.04 0.03 0.03 0.02
0.01 0.03 0.05 0.08 0.11 0.13 0.13 0.16 0.15 0.15 0.18 0.23 0.30 0.35 0.42 0.45 0.48 0.51 0.53 0.58 0.61 0.63 0.63 0.56 0.49 0.47 0.42 0.38 0.33 0.27 0.23 0.20 0.16 0.13 0.12 0.11 0.10 0.08 0.07 0.05 0.03 0.02 0.01
0.01 0.01 0.03 0.06 0.08 0.10 0.11 0.14 0.16 0.18 0.19 0.24 0.28 0.31 0.37 0.43 0.47 0.48 0.47 0.45 0.40 0.39 0.38 0.35 0.32 0.29 0.27 0.25 0.22 0.20 0.18 0.16 0.14 0.12 0.10 0.08 0.07 0.05 0.04 0.03 0.02 0.01 0.01
0.01 0.02 0.02 0.03 0.05 0.07 0.10 0.11 0.13 0.16 0.17 0.20 0.24 0.27 0.30 0.31 0.32 0.33 0.34 0.33 0.33 0.30 0.30 0.29 0.29 0.27 0.25 0.23 0.21 0.18 0.15 0.12 0.10 0.08 0.07 0.06 0.04 0.03 0.02 0.02 0.01 0.01 0.00
0.02 0.02 0.03 0.03 0.03 0.04 0.05 0.07 0.10 0.13 0.15 0.16 0.17 0.19 0.21 0.22 0.22 0.22 0.22 0.21 0.20 0.20 0.19 0.19 0.18 0.16 0.16 0.15 0.13 0.11 0.10 0.08 0.06 0.04 0.03 0.02 0.02 0.01 0.01 0.01 0.00 0.00 0.00

GFSGL_prec_precacc12_144.txt.gz
Total_Precipitation_Accumulation
0.09 0.03 0.01 0.00 0.00 0.01 0.00 0.00 0.00 0.00 0.02 0.02 0.02 0.05 0.06 0.09 0.11 0.12 0.12 0.12 0.12 0.11 0.13 0.10 0.11 0.16 0.21 0.29 0.36 0.42 0.33 0.29 0.35 0.24 0.15 0.19 0.20 0.16 0.11 0.08 0.04 0.02 0.01
0.39 0.16 0.03 0.00 0.00 0.00 0.00 0.00 0.00 0.00 0.01 0.04 0.07 0.06 0.04 0.05 0.10 0.12 0.11 0.08 0.07 0.08 0.10 0.12 0.09 0.13 0.27 0.47 0.47 0.46 0.47 0.47 0.57 0.40 0.23 0.30 0.34 0.29 0.23 0.15 0.08 0.05 0.03
0.04 0.17 0.18 0.08 0.01 0.00 0.00 0.00 0.00 0.00 0.00 0.01 0.05 0.09 0.07 0.05 0.08 0.08 0.09 0.11 0.11 0.09 0.08 0.09 0.08 0.10 0.15 0.28 0.33 0.31 0.30 0.42 0.52 0.27 0.14 0.20 0.28 0.33 0.33 0.34 0.27 0.16 0.12
0.00 0.00 0.01 0.01 0.01 0.00 0.00 0.00 0.00 0.00 0.00 0.01 0.02 0.07 0.07 0.05 0.07 0.08 0.10 0.11 0.07 0.10 0.11 0.11 0.11 0.10 0.08 0.14 0.35 0.36 0.33 0.50 0.45 0.20 0.16 0.21 0.24 0.31 0.36 0.31 0.35 0.34 0.28
0.01 0.00 0.00 0.00 0.00 0.00 0.00 0.00 0.00 0.00 0.00 0.00 0.02 0.03 0.04 0.05 0.07 0.07 0.05 0.09 0.14 0.19 0.14 0.09 0.07 0.12 0.13 0.16 0.20 0.30 0.51 0.43 0.28 0.27 0.24 0.23 0.25 0.24 0.28 0.31 0.34 0.38 0.40
0.00 0.00 0.00 0.00 0.00 0.00 0.00 0.00 0.00 0.00 0.00 0.00 0.01 0.03 0.05 0.04 0.06 0.08 0.09 0.09 0.10 0.11 0.14 0.14 0.11 0.12 0.08 0.09 0.17 0.29 0.27 0.23 0.19 0.19 0.16 0.15 0.15 0.19 0.32 0.46 0.51 0.54 0.60
0.00 0.00 0.00 0.00 0.00 0.00 0.00 0.00 0.00 0.00 0.00 0.00 0.00 0.02 0.04 0.10 0.15 0.08 0.12 0.11 0.10 0.13 0.13 0.10 0.19 0.25 0.16 0.08 0.13 0.20 0.35 0.31 0.17 0.13 0.11 0.09 0.16 0.20 0.34 0.59 0.56 0.48 0.44
0.01 0.00 0.00 0.00 0.00 0.00 0.00 0.00 0.00 0.00 0.00 0.00 0.00 0.02 0.40 0.32 0.15 0.25 0.33 0.18 0.13 0.11 0.12 0.25 0.35 0.36 0.31 0.18 0.17 0.22 0.16 0.25 0.27 0.25 0.20 0.18 0.18 0.32 0.52 0.60 0.72 0.90 0.92
0.00 0.00 0.00 0.00 0.00 0.00 0.00 0.00 0.00 0.00 0.00 0.00 0.00 0.02 0.15 0.41 0.39 0.15 0.18 0.33 0.27 0.16 0.24 0.22 0.21 0.38 0.53 0.48 0.37 0.31 0.23 0.28 0.40 0.42 0.36 0.44 0.54 0.61 0.73 0.85 0.91 0.85 0.84
0.00 0.00 0.00 0.00 0.00 0.00 0.00 0.00 0.00 0.00 0.00 0.00 0.00 0.02 0.10 0.09 0.20 0.21 0.10 0.09 0.18 0.17 0.10 0.11 0.16 0.11 0.22 0.23 0.20 0.22 0.23 0.24 0.18 0.25 0.40 0.56 0.59 0.66 0.83 0.74 0.68 0.70 0.70
0.00 0.00 0.00 0.00 0.00 0.00 0.00 0.00 0.00 0.00 0.00 0.00 0.00 0.07 0.18 0.13 0.09 0.16 0.23 0.10 0.09 0.10 0.06 0.03 0.05 0.12 0.10 0.15 0.19 0.13 0.15 0.21 0.34 0.35 0.41 0.50 0.56 0.55 0.57 0.74 0.81 0.78 0.62
0.00 0.00 0.00 0.00 0.00 0.00 0.00 0.00 0.00 0.00 0.00 0.00 0.00 0.01 0.08 0.29 0.28 0.20 0.15 0.16 0.12 0.06 0.13 0.15 0.13 0.14 0.08 0.11 0.16 0.25 0.26 0.22 0.26 0.37 0.45 0.52 0.53 0.55 0.56 0.57 0.62 0.66 0.64
0.00 0.00 0.00 0.00 0.00 0.00 0.00 0.00 0.00 0.00 0.00 0.00 0.00 0.00 0.03 0.07 0.13 0.20 0.21 0.21 0.17 0.11 0.10 0.19 0.31 0.32 0.22 0.15 0.16 0.22 0.29 0.29 0.33 0.38 0.42 0.48 0.53 0.57 0.58 0.61 0.62 0.57 0.54
0.00 0.00 0.00 0.00 0.00 0.00 0.00 0.00 0.01 0.01 0.01 0.01 0.01 0.01 0.03 0.13 0.12 0.09 0.10 0.14 0.16 0.16 0.16 0.13 0.11 0.12 0.20 0.26 0.28 0.23 0.17 0.21 0.31 0.39 0.40 0.38 0.36 0.38 0.45 0.47 0.48 0.50 0.52
0.00 0.00 0.00 0.00 0.00 0.00 0.00 0.00 0.01 0.01 0.03 0.05 0.03 0.03 0.04 0.11 0.19 0.21 0.17 0.13 0.14 0.13 0.12 0.10 0.11 0.11 0.10 0.14 0.14 0.12 0.12 0.18 0.19 0.19 0.19 0.17 0.19 0.22 0.27 0.32 0.31 0.31 0.36
0.01 0.01 0.01 0.01 0.00 0.00 0.00 0.00 0.00 0.00 0.00 0.01 0.01 0.03 0.05 0.12 0.25 0.25 0.26 0.22 0.20 0.21 0.14 0.10 0.11 0.13 0.15 0.13 0.14 0.17 0.14 0.10 0.07 0.07 0.05 0.04 0.07 0.09 0.13 0.21 0.26 0.28 0.30
0.01 0.01 0.01 0.01 0.01 0.02 0.01 0.02 0.01 0.00 0.00 0.02 0.03 0.04 0.06 0.12 0.16 0.23 0.25 0.28 0.28 0.21 0.12 0.10 0.10 0.10 0.13 0.16 0.15 0.13 0.12 0.13 0.10 0.07 0.04 0.03 0.04 0.07 0.10 0.10 0.13 0.14 0.18
0.00 0.01 0.02 0.02 0.03 0.03 0.03 0.03 0.02 0.02 0.02 0.03 0.06 0.11 0.13 0.16 0.21 0.26 0.28 0.24 0.20 0.20 0.19 0.17 0.16 0.16 0.16 0.17 0.17 0.17 0.17 0.15 0.12 0.09 0.08 0.08 0.08 0.07 0.07 0.07 0.07 0.07 0.07
0.01 0.03 0.04 0.06 0.07 0.07 0.05 0.03 0.02 0.01 0.02 0.03 0.05 0.09 0.13 0.15 0.15 0.20 0.25 0.26 0.28 0.30 0.34 0.38 0.40 0.37 0.36 0.33 0.31 0.30 0.27 0.27 0.22 0.16 0.13 0.08 0.07 0.05 0.06 0.05 0.05 0.04 0.03
0.02 0.02 0.04 0.07 0.06 0.08 0.09 0.06 0.04 0.03 0.03 0.03 0.05 0.10 0.11 0.12 0.18 0.28 0.36 0.44 0.53 0.61 0.61 0.64 0.67 0.71 0.70 0.72 0.71 0.65 0.58 0.52 0.42 0.33 0.23 0.13 0.08 0.06 0.05 0.05 0.04 0.04 0.03
0.02 0.03 0.05 0.06 0.07 0.10 0.12 0.09 0.06 0.04 0.05 0.06 0.10 0.15 0.16 0.18 0.29 0.39 0.46 0.51 0.55 0.62 0.71 0.72 0.77 0.75 0.77 0.75 0.72 0.72 0.70 0.68 0.57 0.45 0.33 0.22 0.14 0.11 0.08 0.05 0.04 0.03 0.02
0.01 0.02 0.04 0.07 0.09 0.10 0.11 0.11 0.08 0.06 0.07 0.09 0.13 0.16 0.17 0.20 0.28 0.35 0.46 0.53 0.59 0.62 0.63 0.60 0.63 0.66 0.68 0.64 0.59 0.56 0.54 0.53 0.51 0.44 0.34 0.24 0.17 0.12 0.08 0.06 0.05 0.05 0.04
0.01 0.01 0.02 0.03 0.05 0.07 0.08 0.09 0.08 0.07 0.09 0.12 0.16 0.18 0.22 0.27 0.31 0.35 0.39 0.47 0.52 0.57 0.61 0.57 0.51 0.50 0.48 0.47 0.46 0.42 0.39 0.40 0.37 0.32 0.29 0.25 0.20 0.16 0.12 0.09 0.07 0.06 0.04
0.01 0.01 0.01 0.03 0.04 0.05 0.06 0.08 0.09 0.09 0.10 0.13 0.17 0.20 0.23 0.28 0.33 0.38 0.41 0.44 0.43 0.44 0.43 0.41 0.39 0.37 0.36 0.35 0.35 0.35 0.34 0.33 0.30 0.26 0.19 0.16 0.14 0.12 0.09 0.07 0.06 0.04 0.03
0.02 0.02 0.02 0.02 0.03 0.04 0.06 0.07 0.09 0.10 0.11 0.13 0.16 0.19 0.23 0.26 0.28 0.32 0.35 0.36 0.36 0.35 0.36 0.37 0.38 0.37 0.35 0.33 0.31 0.29 0.27 0.24 0.22 0.19 0.16 0.13 0.10 0.08 0.06 0.05 0.04 0.03 0.02
0.03 0.03 0.03 0.03 0.03 0.04 0.04 0.05 0.07 0.10 0.11 0.13 0.15 0.17 0.20 0.22 0.23 0.24 0.25 0.25 0.24 0.25 0.25 0.25 0.24 0.23 0.22 0.22 0.21 0.19 0.18 0.16 0.14 0.11 0.08 0.07 0.06 0.05 0.05 0.04 0.03 0.02 0.01